<?xml version="1.0" encoding="UTF-8" standalone="no" ?>
<gpx xmlns="http://www.topografix.com/GPX/1/1" xmlns:xsi="http://www.w3.org/2001/XMLSchema-instance" xsi:schemaLocation="http://www.topografix.com/GPX/1/1 http://www.topografix.com/GPX/1/1/gpx.xsd" version="1.1" creator="VisuGPX - https://www.visugpx.com">
  <metadata>
    <name>Mont Forchat par Trecou</name>
    <desc><![CDATA[Sortie Rando depart du col de feu, montée par Trécou et descente par la Plagne]]></desc>
  </metadata>
  <trk>
    <name><![CDATA[Rando Forchat 03/03/2013 14:10]]></name>
    <desc><![CDATA[]]></desc>
    <trkseg>
      <trkpt lat="46.29496" lon="6.50681">
        <ele>1078.8</ele>
        <time>2013-03-03T13:15:35.000Z</time>
      </trkpt>
      <trkpt lat="46.29507" lon="6.50667">
        <ele>1047.7</ele>
        <time>2013-03-03T13:15:51.000Z</time>
      </trkpt>
      <trkpt lat="46.29487" lon="6.50709">
        <ele>1070.9</ele>
        <time>2013-03-03T13:15:52.000Z</time>
      </trkpt>
      <trkpt lat="46.29469" lon="6.50747">
        <ele>1092.2</ele>
        <time>2013-03-03T13:15:53.000Z</time>
      </trkpt>
      <trkpt lat="46.29452" lon="6.50782">
        <ele>1111.1</ele>
        <time>2013-03-03T13:15:54.000Z</time>
      </trkpt>
      <trkpt lat="46.29443" lon="6.50803">
        <ele>1121.2</ele>
        <time>2013-03-03T13:15:55.000Z</time>
      </trkpt>
      <trkpt lat="46.29439" lon="6.50811">
        <ele>1124.2</ele>
        <time>2013-03-03T13:15:56.000Z</time>
      </trkpt>
      <trkpt lat="46.29436" lon="6.50813">
        <ele>1128.9</ele>
        <time>2013-03-03T13:15:57.000Z</time>
      </trkpt>
      <trkpt lat="46.29434" lon="6.50815">
        <ele>1133.2</ele>
        <time>2013-03-03T13:15:58.000Z</time>
      </trkpt>
      <trkpt lat="46.29431" lon="6.50818">
        <ele>1139.9</ele>
        <time>2013-03-03T13:16:12.000Z</time>
      </trkpt>
      <trkpt lat="46.29429" lon="6.50822">
        <ele>1154.8</ele>
        <time>2013-03-03T13:16:13.000Z</time>
      </trkpt>
      <trkpt lat="46.29427" lon="6.50816">
        <ele>1159.5</ele>
        <time>2013-03-03T13:16:17.000Z</time>
      </trkpt>
      <trkpt lat="46.29425" lon="6.50815">
        <ele>1160.1</ele>
        <time>2013-03-03T13:16:18.000Z</time>
      </trkpt>
      <trkpt lat="46.29423" lon="6.5081">
        <ele>1161.6</ele>
        <time>2013-03-03T13:16:22.000Z</time>
      </trkpt>
      <trkpt lat="46.29423" lon="6.50809">
        <ele>1162.2</ele>
        <time>2013-03-03T13:16:23.000Z</time>
      </trkpt>
      <trkpt lat="46.29421" lon="6.50803">
        <ele>1163.5</ele>
        <time>2013-03-03T13:16:28.000Z</time>
      </trkpt>
      <trkpt lat="46.29421" lon="6.50801">
        <ele>1163.9</ele>
        <time>2013-03-03T13:16:29.000Z</time>
      </trkpt>
      <trkpt lat="46.29421" lon="6.50795">
        <ele>1166.2</ele>
        <time>2013-03-03T13:16:33.000Z</time>
      </trkpt>
      <trkpt lat="46.2942" lon="6.50794">
        <ele>1166.8</ele>
        <time>2013-03-03T13:16:34.000Z</time>
      </trkpt>
      <trkpt lat="46.29419" lon="6.50789">
        <ele>1169.2</ele>
        <time>2013-03-03T13:16:38.000Z</time>
      </trkpt>
      <trkpt lat="46.29419" lon="6.50787">
        <ele>1169.4</ele>
        <time>2013-03-03T13:16:39.000Z</time>
      </trkpt>
      <trkpt lat="46.2942" lon="6.50781">
        <ele>1171.1</ele>
        <time>2013-03-03T13:16:44.000Z</time>
      </trkpt>
      <trkpt lat="46.29419" lon="6.5078">
        <ele>1171.9</ele>
        <time>2013-03-03T13:16:45.000Z</time>
      </trkpt>
      <trkpt lat="46.2942" lon="6.50774">
        <ele>1177.2</ele>
        <time>2013-03-03T13:17:00.000Z</time>
      </trkpt>
      <trkpt lat="46.2942" lon="6.50773">
        <ele>1177.8</ele>
        <time>2013-03-03T13:17:01.000Z</time>
      </trkpt>
      <trkpt lat="46.29419" lon="6.50768">
        <ele>1178.7</ele>
        <time>2013-03-03T13:17:04.000Z</time>
      </trkpt>
      <trkpt lat="46.29419" lon="6.50766">
        <ele>1178.9</ele>
        <time>2013-03-03T13:17:05.000Z</time>
      </trkpt>
      <trkpt lat="46.29418" lon="6.5076">
        <ele>1180.2</ele>
        <time>2013-03-03T13:17:09.000Z</time>
      </trkpt>
      <trkpt lat="46.29418" lon="6.50759">
        <ele>1180.4</ele>
        <time>2013-03-03T13:17:10.000Z</time>
      </trkpt>
      <trkpt lat="46.29417" lon="6.50754">
        <ele>1181.6</ele>
        <time>2013-03-03T13:17:15.000Z</time>
      </trkpt>
      <trkpt lat="46.29417" lon="6.50753">
        <ele>1181.7</ele>
        <time>2013-03-03T13:17:16.000Z</time>
      </trkpt>
      <trkpt lat="46.29415" lon="6.50747">
        <ele>1182.9</ele>
        <time>2013-03-03T13:17:21.000Z</time>
      </trkpt>
      <trkpt lat="46.29415" lon="6.50745">
        <ele>1183.3</ele>
        <time>2013-03-03T13:17:22.000Z</time>
      </trkpt>
      <trkpt lat="46.29413" lon="6.50741">
        <ele>1184.2</ele>
        <time>2013-03-03T13:17:27.000Z</time>
      </trkpt>
      <trkpt lat="46.29412" lon="6.50739">
        <ele>1184.7</ele>
        <time>2013-03-03T13:17:28.000Z</time>
      </trkpt>
      <trkpt lat="46.29411" lon="6.50734">
        <ele>1185</ele>
        <time>2013-03-03T13:17:32.000Z</time>
      </trkpt>
      <trkpt lat="46.2941" lon="6.50733">
        <ele>1185.1</ele>
        <time>2013-03-03T13:17:33.000Z</time>
      </trkpt>
      <trkpt lat="46.29408" lon="6.50728">
        <ele>1185.1</ele>
        <time>2013-03-03T13:17:38.000Z</time>
      </trkpt>
      <trkpt lat="46.29408" lon="6.50727">
        <ele>1185.1</ele>
        <time>2013-03-03T13:17:39.000Z</time>
      </trkpt>
      <trkpt lat="46.29407" lon="6.50726">
        <ele>1185.1</ele>
        <time>2013-03-03T13:18:13.000Z</time>
      </trkpt>
      <trkpt lat="46.29407" lon="6.50718">
        <ele>1185.9</ele>
        <time>2013-03-03T13:18:14.000Z</time>
      </trkpt>
      <trkpt lat="46.29405" lon="6.50713">
        <ele>1186.6</ele>
        <time>2013-03-03T13:18:20.000Z</time>
      </trkpt>
      <trkpt lat="46.29405" lon="6.50712">
        <ele>1186.9</ele>
        <time>2013-03-03T13:18:21.000Z</time>
      </trkpt>
      <trkpt lat="46.29406" lon="6.50707">
        <ele>1187.5</ele>
        <time>2013-03-03T13:18:25.000Z</time>
      </trkpt>
      <trkpt lat="46.29406" lon="6.50705">
        <ele>1188</ele>
        <time>2013-03-03T13:18:26.000Z</time>
      </trkpt>
      <trkpt lat="46.29406" lon="6.507">
        <ele>1188.2</ele>
        <time>2013-03-03T13:18:29.000Z</time>
      </trkpt>
      <trkpt lat="46.29406" lon="6.50698">
        <ele>1188.3</ele>
        <time>2013-03-03T13:18:30.000Z</time>
      </trkpt>
      <trkpt lat="46.29407" lon="6.50693">
        <ele>1189.1</ele>
        <time>2013-03-03T13:18:32.000Z</time>
      </trkpt>
      <trkpt lat="46.29408" lon="6.5069">
        <ele>1189.3</ele>
        <time>2013-03-03T13:18:33.000Z</time>
      </trkpt>
      <trkpt lat="46.29408" lon="6.50686">
        <ele>1189.6</ele>
        <time>2013-03-03T13:18:35.000Z</time>
      </trkpt>
      <trkpt lat="46.29409" lon="6.50684">
        <ele>1189.7</ele>
        <time>2013-03-03T13:18:36.000Z</time>
      </trkpt>
      <trkpt lat="46.29408" lon="6.50678">
        <ele>1189.7</ele>
        <time>2013-03-03T13:18:39.000Z</time>
      </trkpt>
      <trkpt lat="46.29408" lon="6.50676">
        <ele>1189.9</ele>
        <time>2013-03-03T13:18:40.000Z</time>
      </trkpt>
      <trkpt lat="46.29409" lon="6.50671">
        <ele>1190.6</ele>
        <time>2013-03-03T13:18:44.000Z</time>
      </trkpt>
      <trkpt lat="46.29409" lon="6.5067">
        <ele>1190.4</ele>
        <time>2013-03-03T13:18:45.000Z</time>
      </trkpt>
      <trkpt lat="46.29408" lon="6.50665">
        <ele>1190.8</ele>
        <time>2013-03-03T13:18:47.000Z</time>
      </trkpt>
      <trkpt lat="46.29407" lon="6.50663">
        <ele>1191.3</ele>
        <time>2013-03-03T13:18:48.000Z</time>
      </trkpt>
      <trkpt lat="46.29405" lon="6.50658">
        <ele>1191.3</ele>
        <time>2013-03-03T13:18:51.000Z</time>
      </trkpt>
      <trkpt lat="46.29404" lon="6.50656">
        <ele>1191.4</ele>
        <time>2013-03-03T13:18:52.000Z</time>
      </trkpt>
      <trkpt lat="46.29403" lon="6.50652">
        <ele>1191.7</ele>
        <time>2013-03-03T13:18:54.000Z</time>
      </trkpt>
      <trkpt lat="46.29402" lon="6.5065">
        <ele>1191.6</ele>
        <time>2013-03-03T13:18:55.000Z</time>
      </trkpt>
      <trkpt lat="46.29401" lon="6.50644">
        <ele>1191.6</ele>
        <time>2013-03-03T13:18:57.000Z</time>
      </trkpt>
      <trkpt lat="46.294" lon="6.50643">
        <ele>1191.4</ele>
        <time>2013-03-03T13:18:58.000Z</time>
      </trkpt>
      <trkpt lat="46.294" lon="6.50638">
        <ele>1191.6</ele>
        <time>2013-03-03T13:19:01.000Z</time>
      </trkpt>
      <trkpt lat="46.294" lon="6.50635">
        <ele>1191.7</ele>
        <time>2013-03-03T13:19:02.000Z</time>
      </trkpt>
      <trkpt lat="46.29401" lon="6.50629">
        <ele>1192</ele>
        <time>2013-03-03T13:19:04.000Z</time>
      </trkpt>
      <trkpt lat="46.29401" lon="6.50627">
        <ele>1192.2</ele>
        <time>2013-03-03T13:19:05.000Z</time>
      </trkpt>
      <trkpt lat="46.29402" lon="6.50622">
        <ele>1192.6</ele>
        <time>2013-03-03T13:19:07.000Z</time>
      </trkpt>
      <trkpt lat="46.29402" lon="6.5062">
        <ele>1192.8</ele>
        <time>2013-03-03T13:19:08.000Z</time>
      </trkpt>
      <trkpt lat="46.29403" lon="6.50615">
        <ele>1192.9</ele>
        <time>2013-03-03T13:19:10.000Z</time>
      </trkpt>
      <trkpt lat="46.29403" lon="6.50613">
        <ele>1193</ele>
        <time>2013-03-03T13:19:11.000Z</time>
      </trkpt>
      <trkpt lat="46.29403" lon="6.50609">
        <ele>1193.3</ele>
        <time>2013-03-03T13:19:14.000Z</time>
      </trkpt>
      <trkpt lat="46.29403" lon="6.50607">
        <ele>1193.3</ele>
        <time>2013-03-03T13:19:15.000Z</time>
      </trkpt>
      <trkpt lat="46.29402" lon="6.50601">
        <ele>1192.6</ele>
        <time>2013-03-03T13:19:18.000Z</time>
      </trkpt>
      <trkpt lat="46.29402" lon="6.50599">
        <ele>1192.3</ele>
        <time>2013-03-03T13:19:19.000Z</time>
      </trkpt>
      <trkpt lat="46.29401" lon="6.50595">
        <ele>1191.9</ele>
        <time>2013-03-03T13:19:21.000Z</time>
      </trkpt>
      <trkpt lat="46.29401" lon="6.50593">
        <ele>1191.6</ele>
        <time>2013-03-03T13:19:22.000Z</time>
      </trkpt>
      <trkpt lat="46.29401" lon="6.50588">
        <ele>1190.4</ele>
        <time>2013-03-03T13:19:25.000Z</time>
      </trkpt>
      <trkpt lat="46.29401" lon="6.50585">
        <ele>1190</ele>
        <time>2013-03-03T13:19:26.000Z</time>
      </trkpt>
      <trkpt lat="46.29401" lon="6.5058">
        <ele>1189.5</ele>
        <time>2013-03-03T13:19:28.000Z</time>
      </trkpt>
      <trkpt lat="46.29402" lon="6.50577">
        <ele>1189.4</ele>
        <time>2013-03-03T13:19:29.000Z</time>
      </trkpt>
      <trkpt lat="46.29402" lon="6.50572">
        <ele>1189.7</ele>
        <time>2013-03-03T13:19:31.000Z</time>
      </trkpt>
      <trkpt lat="46.29402" lon="6.50569">
        <ele>1189.8</ele>
        <time>2013-03-03T13:19:32.000Z</time>
      </trkpt>
      <trkpt lat="46.29402" lon="6.50564">
        <ele>1189.9</ele>
        <time>2013-03-03T13:19:34.000Z</time>
      </trkpt>
      <trkpt lat="46.29402" lon="6.5056">
        <ele>1190.3</ele>
        <time>2013-03-03T13:19:35.000Z</time>
      </trkpt>
      <trkpt lat="46.29401" lon="6.50554">
        <ele>1190.9</ele>
        <time>2013-03-03T13:19:37.000Z</time>
      </trkpt>
      <trkpt lat="46.29401" lon="6.50551">
        <ele>1191.4</ele>
        <time>2013-03-03T13:19:38.000Z</time>
      </trkpt>
      <trkpt lat="46.29401" lon="6.50545">
        <ele>1191.5</ele>
        <time>2013-03-03T13:19:41.000Z</time>
      </trkpt>
      <trkpt lat="46.29401" lon="6.50544">
        <ele>1191.6</ele>
        <time>2013-03-03T13:19:42.000Z</time>
      </trkpt>
      <trkpt lat="46.29402" lon="6.50537">
        <ele>1192.1</ele>
        <time>2013-03-03T13:19:45.000Z</time>
      </trkpt>
      <trkpt lat="46.29402" lon="6.50535">
        <ele>1192.3</ele>
        <time>2013-03-03T13:19:46.000Z</time>
      </trkpt>
      <trkpt lat="46.29404" lon="6.5053">
        <ele>1192.9</ele>
        <time>2013-03-03T13:19:49.000Z</time>
      </trkpt>
      <trkpt lat="46.29405" lon="6.50528">
        <ele>1193.3</ele>
        <time>2013-03-03T13:19:50.000Z</time>
      </trkpt>
      <trkpt lat="46.29407" lon="6.50525">
        <ele>1194</ele>
        <time>2013-03-03T13:19:52.000Z</time>
      </trkpt>
      <trkpt lat="46.29409" lon="6.50524">
        <ele>1194.2</ele>
        <time>2013-03-03T13:19:53.000Z</time>
      </trkpt>
      <trkpt lat="46.29411" lon="6.50522">
        <ele>1194.6</ele>
        <time>2013-03-03T13:19:55.000Z</time>
      </trkpt>
      <trkpt lat="46.29412" lon="6.5052">
        <ele>1194.8</ele>
        <time>2013-03-03T13:19:56.000Z</time>
      </trkpt>
      <trkpt lat="46.29415" lon="6.50517">
        <ele>1195.4</ele>
        <time>2013-03-03T13:19:58.000Z</time>
      </trkpt>
      <trkpt lat="46.29416" lon="6.50515">
        <ele>1195.7</ele>
        <time>2013-03-03T13:19:59.000Z</time>
      </trkpt>
      <trkpt lat="46.29419" lon="6.50511">
        <ele>1196.2</ele>
        <time>2013-03-03T13:20:02.000Z</time>
      </trkpt>
      <trkpt lat="46.29421" lon="6.50509">
        <ele>1196.3</ele>
        <time>2013-03-03T13:20:03.000Z</time>
      </trkpt>
      <trkpt lat="46.29423" lon="6.50504">
        <ele>1196.9</ele>
        <time>2013-03-03T13:20:06.000Z</time>
      </trkpt>
      <trkpt lat="46.29425" lon="6.50502">
        <ele>1197.1</ele>
        <time>2013-03-03T13:20:07.000Z</time>
      </trkpt>
      <trkpt lat="46.29428" lon="6.50499">
        <ele>1197.1</ele>
        <time>2013-03-03T13:20:10.000Z</time>
      </trkpt>
      <trkpt lat="46.29428" lon="6.50497">
        <ele>1197.1</ele>
        <time>2013-03-03T13:20:11.000Z</time>
      </trkpt>
      <trkpt lat="46.29431" lon="6.50495">
        <ele>1197.1</ele>
        <time>2013-03-03T13:20:14.000Z</time>
      </trkpt>
      <trkpt lat="46.29433" lon="6.50494">
        <ele>1197.1</ele>
        <time>2013-03-03T13:20:15.000Z</time>
      </trkpt>
      <trkpt lat="46.29436" lon="6.50491">
        <ele>1197</ele>
        <time>2013-03-03T13:20:18.000Z</time>
      </trkpt>
      <trkpt lat="46.29437" lon="6.50489">
        <ele>1197.1</ele>
        <time>2013-03-03T13:20:19.000Z</time>
      </trkpt>
      <trkpt lat="46.2944" lon="6.50486">
        <ele>1196.8</ele>
        <time>2013-03-03T13:20:22.000Z</time>
      </trkpt>
      <trkpt lat="46.2944" lon="6.50484">
        <ele>1196.7</ele>
        <time>2013-03-03T13:20:23.000Z</time>
      </trkpt>
      <trkpt lat="46.29443" lon="6.5048">
        <ele>1196.1</ele>
        <time>2013-03-03T13:20:26.000Z</time>
      </trkpt>
      <trkpt lat="46.29444" lon="6.50479">
        <ele>1196.2</ele>
        <time>2013-03-03T13:20:27.000Z</time>
      </trkpt>
      <trkpt lat="46.29448" lon="6.50477">
        <ele>1195.5</ele>
        <time>2013-03-03T13:20:30.000Z</time>
      </trkpt>
      <trkpt lat="46.29449" lon="6.50476">
        <ele>1195.5</ele>
        <time>2013-03-03T13:20:31.000Z</time>
      </trkpt>
      <trkpt lat="46.29449" lon="6.50476">
        <ele>1195.1</ele>
        <time>2013-03-03T13:20:32.000Z</time>
      </trkpt>
      <trkpt lat="46.29464" lon="6.50452">
        <ele>1190.8</ele>
        <time>2013-03-03T13:20:53.000Z</time>
      </trkpt>
      <trkpt lat="46.29468" lon="6.5045">
        <ele>1191.7</ele>
        <time>2013-03-03T13:20:56.000Z</time>
      </trkpt>
      <trkpt lat="46.29469" lon="6.50449">
        <ele>1192.4</ele>
        <time>2013-03-03T13:20:57.000Z</time>
      </trkpt>
      <trkpt lat="46.29473" lon="6.50446">
        <ele>1193.2</ele>
        <time>2013-03-03T13:21:02.000Z</time>
      </trkpt>
      <trkpt lat="46.29474" lon="6.50446">
        <ele>1193.5</ele>
        <time>2013-03-03T13:21:03.000Z</time>
      </trkpt>
      <trkpt lat="46.29477" lon="6.50443">
        <ele>1192.3</ele>
        <time>2013-03-03T13:21:07.000Z</time>
      </trkpt>
      <trkpt lat="46.29479" lon="6.50442">
        <ele>1192.8</ele>
        <time>2013-03-03T13:21:08.000Z</time>
      </trkpt>
      <trkpt lat="46.29482" lon="6.50439">
        <ele>1192.8</ele>
        <time>2013-03-03T13:21:12.000Z</time>
      </trkpt>
      <trkpt lat="46.29483" lon="6.50439">
        <ele>1193</ele>
        <time>2013-03-03T13:21:13.000Z</time>
      </trkpt>
      <trkpt lat="46.29487" lon="6.50436">
        <ele>1190.1</ele>
        <time>2013-03-03T13:21:21.000Z</time>
      </trkpt>
      <trkpt lat="46.29488" lon="6.50436">
        <ele>1189.6</ele>
        <time>2013-03-03T13:21:22.000Z</time>
      </trkpt>
      <trkpt lat="46.29492" lon="6.50434">
        <ele>1184.8</ele>
        <time>2013-03-03T13:21:31.000Z</time>
      </trkpt>
      <trkpt lat="46.29492" lon="6.50433">
        <ele>1184.8</ele>
        <time>2013-03-03T13:21:32.000Z</time>
      </trkpt>
      <trkpt lat="46.29493" lon="6.50433">
        <ele>1184.9</ele>
        <time>2013-03-03T13:21:33.000Z</time>
      </trkpt>
      <trkpt lat="46.29512" lon="6.50417">
        <ele>1186.4</ele>
        <time>2013-03-03T13:21:53.000Z</time>
      </trkpt>
      <trkpt lat="46.29515" lon="6.50415">
        <ele>1186.7</ele>
        <time>2013-03-03T13:21:56.000Z</time>
      </trkpt>
      <trkpt lat="46.29516" lon="6.50415">
        <ele>1187.5</ele>
        <time>2013-03-03T13:21:57.000Z</time>
      </trkpt>
      <trkpt lat="46.29519" lon="6.50412">
        <ele>1187.4</ele>
        <time>2013-03-03T13:22:00.000Z</time>
      </trkpt>
      <trkpt lat="46.2952" lon="6.50411">
        <ele>1186.2</ele>
        <time>2013-03-03T13:22:01.000Z</time>
      </trkpt>
      <trkpt lat="46.29522" lon="6.50407">
        <ele>1183.7</ele>
        <time>2013-03-03T13:22:04.000Z</time>
      </trkpt>
      <trkpt lat="46.29523" lon="6.50406">
        <ele>1183.3</ele>
        <time>2013-03-03T13:22:05.000Z</time>
      </trkpt>
      <trkpt lat="46.29527" lon="6.50403">
        <ele>1183.3</ele>
        <time>2013-03-03T13:22:08.000Z</time>
      </trkpt>
      <trkpt lat="46.29528" lon="6.50402">
        <ele>1183.2</ele>
        <time>2013-03-03T13:22:09.000Z</time>
      </trkpt>
      <trkpt lat="46.29531" lon="6.504">
        <ele>1183</ele>
        <time>2013-03-03T13:22:11.000Z</time>
      </trkpt>
      <trkpt lat="46.29533" lon="6.50399">
        <ele>1183.5</ele>
        <time>2013-03-03T13:22:12.000Z</time>
      </trkpt>
      <trkpt lat="46.29536" lon="6.50398">
        <ele>1184.5</ele>
        <time>2013-03-03T13:22:14.000Z</time>
      </trkpt>
      <trkpt lat="46.29537" lon="6.50396">
        <ele>1184.4</ele>
        <time>2013-03-03T13:22:15.000Z</time>
      </trkpt>
      <trkpt lat="46.2954" lon="6.50393">
        <ele>1184.2</ele>
        <time>2013-03-03T13:22:17.000Z</time>
      </trkpt>
      <trkpt lat="46.29541" lon="6.50392">
        <ele>1184.7</ele>
        <time>2013-03-03T13:22:18.000Z</time>
      </trkpt>
      <trkpt lat="46.29544" lon="6.50389">
        <ele>1184.2</ele>
        <time>2013-03-03T13:22:20.000Z</time>
      </trkpt>
      <trkpt lat="46.29545" lon="6.50388">
        <ele>1184.3</ele>
        <time>2013-03-03T13:22:21.000Z</time>
      </trkpt>
      <trkpt lat="46.29548" lon="6.50384">
        <ele>1184</ele>
        <time>2013-03-03T13:22:24.000Z</time>
      </trkpt>
      <trkpt lat="46.29549" lon="6.50383">
        <ele>1183.6</ele>
        <time>2013-03-03T13:22:25.000Z</time>
      </trkpt>
      <trkpt lat="46.29552" lon="6.50379">
        <ele>1183.9</ele>
        <time>2013-03-03T13:22:28.000Z</time>
      </trkpt>
      <trkpt lat="46.29553" lon="6.50377">
        <ele>1184.1</ele>
        <time>2013-03-03T13:22:29.000Z</time>
      </trkpt>
      <trkpt lat="46.29556" lon="6.50372">
        <ele>1182.7</ele>
        <time>2013-03-03T13:22:32.000Z</time>
      </trkpt>
      <trkpt lat="46.29557" lon="6.50371">
        <ele>1183.3</ele>
        <time>2013-03-03T13:22:33.000Z</time>
      </trkpt>
      <trkpt lat="46.2956" lon="6.50367">
        <ele>1183.1</ele>
        <time>2013-03-03T13:22:36.000Z</time>
      </trkpt>
      <trkpt lat="46.29561" lon="6.50365">
        <ele>1183.1</ele>
        <time>2013-03-03T13:22:37.000Z</time>
      </trkpt>
      <trkpt lat="46.29564" lon="6.50362">
        <ele>1183</ele>
        <time>2013-03-03T13:22:39.000Z</time>
      </trkpt>
      <trkpt lat="46.29565" lon="6.5036">
        <ele>1182.8</ele>
        <time>2013-03-03T13:22:40.000Z</time>
      </trkpt>
      <trkpt lat="46.29567" lon="6.50356">
        <ele>1182.7</ele>
        <time>2013-03-03T13:22:43.000Z</time>
      </trkpt>
      <trkpt lat="46.29568" lon="6.50355">
        <ele>1182.6</ele>
        <time>2013-03-03T13:22:44.000Z</time>
      </trkpt>
      <trkpt lat="46.29571" lon="6.50351">
        <ele>1182.4</ele>
        <time>2013-03-03T13:22:47.000Z</time>
      </trkpt>
      <trkpt lat="46.29572" lon="6.5035">
        <ele>1182.4</ele>
        <time>2013-03-03T13:22:48.000Z</time>
      </trkpt>
      <trkpt lat="46.29575" lon="6.50346">
        <ele>1181.8</ele>
        <time>2013-03-03T13:22:51.000Z</time>
      </trkpt>
      <trkpt lat="46.29575" lon="6.50345">
        <ele>1181.3</ele>
        <time>2013-03-03T13:22:52.000Z</time>
      </trkpt>
      <trkpt lat="46.29579" lon="6.5034">
        <ele>1181</ele>
        <time>2013-03-03T13:22:55.000Z</time>
      </trkpt>
      <trkpt lat="46.2958" lon="6.50339">
        <ele>1180.4</ele>
        <time>2013-03-03T13:22:56.000Z</time>
      </trkpt>
      <trkpt lat="46.29583" lon="6.50335">
        <ele>1179.7</ele>
        <time>2013-03-03T13:22:59.000Z</time>
      </trkpt>
      <trkpt lat="46.29583" lon="6.50334">
        <ele>1179.6</ele>
        <time>2013-03-03T13:23:00.000Z</time>
      </trkpt>
      <trkpt lat="46.29586" lon="6.50331">
        <ele>1179.8</ele>
        <time>2013-03-03T13:23:03.000Z</time>
      </trkpt>
      <trkpt lat="46.29587" lon="6.5033">
        <ele>1179.7</ele>
        <time>2013-03-03T13:23:04.000Z</time>
      </trkpt>
      <trkpt lat="46.2959" lon="6.50326">
        <ele>1179.2</ele>
        <time>2013-03-03T13:23:07.000Z</time>
      </trkpt>
      <trkpt lat="46.29591" lon="6.50324">
        <ele>1179.2</ele>
        <time>2013-03-03T13:23:08.000Z</time>
      </trkpt>
      <trkpt lat="46.29594" lon="6.5032">
        <ele>1179.1</ele>
        <time>2013-03-03T13:23:11.000Z</time>
      </trkpt>
      <trkpt lat="46.29595" lon="6.50319">
        <ele>1179.4</ele>
        <time>2013-03-03T13:23:12.000Z</time>
      </trkpt>
      <trkpt lat="46.29598" lon="6.50316">
        <ele>1179.2</ele>
        <time>2013-03-03T13:23:15.000Z</time>
      </trkpt>
      <trkpt lat="46.29599" lon="6.50314">
        <ele>1179</ele>
        <time>2013-03-03T13:23:16.000Z</time>
      </trkpt>
      <trkpt lat="46.29602" lon="6.50311">
        <ele>1178.5</ele>
        <time>2013-03-03T13:23:20.000Z</time>
      </trkpt>
      <trkpt lat="46.29604" lon="6.5031">
        <ele>1178.5</ele>
        <time>2013-03-03T13:23:21.000Z</time>
      </trkpt>
      <trkpt lat="46.29606" lon="6.50306">
        <ele>1178.3</ele>
        <time>2013-03-03T13:23:24.000Z</time>
      </trkpt>
      <trkpt lat="46.29607" lon="6.50305">
        <ele>1178.2</ele>
        <time>2013-03-03T13:23:25.000Z</time>
      </trkpt>
      <trkpt lat="46.29611" lon="6.50301">
        <ele>1178.3</ele>
        <time>2013-03-03T13:23:28.000Z</time>
      </trkpt>
      <trkpt lat="46.29612" lon="6.503">
        <ele>1178.2</ele>
        <time>2013-03-03T13:23:29.000Z</time>
      </trkpt>
      <trkpt lat="46.29615" lon="6.50295">
        <ele>1178.1</ele>
        <time>2013-03-03T13:23:32.000Z</time>
      </trkpt>
      <trkpt lat="46.29616" lon="6.50293">
        <ele>1177.7</ele>
        <time>2013-03-03T13:23:33.000Z</time>
      </trkpt>
      <trkpt lat="46.29617" lon="6.50289">
        <ele>1177.1</ele>
        <time>2013-03-03T13:23:35.000Z</time>
      </trkpt>
      <trkpt lat="46.29618" lon="6.50287">
        <ele>1176.5</ele>
        <time>2013-03-03T13:23:36.000Z</time>
      </trkpt>
      <trkpt lat="46.29621" lon="6.50283">
        <ele>1176</ele>
        <time>2013-03-03T13:23:39.000Z</time>
      </trkpt>
      <trkpt lat="46.29622" lon="6.50281">
        <ele>1175.9</ele>
        <time>2013-03-03T13:23:40.000Z</time>
      </trkpt>
      <trkpt lat="46.29624" lon="6.50277">
        <ele>1175.7</ele>
        <time>2013-03-03T13:23:43.000Z</time>
      </trkpt>
      <trkpt lat="46.29625" lon="6.50276">
        <ele>1175.7</ele>
        <time>2013-03-03T13:23:44.000Z</time>
      </trkpt>
      <trkpt lat="46.29627" lon="6.50272">
        <ele>1175.1</ele>
        <time>2013-03-03T13:23:47.000Z</time>
      </trkpt>
      <trkpt lat="46.29628" lon="6.50271">
        <ele>1175</ele>
        <time>2013-03-03T13:23:48.000Z</time>
      </trkpt>
      <trkpt lat="46.2963" lon="6.50268">
        <ele>1174.5</ele>
        <time>2013-03-03T13:23:50.000Z</time>
      </trkpt>
      <trkpt lat="46.29632" lon="6.50266">
        <ele>1174.6</ele>
        <time>2013-03-03T13:23:51.000Z</time>
      </trkpt>
      <trkpt lat="46.29635" lon="6.50263">
        <ele>1174.4</ele>
        <time>2013-03-03T13:23:54.000Z</time>
      </trkpt>
      <trkpt lat="46.29636" lon="6.50261">
        <ele>1174.2</ele>
        <time>2013-03-03T13:23:55.000Z</time>
      </trkpt>
      <trkpt lat="46.29638" lon="6.50258">
        <ele>1174.2</ele>
        <time>2013-03-03T13:23:58.000Z</time>
      </trkpt>
      <trkpt lat="46.2964" lon="6.50257">
        <ele>1174.3</ele>
        <time>2013-03-03T13:23:59.000Z</time>
      </trkpt>
      <trkpt lat="46.29643" lon="6.50255">
        <ele>1175.2</ele>
        <time>2013-03-03T13:24:02.000Z</time>
      </trkpt>
      <trkpt lat="46.29644" lon="6.50254">
        <ele>1175.4</ele>
        <time>2013-03-03T13:24:03.000Z</time>
      </trkpt>
      <trkpt lat="46.29647" lon="6.50253">
        <ele>1175.9</ele>
        <time>2013-03-03T13:24:07.000Z</time>
      </trkpt>
      <trkpt lat="46.29648" lon="6.50252">
        <ele>1175.9</ele>
        <time>2013-03-03T13:24:08.000Z</time>
      </trkpt>
      <trkpt lat="46.29652" lon="6.5025">
        <ele>1176.2</ele>
        <time>2013-03-03T13:24:13.000Z</time>
      </trkpt>
      <trkpt lat="46.29653" lon="6.5025">
        <ele>1176.3</ele>
        <time>2013-03-03T13:24:14.000Z</time>
      </trkpt>
      <trkpt lat="46.29657" lon="6.50248">
        <ele>1176.6</ele>
        <time>2013-03-03T13:24:19.000Z</time>
      </trkpt>
      <trkpt lat="46.29658" lon="6.50248">
        <ele>1176.7</ele>
        <time>2013-03-03T13:24:20.000Z</time>
      </trkpt>
      <trkpt lat="46.29662" lon="6.50247">
        <ele>1177</ele>
        <time>2013-03-03T13:24:23.000Z</time>
      </trkpt>
      <trkpt lat="46.29663" lon="6.50246">
        <ele>1177</ele>
        <time>2013-03-03T13:24:24.000Z</time>
      </trkpt>
      <trkpt lat="46.29667" lon="6.50243">
        <ele>1177.1</ele>
        <time>2013-03-03T13:24:27.000Z</time>
      </trkpt>
      <trkpt lat="46.29668" lon="6.50243">
        <ele>1177.1</ele>
        <time>2013-03-03T13:24:28.000Z</time>
      </trkpt>
      <trkpt lat="46.29672" lon="6.5024">
        <ele>1177.6</ele>
        <time>2013-03-03T13:24:31.000Z</time>
      </trkpt>
      <trkpt lat="46.29673" lon="6.50239">
        <ele>1177.7</ele>
        <time>2013-03-03T13:24:32.000Z</time>
      </trkpt>
      <trkpt lat="46.29676" lon="6.50236">
        <ele>1177.7</ele>
        <time>2013-03-03T13:24:35.000Z</time>
      </trkpt>
      <trkpt lat="46.29677" lon="6.50236">
        <ele>1177.7</ele>
        <time>2013-03-03T13:24:36.000Z</time>
      </trkpt>
      <trkpt lat="46.29681" lon="6.50234">
        <ele>1178.9</ele>
        <time>2013-03-03T13:24:39.000Z</time>
      </trkpt>
      <trkpt lat="46.29682" lon="6.50233">
        <ele>1179.1</ele>
        <time>2013-03-03T13:24:40.000Z</time>
      </trkpt>
      <trkpt lat="46.29684" lon="6.50227">
        <ele>1179.6</ele>
        <time>2013-03-03T13:24:45.000Z</time>
      </trkpt>
      <trkpt lat="46.29685" lon="6.50226">
        <ele>1179.4</ele>
        <time>2013-03-03T13:24:46.000Z</time>
      </trkpt>
      <trkpt lat="46.29686" lon="6.5022">
        <ele>1178.9</ele>
        <time>2013-03-03T13:24:50.000Z</time>
      </trkpt>
      <trkpt lat="46.29686" lon="6.50219">
        <ele>1179</ele>
        <time>2013-03-03T13:24:51.000Z</time>
      </trkpt>
      <trkpt lat="46.29686" lon="6.50213">
        <ele>1179</ele>
        <time>2013-03-03T13:24:55.000Z</time>
      </trkpt>
      <trkpt lat="46.29685" lon="6.50212">
        <ele>1178.9</ele>
        <time>2013-03-03T13:24:56.000Z</time>
      </trkpt>
      <trkpt lat="46.29683" lon="6.50206">
        <ele>1179.2</ele>
        <time>2013-03-03T13:25:00.000Z</time>
      </trkpt>
      <trkpt lat="46.29683" lon="6.50204">
        <ele>1179.3</ele>
        <time>2013-03-03T13:25:01.000Z</time>
      </trkpt>
      <trkpt lat="46.29683" lon="6.50199">
        <ele>1179.7</ele>
        <time>2013-03-03T13:25:05.000Z</time>
      </trkpt>
      <trkpt lat="46.29683" lon="6.50197">
        <ele>1179.7</ele>
        <time>2013-03-03T13:25:06.000Z</time>
      </trkpt>
      <trkpt lat="46.29682" lon="6.50191">
        <ele>1179.8</ele>
        <time>2013-03-03T13:25:10.000Z</time>
      </trkpt>
      <trkpt lat="46.29682" lon="6.50189">
        <ele>1179.7</ele>
        <time>2013-03-03T13:25:11.000Z</time>
      </trkpt>
      <trkpt lat="46.2968" lon="6.50183">
        <ele>1179.7</ele>
        <time>2013-03-03T13:25:15.000Z</time>
      </trkpt>
      <trkpt lat="46.2968" lon="6.50182">
        <ele>1179.8</ele>
        <time>2013-03-03T13:25:16.000Z</time>
      </trkpt>
      <trkpt lat="46.29679" lon="6.50176">
        <ele>1180.6</ele>
        <time>2013-03-03T13:25:20.000Z</time>
      </trkpt>
      <trkpt lat="46.29678" lon="6.50174">
        <ele>1180.5</ele>
        <time>2013-03-03T13:25:21.000Z</time>
      </trkpt>
      <trkpt lat="46.29677" lon="6.5017">
        <ele>1180.3</ele>
        <time>2013-03-03T13:25:23.000Z</time>
      </trkpt>
      <trkpt lat="46.29676" lon="6.50168">
        <ele>1179.9</ele>
        <time>2013-03-03T13:25:24.000Z</time>
      </trkpt>
      <trkpt lat="46.29675" lon="6.50162">
        <ele>1179.9</ele>
        <time>2013-03-03T13:25:27.000Z</time>
      </trkpt>
      <trkpt lat="46.29675" lon="6.5016">
        <ele>1179.9</ele>
        <time>2013-03-03T13:25:28.000Z</time>
      </trkpt>
      <trkpt lat="46.29674" lon="6.50156">
        <ele>1179.9</ele>
        <time>2013-03-03T13:25:30.000Z</time>
      </trkpt>
      <trkpt lat="46.29673" lon="6.50154">
        <ele>1180.1</ele>
        <time>2013-03-03T13:25:31.000Z</time>
      </trkpt>
      <trkpt lat="46.29673" lon="6.50147">
        <ele>1180.5</ele>
        <time>2013-03-03T13:25:34.000Z</time>
      </trkpt>
      <trkpt lat="46.29673" lon="6.50145">
        <ele>1180.7</ele>
        <time>2013-03-03T13:25:35.000Z</time>
      </trkpt>
      <trkpt lat="46.29672" lon="6.50141">
        <ele>1180.4</ele>
        <time>2013-03-03T13:25:37.000Z</time>
      </trkpt>
      <trkpt lat="46.29671" lon="6.50139">
        <ele>1180.3</ele>
        <time>2013-03-03T13:25:38.000Z</time>
      </trkpt>
      <trkpt lat="46.2967" lon="6.50133">
        <ele>1180.8</ele>
        <time>2013-03-03T13:25:40.000Z</time>
      </trkpt>
      <trkpt lat="46.2967" lon="6.50131">
        <ele>1180.8</ele>
        <time>2013-03-03T13:25:41.000Z</time>
      </trkpt>
      <trkpt lat="46.29669" lon="6.50127">
        <ele>1180.6</ele>
        <time>2013-03-03T13:25:43.000Z</time>
      </trkpt>
      <trkpt lat="46.29669" lon="6.50125">
        <ele>1180.6</ele>
        <time>2013-03-03T13:25:44.000Z</time>
      </trkpt>
      <trkpt lat="46.29668" lon="6.50121">
        <ele>1180.3</ele>
        <time>2013-03-03T13:25:46.000Z</time>
      </trkpt>
      <trkpt lat="46.29666" lon="6.50117">
        <ele>1181.7</ele>
        <time>2013-03-03T13:25:47.000Z</time>
      </trkpt>
      <trkpt lat="46.29667" lon="6.50112">
        <ele>1181.5</ele>
        <time>2013-03-03T13:25:50.000Z</time>
      </trkpt>
      <trkpt lat="46.29667" lon="6.5011">
        <ele>1181.3</ele>
        <time>2013-03-03T13:25:51.000Z</time>
      </trkpt>
      <trkpt lat="46.29667" lon="6.50105">
        <ele>1181</ele>
        <time>2013-03-03T13:25:53.000Z</time>
      </trkpt>
      <trkpt lat="46.29666" lon="6.50102">
        <ele>1180.9</ele>
        <time>2013-03-03T13:25:54.000Z</time>
      </trkpt>
      <trkpt lat="46.29665" lon="6.50096">
        <ele>1180.8</ele>
        <time>2013-03-03T13:25:56.000Z</time>
      </trkpt>
      <trkpt lat="46.29665" lon="6.50094">
        <ele>1180.5</ele>
        <time>2013-03-03T13:25:57.000Z</time>
      </trkpt>
      <trkpt lat="46.29663" lon="6.50088">
        <ele>1180.3</ele>
        <time>2013-03-03T13:25:59.000Z</time>
      </trkpt>
      <trkpt lat="46.29662" lon="6.50085">
        <ele>1179.9</ele>
        <time>2013-03-03T13:26:00.000Z</time>
      </trkpt>
      <trkpt lat="46.29661" lon="6.50081">
        <ele>1179.8</ele>
        <time>2013-03-03T13:26:02.000Z</time>
      </trkpt>
      <trkpt lat="46.29661" lon="6.50079">
        <ele>1179.6</ele>
        <time>2013-03-03T13:26:03.000Z</time>
      </trkpt>
      <trkpt lat="46.29661" lon="6.50074">
        <ele>1179.4</ele>
        <time>2013-03-03T13:26:05.000Z</time>
      </trkpt>
      <trkpt lat="46.29661" lon="6.50072">
        <ele>1179.3</ele>
        <time>2013-03-03T13:26:06.000Z</time>
      </trkpt>
      <trkpt lat="46.2966" lon="6.50066">
        <ele>1179.3</ele>
        <time>2013-03-03T13:26:09.000Z</time>
      </trkpt>
      <trkpt lat="46.2966" lon="6.50064">
        <ele>1179</ele>
        <time>2013-03-03T13:26:10.000Z</time>
      </trkpt>
      <trkpt lat="46.29659" lon="6.50059">
        <ele>1178.3</ele>
        <time>2013-03-03T13:26:12.000Z</time>
      </trkpt>
      <trkpt lat="46.29659" lon="6.50056">
        <ele>1178</ele>
        <time>2013-03-03T13:26:13.000Z</time>
      </trkpt>
      <trkpt lat="46.29659" lon="6.5005">
        <ele>1177.2</ele>
        <time>2013-03-03T13:26:15.000Z</time>
      </trkpt>
      <trkpt lat="46.29659" lon="6.50048">
        <ele>1176.7</ele>
        <time>2013-03-03T13:26:16.000Z</time>
      </trkpt>
      <trkpt lat="46.29657" lon="6.50042">
        <ele>1175.7</ele>
        <time>2013-03-03T13:26:19.000Z</time>
      </trkpt>
      <trkpt lat="46.29657" lon="6.5004">
        <ele>1175.7</ele>
        <time>2013-03-03T13:26:20.000Z</time>
      </trkpt>
      <trkpt lat="46.29657" lon="6.50035">
        <ele>1176.1</ele>
        <time>2013-03-03T13:26:23.000Z</time>
      </trkpt>
      <trkpt lat="46.29657" lon="6.50033">
        <ele>1176.4</ele>
        <time>2013-03-03T13:26:24.000Z</time>
      </trkpt>
      <trkpt lat="46.29656" lon="6.50027">
        <ele>1176.4</ele>
        <time>2013-03-03T13:26:27.000Z</time>
      </trkpt>
      <trkpt lat="46.29655" lon="6.50025">
        <ele>1176.2</ele>
        <time>2013-03-03T13:26:28.000Z</time>
      </trkpt>
      <trkpt lat="46.29654" lon="6.50019">
        <ele>1175.7</ele>
        <time>2013-03-03T13:26:31.000Z</time>
      </trkpt>
      <trkpt lat="46.29654" lon="6.50017">
        <ele>1175.5</ele>
        <time>2013-03-03T13:26:32.000Z</time>
      </trkpt>
      <trkpt lat="46.29654" lon="6.50016">
        <ele>1175.4</ele>
        <time>2013-03-03T13:26:33.000Z</time>
      </trkpt>
      <trkpt lat="46.29635" lon="6.49967">
        <ele>1170.4</ele>
        <time>2013-03-03T13:26:53.000Z</time>
      </trkpt>
      <trkpt lat="46.29635" lon="6.49962">
        <ele>1172.6</ele>
        <time>2013-03-03T13:26:56.000Z</time>
      </trkpt>
      <trkpt lat="46.29635" lon="6.49959">
        <ele>1172.7</ele>
        <time>2013-03-03T13:26:57.000Z</time>
      </trkpt>
      <trkpt lat="46.29634" lon="6.49953">
        <ele>1176.1</ele>
        <time>2013-03-03T13:26:59.000Z</time>
      </trkpt>
      <trkpt lat="46.29634" lon="6.49952">
        <ele>1176.1</ele>
        <time>2013-03-03T13:27:00.000Z</time>
      </trkpt>
      <trkpt lat="46.29635" lon="6.49946">
        <ele>1174.7</ele>
        <time>2013-03-03T13:27:03.000Z</time>
      </trkpt>
      <trkpt lat="46.29635" lon="6.49943">
        <ele>1175.4</ele>
        <time>2013-03-03T13:27:04.000Z</time>
      </trkpt>
      <trkpt lat="46.29634" lon="6.49938">
        <ele>1174.5</ele>
        <time>2013-03-03T13:27:07.000Z</time>
      </trkpt>
      <trkpt lat="46.29634" lon="6.49936">
        <ele>1174.3</ele>
        <time>2013-03-03T13:27:08.000Z</time>
      </trkpt>
      <trkpt lat="46.29633" lon="6.4993">
        <ele>1175</ele>
        <time>2013-03-03T13:27:11.000Z</time>
      </trkpt>
      <trkpt lat="46.29632" lon="6.49928">
        <ele>1175.3</ele>
        <time>2013-03-03T13:27:12.000Z</time>
      </trkpt>
      <trkpt lat="46.29632" lon="6.49922">
        <ele>1174.1</ele>
        <time>2013-03-03T13:27:16.000Z</time>
      </trkpt>
      <trkpt lat="46.29631" lon="6.4992">
        <ele>1173.8</ele>
        <time>2013-03-03T13:27:17.000Z</time>
      </trkpt>
      <trkpt lat="46.29631" lon="6.49916">
        <ele>1174.5</ele>
        <time>2013-03-03T13:27:19.000Z</time>
      </trkpt>
      <trkpt lat="46.2963" lon="6.49914">
        <ele>1175.1</ele>
        <time>2013-03-03T13:27:20.000Z</time>
      </trkpt>
      <trkpt lat="46.29629" lon="6.49908">
        <ele>1174.8</ele>
        <time>2013-03-03T13:27:23.000Z</time>
      </trkpt>
      <trkpt lat="46.29629" lon="6.49907">
        <ele>1174.8</ele>
        <time>2013-03-03T13:27:24.000Z</time>
      </trkpt>
      <trkpt lat="46.29627" lon="6.49901">
        <ele>1175.6</ele>
        <time>2013-03-03T13:27:27.000Z</time>
      </trkpt>
      <trkpt lat="46.29627" lon="6.499">
        <ele>1175.7</ele>
        <time>2013-03-03T13:27:28.000Z</time>
      </trkpt>
      <trkpt lat="46.29626" lon="6.49895">
        <ele>1175.8</ele>
        <time>2013-03-03T13:27:31.000Z</time>
      </trkpt>
      <trkpt lat="46.29625" lon="6.49893">
        <ele>1176.2</ele>
        <time>2013-03-03T13:27:32.000Z</time>
      </trkpt>
      <trkpt lat="46.29624" lon="6.49887">
        <ele>1177</ele>
        <time>2013-03-03T13:27:36.000Z</time>
      </trkpt>
      <trkpt lat="46.29624" lon="6.49886">
        <ele>1177.4</ele>
        <time>2013-03-03T13:27:37.000Z</time>
      </trkpt>
      <trkpt lat="46.29623" lon="6.4988">
        <ele>1178</ele>
        <time>2013-03-03T13:27:40.000Z</time>
      </trkpt>
      <trkpt lat="46.29622" lon="6.49878">
        <ele>1178.3</ele>
        <time>2013-03-03T13:27:41.000Z</time>
      </trkpt>
      <trkpt lat="46.2962" lon="6.49873">
        <ele>1179.2</ele>
        <time>2013-03-03T13:27:44.000Z</time>
      </trkpt>
      <trkpt lat="46.2962" lon="6.49871">
        <ele>1179.1</ele>
        <time>2013-03-03T13:27:45.000Z</time>
      </trkpt>
      <trkpt lat="46.29618" lon="6.49866">
        <ele>1178.6</ele>
        <time>2013-03-03T13:27:49.000Z</time>
      </trkpt>
      <trkpt lat="46.29618" lon="6.49864">
        <ele>1178.5</ele>
        <time>2013-03-03T13:27:50.000Z</time>
      </trkpt>
      <trkpt lat="46.29616" lon="6.49859">
        <ele>1177.1</ele>
        <time>2013-03-03T13:27:54.000Z</time>
      </trkpt>
      <trkpt lat="46.29616" lon="6.49858">
        <ele>1176.6</ele>
        <time>2013-03-03T13:27:55.000Z</time>
      </trkpt>
      <trkpt lat="46.29613" lon="6.49854">
        <ele>1176.3</ele>
        <time>2013-03-03T13:27:58.000Z</time>
      </trkpt>
      <trkpt lat="46.29613" lon="6.49853">
        <ele>1176.3</ele>
        <time>2013-03-03T13:27:59.000Z</time>
      </trkpt>
      <trkpt lat="46.29612" lon="6.49848">
        <ele>1176.8</ele>
        <time>2013-03-03T13:28:05.000Z</time>
      </trkpt>
      <trkpt lat="46.29611" lon="6.49846">
        <ele>1176.8</ele>
        <time>2013-03-03T13:28:06.000Z</time>
      </trkpt>
      <trkpt lat="46.29609" lon="6.49841">
        <ele>1176.9</ele>
        <time>2013-03-03T13:28:09.000Z</time>
      </trkpt>
      <trkpt lat="46.29608" lon="6.4984">
        <ele>1177.3</ele>
        <time>2013-03-03T13:28:10.000Z</time>
      </trkpt>
      <trkpt lat="46.29607" lon="6.49835">
        <ele>1178.2</ele>
        <time>2013-03-03T13:28:50.000Z</time>
      </trkpt>
      <trkpt lat="46.29606" lon="6.49834">
        <ele>1178.1</ele>
        <time>2013-03-03T13:28:51.000Z</time>
      </trkpt>
      <trkpt lat="46.29603" lon="6.49829">
        <ele>1178.1</ele>
        <time>2013-03-03T13:28:55.000Z</time>
      </trkpt>
      <trkpt lat="46.29602" lon="6.49828">
        <ele>1178.3</ele>
        <time>2013-03-03T13:28:56.000Z</time>
      </trkpt>
      <trkpt lat="46.29599" lon="6.49824">
        <ele>1178.9</ele>
        <time>2013-03-03T13:29:00.000Z</time>
      </trkpt>
      <trkpt lat="46.29598" lon="6.49823">
        <ele>1179.1</ele>
        <time>2013-03-03T13:29:01.000Z</time>
      </trkpt>
      <trkpt lat="46.29596" lon="6.49819">
        <ele>1180.5</ele>
        <time>2013-03-03T13:29:04.000Z</time>
      </trkpt>
      <trkpt lat="46.29595" lon="6.49818">
        <ele>1181</ele>
        <time>2013-03-03T13:29:05.000Z</time>
      </trkpt>
      <trkpt lat="46.29592" lon="6.49815">
        <ele>1183</ele>
        <time>2013-03-03T13:29:10.000Z</time>
      </trkpt>
      <trkpt lat="46.29591" lon="6.49814">
        <ele>1183.5</ele>
        <time>2013-03-03T13:29:11.000Z</time>
      </trkpt>
      <trkpt lat="46.29587" lon="6.49812">
        <ele>1184.5</ele>
        <time>2013-03-03T13:29:16.000Z</time>
      </trkpt>
      <trkpt lat="46.29586" lon="6.49811">
        <ele>1184.5</ele>
        <time>2013-03-03T13:29:17.000Z</time>
      </trkpt>
      <trkpt lat="46.29583" lon="6.49807">
        <ele>1185</ele>
        <time>2013-03-03T13:29:21.000Z</time>
      </trkpt>
      <trkpt lat="46.29582" lon="6.49805">
        <ele>1184.9</ele>
        <time>2013-03-03T13:29:22.000Z</time>
      </trkpt>
      <trkpt lat="46.29579" lon="6.49801">
        <ele>1185.6</ele>
        <time>2013-03-03T13:29:25.000Z</time>
      </trkpt>
      <trkpt lat="46.29578" lon="6.498">
        <ele>1185.6</ele>
        <time>2013-03-03T13:29:26.000Z</time>
      </trkpt>
      <trkpt lat="46.29576" lon="6.49795">
        <ele>1186.1</ele>
        <time>2013-03-03T13:29:29.000Z</time>
      </trkpt>
      <trkpt lat="46.29575" lon="6.49793">
        <ele>1186.1</ele>
        <time>2013-03-03T13:29:30.000Z</time>
      </trkpt>
      <trkpt lat="46.29573" lon="6.49789">
        <ele>1187.4</ele>
        <time>2013-03-03T13:29:33.000Z</time>
      </trkpt>
      <trkpt lat="46.29573" lon="6.49787">
        <ele>1187.4</ele>
        <time>2013-03-03T13:29:34.000Z</time>
      </trkpt>
      <trkpt lat="46.29572" lon="6.49781">
        <ele>1187.8</ele>
        <time>2013-03-03T13:29:37.000Z</time>
      </trkpt>
      <trkpt lat="46.29572" lon="6.49778">
        <ele>1188</ele>
        <time>2013-03-03T13:29:38.000Z</time>
      </trkpt>
      <trkpt lat="46.29572" lon="6.49776">
        <ele>1188.2</ele>
        <time>2013-03-03T13:29:39.000Z</time>
      </trkpt>
      <trkpt lat="46.29572" lon="6.49772">
        <ele>1189.5</ele>
        <time>2013-03-03T13:29:40.000Z</time>
      </trkpt>
      <trkpt lat="46.29572" lon="6.49767">
        <ele>1190.6</ele>
        <time>2013-03-03T13:29:41.000Z</time>
      </trkpt>
      <trkpt lat="46.29572" lon="6.49763">
        <ele>1191.5</ele>
        <time>2013-03-03T13:29:42.000Z</time>
      </trkpt>
      <trkpt lat="46.29572" lon="6.4976">
        <ele>1192.1</ele>
        <time>2013-03-03T13:29:43.000Z</time>
      </trkpt>
      <trkpt lat="46.29571" lon="6.49756">
        <ele>1192.1</ele>
        <time>2013-03-03T13:29:44.000Z</time>
      </trkpt>
      <trkpt lat="46.29571" lon="6.49752">
        <ele>1191.8</ele>
        <time>2013-03-03T13:29:45.000Z</time>
      </trkpt>
      <trkpt lat="46.2957" lon="6.49748">
        <ele>1191.9</ele>
        <time>2013-03-03T13:29:46.000Z</time>
      </trkpt>
      <trkpt lat="46.29571" lon="6.49744">
        <ele>1191.8</ele>
        <time>2013-03-03T13:29:48.000Z</time>
      </trkpt>
      <trkpt lat="46.29571" lon="6.49741">
        <ele>1191.8</ele>
        <time>2013-03-03T13:29:49.000Z</time>
      </trkpt>
      <trkpt lat="46.29574" lon="6.49737">
        <ele>1190.2</ele>
        <time>2013-03-03T13:29:52.000Z</time>
      </trkpt>
      <trkpt lat="46.29575" lon="6.49735">
        <ele>1190.2</ele>
        <time>2013-03-03T13:29:53.000Z</time>
      </trkpt>
      <trkpt lat="46.29578" lon="6.49731">
        <ele>1189.5</ele>
        <time>2013-03-03T13:29:56.000Z</time>
      </trkpt>
      <trkpt lat="46.29579" lon="6.4973">
        <ele>1188.9</ele>
        <time>2013-03-03T13:29:57.000Z</time>
      </trkpt>
      <trkpt lat="46.29582" lon="6.49727">
        <ele>1188.6</ele>
        <time>2013-03-03T13:30:00.000Z</time>
      </trkpt>
      <trkpt lat="46.29584" lon="6.49725">
        <ele>1188.6</ele>
        <time>2013-03-03T13:30:01.000Z</time>
      </trkpt>
      <trkpt lat="46.29586" lon="6.49721">
        <ele>1188.1</ele>
        <time>2013-03-03T13:30:03.000Z</time>
      </trkpt>
      <trkpt lat="46.29587" lon="6.4972">
        <ele>1188.7</ele>
        <time>2013-03-03T13:30:04.000Z</time>
      </trkpt>
      <trkpt lat="46.2959" lon="6.49715">
        <ele>1189.1</ele>
        <time>2013-03-03T13:30:07.000Z</time>
      </trkpt>
      <trkpt lat="46.29591" lon="6.49713">
        <ele>1189.2</ele>
        <time>2013-03-03T13:30:08.000Z</time>
      </trkpt>
      <trkpt lat="46.29592" lon="6.49709">
        <ele>1188.7</ele>
        <time>2013-03-03T13:30:10.000Z</time>
      </trkpt>
      <trkpt lat="46.29592" lon="6.49707">
        <ele>1188.5</ele>
        <time>2013-03-03T13:30:11.000Z</time>
      </trkpt>
      <trkpt lat="46.29593" lon="6.49701">
        <ele>1187.6</ele>
        <time>2013-03-03T13:30:14.000Z</time>
      </trkpt>
      <trkpt lat="46.29594" lon="6.49699">
        <ele>1187.5</ele>
        <time>2013-03-03T13:30:15.000Z</time>
      </trkpt>
      <trkpt lat="46.29593" lon="6.49693">
        <ele>1188</ele>
        <time>2013-03-03T13:30:18.000Z</time>
      </trkpt>
      <trkpt lat="46.29592" lon="6.49691">
        <ele>1187.8</ele>
        <time>2013-03-03T13:30:19.000Z</time>
      </trkpt>
      <trkpt lat="46.29592" lon="6.49685">
        <ele>1188.2</ele>
        <time>2013-03-03T13:30:23.000Z</time>
      </trkpt>
      <trkpt lat="46.29592" lon="6.49683">
        <ele>1187.9</ele>
        <time>2013-03-03T13:30:24.000Z</time>
      </trkpt>
      <trkpt lat="46.29593" lon="6.49677">
        <ele>1187.1</ele>
        <time>2013-03-03T13:30:28.000Z</time>
      </trkpt>
      <trkpt lat="46.29593" lon="6.49676">
        <ele>1186.9</ele>
        <time>2013-03-03T13:30:29.000Z</time>
      </trkpt>
      <trkpt lat="46.29593" lon="6.4967">
        <ele>1186.5</ele>
        <time>2013-03-03T13:30:33.000Z</time>
      </trkpt>
      <trkpt lat="46.29593" lon="6.49669">
        <ele>1186.3</ele>
        <time>2013-03-03T13:30:34.000Z</time>
      </trkpt>
      <trkpt lat="46.29595" lon="6.49665">
        <ele>1185.9</ele>
        <time>2013-03-03T13:30:38.000Z</time>
      </trkpt>
      <trkpt lat="46.29596" lon="6.49663">
        <ele>1186.1</ele>
        <time>2013-03-03T13:30:39.000Z</time>
      </trkpt>
      <trkpt lat="46.29597" lon="6.49657">
        <ele>1185.8</ele>
        <time>2013-03-03T13:30:45.000Z</time>
      </trkpt>
      <trkpt lat="46.29597" lon="6.49655">
        <ele>1185.7</ele>
        <time>2013-03-03T13:30:46.000Z</time>
      </trkpt>
      <trkpt lat="46.29599" lon="6.4965">
        <ele>1185.3</ele>
        <time>2013-03-03T13:30:50.000Z</time>
      </trkpt>
      <trkpt lat="46.296" lon="6.49649">
        <ele>1185.1</ele>
        <time>2013-03-03T13:30:51.000Z</time>
      </trkpt>
      <trkpt lat="46.296" lon="6.49643">
        <ele>1183.6</ele>
        <time>2013-03-03T13:30:54.000Z</time>
      </trkpt>
      <trkpt lat="46.29601" lon="6.49641">
        <ele>1183.3</ele>
        <time>2013-03-03T13:30:55.000Z</time>
      </trkpt>
      <trkpt lat="46.29603" lon="6.49637">
        <ele>1183</ele>
        <time>2013-03-03T13:30:58.000Z</time>
      </trkpt>
      <trkpt lat="46.29604" lon="6.49635">
        <ele>1182.9</ele>
        <time>2013-03-03T13:30:59.000Z</time>
      </trkpt>
      <trkpt lat="46.29606" lon="6.49631">
        <ele>1183.5</ele>
        <time>2013-03-03T13:31:02.000Z</time>
      </trkpt>
      <trkpt lat="46.29606" lon="6.4963">
        <ele>1183.7</ele>
        <time>2013-03-03T13:31:03.000Z</time>
      </trkpt>
      <trkpt lat="46.29609" lon="6.49625">
        <ele>1183.6</ele>
        <time>2013-03-03T13:31:06.000Z</time>
      </trkpt>
      <trkpt lat="46.29609" lon="6.49624">
        <ele>1183.6</ele>
        <time>2013-03-03T13:31:07.000Z</time>
      </trkpt>
      <trkpt lat="46.2961" lon="6.49617">
        <ele>1182.5</ele>
        <time>2013-03-03T13:31:11.000Z</time>
      </trkpt>
      <trkpt lat="46.2961" lon="6.49616">
        <ele>1182.5</ele>
        <time>2013-03-03T13:31:12.000Z</time>
      </trkpt>
      <trkpt lat="46.29611" lon="6.49612">
        <ele>1182</ele>
        <time>2013-03-03T13:31:15.000Z</time>
      </trkpt>
      <trkpt lat="46.29612" lon="6.4961">
        <ele>1181.8</ele>
        <time>2013-03-03T13:31:16.000Z</time>
      </trkpt>
      <trkpt lat="46.29614" lon="6.49606">
        <ele>1181.5</ele>
        <time>2013-03-03T13:31:19.000Z</time>
      </trkpt>
      <trkpt lat="46.29615" lon="6.49604">
        <ele>1181.6</ele>
        <time>2013-03-03T13:31:20.000Z</time>
      </trkpt>
      <trkpt lat="46.29617" lon="6.496">
        <ele>1181.9</ele>
        <time>2013-03-03T13:31:23.000Z</time>
      </trkpt>
      <trkpt lat="46.29617" lon="6.49598">
        <ele>1181.8</ele>
        <time>2013-03-03T13:31:24.000Z</time>
      </trkpt>
      <trkpt lat="46.29619" lon="6.49594">
        <ele>1181.6</ele>
        <time>2013-03-03T13:31:27.000Z</time>
      </trkpt>
      <trkpt lat="46.29619" lon="6.49593">
        <ele>1181.6</ele>
        <time>2013-03-03T13:31:28.000Z</time>
      </trkpt>
      <trkpt lat="46.29621" lon="6.49587">
        <ele>1181.8</ele>
        <time>2013-03-03T13:31:32.000Z</time>
      </trkpt>
      <trkpt lat="46.29622" lon="6.49585">
        <ele>1181.7</ele>
        <time>2013-03-03T13:31:33.000Z</time>
      </trkpt>
      <trkpt lat="46.29623" lon="6.49581">
        <ele>1181.7</ele>
        <time>2013-03-03T13:31:36.000Z</time>
      </trkpt>
      <trkpt lat="46.29624" lon="6.49579">
        <ele>1181.7</ele>
        <time>2013-03-03T13:31:37.000Z</time>
      </trkpt>
      <trkpt lat="46.29625" lon="6.49575">
        <ele>1181.8</ele>
        <time>2013-03-03T13:31:40.000Z</time>
      </trkpt>
      <trkpt lat="46.29626" lon="6.49573">
        <ele>1181.8</ele>
        <time>2013-03-03T13:31:41.000Z</time>
      </trkpt>
      <trkpt lat="46.29628" lon="6.49568">
        <ele>1182.1</ele>
        <time>2013-03-03T13:31:44.000Z</time>
      </trkpt>
      <trkpt lat="46.29628" lon="6.49567">
        <ele>1182.3</ele>
        <time>2013-03-03T13:31:45.000Z</time>
      </trkpt>
      <trkpt lat="46.29631" lon="6.49563">
        <ele>1182.8</ele>
        <time>2013-03-03T13:31:48.000Z</time>
      </trkpt>
      <trkpt lat="46.29631" lon="6.49562">
        <ele>1182.9</ele>
        <time>2013-03-03T13:31:49.000Z</time>
      </trkpt>
      <trkpt lat="46.29634" lon="6.49558">
        <ele>1182.9</ele>
        <time>2013-03-03T13:31:52.000Z</time>
      </trkpt>
      <trkpt lat="46.29636" lon="6.49557">
        <ele>1183</ele>
        <time>2013-03-03T13:31:53.000Z</time>
      </trkpt>
      <trkpt lat="46.29638" lon="6.49554">
        <ele>1183.4</ele>
        <time>2013-03-03T13:31:56.000Z</time>
      </trkpt>
      <trkpt lat="46.29639" lon="6.49553">
        <ele>1183.6</ele>
        <time>2013-03-03T13:31:57.000Z</time>
      </trkpt>
      <trkpt lat="46.29641" lon="6.49549">
        <ele>1184</ele>
        <time>2013-03-03T13:32:00.000Z</time>
      </trkpt>
      <trkpt lat="46.29642" lon="6.49548">
        <ele>1184.2</ele>
        <time>2013-03-03T13:32:01.000Z</time>
      </trkpt>
      <trkpt lat="46.29643" lon="6.49542">
        <ele>1184.4</ele>
        <time>2013-03-03T13:32:05.000Z</time>
      </trkpt>
      <trkpt lat="46.29644" lon="6.49541">
        <ele>1184.6</ele>
        <time>2013-03-03T13:32:06.000Z</time>
      </trkpt>
      <trkpt lat="46.29646" lon="6.49536">
        <ele>1185.4</ele>
        <time>2013-03-03T13:32:10.000Z</time>
      </trkpt>
      <trkpt lat="46.29647" lon="6.49534">
        <ele>1185.3</ele>
        <time>2013-03-03T13:32:11.000Z</time>
      </trkpt>
      <trkpt lat="46.29648" lon="6.49529">
        <ele>1185.4</ele>
        <time>2013-03-03T13:32:14.000Z</time>
      </trkpt>
      <trkpt lat="46.29649" lon="6.49527">
        <ele>1185.7</ele>
        <time>2013-03-03T13:32:15.000Z</time>
      </trkpt>
      <trkpt lat="46.2965" lon="6.49521">
        <ele>1185.8</ele>
        <time>2013-03-03T13:32:20.000Z</time>
      </trkpt>
      <trkpt lat="46.29651" lon="6.4952">
        <ele>1185.8</ele>
        <time>2013-03-03T13:32:21.000Z</time>
      </trkpt>
      <trkpt lat="46.29653" lon="6.49515">
        <ele>1186</ele>
        <time>2013-03-03T13:32:25.000Z</time>
      </trkpt>
      <trkpt lat="46.29653" lon="6.49514">
        <ele>1186.1</ele>
        <time>2013-03-03T13:32:26.000Z</time>
      </trkpt>
      <trkpt lat="46.29656" lon="6.49509">
        <ele>1186.7</ele>
        <time>2013-03-03T13:32:30.000Z</time>
      </trkpt>
      <trkpt lat="46.29657" lon="6.49507">
        <ele>1186.7</ele>
        <time>2013-03-03T13:32:31.000Z</time>
      </trkpt>
      <trkpt lat="46.29657" lon="6.49506">
        <ele>1186.6</ele>
        <time>2013-03-03T13:32:32.000Z</time>
      </trkpt>
      <trkpt lat="46.29676" lon="6.49488">
        <ele>1197.5</ele>
        <time>2013-03-03T13:32:53.000Z</time>
      </trkpt>
      <trkpt lat="46.29679" lon="6.49485">
        <ele>1198.3</ele>
        <time>2013-03-03T13:32:57.000Z</time>
      </trkpt>
      <trkpt lat="46.2968" lon="6.49484">
        <ele>1198.5</ele>
        <time>2013-03-03T13:32:58.000Z</time>
      </trkpt>
      <trkpt lat="46.29683" lon="6.4948">
        <ele>1200</ele>
        <time>2013-03-03T13:33:03.000Z</time>
      </trkpt>
      <trkpt lat="46.29683" lon="6.49479">
        <ele>1200</ele>
        <time>2013-03-03T13:33:04.000Z</time>
      </trkpt>
      <trkpt lat="46.29685" lon="6.49474">
        <ele>1200.1</ele>
        <time>2013-03-03T13:33:09.000Z</time>
      </trkpt>
      <trkpt lat="46.29686" lon="6.49473">
        <ele>1200.3</ele>
        <time>2013-03-03T13:33:10.000Z</time>
      </trkpt>
      <trkpt lat="46.29688" lon="6.49468">
        <ele>1201</ele>
        <time>2013-03-03T13:33:15.000Z</time>
      </trkpt>
      <trkpt lat="46.29689" lon="6.49467">
        <ele>1201.2</ele>
        <time>2013-03-03T13:33:16.000Z</time>
      </trkpt>
      <trkpt lat="46.29691" lon="6.49462">
        <ele>1200.8</ele>
        <time>2013-03-03T13:33:21.000Z</time>
      </trkpt>
      <trkpt lat="46.29691" lon="6.49461">
        <ele>1200.6</ele>
        <time>2013-03-03T13:33:22.000Z</time>
      </trkpt>
      <trkpt lat="46.29692" lon="6.49455">
        <ele>1199.6</ele>
        <time>2013-03-03T13:33:27.000Z</time>
      </trkpt>
      <trkpt lat="46.29692" lon="6.49453">
        <ele>1199.4</ele>
        <time>2013-03-03T13:33:28.000Z</time>
      </trkpt>
      <trkpt lat="46.29693" lon="6.49448">
        <ele>1199.6</ele>
        <time>2013-03-03T13:33:32.000Z</time>
      </trkpt>
      <trkpt lat="46.29694" lon="6.49447">
        <ele>1199.4</ele>
        <time>2013-03-03T13:33:33.000Z</time>
      </trkpt>
      <trkpt lat="46.29692" lon="6.49414">
        <ele>1200.9</ele>
        <time>2013-03-03T13:33:54.000Z</time>
      </trkpt>
      <trkpt lat="46.29688" lon="6.4941">
        <ele>1199.7</ele>
        <time>2013-03-03T13:33:59.000Z</time>
      </trkpt>
      <trkpt lat="46.29688" lon="6.4941">
        <ele>1199.4</ele>
        <time>2013-03-03T13:34:00.000Z</time>
      </trkpt>
      <trkpt lat="46.29686" lon="6.49404">
        <ele>1197.2</ele>
        <time>2013-03-03T13:34:08.000Z</time>
      </trkpt>
      <trkpt lat="46.29685" lon="6.49403">
        <ele>1197.2</ele>
        <time>2013-03-03T13:34:09.000Z</time>
      </trkpt>
      <trkpt lat="46.29684" lon="6.49397">
        <ele>1197</ele>
        <time>2013-03-03T13:34:17.000Z</time>
      </trkpt>
      <trkpt lat="46.29684" lon="6.49396">
        <ele>1197.3</ele>
        <time>2013-03-03T13:34:18.000Z</time>
      </trkpt>
      <trkpt lat="46.29683" lon="6.4939">
        <ele>1198.8</ele>
        <time>2013-03-03T13:34:25.000Z</time>
      </trkpt>
      <trkpt lat="46.29683" lon="6.4939">
        <ele>1198.9</ele>
        <time>2013-03-03T13:34:26.000Z</time>
      </trkpt>
      <trkpt lat="46.29683" lon="6.49389">
        <ele>1199.1</ele>
        <time>2013-03-03T13:34:33.000Z</time>
      </trkpt>
      <trkpt lat="46.2968" lon="6.49384">
        <ele>1204.6</ele>
        <time>2013-03-03T13:34:53.000Z</time>
      </trkpt>
      <trkpt lat="46.29676" lon="6.49385">
        <ele>1202.7</ele>
        <time>2013-03-03T13:34:57.000Z</time>
      </trkpt>
      <trkpt lat="46.29675" lon="6.49385">
        <ele>1202.1</ele>
        <time>2013-03-03T13:34:58.000Z</time>
      </trkpt>
      <trkpt lat="46.29674" lon="6.49386">
        <ele>1201.4</ele>
        <time>2013-03-03T13:35:09.000Z</time>
      </trkpt>
      <trkpt lat="46.2967" lon="6.49391">
        <ele>1200.6</ele>
        <time>2013-03-03T13:35:10.000Z</time>
      </trkpt>
      <trkpt lat="46.29668" lon="6.49397">
        <ele>1200.2</ele>
        <time>2013-03-03T13:35:16.000Z</time>
      </trkpt>
      <trkpt lat="46.29669" lon="6.49398">
        <ele>1200.4</ele>
        <time>2013-03-03T13:35:17.000Z</time>
      </trkpt>
      <trkpt lat="46.29666" lon="6.49403">
        <ele>1203</ele>
        <time>2013-03-03T13:35:22.000Z</time>
      </trkpt>
      <trkpt lat="46.29666" lon="6.49403">
        <ele>1203.4</ele>
        <time>2013-03-03T13:35:23.000Z</time>
      </trkpt>
      <trkpt lat="46.29666" lon="6.49403">
        <ele>1203.4</ele>
        <time>2013-03-03T13:35:33.000Z</time>
      </trkpt>
      <trkpt lat="46.29657" lon="6.49417">
        <ele>1222.9</ele>
        <time>2013-03-03T13:35:53.000Z</time>
      </trkpt>
      <trkpt lat="46.29653" lon="6.49418">
        <ele>1221.4</ele>
        <time>2013-03-03T13:35:58.000Z</time>
      </trkpt>
      <trkpt lat="46.29653" lon="6.49419">
        <ele>1220.9</ele>
        <time>2013-03-03T13:35:59.000Z</time>
      </trkpt>
      <trkpt lat="46.29649" lon="6.49419">
        <ele>1217.2</ele>
        <time>2013-03-03T13:36:04.000Z</time>
      </trkpt>
      <trkpt lat="46.29648" lon="6.49419">
        <ele>1216.9</ele>
        <time>2013-03-03T13:36:05.000Z</time>
      </trkpt>
      <trkpt lat="46.29645" lon="6.49423">
        <ele>1215</ele>
        <time>2013-03-03T13:36:11.000Z</time>
      </trkpt>
      <trkpt lat="46.29644" lon="6.49424">
        <ele>1214.5</ele>
        <time>2013-03-03T13:36:12.000Z</time>
      </trkpt>
      <trkpt lat="46.29641" lon="6.49427">
        <ele>1214.5</ele>
        <time>2013-03-03T13:36:20.000Z</time>
      </trkpt>
      <trkpt lat="46.29641" lon="6.49427">
        <ele>1214.5</ele>
        <time>2013-03-03T13:36:21.000Z</time>
      </trkpt>
      <trkpt lat="46.29638" lon="6.49432">
        <ele>1214.9</ele>
        <time>2013-03-03T13:36:29.000Z</time>
      </trkpt>
      <trkpt lat="46.29637" lon="6.49433">
        <ele>1214.9</ele>
        <time>2013-03-03T13:36:30.000Z</time>
      </trkpt>
      <trkpt lat="46.29634" lon="6.49436">
        <ele>1215.3</ele>
        <time>2013-03-03T13:36:35.000Z</time>
      </trkpt>
      <trkpt lat="46.29633" lon="6.49437">
        <ele>1215.5</ele>
        <time>2013-03-03T13:36:36.000Z</time>
      </trkpt>
      <trkpt lat="46.2963" lon="6.4944">
        <ele>1216.6</ele>
        <time>2013-03-03T13:36:46.000Z</time>
      </trkpt>
      <trkpt lat="46.29628" lon="6.49441">
        <ele>1216.4</ele>
        <time>2013-03-03T13:36:47.000Z</time>
      </trkpt>
      <trkpt lat="46.29624" lon="6.49443">
        <ele>1215.4</ele>
        <time>2013-03-03T13:36:51.000Z</time>
      </trkpt>
      <trkpt lat="46.29624" lon="6.49444">
        <ele>1215.8</ele>
        <time>2013-03-03T13:36:52.000Z</time>
      </trkpt>
      <trkpt lat="46.2962" lon="6.49447">
        <ele>1216.4</ele>
        <time>2013-03-03T13:37:00.000Z</time>
      </trkpt>
      <trkpt lat="46.2962" lon="6.49447">
        <ele>1216.5</ele>
        <time>2013-03-03T13:37:01.000Z</time>
      </trkpt>
      <trkpt lat="46.29616" lon="6.49447">
        <ele>1214.2</ele>
        <time>2013-03-03T13:37:09.000Z</time>
      </trkpt>
      <trkpt lat="46.29614" lon="6.49448">
        <ele>1214.1</ele>
        <time>2013-03-03T13:37:10.000Z</time>
      </trkpt>
      <trkpt lat="46.2961" lon="6.49448">
        <ele>1213.8</ele>
        <time>2013-03-03T13:37:14.000Z</time>
      </trkpt>
      <trkpt lat="46.29609" lon="6.49448">
        <ele>1213.7</ele>
        <time>2013-03-03T13:37:15.000Z</time>
      </trkpt>
      <trkpt lat="46.29605" lon="6.49446">
        <ele>1213.2</ele>
        <time>2013-03-03T13:37:23.000Z</time>
      </trkpt>
      <trkpt lat="46.29605" lon="6.49446">
        <ele>1213.2</ele>
        <time>2013-03-03T13:37:24.000Z</time>
      </trkpt>
      <trkpt lat="46.29602" lon="6.49441">
        <ele>1212.6</ele>
        <time>2013-03-03T13:37:33.000Z</time>
      </trkpt>
      <trkpt lat="46.29602" lon="6.4944">
        <ele>1212.8</ele>
        <time>2013-03-03T13:37:34.000Z</time>
      </trkpt>
      <trkpt lat="46.29601" lon="6.49434">
        <ele>1213.7</ele>
        <time>2013-03-03T13:37:41.000Z</time>
      </trkpt>
      <trkpt lat="46.296" lon="6.49432">
        <ele>1213.9</ele>
        <time>2013-03-03T13:37:42.000Z</time>
      </trkpt>
      <trkpt lat="46.29599" lon="6.49426">
        <ele>1214.4</ele>
        <time>2013-03-03T13:37:47.000Z</time>
      </trkpt>
      <trkpt lat="46.29598" lon="6.49425">
        <ele>1214.5</ele>
        <time>2013-03-03T13:37:48.000Z</time>
      </trkpt>
      <trkpt lat="46.29597" lon="6.49419">
        <ele>1214</ele>
        <time>2013-03-03T13:37:53.000Z</time>
      </trkpt>
      <trkpt lat="46.29596" lon="6.49418">
        <ele>1213.9</ele>
        <time>2013-03-03T13:37:54.000Z</time>
      </trkpt>
      <trkpt lat="46.29595" lon="6.49413">
        <ele>1213.8</ele>
        <time>2013-03-03T13:37:59.000Z</time>
      </trkpt>
      <trkpt lat="46.29594" lon="6.49411">
        <ele>1213.8</ele>
        <time>2013-03-03T13:38:00.000Z</time>
      </trkpt>
      <trkpt lat="46.29593" lon="6.49406">
        <ele>1214</ele>
        <time>2013-03-03T13:38:04.000Z</time>
      </trkpt>
      <trkpt lat="46.29592" lon="6.49405">
        <ele>1214</ele>
        <time>2013-03-03T13:38:05.000Z</time>
      </trkpt>
      <trkpt lat="46.29591" lon="6.494">
        <ele>1214.6</ele>
        <time>2013-03-03T13:38:09.000Z</time>
      </trkpt>
      <trkpt lat="46.2959" lon="6.49398">
        <ele>1214.6</ele>
        <time>2013-03-03T13:38:10.000Z</time>
      </trkpt>
      <trkpt lat="46.29589" lon="6.49393">
        <ele>1215.9</ele>
        <time>2013-03-03T13:38:13.000Z</time>
      </trkpt>
      <trkpt lat="46.29588" lon="6.49391">
        <ele>1215.9</ele>
        <time>2013-03-03T13:38:14.000Z</time>
      </trkpt>
      <trkpt lat="46.29587" lon="6.49386">
        <ele>1216.9</ele>
        <time>2013-03-03T13:38:18.000Z</time>
      </trkpt>
      <trkpt lat="46.29586" lon="6.49385">
        <ele>1217.2</ele>
        <time>2013-03-03T13:38:19.000Z</time>
      </trkpt>
      <trkpt lat="46.29585" lon="6.49379">
        <ele>1217.9</ele>
        <time>2013-03-03T13:38:25.000Z</time>
      </trkpt>
      <trkpt lat="46.29585" lon="6.49378">
        <ele>1218.4</ele>
        <time>2013-03-03T13:38:26.000Z</time>
      </trkpt>
      <trkpt lat="46.29584" lon="6.49372">
        <ele>1219.5</ele>
        <time>2013-03-03T13:38:56.000Z</time>
      </trkpt>
      <trkpt lat="46.29584" lon="6.4937">
        <ele>1219.5</ele>
        <time>2013-03-03T13:38:57.000Z</time>
      </trkpt>
      <trkpt lat="46.29584" lon="6.49365">
        <ele>1220.1</ele>
        <time>2013-03-03T13:39:03.000Z</time>
      </trkpt>
      <trkpt lat="46.29583" lon="6.49364">
        <ele>1220.3</ele>
        <time>2013-03-03T13:39:04.000Z</time>
      </trkpt>
      <trkpt lat="46.29582" lon="6.49358">
        <ele>1221.2</ele>
        <time>2013-03-03T13:39:10.000Z</time>
      </trkpt>
      <trkpt lat="46.29582" lon="6.49357">
        <ele>1221.5</ele>
        <time>2013-03-03T13:39:11.000Z</time>
      </trkpt>
      <trkpt lat="46.29579" lon="6.49352">
        <ele>1221.7</ele>
        <time>2013-03-03T13:39:16.000Z</time>
      </trkpt>
      <trkpt lat="46.29578" lon="6.49351">
        <ele>1221.8</ele>
        <time>2013-03-03T13:39:17.000Z</time>
      </trkpt>
      <trkpt lat="46.29576" lon="6.49348">
        <ele>1221.6</ele>
        <time>2013-03-03T13:39:20.000Z</time>
      </trkpt>
      <trkpt lat="46.29575" lon="6.49346">
        <ele>1221.6</ele>
        <time>2013-03-03T13:39:21.000Z</time>
      </trkpt>
      <trkpt lat="46.29574" lon="6.49342">
        <ele>1221.4</ele>
        <time>2013-03-03T13:40:10.000Z</time>
      </trkpt>
      <trkpt lat="46.29571" lon="6.49334">
        <ele>1222</ele>
        <time>2013-03-03T13:40:11.000Z</time>
      </trkpt>
      <trkpt lat="46.29568" lon="6.49329">
        <ele>1221.4</ele>
        <time>2013-03-03T13:40:16.000Z</time>
      </trkpt>
      <trkpt lat="46.29567" lon="6.49328">
        <ele>1221.2</ele>
        <time>2013-03-03T13:40:17.000Z</time>
      </trkpt>
      <trkpt lat="46.29565" lon="6.49325">
        <ele>1220.8</ele>
        <time>2013-03-03T13:40:21.000Z</time>
      </trkpt>
      <trkpt lat="46.29564" lon="6.49323">
        <ele>1220.7</ele>
        <time>2013-03-03T13:40:22.000Z</time>
      </trkpt>
      <trkpt lat="46.29561" lon="6.49319">
        <ele>1220.2</ele>
        <time>2013-03-03T13:40:26.000Z</time>
      </trkpt>
      <trkpt lat="46.2956" lon="6.49317">
        <ele>1220.2</ele>
        <time>2013-03-03T13:40:27.000Z</time>
      </trkpt>
      <trkpt lat="46.29557" lon="6.49314">
        <ele>1219.6</ele>
        <time>2013-03-03T13:40:31.000Z</time>
      </trkpt>
      <trkpt lat="46.29557" lon="6.49313">
        <ele>1219.2</ele>
        <time>2013-03-03T13:40:32.000Z</time>
      </trkpt>
      <trkpt lat="46.29554" lon="6.4931">
        <ele>1218.7</ele>
        <time>2013-03-03T13:40:35.000Z</time>
      </trkpt>
      <trkpt lat="46.29553" lon="6.49309">
        <ele>1218.6</ele>
        <time>2013-03-03T13:40:36.000Z</time>
      </trkpt>
      <trkpt lat="46.29551" lon="6.49305">
        <ele>1218.1</ele>
        <time>2013-03-03T13:40:39.000Z</time>
      </trkpt>
      <trkpt lat="46.2955" lon="6.49303">
        <ele>1218</ele>
        <time>2013-03-03T13:40:40.000Z</time>
      </trkpt>
      <trkpt lat="46.29547" lon="6.49299">
        <ele>1217.6</ele>
        <time>2013-03-03T13:40:43.000Z</time>
      </trkpt>
      <trkpt lat="46.29547" lon="6.49298">
        <ele>1217.4</ele>
        <time>2013-03-03T13:40:44.000Z</time>
      </trkpt>
      <trkpt lat="46.29544" lon="6.49293">
        <ele>1216.7</ele>
        <time>2013-03-03T13:40:48.000Z</time>
      </trkpt>
      <trkpt lat="46.29544" lon="6.49292">
        <ele>1216.6</ele>
        <time>2013-03-03T13:40:49.000Z</time>
      </trkpt>
      <trkpt lat="46.2954" lon="6.49288">
        <ele>1216.2</ele>
        <time>2013-03-03T13:40:54.000Z</time>
      </trkpt>
      <trkpt lat="46.29539" lon="6.49287">
        <ele>1216.1</ele>
        <time>2013-03-03T13:40:55.000Z</time>
      </trkpt>
      <trkpt lat="46.29536" lon="6.49283">
        <ele>1216.3</ele>
        <time>2013-03-03T13:40:58.000Z</time>
      </trkpt>
      <trkpt lat="46.29536" lon="6.49282">
        <ele>1216.4</ele>
        <time>2013-03-03T13:40:59.000Z</time>
      </trkpt>
      <trkpt lat="46.29532" lon="6.49278">
        <ele>1216.4</ele>
        <time>2013-03-03T13:41:03.000Z</time>
      </trkpt>
      <trkpt lat="46.29532" lon="6.49277">
        <ele>1216.5</ele>
        <time>2013-03-03T13:41:04.000Z</time>
      </trkpt>
      <trkpt lat="46.29529" lon="6.49271">
        <ele>1216.9</ele>
        <time>2013-03-03T13:41:10.000Z</time>
      </trkpt>
      <trkpt lat="46.29528" lon="6.4927">
        <ele>1217</ele>
        <time>2013-03-03T13:41:11.000Z</time>
      </trkpt>
      <trkpt lat="46.29526" lon="6.49266">
        <ele>1217.3</ele>
        <time>2013-03-03T13:41:14.000Z</time>
      </trkpt>
      <trkpt lat="46.29525" lon="6.49265">
        <ele>1217.4</ele>
        <time>2013-03-03T13:41:15.000Z</time>
      </trkpt>
      <trkpt lat="46.29522" lon="6.49261">
        <ele>1218.3</ele>
        <time>2013-03-03T13:41:26.000Z</time>
      </trkpt>
      <trkpt lat="46.29521" lon="6.4926">
        <ele>1218.4</ele>
        <time>2013-03-03T13:41:27.000Z</time>
      </trkpt>
      <trkpt lat="46.29518" lon="6.49257">
        <ele>1218.8</ele>
        <time>2013-03-03T13:41:31.000Z</time>
      </trkpt>
      <trkpt lat="46.29517" lon="6.49256">
        <ele>1218.9</ele>
        <time>2013-03-03T13:41:32.000Z</time>
      </trkpt>
      <trkpt lat="46.29515" lon="6.49251">
        <ele>1219.3</ele>
        <time>2013-03-03T13:41:36.000Z</time>
      </trkpt>
      <trkpt lat="46.29514" lon="6.4925">
        <ele>1219.5</ele>
        <time>2013-03-03T13:41:37.000Z</time>
      </trkpt>
      <trkpt lat="46.29511" lon="6.49246">
        <ele>1220.1</ele>
        <time>2013-03-03T13:41:40.000Z</time>
      </trkpt>
      <trkpt lat="46.2951" lon="6.49245">
        <ele>1220.2</ele>
        <time>2013-03-03T13:41:41.000Z</time>
      </trkpt>
      <trkpt lat="46.29507" lon="6.4924">
        <ele>1221.1</ele>
        <time>2013-03-03T13:41:45.000Z</time>
      </trkpt>
      <trkpt lat="46.29507" lon="6.49239">
        <ele>1221.4</ele>
        <time>2013-03-03T13:41:46.000Z</time>
      </trkpt>
      <trkpt lat="46.29505" lon="6.49235">
        <ele>1222.2</ele>
        <time>2013-03-03T13:41:50.000Z</time>
      </trkpt>
      <trkpt lat="46.29504" lon="6.49234">
        <ele>1222.5</ele>
        <time>2013-03-03T13:41:51.000Z</time>
      </trkpt>
      <trkpt lat="46.29501" lon="6.4923">
        <ele>1223.4</ele>
        <time>2013-03-03T13:41:55.000Z</time>
      </trkpt>
      <trkpt lat="46.295" lon="6.49229">
        <ele>1223.6</ele>
        <time>2013-03-03T13:41:56.000Z</time>
      </trkpt>
      <trkpt lat="46.29497" lon="6.49225">
        <ele>1224.3</ele>
        <time>2013-03-03T13:42:00.000Z</time>
      </trkpt>
      <trkpt lat="46.29496" lon="6.49224">
        <ele>1224.6</ele>
        <time>2013-03-03T13:42:01.000Z</time>
      </trkpt>
      <trkpt lat="46.29493" lon="6.49221">
        <ele>1224.8</ele>
        <time>2013-03-03T13:42:06.000Z</time>
      </trkpt>
      <trkpt lat="46.29493" lon="6.4922">
        <ele>1224.8</ele>
        <time>2013-03-03T13:42:07.000Z</time>
      </trkpt>
      <trkpt lat="46.2949" lon="6.49216">
        <ele>1225.2</ele>
        <time>2013-03-03T13:42:11.000Z</time>
      </trkpt>
      <trkpt lat="46.2949" lon="6.49215">
        <ele>1225.5</ele>
        <time>2013-03-03T13:42:12.000Z</time>
      </trkpt>
      <trkpt lat="46.29487" lon="6.49211">
        <ele>1226.6</ele>
        <time>2013-03-03T13:42:18.000Z</time>
      </trkpt>
      <trkpt lat="46.29486" lon="6.49211">
        <ele>1226.7</ele>
        <time>2013-03-03T13:42:19.000Z</time>
      </trkpt>
      <trkpt lat="46.29484" lon="6.49206">
        <ele>1227.7</ele>
        <time>2013-03-03T13:42:24.000Z</time>
      </trkpt>
      <trkpt lat="46.29483" lon="6.49205">
        <ele>1228.2</ele>
        <time>2013-03-03T13:42:25.000Z</time>
      </trkpt>
      <trkpt lat="46.2948" lon="6.49202">
        <ele>1227.6</ele>
        <time>2013-03-03T13:42:34.000Z</time>
      </trkpt>
      <trkpt lat="46.29478" lon="6.492">
        <ele>1228</ele>
        <time>2013-03-03T13:42:35.000Z</time>
      </trkpt>
      <trkpt lat="46.29475" lon="6.49196">
        <ele>1228.6</ele>
        <time>2013-03-03T13:42:40.000Z</time>
      </trkpt>
      <trkpt lat="46.29475" lon="6.49196">
        <ele>1228.2</ele>
        <time>2013-03-03T13:42:41.000Z</time>
      </trkpt>
      <trkpt lat="46.29471" lon="6.49192">
        <ele>1227.1</ele>
        <time>2013-03-03T13:42:48.000Z</time>
      </trkpt>
      <trkpt lat="46.29471" lon="6.49191">
        <ele>1226.9</ele>
        <time>2013-03-03T13:42:49.000Z</time>
      </trkpt>
      <trkpt lat="46.29467" lon="6.49187">
        <ele>1227.6</ele>
        <time>2013-03-03T13:42:54.000Z</time>
      </trkpt>
      <trkpt lat="46.29467" lon="6.49186">
        <ele>1227.6</ele>
        <time>2013-03-03T13:42:55.000Z</time>
      </trkpt>
      <trkpt lat="46.29463" lon="6.49182">
        <ele>1227.4</ele>
        <time>2013-03-03T13:43:01.000Z</time>
      </trkpt>
      <trkpt lat="46.29463" lon="6.49182">
        <ele>1227.6</ele>
        <time>2013-03-03T13:43:02.000Z</time>
      </trkpt>
      <trkpt lat="46.29459" lon="6.49179">
        <ele>1226.6</ele>
        <time>2013-03-03T13:43:08.000Z</time>
      </trkpt>
      <trkpt lat="46.29459" lon="6.49178">
        <ele>1226.7</ele>
        <time>2013-03-03T13:43:09.000Z</time>
      </trkpt>
      <trkpt lat="46.29455" lon="6.49174">
        <ele>1227</ele>
        <time>2013-03-03T13:43:14.000Z</time>
      </trkpt>
      <trkpt lat="46.29455" lon="6.49173">
        <ele>1227.1</ele>
        <time>2013-03-03T13:43:15.000Z</time>
      </trkpt>
      <trkpt lat="46.29452" lon="6.49168">
        <ele>1227.2</ele>
        <time>2013-03-03T13:43:21.000Z</time>
      </trkpt>
      <trkpt lat="46.29452" lon="6.49167">
        <ele>1227.2</ele>
        <time>2013-03-03T13:43:22.000Z</time>
      </trkpt>
      <trkpt lat="46.29449" lon="6.49162">
        <ele>1226.8</ele>
        <time>2013-03-03T13:43:27.000Z</time>
      </trkpt>
      <trkpt lat="46.29449" lon="6.49161">
        <ele>1226.9</ele>
        <time>2013-03-03T13:43:28.000Z</time>
      </trkpt>
      <trkpt lat="46.29446" lon="6.49156">
        <ele>1227.4</ele>
        <time>2013-03-03T13:43:33.000Z</time>
      </trkpt>
      <trkpt lat="46.29446" lon="6.49155">
        <ele>1227.5</ele>
        <time>2013-03-03T13:43:34.000Z</time>
      </trkpt>
      <trkpt lat="46.29444" lon="6.49149">
        <ele>1227.6</ele>
        <time>2013-03-03T13:43:40.000Z</time>
      </trkpt>
      <trkpt lat="46.29444" lon="6.49148">
        <ele>1227.8</ele>
        <time>2013-03-03T13:43:41.000Z</time>
      </trkpt>
      <trkpt lat="46.29443" lon="6.49142">
        <ele>1228.1</ele>
        <time>2013-03-03T13:43:47.000Z</time>
      </trkpt>
      <trkpt lat="46.29442" lon="6.49142">
        <ele>1228.1</ele>
        <time>2013-03-03T13:43:48.000Z</time>
      </trkpt>
      <trkpt lat="46.29442" lon="6.49136">
        <ele>1228</ele>
        <time>2013-03-03T13:43:54.000Z</time>
      </trkpt>
      <trkpt lat="46.29442" lon="6.49135">
        <ele>1228</ele>
        <time>2013-03-03T13:43:55.000Z</time>
      </trkpt>
      <trkpt lat="46.2944" lon="6.4913">
        <ele>1228.2</ele>
        <time>2013-03-03T13:44:00.000Z</time>
      </trkpt>
      <trkpt lat="46.2944" lon="6.49129">
        <ele>1228.5</ele>
        <time>2013-03-03T13:44:01.000Z</time>
      </trkpt>
      <trkpt lat="46.29438" lon="6.49124">
        <ele>1229.3</ele>
        <time>2013-03-03T13:44:05.000Z</time>
      </trkpt>
      <trkpt lat="46.29438" lon="6.49123">
        <ele>1229.5</ele>
        <time>2013-03-03T13:44:06.000Z</time>
      </trkpt>
      <trkpt lat="46.29436" lon="6.49117">
        <ele>1230</ele>
        <time>2013-03-03T13:44:11.000Z</time>
      </trkpt>
      <trkpt lat="46.29435" lon="6.49116">
        <ele>1230.7</ele>
        <time>2013-03-03T13:44:12.000Z</time>
      </trkpt>
      <trkpt lat="46.29434" lon="6.49111">
        <ele>1233.5</ele>
        <time>2013-03-03T13:44:16.000Z</time>
      </trkpt>
      <trkpt lat="46.29433" lon="6.4911">
        <ele>1234.2</ele>
        <time>2013-03-03T13:44:17.000Z</time>
      </trkpt>
      <trkpt lat="46.29432" lon="6.49104">
        <ele>1235.9</ele>
        <time>2013-03-03T13:44:29.000Z</time>
      </trkpt>
      <trkpt lat="46.2943" lon="6.49103">
        <ele>1236.3</ele>
        <time>2013-03-03T13:44:30.000Z</time>
      </trkpt>
      <trkpt lat="46.29426" lon="6.49104">
        <ele>1236.8</ele>
        <time>2013-03-03T13:44:36.000Z</time>
      </trkpt>
      <trkpt lat="46.29425" lon="6.49104">
        <ele>1236.9</ele>
        <time>2013-03-03T13:44:37.000Z</time>
      </trkpt>
      <trkpt lat="46.2942" lon="6.49105">
        <ele>1237.2</ele>
        <time>2013-03-03T13:44:43.000Z</time>
      </trkpt>
      <trkpt lat="46.2942" lon="6.49104">
        <ele>1237.2</ele>
        <time>2013-03-03T13:44:44.000Z</time>
      </trkpt>
      <trkpt lat="46.29416" lon="6.49105">
        <ele>1237.4</ele>
        <time>2013-03-03T13:44:48.000Z</time>
      </trkpt>
      <trkpt lat="46.29415" lon="6.49104">
        <ele>1236.9</ele>
        <time>2013-03-03T13:44:49.000Z</time>
      </trkpt>
      <trkpt lat="46.29411" lon="6.49101">
        <ele>1235.5</ele>
        <time>2013-03-03T13:44:54.000Z</time>
      </trkpt>
      <trkpt lat="46.2941" lon="6.491">
        <ele>1235.2</ele>
        <time>2013-03-03T13:44:55.000Z</time>
      </trkpt>
      <trkpt lat="46.29406" lon="6.491">
        <ele>1234.7</ele>
        <time>2013-03-03T13:45:00.000Z</time>
      </trkpt>
      <trkpt lat="46.29405" lon="6.491">
        <ele>1235</ele>
        <time>2013-03-03T13:45:01.000Z</time>
      </trkpt>
      <trkpt lat="46.29401" lon="6.491">
        <ele>1235.3</ele>
        <time>2013-03-03T13:45:05.000Z</time>
      </trkpt>
      <trkpt lat="46.294" lon="6.491">
        <ele>1235.4</ele>
        <time>2013-03-03T13:45:06.000Z</time>
      </trkpt>
      <trkpt lat="46.29396" lon="6.49098">
        <ele>1235.9</ele>
        <time>2013-03-03T13:45:11.000Z</time>
      </trkpt>
      <trkpt lat="46.29395" lon="6.49097">
        <ele>1235.6</ele>
        <time>2013-03-03T13:45:12.000Z</time>
      </trkpt>
      <trkpt lat="46.29391" lon="6.49096">
        <ele>1234.5</ele>
        <time>2013-03-03T13:45:17.000Z</time>
      </trkpt>
      <trkpt lat="46.2939" lon="6.49095">
        <ele>1234.4</ele>
        <time>2013-03-03T13:45:18.000Z</time>
      </trkpt>
      <trkpt lat="46.29387" lon="6.49094">
        <ele>1234.9</ele>
        <time>2013-03-03T13:45:21.000Z</time>
      </trkpt>
      <trkpt lat="46.29386" lon="6.49093">
        <ele>1235.1</ele>
        <time>2013-03-03T13:45:22.000Z</time>
      </trkpt>
      <trkpt lat="46.29382" lon="6.49091">
        <ele>1234.4</ele>
        <time>2013-03-03T13:45:25.000Z</time>
      </trkpt>
      <trkpt lat="46.29381" lon="6.49091">
        <ele>1234.3</ele>
        <time>2013-03-03T13:45:26.000Z</time>
      </trkpt>
      <trkpt lat="46.29377" lon="6.49089">
        <ele>1233.9</ele>
        <time>2013-03-03T13:45:31.000Z</time>
      </trkpt>
      <trkpt lat="46.29375" lon="6.49088">
        <ele>1233.9</ele>
        <time>2013-03-03T13:45:32.000Z</time>
      </trkpt>
      <trkpt lat="46.29371" lon="6.49086">
        <ele>1233.9</ele>
        <time>2013-03-03T13:45:36.000Z</time>
      </trkpt>
      <trkpt lat="46.2937" lon="6.49086">
        <ele>1233.9</ele>
        <time>2013-03-03T13:45:37.000Z</time>
      </trkpt>
      <trkpt lat="46.29366" lon="6.49085">
        <ele>1234.1</ele>
        <time>2013-03-03T13:45:41.000Z</time>
      </trkpt>
      <trkpt lat="46.29366" lon="6.49084">
        <ele>1234.1</ele>
        <time>2013-03-03T13:45:42.000Z</time>
      </trkpt>
      <trkpt lat="46.29362" lon="6.49082">
        <ele>1234.1</ele>
        <time>2013-03-03T13:45:46.000Z</time>
      </trkpt>
      <trkpt lat="46.29361" lon="6.49081">
        <ele>1234.4</ele>
        <time>2013-03-03T13:45:47.000Z</time>
      </trkpt>
      <trkpt lat="46.29357" lon="6.49081">
        <ele>1234.7</ele>
        <time>2013-03-03T13:45:52.000Z</time>
      </trkpt>
      <trkpt lat="46.29356" lon="6.49081">
        <ele>1234.7</ele>
        <time>2013-03-03T13:45:53.000Z</time>
      </trkpt>
      <trkpt lat="46.29352" lon="6.4908">
        <ele>1235.8</ele>
        <time>2013-03-03T13:45:58.000Z</time>
      </trkpt>
      <trkpt lat="46.29351" lon="6.4908">
        <ele>1235.6</ele>
        <time>2013-03-03T13:45:59.000Z</time>
      </trkpt>
      <trkpt lat="46.29347" lon="6.49081">
        <ele>1236.5</ele>
        <time>2013-03-03T13:46:04.000Z</time>
      </trkpt>
      <trkpt lat="46.29346" lon="6.49081">
        <ele>1236.7</ele>
        <time>2013-03-03T13:46:05.000Z</time>
      </trkpt>
      <trkpt lat="46.29342" lon="6.49082">
        <ele>1237.9</ele>
        <time>2013-03-03T13:46:39.000Z</time>
      </trkpt>
      <trkpt lat="46.29341" lon="6.49082">
        <ele>1238</ele>
        <time>2013-03-03T13:46:40.000Z</time>
      </trkpt>
      <trkpt lat="46.29338" lon="6.49085">
        <ele>1238.2</ele>
        <time>2013-03-03T13:46:45.000Z</time>
      </trkpt>
      <trkpt lat="46.29337" lon="6.49085">
        <ele>1238.4</ele>
        <time>2013-03-03T13:46:46.000Z</time>
      </trkpt>
      <trkpt lat="46.29333" lon="6.49088">
        <ele>1238.4</ele>
        <time>2013-03-03T13:46:50.000Z</time>
      </trkpt>
      <trkpt lat="46.29332" lon="6.49088">
        <ele>1238.3</ele>
        <time>2013-03-03T13:46:51.000Z</time>
      </trkpt>
      <trkpt lat="46.29328" lon="6.4909">
        <ele>1238.4</ele>
        <time>2013-03-03T13:46:55.000Z</time>
      </trkpt>
      <trkpt lat="46.29328" lon="6.49091">
        <ele>1238.4</ele>
        <time>2013-03-03T13:46:56.000Z</time>
      </trkpt>
      <trkpt lat="46.29324" lon="6.49093">
        <ele>1239.2</ele>
        <time>2013-03-03T13:47:00.000Z</time>
      </trkpt>
      <trkpt lat="46.29323" lon="6.49093">
        <ele>1239.3</ele>
        <time>2013-03-03T13:47:01.000Z</time>
      </trkpt>
      <trkpt lat="46.29318" lon="6.49092">
        <ele>1239.4</ele>
        <time>2013-03-03T13:47:06.000Z</time>
      </trkpt>
      <trkpt lat="46.29317" lon="6.49092">
        <ele>1239.4</ele>
        <time>2013-03-03T13:47:07.000Z</time>
      </trkpt>
      <trkpt lat="46.29313" lon="6.49092">
        <ele>1239.9</ele>
        <time>2013-03-03T13:47:12.000Z</time>
      </trkpt>
      <trkpt lat="46.29312" lon="6.49091">
        <ele>1240</ele>
        <time>2013-03-03T13:47:13.000Z</time>
      </trkpt>
      <trkpt lat="46.29308" lon="6.4909">
        <ele>1240.8</ele>
        <time>2013-03-03T13:47:17.000Z</time>
      </trkpt>
      <trkpt lat="46.29308" lon="6.49089">
        <ele>1240.9</ele>
        <time>2013-03-03T13:47:18.000Z</time>
      </trkpt>
      <trkpt lat="46.29305" lon="6.49085">
        <ele>1241.3</ele>
        <time>2013-03-03T13:47:24.000Z</time>
      </trkpt>
      <trkpt lat="46.29304" lon="6.49085">
        <ele>1241.3</ele>
        <time>2013-03-03T13:47:25.000Z</time>
      </trkpt>
      <trkpt lat="46.29302" lon="6.49081">
        <ele>1241.7</ele>
        <time>2013-03-03T13:47:30.000Z</time>
      </trkpt>
      <trkpt lat="46.29301" lon="6.4908">
        <ele>1241.9</ele>
        <time>2013-03-03T13:47:31.000Z</time>
      </trkpt>
      <trkpt lat="46.29298" lon="6.49076">
        <ele>1242.4</ele>
        <time>2013-03-03T13:47:36.000Z</time>
      </trkpt>
      <trkpt lat="46.29297" lon="6.49075">
        <ele>1242.6</ele>
        <time>2013-03-03T13:47:37.000Z</time>
      </trkpt>
      <trkpt lat="46.29294" lon="6.49071">
        <ele>1243.7</ele>
        <time>2013-03-03T13:47:41.000Z</time>
      </trkpt>
      <trkpt lat="46.29294" lon="6.4907">
        <ele>1244</ele>
        <time>2013-03-03T13:47:42.000Z</time>
      </trkpt>
      <trkpt lat="46.29291" lon="6.49065">
        <ele>1244</ele>
        <time>2013-03-03T13:47:47.000Z</time>
      </trkpt>
      <trkpt lat="46.29291" lon="6.49065">
        <ele>1243.9</ele>
        <time>2013-03-03T13:47:48.000Z</time>
      </trkpt>
      <trkpt lat="46.29288" lon="6.49061">
        <ele>1243.5</ele>
        <time>2013-03-03T13:47:53.000Z</time>
      </trkpt>
      <trkpt lat="46.29287" lon="6.4906">
        <ele>1243.6</ele>
        <time>2013-03-03T13:47:54.000Z</time>
      </trkpt>
      <trkpt lat="46.29284" lon="6.49057">
        <ele>1243.6</ele>
        <time>2013-03-03T13:47:59.000Z</time>
      </trkpt>
      <trkpt lat="46.29283" lon="6.49056">
        <ele>1243.6</ele>
        <time>2013-03-03T13:48:00.000Z</time>
      </trkpt>
      <trkpt lat="46.2928" lon="6.49053">
        <ele>1244</ele>
        <time>2013-03-03T13:48:04.000Z</time>
      </trkpt>
      <trkpt lat="46.29279" lon="6.49052">
        <ele>1244</ele>
        <time>2013-03-03T13:48:05.000Z</time>
      </trkpt>
      <trkpt lat="46.29276" lon="6.49049">
        <ele>1244.6</ele>
        <time>2013-03-03T13:48:10.000Z</time>
      </trkpt>
      <trkpt lat="46.29275" lon="6.49048">
        <ele>1244.7</ele>
        <time>2013-03-03T13:48:11.000Z</time>
      </trkpt>
      <trkpt lat="46.29271" lon="6.49045">
        <ele>1245.8</ele>
        <time>2013-03-03T13:48:17.000Z</time>
      </trkpt>
      <trkpt lat="46.29271" lon="6.49044">
        <ele>1245.9</ele>
        <time>2013-03-03T13:48:18.000Z</time>
      </trkpt>
      <trkpt lat="46.29267" lon="6.49042">
        <ele>1246.1</ele>
        <time>2013-03-03T13:48:23.000Z</time>
      </trkpt>
      <trkpt lat="46.29266" lon="6.49041">
        <ele>1246.3</ele>
        <time>2013-03-03T13:48:24.000Z</time>
      </trkpt>
      <trkpt lat="46.29263" lon="6.49037">
        <ele>1247.5</ele>
        <time>2013-03-03T13:48:28.000Z</time>
      </trkpt>
      <trkpt lat="46.29262" lon="6.49037">
        <ele>1247.8</ele>
        <time>2013-03-03T13:48:29.000Z</time>
      </trkpt>
      <trkpt lat="46.29259" lon="6.49035">
        <ele>1248.2</ele>
        <time>2013-03-03T13:48:35.000Z</time>
      </trkpt>
      <trkpt lat="46.29258" lon="6.49034">
        <ele>1248.6</ele>
        <time>2013-03-03T13:48:36.000Z</time>
      </trkpt>
      <trkpt lat="46.29254" lon="6.49033">
        <ele>1249.1</ele>
        <time>2013-03-03T13:48:41.000Z</time>
      </trkpt>
      <trkpt lat="46.29253" lon="6.49033">
        <ele>1249.2</ele>
        <time>2013-03-03T13:48:42.000Z</time>
      </trkpt>
      <trkpt lat="46.29248" lon="6.49032">
        <ele>1249.8</ele>
        <time>2013-03-03T13:48:47.000Z</time>
      </trkpt>
      <trkpt lat="46.29248" lon="6.49031">
        <ele>1250</ele>
        <time>2013-03-03T13:48:48.000Z</time>
      </trkpt>
      <trkpt lat="46.29244" lon="6.4903">
        <ele>1250.6</ele>
        <time>2013-03-03T13:48:52.000Z</time>
      </trkpt>
      <trkpt lat="46.29243" lon="6.4903">
        <ele>1250.5</ele>
        <time>2013-03-03T13:48:53.000Z</time>
      </trkpt>
      <trkpt lat="46.29239" lon="6.49028">
        <ele>1250.9</ele>
        <time>2013-03-03T13:48:57.000Z</time>
      </trkpt>
      <trkpt lat="46.29238" lon="6.49029">
        <ele>1251</ele>
        <time>2013-03-03T13:48:58.000Z</time>
      </trkpt>
      <trkpt lat="46.29233" lon="6.49029">
        <ele>1251.5</ele>
        <time>2013-03-03T13:49:03.000Z</time>
      </trkpt>
      <trkpt lat="46.29232" lon="6.49029">
        <ele>1251.3</ele>
        <time>2013-03-03T13:49:04.000Z</time>
      </trkpt>
      <trkpt lat="46.29229" lon="6.4903">
        <ele>1250.7</ele>
        <time>2013-03-03T13:49:07.000Z</time>
      </trkpt>
      <trkpt lat="46.29228" lon="6.49031">
        <ele>1250.7</ele>
        <time>2013-03-03T13:49:08.000Z</time>
      </trkpt>
      <trkpt lat="46.29224" lon="6.49034">
        <ele>1250.5</ele>
        <time>2013-03-03T13:49:13.000Z</time>
      </trkpt>
      <trkpt lat="46.29224" lon="6.49035">
        <ele>1250.3</ele>
        <time>2013-03-03T13:49:14.000Z</time>
      </trkpt>
      <trkpt lat="46.29222" lon="6.49039">
        <ele>1250.1</ele>
        <time>2013-03-03T13:49:18.000Z</time>
      </trkpt>
      <trkpt lat="46.29221" lon="6.4904">
        <ele>1250.2</ele>
        <time>2013-03-03T13:49:19.000Z</time>
      </trkpt>
      <trkpt lat="46.29219" lon="6.49044">
        <ele>1250.6</ele>
        <time>2013-03-03T13:49:23.000Z</time>
      </trkpt>
      <trkpt lat="46.29218" lon="6.49045">
        <ele>1250.6</ele>
        <time>2013-03-03T13:49:24.000Z</time>
      </trkpt>
      <trkpt lat="46.29216" lon="6.49049">
        <ele>1250.9</ele>
        <time>2013-03-03T13:49:27.000Z</time>
      </trkpt>
      <trkpt lat="46.29215" lon="6.49051">
        <ele>1251.1</ele>
        <time>2013-03-03T13:49:28.000Z</time>
      </trkpt>
      <trkpt lat="46.29212" lon="6.49056">
        <ele>1251.2</ele>
        <time>2013-03-03T13:49:31.000Z</time>
      </trkpt>
      <trkpt lat="46.29211" lon="6.49057">
        <ele>1251.2</ele>
        <time>2013-03-03T13:49:32.000Z</time>
      </trkpt>
      <trkpt lat="46.29208" lon="6.4906">
        <ele>1251.7</ele>
        <time>2013-03-03T13:49:35.000Z</time>
      </trkpt>
      <trkpt lat="46.29207" lon="6.49061">
        <ele>1251.7</ele>
        <time>2013-03-03T13:49:36.000Z</time>
      </trkpt>
      <trkpt lat="46.29203" lon="6.49063">
        <ele>1252.1</ele>
        <time>2013-03-03T13:49:39.000Z</time>
      </trkpt>
      <trkpt lat="46.29202" lon="6.49064">
        <ele>1252.1</ele>
        <time>2013-03-03T13:49:40.000Z</time>
      </trkpt>
      <trkpt lat="46.29197" lon="6.49062">
        <ele>1251.8</ele>
        <time>2013-03-03T13:49:44.000Z</time>
      </trkpt>
      <trkpt lat="46.29196" lon="6.49062">
        <ele>1251.6</ele>
        <time>2013-03-03T13:49:45.000Z</time>
      </trkpt>
      <trkpt lat="46.29193" lon="6.49058">
        <ele>1251.1</ele>
        <time>2013-03-03T13:49:48.000Z</time>
      </trkpt>
      <trkpt lat="46.29192" lon="6.49057">
        <ele>1250.8</ele>
        <time>2013-03-03T13:49:49.000Z</time>
      </trkpt>
      <trkpt lat="46.29189" lon="6.49056">
        <ele>1250.2</ele>
        <time>2013-03-03T13:49:58.000Z</time>
      </trkpt>
      <trkpt lat="46.29188" lon="6.49056">
        <ele>1249.9</ele>
        <time>2013-03-03T13:49:59.000Z</time>
      </trkpt>
      <trkpt lat="46.29184" lon="6.49056">
        <ele>1249.2</ele>
        <time>2013-03-03T13:50:02.000Z</time>
      </trkpt>
      <trkpt lat="46.29183" lon="6.49056">
        <ele>1249</ele>
        <time>2013-03-03T13:50:03.000Z</time>
      </trkpt>
      <trkpt lat="46.29184" lon="6.49062">
        <ele>1251.1</ele>
        <time>2013-03-03T13:53:57.000Z</time>
      </trkpt>
      <trkpt lat="46.29184" lon="6.49063">
        <ele>1251.1</ele>
        <time>2013-03-03T13:53:58.000Z</time>
      </trkpt>
      <trkpt lat="46.29186" lon="6.49066">
        <ele>1243.5</ele>
        <time>2013-03-03T13:54:45.000Z</time>
      </trkpt>
      <trkpt lat="46.29184" lon="6.49071">
        <ele>1250.5</ele>
        <time>2013-03-03T13:54:46.000Z</time>
      </trkpt>
      <trkpt lat="46.29182" lon="6.49077">
        <ele>1251</ele>
        <time>2013-03-03T13:54:51.000Z</time>
      </trkpt>
      <trkpt lat="46.29181" lon="6.49078">
        <ele>1251.5</ele>
        <time>2013-03-03T13:54:52.000Z</time>
      </trkpt>
      <trkpt lat="46.29178" lon="6.49082">
        <ele>1252.5</ele>
        <time>2013-03-03T13:54:58.000Z</time>
      </trkpt>
      <trkpt lat="46.29178" lon="6.49083">
        <ele>1253</ele>
        <time>2013-03-03T13:54:59.000Z</time>
      </trkpt>
      <trkpt lat="46.29175" lon="6.49088">
        <ele>1254</ele>
        <time>2013-03-03T13:55:04.000Z</time>
      </trkpt>
      <trkpt lat="46.29175" lon="6.49089">
        <ele>1254</ele>
        <time>2013-03-03T13:55:05.000Z</time>
      </trkpt>
      <trkpt lat="46.29173" lon="6.49094">
        <ele>1254.1</ele>
        <time>2013-03-03T13:55:12.000Z</time>
      </trkpt>
      <trkpt lat="46.29173" lon="6.49095">
        <ele>1254</ele>
        <time>2013-03-03T13:55:13.000Z</time>
      </trkpt>
      <trkpt lat="46.29171" lon="6.491">
        <ele>1257.1</ele>
        <time>2013-03-03T13:55:33.000Z</time>
      </trkpt>
      <trkpt lat="46.29171" lon="6.49101">
        <ele>1257.7</ele>
        <time>2013-03-03T13:55:34.000Z</time>
      </trkpt>
      <trkpt lat="46.29168" lon="6.49106">
        <ele>1261</ele>
        <time>2013-03-03T13:55:49.000Z</time>
      </trkpt>
      <trkpt lat="46.29167" lon="6.49107">
        <ele>1261.1</ele>
        <time>2013-03-03T13:55:50.000Z</time>
      </trkpt>
      <trkpt lat="46.29166" lon="6.49112">
        <ele>1261.3</ele>
        <time>2013-03-03T13:55:58.000Z</time>
      </trkpt>
      <trkpt lat="46.29166" lon="6.49113">
        <ele>1261.2</ele>
        <time>2013-03-03T13:55:59.000Z</time>
      </trkpt>
      <trkpt lat="46.29164" lon="6.49118">
        <ele>1262.2</ele>
        <time>2013-03-03T13:56:05.000Z</time>
      </trkpt>
      <trkpt lat="46.29164" lon="6.49119">
        <ele>1262.5</ele>
        <time>2013-03-03T13:56:06.000Z</time>
      </trkpt>
      <trkpt lat="46.29162" lon="6.49125">
        <ele>1263.2</ele>
        <time>2013-03-03T13:56:13.000Z</time>
      </trkpt>
      <trkpt lat="46.29162" lon="6.49125">
        <ele>1263.2</ele>
        <time>2013-03-03T13:56:14.000Z</time>
      </trkpt>
      <trkpt lat="46.2916" lon="6.49131">
        <ele>1263.4</ele>
        <time>2013-03-03T13:56:21.000Z</time>
      </trkpt>
      <trkpt lat="46.2916" lon="6.49131">
        <ele>1263.3</ele>
        <time>2013-03-03T13:56:22.000Z</time>
      </trkpt>
      <trkpt lat="46.29157" lon="6.49136">
        <ele>1263.5</ele>
        <time>2013-03-03T13:56:32.000Z</time>
      </trkpt>
      <trkpt lat="46.29157" lon="6.49136">
        <ele>1263.9</ele>
        <time>2013-03-03T13:56:33.000Z</time>
      </trkpt>
      <trkpt lat="46.29155" lon="6.49138">
        <ele>1264.1</ele>
        <time>2013-03-03T13:56:35.000Z</time>
      </trkpt>
      <trkpt lat="46.2914" lon="6.49142">
        <ele>1277.4</ele>
        <time>2013-03-03T13:56:51.000Z</time>
      </trkpt>
      <trkpt lat="46.29137" lon="6.49146">
        <ele>1280.2</ele>
        <time>2013-03-03T13:56:58.000Z</time>
      </trkpt>
      <trkpt lat="46.29136" lon="6.49146">
        <ele>1281</ele>
        <time>2013-03-03T13:56:59.000Z</time>
      </trkpt>
      <trkpt lat="46.29133" lon="6.4915">
        <ele>1284.3</ele>
        <time>2013-03-03T13:57:04.000Z</time>
      </trkpt>
      <trkpt lat="46.29132" lon="6.49151">
        <ele>1285.1</ele>
        <time>2013-03-03T13:57:05.000Z</time>
      </trkpt>
      <trkpt lat="46.29128" lon="6.49153">
        <ele>1285.8</ele>
        <time>2013-03-03T13:57:09.000Z</time>
      </trkpt>
      <trkpt lat="46.29127" lon="6.49154">
        <ele>1286</ele>
        <time>2013-03-03T13:57:10.000Z</time>
      </trkpt>
      <trkpt lat="46.29124" lon="6.49158">
        <ele>1286.2</ele>
        <time>2013-03-03T13:57:15.000Z</time>
      </trkpt>
      <trkpt lat="46.29124" lon="6.49159">
        <ele>1286.2</ele>
        <time>2013-03-03T13:57:16.000Z</time>
      </trkpt>
      <trkpt lat="46.29121" lon="6.49165">
        <ele>1285.8</ele>
        <time>2013-03-03T13:57:24.000Z</time>
      </trkpt>
      <trkpt lat="46.29121" lon="6.49165">
        <ele>1285.5</ele>
        <time>2013-03-03T13:57:25.000Z</time>
      </trkpt>
      <trkpt lat="46.29118" lon="6.4917">
        <ele>1284.8</ele>
        <time>2013-03-03T13:57:34.000Z</time>
      </trkpt>
      <trkpt lat="46.29118" lon="6.49171">
        <ele>1284.9</ele>
        <time>2013-03-03T13:57:35.000Z</time>
      </trkpt>
      <trkpt lat="46.29116" lon="6.49174">
        <ele>1285.8</ele>
        <time>2013-03-03T13:57:41.000Z</time>
      </trkpt>
      <trkpt lat="46.29114" lon="6.49174">
        <ele>1285.9</ele>
        <time>2013-03-03T13:57:42.000Z</time>
      </trkpt>
      <trkpt lat="46.29111" lon="6.49177">
        <ele>1286.7</ele>
        <time>2013-03-03T13:57:52.000Z</time>
      </trkpt>
      <trkpt lat="46.2911" lon="6.49178">
        <ele>1286.7</ele>
        <time>2013-03-03T13:57:53.000Z</time>
      </trkpt>
      <trkpt lat="46.29107" lon="6.49182">
        <ele>1286.7</ele>
        <time>2013-03-03T13:57:56.000Z</time>
      </trkpt>
      <trkpt lat="46.29106" lon="6.49183">
        <ele>1286.5</ele>
        <time>2013-03-03T13:57:57.000Z</time>
      </trkpt>
      <trkpt lat="46.29104" lon="6.49189">
        <ele>1286.9</ele>
        <time>2013-03-03T13:58:02.000Z</time>
      </trkpt>
      <trkpt lat="46.29104" lon="6.49189">
        <ele>1287.3</ele>
        <time>2013-03-03T13:58:03.000Z</time>
      </trkpt>
      <trkpt lat="46.29101" lon="6.49193">
        <ele>1288.2</ele>
        <time>2013-03-03T13:58:08.000Z</time>
      </trkpt>
      <trkpt lat="46.291" lon="6.49193">
        <ele>1288.3</ele>
        <time>2013-03-03T13:58:09.000Z</time>
      </trkpt>
      <trkpt lat="46.29097" lon="6.49197">
        <ele>1289.9</ele>
        <time>2013-03-03T13:58:17.000Z</time>
      </trkpt>
      <trkpt lat="46.29097" lon="6.49198">
        <ele>1290.1</ele>
        <time>2013-03-03T13:58:18.000Z</time>
      </trkpt>
      <trkpt lat="46.29093" lon="6.49202">
        <ele>1292.1</ele>
        <time>2013-03-03T13:58:24.000Z</time>
      </trkpt>
      <trkpt lat="46.29093" lon="6.49202">
        <ele>1292.7</ele>
        <time>2013-03-03T13:58:25.000Z</time>
      </trkpt>
      <trkpt lat="46.29089" lon="6.492">
        <ele>1296.8</ele>
        <time>2013-03-03T13:58:42.000Z</time>
      </trkpt>
      <trkpt lat="46.29088" lon="6.492">
        <ele>1296.7</ele>
        <time>2013-03-03T13:58:43.000Z</time>
      </trkpt>
      <trkpt lat="46.29084" lon="6.49199">
        <ele>1299.7</ele>
        <time>2013-03-03T13:58:54.000Z</time>
      </trkpt>
      <trkpt lat="46.29084" lon="6.49199">
        <ele>1299.7</ele>
        <time>2013-03-03T13:58:55.000Z</time>
      </trkpt>
      <trkpt lat="46.29082" lon="6.49194">
        <ele>1296.9</ele>
        <time>2013-03-03T13:59:06.000Z</time>
      </trkpt>
      <trkpt lat="46.29081" lon="6.49193">
        <ele>1296.9</ele>
        <time>2013-03-03T13:59:07.000Z</time>
      </trkpt>
      <trkpt lat="46.29077" lon="6.4919">
        <ele>1295.7</ele>
        <time>2013-03-03T13:59:15.000Z</time>
      </trkpt>
      <trkpt lat="46.29077" lon="6.49191">
        <ele>1295.9</ele>
        <time>2013-03-03T13:59:16.000Z</time>
      </trkpt>
      <trkpt lat="46.29074" lon="6.49192">
        <ele>1295.4</ele>
        <time>2013-03-03T13:59:20.000Z</time>
      </trkpt>
      <trkpt lat="46.29072" lon="6.49191">
        <ele>1294.2</ele>
        <time>2013-03-03T13:59:21.000Z</time>
      </trkpt>
      <trkpt lat="46.29069" lon="6.49188">
        <ele>1295</ele>
        <time>2013-03-03T13:59:24.000Z</time>
      </trkpt>
      <trkpt lat="46.29068" lon="6.49187">
        <ele>1294.8</ele>
        <time>2013-03-03T13:59:25.000Z</time>
      </trkpt>
      <trkpt lat="46.29063" lon="6.49188">
        <ele>1294.5</ele>
        <time>2013-03-03T13:59:36.000Z</time>
      </trkpt>
      <trkpt lat="46.29063" lon="6.49189">
        <ele>1294.2</ele>
        <time>2013-03-03T13:59:37.000Z</time>
      </trkpt>
      <trkpt lat="46.29063" lon="6.49196">
        <ele>1292.2</ele>
        <time>2013-03-03T13:59:43.000Z</time>
      </trkpt>
      <trkpt lat="46.29063" lon="6.49196">
        <ele>1292.1</ele>
        <time>2013-03-03T13:59:44.000Z</time>
      </trkpt>
      <trkpt lat="46.29061" lon="6.49201">
        <ele>1292.6</ele>
        <time>2013-03-03T14:00:21.000Z</time>
      </trkpt>
      <trkpt lat="46.29061" lon="6.49202">
        <ele>1292.6</ele>
        <time>2013-03-03T14:00:22.000Z</time>
      </trkpt>
      <trkpt lat="46.29059" lon="6.49208">
        <ele>1292.6</ele>
        <time>2013-03-03T14:00:27.000Z</time>
      </trkpt>
      <trkpt lat="46.29059" lon="6.49209">
        <ele>1292.5</ele>
        <time>2013-03-03T14:00:28.000Z</time>
      </trkpt>
      <trkpt lat="46.29058" lon="6.49215">
        <ele>1293.4</ele>
        <time>2013-03-03T14:00:34.000Z</time>
      </trkpt>
      <trkpt lat="46.29058" lon="6.49216">
        <ele>1293.5</ele>
        <time>2013-03-03T14:00:35.000Z</time>
      </trkpt>
      <trkpt lat="46.29057" lon="6.49221">
        <ele>1294.4</ele>
        <time>2013-03-03T14:00:41.000Z</time>
      </trkpt>
      <trkpt lat="46.29057" lon="6.49223">
        <ele>1294.7</ele>
        <time>2013-03-03T14:00:42.000Z</time>
      </trkpt>
      <trkpt lat="46.29056" lon="6.49228">
        <ele>1296.6</ele>
        <time>2013-03-03T14:00:49.000Z</time>
      </trkpt>
      <trkpt lat="46.29056" lon="6.49229">
        <ele>1296.9</ele>
        <time>2013-03-03T14:00:50.000Z</time>
      </trkpt>
      <trkpt lat="46.29054" lon="6.49235">
        <ele>1298.4</ele>
        <time>2013-03-03T14:00:57.000Z</time>
      </trkpt>
      <trkpt lat="46.29054" lon="6.49235">
        <ele>1298.7</ele>
        <time>2013-03-03T14:00:58.000Z</time>
      </trkpt>
      <trkpt lat="46.29055" lon="6.49241">
        <ele>1299.1</ele>
        <time>2013-03-03T14:01:04.000Z</time>
      </trkpt>
      <trkpt lat="46.29055" lon="6.49242">
        <ele>1299.2</ele>
        <time>2013-03-03T14:01:05.000Z</time>
      </trkpt>
      <trkpt lat="46.29053" lon="6.49247">
        <ele>1300.8</ele>
        <time>2013-03-03T14:01:11.000Z</time>
      </trkpt>
      <trkpt lat="46.29052" lon="6.49248">
        <ele>1301.4</ele>
        <time>2013-03-03T14:01:12.000Z</time>
      </trkpt>
      <trkpt lat="46.2905" lon="6.49254">
        <ele>1301.8</ele>
        <time>2013-03-03T14:01:18.000Z</time>
      </trkpt>
      <trkpt lat="46.2905" lon="6.49255">
        <ele>1301.9</ele>
        <time>2013-03-03T14:01:19.000Z</time>
      </trkpt>
      <trkpt lat="46.29049" lon="6.49261">
        <ele>1303</ele>
        <time>2013-03-03T14:01:25.000Z</time>
      </trkpt>
      <trkpt lat="46.29049" lon="6.49261">
        <ele>1303.4</ele>
        <time>2013-03-03T14:01:26.000Z</time>
      </trkpt>
      <trkpt lat="46.29051" lon="6.49267">
        <ele>1307.7</ele>
        <time>2013-03-03T14:01:34.000Z</time>
      </trkpt>
      <trkpt lat="46.2905" lon="6.49268">
        <ele>1308</ele>
        <time>2013-03-03T14:01:35.000Z</time>
      </trkpt>
      <trkpt lat="46.29049" lon="6.49274">
        <ele>1308.4</ele>
        <time>2013-03-03T14:01:41.000Z</time>
      </trkpt>
      <trkpt lat="46.29049" lon="6.49275">
        <ele>1308.6</ele>
        <time>2013-03-03T14:01:42.000Z</time>
      </trkpt>
      <trkpt lat="46.29048" lon="6.4928">
        <ele>1308.9</ele>
        <time>2013-03-03T14:01:48.000Z</time>
      </trkpt>
      <trkpt lat="46.29048" lon="6.49281">
        <ele>1308.8</ele>
        <time>2013-03-03T14:01:49.000Z</time>
      </trkpt>
      <trkpt lat="46.29049" lon="6.49287">
        <ele>1308.6</ele>
        <time>2013-03-03T14:01:55.000Z</time>
      </trkpt>
      <trkpt lat="46.29049" lon="6.49288">
        <ele>1308.7</ele>
        <time>2013-03-03T14:01:56.000Z</time>
      </trkpt>
      <trkpt lat="46.29048" lon="6.49294">
        <ele>1311</ele>
        <time>2013-03-03T14:02:02.000Z</time>
      </trkpt>
      <trkpt lat="46.29048" lon="6.49295">
        <ele>1311.1</ele>
        <time>2013-03-03T14:02:03.000Z</time>
      </trkpt>
      <trkpt lat="46.29048" lon="6.493">
        <ele>1311.2</ele>
        <time>2013-03-03T14:02:08.000Z</time>
      </trkpt>
      <trkpt lat="46.29049" lon="6.49301">
        <ele>1311.1</ele>
        <time>2013-03-03T14:02:09.000Z</time>
      </trkpt>
      <trkpt lat="46.2905" lon="6.49307">
        <ele>1311</ele>
        <time>2013-03-03T14:02:14.000Z</time>
      </trkpt>
      <trkpt lat="46.2905" lon="6.49308">
        <ele>1310.7</ele>
        <time>2013-03-03T14:02:15.000Z</time>
      </trkpt>
      <trkpt lat="46.29053" lon="6.49313">
        <ele>1309.5</ele>
        <time>2013-03-03T14:02:19.000Z</time>
      </trkpt>
      <trkpt lat="46.29053" lon="6.49314">
        <ele>1309.4</ele>
        <time>2013-03-03T14:02:20.000Z</time>
      </trkpt>
      <trkpt lat="46.29055" lon="6.49319">
        <ele>1309.3</ele>
        <time>2013-03-03T14:02:25.000Z</time>
      </trkpt>
      <trkpt lat="46.29055" lon="6.4932">
        <ele>1309.4</ele>
        <time>2013-03-03T14:02:26.000Z</time>
      </trkpt>
      <trkpt lat="46.29053" lon="6.49326">
        <ele>1309.6</ele>
        <time>2013-03-03T14:02:31.000Z</time>
      </trkpt>
      <trkpt lat="46.29053" lon="6.49328">
        <ele>1309.9</ele>
        <time>2013-03-03T14:02:32.000Z</time>
      </trkpt>
      <trkpt lat="46.29053" lon="6.49334">
        <ele>1311</ele>
        <time>2013-03-03T14:02:37.000Z</time>
      </trkpt>
      <trkpt lat="46.29053" lon="6.49335">
        <ele>1311.1</ele>
        <time>2013-03-03T14:02:38.000Z</time>
      </trkpt>
      <trkpt lat="46.29054" lon="6.49341">
        <ele>1312.2</ele>
        <time>2013-03-03T14:02:44.000Z</time>
      </trkpt>
      <trkpt lat="46.29054" lon="6.49342">
        <ele>1312.5</ele>
        <time>2013-03-03T14:02:45.000Z</time>
      </trkpt>
      <trkpt lat="46.29054" lon="6.49348">
        <ele>1314.9</ele>
        <time>2013-03-03T14:02:51.000Z</time>
      </trkpt>
      <trkpt lat="46.29054" lon="6.49349">
        <ele>1315.6</ele>
        <time>2013-03-03T14:02:52.000Z</time>
      </trkpt>
      <trkpt lat="46.29054" lon="6.49355">
        <ele>1317.2</ele>
        <time>2013-03-03T14:02:58.000Z</time>
      </trkpt>
      <trkpt lat="46.29054" lon="6.49356">
        <ele>1317.5</ele>
        <time>2013-03-03T14:02:59.000Z</time>
      </trkpt>
      <trkpt lat="46.29055" lon="6.49362">
        <ele>1319.2</ele>
        <time>2013-03-03T14:03:05.000Z</time>
      </trkpt>
      <trkpt lat="46.29055" lon="6.49363">
        <ele>1319.3</ele>
        <time>2013-03-03T14:03:06.000Z</time>
      </trkpt>
      <trkpt lat="46.29055" lon="6.49369">
        <ele>1320</ele>
        <time>2013-03-03T14:03:12.000Z</time>
      </trkpt>
      <trkpt lat="46.29055" lon="6.4937">
        <ele>1320.2</ele>
        <time>2013-03-03T14:03:13.000Z</time>
      </trkpt>
      <trkpt lat="46.29057" lon="6.49376">
        <ele>1321.9</ele>
        <time>2013-03-03T14:03:19.000Z</time>
      </trkpt>
      <trkpt lat="46.29057" lon="6.49376">
        <ele>1322.2</ele>
        <time>2013-03-03T14:03:20.000Z</time>
      </trkpt>
      <trkpt lat="46.29054" lon="6.49381">
        <ele>1326.8</ele>
        <time>2013-03-03T14:03:32.000Z</time>
      </trkpt>
      <trkpt lat="46.29054" lon="6.49382">
        <ele>1327.3</ele>
        <time>2013-03-03T14:03:33.000Z</time>
      </trkpt>
      <trkpt lat="46.29054" lon="6.49388">
        <ele>1327.8</ele>
        <time>2013-03-03T14:03:42.000Z</time>
      </trkpt>
      <trkpt lat="46.29054" lon="6.49389">
        <ele>1327.4</ele>
        <time>2013-03-03T14:03:43.000Z</time>
      </trkpt>
      <trkpt lat="46.29053" lon="6.49396">
        <ele>1327.8</ele>
        <time>2013-03-03T14:03:50.000Z</time>
      </trkpt>
      <trkpt lat="46.29053" lon="6.49396">
        <ele>1328</ele>
        <time>2013-03-03T14:03:51.000Z</time>
      </trkpt>
      <trkpt lat="46.29053" lon="6.49401">
        <ele>1329.3</ele>
        <time>2013-03-03T14:03:57.000Z</time>
      </trkpt>
      <trkpt lat="46.29053" lon="6.49403">
        <ele>1329.7</ele>
        <time>2013-03-03T14:03:58.000Z</time>
      </trkpt>
      <trkpt lat="46.29053" lon="6.49409">
        <ele>1332.1</ele>
        <time>2013-03-03T14:04:05.000Z</time>
      </trkpt>
      <trkpt lat="46.29053" lon="6.4941">
        <ele>1332.4</ele>
        <time>2013-03-03T14:04:06.000Z</time>
      </trkpt>
      <trkpt lat="46.29054" lon="6.49415">
        <ele>1331.7</ele>
        <time>2013-03-03T14:04:10.000Z</time>
      </trkpt>
      <trkpt lat="46.29055" lon="6.49417">
        <ele>1331.3</ele>
        <time>2013-03-03T14:04:11.000Z</time>
      </trkpt>
      <trkpt lat="46.29056" lon="6.49422">
        <ele>1330.8</ele>
        <time>2013-03-03T14:04:15.000Z</time>
      </trkpt>
      <trkpt lat="46.29057" lon="6.49423">
        <ele>1330.7</ele>
        <time>2013-03-03T14:04:16.000Z</time>
      </trkpt>
      <trkpt lat="46.29058" lon="6.49429">
        <ele>1331.3</ele>
        <time>2013-03-03T14:04:21.000Z</time>
      </trkpt>
      <trkpt lat="46.29058" lon="6.4943">
        <ele>1331.6</ele>
        <time>2013-03-03T14:04:22.000Z</time>
      </trkpt>
      <trkpt lat="46.29058" lon="6.49436">
        <ele>1332.5</ele>
        <time>2013-03-03T14:04:27.000Z</time>
      </trkpt>
      <trkpt lat="46.29059" lon="6.49437">
        <ele>1332.8</ele>
        <time>2013-03-03T14:04:28.000Z</time>
      </trkpt>
      <trkpt lat="46.29059" lon="6.49443">
        <ele>1335.2</ele>
        <time>2013-03-03T14:04:33.000Z</time>
      </trkpt>
      <trkpt lat="46.29058" lon="6.49444">
        <ele>1335.7</ele>
        <time>2013-03-03T14:04:34.000Z</time>
      </trkpt>
      <trkpt lat="46.29057" lon="6.49451">
        <ele>1337.7</ele>
        <time>2013-03-03T14:04:40.000Z</time>
      </trkpt>
      <trkpt lat="46.29058" lon="6.49452">
        <ele>1338</ele>
        <time>2013-03-03T14:04:41.000Z</time>
      </trkpt>
      <trkpt lat="46.29059" lon="6.49457">
        <ele>1339.3</ele>
        <time>2013-03-03T14:04:47.000Z</time>
      </trkpt>
      <trkpt lat="46.29059" lon="6.49458">
        <ele>1339.5</ele>
        <time>2013-03-03T14:04:48.000Z</time>
      </trkpt>
      <trkpt lat="46.29062" lon="6.49463">
        <ele>1340.1</ele>
        <time>2013-03-03T14:04:54.000Z</time>
      </trkpt>
      <trkpt lat="46.29062" lon="6.49463">
        <ele>1340.3</ele>
        <time>2013-03-03T14:04:55.000Z</time>
      </trkpt>
      <trkpt lat="46.29062" lon="6.49469">
        <ele>1340.6</ele>
        <time>2013-03-03T14:05:01.000Z</time>
      </trkpt>
      <trkpt lat="46.29061" lon="6.4947">
        <ele>1340.8</ele>
        <time>2013-03-03T14:05:02.000Z</time>
      </trkpt>
      <trkpt lat="46.2906" lon="6.49475">
        <ele>1340.5</ele>
        <time>2013-03-03T14:05:06.000Z</time>
      </trkpt>
      <trkpt lat="46.2906" lon="6.49477">
        <ele>1340.2</ele>
        <time>2013-03-03T14:05:07.000Z</time>
      </trkpt>
      <trkpt lat="46.29057" lon="6.49481">
        <ele>1341</ele>
        <time>2013-03-03T14:05:13.000Z</time>
      </trkpt>
      <trkpt lat="46.29057" lon="6.49482">
        <ele>1341.5</ele>
        <time>2013-03-03T14:05:14.000Z</time>
      </trkpt>
      <trkpt lat="46.29054" lon="6.49486">
        <ele>1342.9</ele>
        <time>2013-03-03T14:05:19.000Z</time>
      </trkpt>
      <trkpt lat="46.29053" lon="6.49487">
        <ele>1343.2</ele>
        <time>2013-03-03T14:05:20.000Z</time>
      </trkpt>
      <trkpt lat="46.29051" lon="6.49492">
        <ele>1346.2</ele>
        <time>2013-03-03T14:05:28.000Z</time>
      </trkpt>
      <trkpt lat="46.29051" lon="6.49493">
        <ele>1346.6</ele>
        <time>2013-03-03T14:05:29.000Z</time>
      </trkpt>
      <trkpt lat="46.29048" lon="6.49496">
        <ele>1347.4</ele>
        <time>2013-03-03T14:05:33.000Z</time>
      </trkpt>
      <trkpt lat="46.29046" lon="6.49496">
        <ele>1347.5</ele>
        <time>2013-03-03T14:05:34.000Z</time>
      </trkpt>
      <trkpt lat="46.29043" lon="6.49499">
        <ele>1347.7</ele>
        <time>2013-03-03T14:05:53.000Z</time>
      </trkpt>
      <trkpt lat="46.29042" lon="6.495">
        <ele>1347.4</ele>
        <time>2013-03-03T14:05:54.000Z</time>
      </trkpt>
      <trkpt lat="46.29039" lon="6.49504">
        <ele>1347.6</ele>
        <time>2013-03-03T14:05:59.000Z</time>
      </trkpt>
      <trkpt lat="46.29039" lon="6.49504">
        <ele>1347.7</ele>
        <time>2013-03-03T14:06:00.000Z</time>
      </trkpt>
      <trkpt lat="46.29036" lon="6.49508">
        <ele>1348.5</ele>
        <time>2013-03-03T14:06:05.000Z</time>
      </trkpt>
      <trkpt lat="46.29035" lon="6.49508">
        <ele>1348.6</ele>
        <time>2013-03-03T14:06:06.000Z</time>
      </trkpt>
      <trkpt lat="46.29032" lon="6.49512">
        <ele>1348.7</ele>
        <time>2013-03-03T14:06:10.000Z</time>
      </trkpt>
      <trkpt lat="46.29032" lon="6.49513">
        <ele>1348.8</ele>
        <time>2013-03-03T14:06:11.000Z</time>
      </trkpt>
      <trkpt lat="46.29028" lon="6.49518">
        <ele>1350.3</ele>
        <time>2013-03-03T14:06:19.000Z</time>
      </trkpt>
      <trkpt lat="46.29028" lon="6.49518">
        <ele>1350.3</ele>
        <time>2013-03-03T14:06:20.000Z</time>
      </trkpt>
      <trkpt lat="46.29025" lon="6.49522">
        <ele>1352.3</ele>
        <time>2013-03-03T14:06:26.000Z</time>
      </trkpt>
      <trkpt lat="46.29025" lon="6.49523">
        <ele>1352.6</ele>
        <time>2013-03-03T14:06:27.000Z</time>
      </trkpt>
      <trkpt lat="46.29023" lon="6.49528">
        <ele>1354</ele>
        <time>2013-03-03T14:06:33.000Z</time>
      </trkpt>
      <trkpt lat="46.29023" lon="6.49529">
        <ele>1354.3</ele>
        <time>2013-03-03T14:06:34.000Z</time>
      </trkpt>
      <trkpt lat="46.29021" lon="6.49533">
        <ele>1354.4</ele>
        <time>2013-03-03T14:06:39.000Z</time>
      </trkpt>
      <trkpt lat="46.2902" lon="6.49534">
        <ele>1354.3</ele>
        <time>2013-03-03T14:06:40.000Z</time>
      </trkpt>
      <trkpt lat="46.29018" lon="6.4954">
        <ele>1356.4</ele>
        <time>2013-03-03T14:06:54.000Z</time>
      </trkpt>
      <trkpt lat="46.29018" lon="6.4954">
        <ele>1356.6</ele>
        <time>2013-03-03T14:06:55.000Z</time>
      </trkpt>
      <trkpt lat="46.29017" lon="6.49546">
        <ele>1356.9</ele>
        <time>2013-03-03T14:07:03.000Z</time>
      </trkpt>
      <trkpt lat="46.29017" lon="6.49547">
        <ele>1357</ele>
        <time>2013-03-03T14:07:04.000Z</time>
      </trkpt>
      <trkpt lat="46.29016" lon="6.49553">
        <ele>1357.4</ele>
        <time>2013-03-03T14:07:10.000Z</time>
      </trkpt>
      <trkpt lat="46.29016" lon="6.49554">
        <ele>1357.6</ele>
        <time>2013-03-03T14:07:11.000Z</time>
      </trkpt>
      <trkpt lat="46.29015" lon="6.49559">
        <ele>1357.8</ele>
        <time>2013-03-03T14:07:17.000Z</time>
      </trkpt>
      <trkpt lat="46.29015" lon="6.49561">
        <ele>1358</ele>
        <time>2013-03-03T14:07:18.000Z</time>
      </trkpt>
      <trkpt lat="46.29015" lon="6.49566">
        <ele>1358.6</ele>
        <time>2013-03-03T14:07:23.000Z</time>
      </trkpt>
      <trkpt lat="46.29014" lon="6.49568">
        <ele>1358.6</ele>
        <time>2013-03-03T14:07:24.000Z</time>
      </trkpt>
      <trkpt lat="46.29012" lon="6.49573">
        <ele>1359.5</ele>
        <time>2013-03-03T14:07:29.000Z</time>
      </trkpt>
      <trkpt lat="46.29012" lon="6.49574">
        <ele>1359.6</ele>
        <time>2013-03-03T14:07:30.000Z</time>
      </trkpt>
      <trkpt lat="46.29009" lon="6.49578">
        <ele>1360.4</ele>
        <time>2013-03-03T14:07:34.000Z</time>
      </trkpt>
      <trkpt lat="46.29009" lon="6.49579">
        <ele>1360.5</ele>
        <time>2013-03-03T14:07:35.000Z</time>
      </trkpt>
      <trkpt lat="46.29007" lon="6.49585">
        <ele>1360.6</ele>
        <time>2013-03-03T14:07:40.000Z</time>
      </trkpt>
      <trkpt lat="46.29007" lon="6.49586">
        <ele>1360.5</ele>
        <time>2013-03-03T14:07:41.000Z</time>
      </trkpt>
      <trkpt lat="46.29006" lon="6.49592">
        <ele>1360.1</ele>
        <time>2013-03-03T14:07:46.000Z</time>
      </trkpt>
      <trkpt lat="46.29005" lon="6.49593">
        <ele>1360.1</ele>
        <time>2013-03-03T14:07:47.000Z</time>
      </trkpt>
      <trkpt lat="46.29004" lon="6.49599">
        <ele>1361.3</ele>
        <time>2013-03-03T14:07:53.000Z</time>
      </trkpt>
      <trkpt lat="46.29003" lon="6.49599">
        <ele>1361.6</ele>
        <time>2013-03-03T14:07:54.000Z</time>
      </trkpt>
      <trkpt lat="46.29" lon="6.49603">
        <ele>1363.8</ele>
        <time>2013-03-03T14:07:59.000Z</time>
      </trkpt>
      <trkpt lat="46.29" lon="6.49604">
        <ele>1364.3</ele>
        <time>2013-03-03T14:08:00.000Z</time>
      </trkpt>
      <trkpt lat="46.28995" lon="6.49605">
        <ele>1365.9</ele>
        <time>2013-03-03T14:08:05.000Z</time>
      </trkpt>
      <trkpt lat="46.28994" lon="6.49605">
        <ele>1366.2</ele>
        <time>2013-03-03T14:08:06.000Z</time>
      </trkpt>
      <trkpt lat="46.28991" lon="6.49609">
        <ele>1368.6</ele>
        <time>2013-03-03T14:08:12.000Z</time>
      </trkpt>
      <trkpt lat="46.2899" lon="6.49609">
        <ele>1368.8</ele>
        <time>2013-03-03T14:08:13.000Z</time>
      </trkpt>
      <trkpt lat="46.28985" lon="6.49609">
        <ele>1370.4</ele>
        <time>2013-03-03T14:08:18.000Z</time>
      </trkpt>
      <trkpt lat="46.28985" lon="6.49609">
        <ele>1370.7</ele>
        <time>2013-03-03T14:08:19.000Z</time>
      </trkpt>
      <trkpt lat="46.2898" lon="6.49608">
        <ele>1372.2</ele>
        <time>2013-03-03T14:08:25.000Z</time>
      </trkpt>
      <trkpt lat="46.2898" lon="6.49608">
        <ele>1372.7</ele>
        <time>2013-03-03T14:08:26.000Z</time>
      </trkpt>
      <trkpt lat="46.28978" lon="6.49614">
        <ele>1370.7</ele>
        <time>2013-03-03T14:08:33.000Z</time>
      </trkpt>
      <trkpt lat="46.28978" lon="6.49615">
        <ele>1369.1</ele>
        <time>2013-03-03T14:08:34.000Z</time>
      </trkpt>
      <trkpt lat="46.28974" lon="6.49617">
        <ele>1365.8</ele>
        <time>2013-03-03T14:08:52.000Z</time>
      </trkpt>
      <trkpt lat="46.28974" lon="6.49617">
        <ele>1365.7</ele>
        <time>2013-03-03T14:08:53.000Z</time>
      </trkpt>
      <trkpt lat="46.2897" lon="6.49615">
        <ele>1363.3</ele>
        <time>2013-03-03T14:09:12.000Z</time>
      </trkpt>
      <trkpt lat="46.28969" lon="6.49615">
        <ele>1363.2</ele>
        <time>2013-03-03T14:09:13.000Z</time>
      </trkpt>
      <trkpt lat="46.28965" lon="6.49611">
        <ele>1362.8</ele>
        <time>2013-03-03T14:09:20.000Z</time>
      </trkpt>
      <trkpt lat="46.28965" lon="6.49611">
        <ele>1363.1</ele>
        <time>2013-03-03T14:09:21.000Z</time>
      </trkpt>
      <trkpt lat="46.28962" lon="6.49607">
        <ele>1364.4</ele>
        <time>2013-03-03T14:09:28.000Z</time>
      </trkpt>
      <trkpt lat="46.28962" lon="6.49606">
        <ele>1364.5</ele>
        <time>2013-03-03T14:09:29.000Z</time>
      </trkpt>
      <trkpt lat="46.28959" lon="6.49601">
        <ele>1365.3</ele>
        <time>2013-03-03T14:09:35.000Z</time>
      </trkpt>
      <trkpt lat="46.28958" lon="6.496">
        <ele>1365.4</ele>
        <time>2013-03-03T14:09:36.000Z</time>
      </trkpt>
      <trkpt lat="46.28955" lon="6.49596">
        <ele>1366.3</ele>
        <time>2013-03-03T14:09:42.000Z</time>
      </trkpt>
      <trkpt lat="46.28955" lon="6.49595">
        <ele>1366.4</ele>
        <time>2013-03-03T14:09:43.000Z</time>
      </trkpt>
      <trkpt lat="46.28953" lon="6.49589">
        <ele>1367.6</ele>
        <time>2013-03-03T14:09:49.000Z</time>
      </trkpt>
      <trkpt lat="46.28953" lon="6.49588">
        <ele>1367.8</ele>
        <time>2013-03-03T14:09:50.000Z</time>
      </trkpt>
      <trkpt lat="46.2895" lon="6.49584">
        <ele>1368.6</ele>
        <time>2013-03-03T14:09:55.000Z</time>
      </trkpt>
      <trkpt lat="46.28949" lon="6.49583">
        <ele>1368.6</ele>
        <time>2013-03-03T14:09:56.000Z</time>
      </trkpt>
      <trkpt lat="46.28946" lon="6.49579">
        <ele>1368.3</ele>
        <time>2013-03-03T14:10:01.000Z</time>
      </trkpt>
      <trkpt lat="46.28945" lon="6.49578">
        <ele>1368.4</ele>
        <time>2013-03-03T14:10:02.000Z</time>
      </trkpt>
      <trkpt lat="46.28944" lon="6.49573">
        <ele>1368.8</ele>
        <time>2013-03-03T14:10:06.000Z</time>
      </trkpt>
      <trkpt lat="46.28943" lon="6.49571">
        <ele>1369</ele>
        <time>2013-03-03T14:10:07.000Z</time>
      </trkpt>
      <trkpt lat="46.28941" lon="6.49567">
        <ele>1369.5</ele>
        <time>2013-03-03T14:10:11.000Z</time>
      </trkpt>
      <trkpt lat="46.28941" lon="6.49566">
        <ele>1369.5</ele>
        <time>2013-03-03T14:10:12.000Z</time>
      </trkpt>
      <trkpt lat="46.28939" lon="6.49561">
        <ele>1369.7</ele>
        <time>2013-03-03T14:10:16.000Z</time>
      </trkpt>
      <trkpt lat="46.28938" lon="6.4956">
        <ele>1369.9</ele>
        <time>2013-03-03T14:10:17.000Z</time>
      </trkpt>
      <trkpt lat="46.28936" lon="6.49555">
        <ele>1371</ele>
        <time>2013-03-03T14:10:22.000Z</time>
      </trkpt>
      <trkpt lat="46.28935" lon="6.49554">
        <ele>1371.1</ele>
        <time>2013-03-03T14:10:23.000Z</time>
      </trkpt>
      <trkpt lat="46.28933" lon="6.49549">
        <ele>1372.2</ele>
        <time>2013-03-03T14:10:29.000Z</time>
      </trkpt>
      <trkpt lat="46.28932" lon="6.49548">
        <ele>1372.6</ele>
        <time>2013-03-03T14:10:30.000Z</time>
      </trkpt>
      <trkpt lat="46.28931" lon="6.49543">
        <ele>1374.6</ele>
        <time>2013-03-03T14:10:34.000Z</time>
      </trkpt>
      <trkpt lat="46.2893" lon="6.49542">
        <ele>1375.2</ele>
        <time>2013-03-03T14:10:35.000Z</time>
      </trkpt>
      <trkpt lat="46.2893" lon="6.49536">
        <ele>1376.9</ele>
        <time>2013-03-03T14:10:39.000Z</time>
      </trkpt>
      <trkpt lat="46.28929" lon="6.49535">
        <ele>1377.1</ele>
        <time>2013-03-03T14:10:40.000Z</time>
      </trkpt>
      <trkpt lat="46.28928" lon="6.49529">
        <ele>1378.2</ele>
        <time>2013-03-03T14:10:46.000Z</time>
      </trkpt>
      <trkpt lat="46.28928" lon="6.49528">
        <ele>1378.2</ele>
        <time>2013-03-03T14:10:47.000Z</time>
      </trkpt>
      <trkpt lat="46.28926" lon="6.49524">
        <ele>1379.1</ele>
        <time>2013-03-03T14:10:52.000Z</time>
      </trkpt>
      <trkpt lat="46.28925" lon="6.49523">
        <ele>1379.2</ele>
        <time>2013-03-03T14:10:53.000Z</time>
      </trkpt>
      <trkpt lat="46.28922" lon="6.49518">
        <ele>1381.4</ele>
        <time>2013-03-03T14:10:59.000Z</time>
      </trkpt>
      <trkpt lat="46.28922" lon="6.49517">
        <ele>1381.5</ele>
        <time>2013-03-03T14:11:00.000Z</time>
      </trkpt>
      <trkpt lat="46.28919" lon="6.49513">
        <ele>1382.1</ele>
        <time>2013-03-03T14:11:05.000Z</time>
      </trkpt>
      <trkpt lat="46.28919" lon="6.49512">
        <ele>1382.1</ele>
        <time>2013-03-03T14:11:06.000Z</time>
      </trkpt>
      <trkpt lat="46.28918" lon="6.49507">
        <ele>1381.9</ele>
        <time>2013-03-03T14:11:09.000Z</time>
      </trkpt>
      <trkpt lat="46.28917" lon="6.49506">
        <ele>1379.9</ele>
        <time>2013-03-03T14:11:10.000Z</time>
      </trkpt>
      <trkpt lat="46.28915" lon="6.49501">
        <ele>1378.5</ele>
        <time>2013-03-03T14:11:13.000Z</time>
      </trkpt>
      <trkpt lat="46.28914" lon="6.495">
        <ele>1378</ele>
        <time>2013-03-03T14:11:14.000Z</time>
      </trkpt>
      <trkpt lat="46.28911" lon="6.49497">
        <ele>1376</ele>
        <time>2013-03-03T14:11:17.000Z</time>
      </trkpt>
      <trkpt lat="46.28911" lon="6.49496">
        <ele>1375.7</ele>
        <time>2013-03-03T14:11:18.000Z</time>
      </trkpt>
      <trkpt lat="46.28909" lon="6.49491">
        <ele>1374.7</ele>
        <time>2013-03-03T14:11:22.000Z</time>
      </trkpt>
      <trkpt lat="46.28908" lon="6.49491">
        <ele>1374.5</ele>
        <time>2013-03-03T14:11:23.000Z</time>
      </trkpt>
      <trkpt lat="46.28906" lon="6.49485">
        <ele>1374</ele>
        <time>2013-03-03T14:11:28.000Z</time>
      </trkpt>
      <trkpt lat="46.28906" lon="6.49483">
        <ele>1374.4</ele>
        <time>2013-03-03T14:11:29.000Z</time>
      </trkpt>
      <trkpt lat="46.28906" lon="6.49476">
        <ele>1375.8</ele>
        <time>2013-03-03T14:11:34.000Z</time>
      </trkpt>
      <trkpt lat="46.28906" lon="6.49475">
        <ele>1376</ele>
        <time>2013-03-03T14:11:35.000Z</time>
      </trkpt>
      <trkpt lat="46.28904" lon="6.4947">
        <ele>1376.7</ele>
        <time>2013-03-03T14:11:39.000Z</time>
      </trkpt>
      <trkpt lat="46.28904" lon="6.49469">
        <ele>1377.1</ele>
        <time>2013-03-03T14:11:40.000Z</time>
      </trkpt>
      <trkpt lat="46.28901" lon="6.49464">
        <ele>1378.5</ele>
        <time>2013-03-03T14:11:45.000Z</time>
      </trkpt>
      <trkpt lat="46.28901" lon="6.49463">
        <ele>1379.1</ele>
        <time>2013-03-03T14:11:46.000Z</time>
      </trkpt>
      <trkpt lat="46.28899" lon="6.49458">
        <ele>1380.9</ele>
        <time>2013-03-03T14:11:51.000Z</time>
      </trkpt>
      <trkpt lat="46.28898" lon="6.49457">
        <ele>1381.2</ele>
        <time>2013-03-03T14:11:52.000Z</time>
      </trkpt>
      <trkpt lat="46.28895" lon="6.49454">
        <ele>1381.7</ele>
        <time>2013-03-03T14:11:58.000Z</time>
      </trkpt>
      <trkpt lat="46.28894" lon="6.49454">
        <ele>1381.8</ele>
        <time>2013-03-03T14:11:59.000Z</time>
      </trkpt>
      <trkpt lat="46.2889" lon="6.49452">
        <ele>1382.3</ele>
        <time>2013-03-03T14:12:04.000Z</time>
      </trkpt>
      <trkpt lat="46.28889" lon="6.49452">
        <ele>1382.3</ele>
        <time>2013-03-03T14:12:05.000Z</time>
      </trkpt>
      <trkpt lat="46.28885" lon="6.49451">
        <ele>1383</ele>
        <time>2013-03-03T14:12:10.000Z</time>
      </trkpt>
      <trkpt lat="46.28884" lon="6.49451">
        <ele>1383.1</ele>
        <time>2013-03-03T14:12:11.000Z</time>
      </trkpt>
      <trkpt lat="46.2888" lon="6.4945">
        <ele>1383.2</ele>
        <time>2013-03-03T14:12:20.000Z</time>
      </trkpt>
      <trkpt lat="46.28879" lon="6.49449">
        <ele>1383.4</ele>
        <time>2013-03-03T14:12:21.000Z</time>
      </trkpt>
      <trkpt lat="46.28875" lon="6.49449">
        <ele>1384</ele>
        <time>2013-03-03T14:12:26.000Z</time>
      </trkpt>
      <trkpt lat="46.28874" lon="6.4945">
        <ele>1383.3</ele>
        <time>2013-03-03T14:12:27.000Z</time>
      </trkpt>
      <trkpt lat="46.2887" lon="6.49449">
        <ele>1380.6</ele>
        <time>2013-03-03T14:12:31.000Z</time>
      </trkpt>
      <trkpt lat="46.2887" lon="6.49449">
        <ele>1380.3</ele>
        <time>2013-03-03T14:12:32.000Z</time>
      </trkpt>
      <trkpt lat="46.28865" lon="6.49447">
        <ele>1379</ele>
        <time>2013-03-03T14:12:44.000Z</time>
      </trkpt>
      <trkpt lat="46.28865" lon="6.49447">
        <ele>1378.9</ele>
        <time>2013-03-03T14:12:45.000Z</time>
      </trkpt>
      <trkpt lat="46.2886" lon="6.49445">
        <ele>1379.3</ele>
        <time>2013-03-03T14:12:51.000Z</time>
      </trkpt>
      <trkpt lat="46.2886" lon="6.49445">
        <ele>1379.4</ele>
        <time>2013-03-03T14:12:52.000Z</time>
      </trkpt>
      <trkpt lat="46.28855" lon="6.49443">
        <ele>1380.5</ele>
        <time>2013-03-03T14:12:59.000Z</time>
      </trkpt>
      <trkpt lat="46.28855" lon="6.49443">
        <ele>1380.8</ele>
        <time>2013-03-03T14:13:00.000Z</time>
      </trkpt>
      <trkpt lat="46.28851" lon="6.49442">
        <ele>1382</ele>
        <time>2013-03-03T14:13:06.000Z</time>
      </trkpt>
      <trkpt lat="46.2885" lon="6.49441">
        <ele>1382.2</ele>
        <time>2013-03-03T14:13:07.000Z</time>
      </trkpt>
      <trkpt lat="46.28847" lon="6.49439">
        <ele>1382.5</ele>
        <time>2013-03-03T14:13:15.000Z</time>
      </trkpt>
      <trkpt lat="46.28846" lon="6.49438">
        <ele>1382.6</ele>
        <time>2013-03-03T14:13:16.000Z</time>
      </trkpt>
      <trkpt lat="46.28843" lon="6.49433">
        <ele>1383.3</ele>
        <time>2013-03-03T14:13:22.000Z</time>
      </trkpt>
      <trkpt lat="46.28843" lon="6.49433">
        <ele>1383.4</ele>
        <time>2013-03-03T14:13:23.000Z</time>
      </trkpt>
      <trkpt lat="46.2884" lon="6.49427">
        <ele>1384.2</ele>
        <time>2013-03-03T14:13:29.000Z</time>
      </trkpt>
      <trkpt lat="46.2884" lon="6.49427">
        <ele>1384.5</ele>
        <time>2013-03-03T14:13:30.000Z</time>
      </trkpt>
      <trkpt lat="46.28837" lon="6.49423">
        <ele>1387.2</ele>
        <time>2013-03-03T14:13:37.000Z</time>
      </trkpt>
      <trkpt lat="46.28836" lon="6.49422">
        <ele>1387.6</ele>
        <time>2013-03-03T14:13:38.000Z</time>
      </trkpt>
      <trkpt lat="46.28833" lon="6.49418">
        <ele>1389.9</ele>
        <time>2013-03-03T14:13:45.000Z</time>
      </trkpt>
      <trkpt lat="46.28832" lon="6.49418">
        <ele>1390.1</ele>
        <time>2013-03-03T14:13:46.000Z</time>
      </trkpt>
      <trkpt lat="46.28829" lon="6.49414">
        <ele>1390.2</ele>
        <time>2013-03-03T14:13:52.000Z</time>
      </trkpt>
      <trkpt lat="46.28829" lon="6.49413">
        <ele>1390</ele>
        <time>2013-03-03T14:13:53.000Z</time>
      </trkpt>
      <trkpt lat="46.28826" lon="6.49408">
        <ele>1388.8</ele>
        <time>2013-03-03T14:13:58.000Z</time>
      </trkpt>
      <trkpt lat="46.28826" lon="6.49407">
        <ele>1388.7</ele>
        <time>2013-03-03T14:13:59.000Z</time>
      </trkpt>
      <trkpt lat="46.28822" lon="6.49404">
        <ele>1389.8</ele>
        <time>2013-03-03T14:14:06.000Z</time>
      </trkpt>
      <trkpt lat="46.28822" lon="6.49404">
        <ele>1390.1</ele>
        <time>2013-03-03T14:14:07.000Z</time>
      </trkpt>
      <trkpt lat="46.28819" lon="6.49399">
        <ele>1391.2</ele>
        <time>2013-03-03T14:14:13.000Z</time>
      </trkpt>
      <trkpt lat="46.28818" lon="6.49398">
        <ele>1391.4</ele>
        <time>2013-03-03T14:14:14.000Z</time>
      </trkpt>
      <trkpt lat="46.28816" lon="6.49393">
        <ele>1392</ele>
        <time>2013-03-03T14:14:19.000Z</time>
      </trkpt>
      <trkpt lat="46.28816" lon="6.49392">
        <ele>1392.1</ele>
        <time>2013-03-03T14:14:20.000Z</time>
      </trkpt>
      <trkpt lat="46.28813" lon="6.49386">
        <ele>1392.6</ele>
        <time>2013-03-03T14:14:26.000Z</time>
      </trkpt>
      <trkpt lat="46.28813" lon="6.49385">
        <ele>1392.7</ele>
        <time>2013-03-03T14:14:27.000Z</time>
      </trkpt>
      <trkpt lat="46.28809" lon="6.49381">
        <ele>1393.6</ele>
        <time>2013-03-03T14:14:33.000Z</time>
      </trkpt>
      <trkpt lat="46.28809" lon="6.49381">
        <ele>1393.6</ele>
        <time>2013-03-03T14:14:34.000Z</time>
      </trkpt>
      <trkpt lat="46.28806" lon="6.49377">
        <ele>1393.6</ele>
        <time>2013-03-03T14:14:40.000Z</time>
      </trkpt>
      <trkpt lat="46.28805" lon="6.49376">
        <ele>1393.7</ele>
        <time>2013-03-03T14:14:41.000Z</time>
      </trkpt>
      <trkpt lat="46.28802" lon="6.49373">
        <ele>1393.2</ele>
        <time>2013-03-03T14:14:46.000Z</time>
      </trkpt>
      <trkpt lat="46.28801" lon="6.49372">
        <ele>1393.1</ele>
        <time>2013-03-03T14:14:47.000Z</time>
      </trkpt>
      <trkpt lat="46.28798" lon="6.49369">
        <ele>1392.8</ele>
        <time>2013-03-03T14:14:52.000Z</time>
      </trkpt>
      <trkpt lat="46.28797" lon="6.49369">
        <ele>1392.9</ele>
        <time>2013-03-03T14:14:53.000Z</time>
      </trkpt>
      <trkpt lat="46.28794" lon="6.49365">
        <ele>1393.3</ele>
        <time>2013-03-03T14:14:58.000Z</time>
      </trkpt>
      <trkpt lat="46.28793" lon="6.49365">
        <ele>1393.5</ele>
        <time>2013-03-03T14:14:59.000Z</time>
      </trkpt>
      <trkpt lat="46.2879" lon="6.49361">
        <ele>1395.1</ele>
        <time>2013-03-03T14:15:05.000Z</time>
      </trkpt>
      <trkpt lat="46.2879" lon="6.4936">
        <ele>1395.3</ele>
        <time>2013-03-03T14:15:06.000Z</time>
      </trkpt>
      <trkpt lat="46.28787" lon="6.49356">
        <ele>1396.7</ele>
        <time>2013-03-03T14:15:12.000Z</time>
      </trkpt>
      <trkpt lat="46.28786" lon="6.49355">
        <ele>1397</ele>
        <time>2013-03-03T14:15:13.000Z</time>
      </trkpt>
      <trkpt lat="46.28782" lon="6.49352">
        <ele>1399.1</ele>
        <time>2013-03-03T14:15:19.000Z</time>
      </trkpt>
      <trkpt lat="46.28782" lon="6.49351">
        <ele>1399.2</ele>
        <time>2013-03-03T14:15:20.000Z</time>
      </trkpt>
      <trkpt lat="46.28778" lon="6.49349">
        <ele>1400.8</ele>
        <time>2013-03-03T14:15:26.000Z</time>
      </trkpt>
      <trkpt lat="46.28777" lon="6.49348">
        <ele>1401.2</ele>
        <time>2013-03-03T14:15:27.000Z</time>
      </trkpt>
      <trkpt lat="46.28774" lon="6.49345">
        <ele>1402.1</ele>
        <time>2013-03-03T14:15:33.000Z</time>
      </trkpt>
      <trkpt lat="46.28773" lon="6.49345">
        <ele>1402.2</ele>
        <time>2013-03-03T14:15:34.000Z</time>
      </trkpt>
      <trkpt lat="46.2877" lon="6.49341">
        <ele>1402.7</ele>
        <time>2013-03-03T14:16:07.000Z</time>
      </trkpt>
      <trkpt lat="46.2877" lon="6.4934">
        <ele>1402.8</ele>
        <time>2013-03-03T14:16:08.000Z</time>
      </trkpt>
      <trkpt lat="46.28766" lon="6.49336">
        <ele>1403.1</ele>
        <time>2013-03-03T14:16:14.000Z</time>
      </trkpt>
      <trkpt lat="46.28766" lon="6.49336">
        <ele>1403.1</ele>
        <time>2013-03-03T14:16:15.000Z</time>
      </trkpt>
      <trkpt lat="46.28762" lon="6.49332">
        <ele>1403.4</ele>
        <time>2013-03-03T14:16:20.000Z</time>
      </trkpt>
      <trkpt lat="46.28762" lon="6.49332">
        <ele>1403.5</ele>
        <time>2013-03-03T14:16:21.000Z</time>
      </trkpt>
      <trkpt lat="46.28758" lon="6.49328">
        <ele>1404</ele>
        <time>2013-03-03T14:16:26.000Z</time>
      </trkpt>
      <trkpt lat="46.28758" lon="6.49328">
        <ele>1404.2</ele>
        <time>2013-03-03T14:16:27.000Z</time>
      </trkpt>
      <trkpt lat="46.28754" lon="6.49324">
        <ele>1404.8</ele>
        <time>2013-03-03T14:16:32.000Z</time>
      </trkpt>
      <trkpt lat="46.28754" lon="6.49324">
        <ele>1404.9</ele>
        <time>2013-03-03T14:16:33.000Z</time>
      </trkpt>
      <trkpt lat="46.2875" lon="6.4932">
        <ele>1405.1</ele>
        <time>2013-03-03T14:16:38.000Z</time>
      </trkpt>
      <trkpt lat="46.28749" lon="6.49319">
        <ele>1405.1</ele>
        <time>2013-03-03T14:16:39.000Z</time>
      </trkpt>
      <trkpt lat="46.28746" lon="6.49315">
        <ele>1405.2</ele>
        <time>2013-03-03T14:16:44.000Z</time>
      </trkpt>
      <trkpt lat="46.28745" lon="6.49314">
        <ele>1405.1</ele>
        <time>2013-03-03T14:16:45.000Z</time>
      </trkpt>
      <trkpt lat="46.28742" lon="6.49311">
        <ele>1405</ele>
        <time>2013-03-03T14:16:50.000Z</time>
      </trkpt>
      <trkpt lat="46.28741" lon="6.4931">
        <ele>1405.1</ele>
        <time>2013-03-03T14:16:51.000Z</time>
      </trkpt>
      <trkpt lat="46.28738" lon="6.49305">
        <ele>1405.6</ele>
        <time>2013-03-03T14:16:56.000Z</time>
      </trkpt>
      <trkpt lat="46.28737" lon="6.49304">
        <ele>1405.7</ele>
        <time>2013-03-03T14:16:57.000Z</time>
      </trkpt>
      <trkpt lat="46.28734" lon="6.49301">
        <ele>1406.1</ele>
        <time>2013-03-03T14:17:01.000Z</time>
      </trkpt>
      <trkpt lat="46.28733" lon="6.493">
        <ele>1406.2</ele>
        <time>2013-03-03T14:17:02.000Z</time>
      </trkpt>
      <trkpt lat="46.2873" lon="6.49297">
        <ele>1407</ele>
        <time>2013-03-03T14:17:06.000Z</time>
      </trkpt>
      <trkpt lat="46.28729" lon="6.49296">
        <ele>1407.1</ele>
        <time>2013-03-03T14:17:07.000Z</time>
      </trkpt>
      <trkpt lat="46.28725" lon="6.49292">
        <ele>1407.5</ele>
        <time>2013-03-03T14:17:12.000Z</time>
      </trkpt>
      <trkpt lat="46.28725" lon="6.49291">
        <ele>1407.7</ele>
        <time>2013-03-03T14:17:13.000Z</time>
      </trkpt>
      <trkpt lat="46.28721" lon="6.49287">
        <ele>1408.2</ele>
        <time>2013-03-03T14:17:18.000Z</time>
      </trkpt>
      <trkpt lat="46.2872" lon="6.49287">
        <ele>1408.2</ele>
        <time>2013-03-03T14:17:19.000Z</time>
      </trkpt>
      <trkpt lat="46.28717" lon="6.49283">
        <ele>1408.4</ele>
        <time>2013-03-03T14:17:23.000Z</time>
      </trkpt>
      <trkpt lat="46.28716" lon="6.49283">
        <ele>1408.5</ele>
        <time>2013-03-03T14:17:24.000Z</time>
      </trkpt>
      <trkpt lat="46.28713" lon="6.49279">
        <ele>1408.6</ele>
        <time>2013-03-03T14:17:29.000Z</time>
      </trkpt>
      <trkpt lat="46.28712" lon="6.49278">
        <ele>1408.6</ele>
        <time>2013-03-03T14:17:30.000Z</time>
      </trkpt>
      <trkpt lat="46.28709" lon="6.49275">
        <ele>1408.8</ele>
        <time>2013-03-03T14:17:34.000Z</time>
      </trkpt>
      <trkpt lat="46.28708" lon="6.49274">
        <ele>1408.7</ele>
        <time>2013-03-03T14:17:35.000Z</time>
      </trkpt>
      <trkpt lat="46.28705" lon="6.49271">
        <ele>1408.7</ele>
        <time>2013-03-03T14:17:39.000Z</time>
      </trkpt>
      <trkpt lat="46.28704" lon="6.4927">
        <ele>1408.7</ele>
        <time>2013-03-03T14:17:40.000Z</time>
      </trkpt>
      <trkpt lat="46.28701" lon="6.49267">
        <ele>1408.7</ele>
        <time>2013-03-03T14:17:44.000Z</time>
      </trkpt>
      <trkpt lat="46.287" lon="6.49266">
        <ele>1408.7</ele>
        <time>2013-03-03T14:17:45.000Z</time>
      </trkpt>
      <trkpt lat="46.28697" lon="6.49263">
        <ele>1408.6</ele>
        <time>2013-03-03T14:17:49.000Z</time>
      </trkpt>
      <trkpt lat="46.28696" lon="6.49263">
        <ele>1408.6</ele>
        <time>2013-03-03T14:17:50.000Z</time>
      </trkpt>
      <trkpt lat="46.28693" lon="6.49259">
        <ele>1408.7</ele>
        <time>2013-03-03T14:17:59.000Z</time>
      </trkpt>
      <trkpt lat="46.28692" lon="6.49259">
        <ele>1408.7</ele>
        <time>2013-03-03T14:18:00.000Z</time>
      </trkpt>
      <trkpt lat="46.28689" lon="6.49256">
        <ele>1408.8</ele>
        <time>2013-03-03T14:18:04.000Z</time>
      </trkpt>
      <trkpt lat="46.28688" lon="6.49255">
        <ele>1408.9</ele>
        <time>2013-03-03T14:18:05.000Z</time>
      </trkpt>
      <trkpt lat="46.28685" lon="6.49252">
        <ele>1408.8</ele>
        <time>2013-03-03T14:18:09.000Z</time>
      </trkpt>
      <trkpt lat="46.28684" lon="6.49251">
        <ele>1408.8</ele>
        <time>2013-03-03T14:18:10.000Z</time>
      </trkpt>
      <trkpt lat="46.28681" lon="6.49248">
        <ele>1409.1</ele>
        <time>2013-03-03T14:18:14.000Z</time>
      </trkpt>
      <trkpt lat="46.2868" lon="6.49247">
        <ele>1409.1</ele>
        <time>2013-03-03T14:18:15.000Z</time>
      </trkpt>
      <trkpt lat="46.28676" lon="6.49243">
        <ele>1409.2</ele>
        <time>2013-03-03T14:18:19.000Z</time>
      </trkpt>
      <trkpt lat="46.28675" lon="6.49243">
        <ele>1409.2</ele>
        <time>2013-03-03T14:18:20.000Z</time>
      </trkpt>
      <trkpt lat="46.28672" lon="6.4924">
        <ele>1409.3</ele>
        <time>2013-03-03T14:18:24.000Z</time>
      </trkpt>
      <trkpt lat="46.28671" lon="6.49239">
        <ele>1409.2</ele>
        <time>2013-03-03T14:18:25.000Z</time>
      </trkpt>
      <trkpt lat="46.28667" lon="6.49236">
        <ele>1408.9</ele>
        <time>2013-03-03T14:18:29.000Z</time>
      </trkpt>
      <trkpt lat="46.28666" lon="6.49235">
        <ele>1408.9</ele>
        <time>2013-03-03T14:18:30.000Z</time>
      </trkpt>
      <trkpt lat="46.28663" lon="6.49233">
        <ele>1408.9</ele>
        <time>2013-03-03T14:18:34.000Z</time>
      </trkpt>
      <trkpt lat="46.28662" lon="6.49232">
        <ele>1408.9</ele>
        <time>2013-03-03T14:18:35.000Z</time>
      </trkpt>
      <trkpt lat="46.28659" lon="6.49228">
        <ele>1409.1</ele>
        <time>2013-03-03T14:18:40.000Z</time>
      </trkpt>
      <trkpt lat="46.28658" lon="6.49227">
        <ele>1409.1</ele>
        <time>2013-03-03T14:18:41.000Z</time>
      </trkpt>
      <trkpt lat="46.28655" lon="6.49224">
        <ele>1408.9</ele>
        <time>2013-03-03T14:18:46.000Z</time>
      </trkpt>
      <trkpt lat="46.28654" lon="6.49223">
        <ele>1408.9</ele>
        <time>2013-03-03T14:18:47.000Z</time>
      </trkpt>
      <trkpt lat="46.28651" lon="6.4922">
        <ele>1408.9</ele>
        <time>2013-03-03T14:18:51.000Z</time>
      </trkpt>
      <trkpt lat="46.2865" lon="6.49219">
        <ele>1409</ele>
        <time>2013-03-03T14:18:52.000Z</time>
      </trkpt>
      <trkpt lat="46.28647" lon="6.49216">
        <ele>1409.2</ele>
        <time>2013-03-03T14:18:57.000Z</time>
      </trkpt>
      <trkpt lat="46.28646" lon="6.49216">
        <ele>1409.3</ele>
        <time>2013-03-03T14:18:58.000Z</time>
      </trkpt>
      <trkpt lat="46.28642" lon="6.49212">
        <ele>1409.3</ele>
        <time>2013-03-03T14:19:03.000Z</time>
      </trkpt>
      <trkpt lat="46.28641" lon="6.49212">
        <ele>1409.4</ele>
        <time>2013-03-03T14:19:04.000Z</time>
      </trkpt>
      <trkpt lat="46.28637" lon="6.49208">
        <ele>1409.7</ele>
        <time>2013-03-03T14:19:09.000Z</time>
      </trkpt>
      <trkpt lat="46.28637" lon="6.49208">
        <ele>1409.8</ele>
        <time>2013-03-03T14:19:10.000Z</time>
      </trkpt>
      <trkpt lat="46.28633" lon="6.49205">
        <ele>1409.9</ele>
        <time>2013-03-03T14:19:23.000Z</time>
      </trkpt>
      <trkpt lat="46.28633" lon="6.49204">
        <ele>1409.9</ele>
        <time>2013-03-03T14:19:24.000Z</time>
      </trkpt>
      <trkpt lat="46.28629" lon="6.49201">
        <ele>1410</ele>
        <time>2013-03-03T14:19:29.000Z</time>
      </trkpt>
      <trkpt lat="46.28628" lon="6.492">
        <ele>1410</ele>
        <time>2013-03-03T14:19:30.000Z</time>
      </trkpt>
      <trkpt lat="46.28625" lon="6.49197">
        <ele>1409.9</ele>
        <time>2013-03-03T14:19:35.000Z</time>
      </trkpt>
      <trkpt lat="46.28624" lon="6.49197">
        <ele>1409.8</ele>
        <time>2013-03-03T14:19:36.000Z</time>
      </trkpt>
      <trkpt lat="46.2862" lon="6.49194">
        <ele>1409.6</ele>
        <time>2013-03-03T14:19:41.000Z</time>
      </trkpt>
      <trkpt lat="46.28619" lon="6.49193">
        <ele>1409.6</ele>
        <time>2013-03-03T14:19:42.000Z</time>
      </trkpt>
      <trkpt lat="46.28616" lon="6.4919">
        <ele>1409.2</ele>
        <time>2013-03-03T14:19:46.000Z</time>
      </trkpt>
      <trkpt lat="46.28615" lon="6.4919">
        <ele>1409.1</ele>
        <time>2013-03-03T14:19:47.000Z</time>
      </trkpt>
      <trkpt lat="46.28612" lon="6.49187">
        <ele>1409</ele>
        <time>2013-03-03T14:19:52.000Z</time>
      </trkpt>
      <trkpt lat="46.28611" lon="6.49186">
        <ele>1409</ele>
        <time>2013-03-03T14:19:53.000Z</time>
      </trkpt>
      <trkpt lat="46.28608" lon="6.49184">
        <ele>1409.2</ele>
        <time>2013-03-03T14:20:18.000Z</time>
      </trkpt>
      <trkpt lat="46.28607" lon="6.49183">
        <ele>1409.2</ele>
        <time>2013-03-03T14:20:19.000Z</time>
      </trkpt>
      <trkpt lat="46.28603" lon="6.49181">
        <ele>1409.3</ele>
        <time>2013-03-03T14:20:24.000Z</time>
      </trkpt>
      <trkpt lat="46.28603" lon="6.49181">
        <ele>1409.4</ele>
        <time>2013-03-03T14:20:25.000Z</time>
      </trkpt>
      <trkpt lat="46.28599" lon="6.49177">
        <ele>1417</ele>
        <time>2013-03-03T14:21:25.000Z</time>
      </trkpt>
      <trkpt lat="46.28598" lon="6.49176">
        <ele>1416.7</ele>
        <time>2013-03-03T14:21:26.000Z</time>
      </trkpt>
      <trkpt lat="46.28594" lon="6.49174">
        <ele>1416</ele>
        <time>2013-03-03T14:21:29.000Z</time>
      </trkpt>
      <trkpt lat="46.28593" lon="6.49173">
        <ele>1415.6</ele>
        <time>2013-03-03T14:21:30.000Z</time>
      </trkpt>
      <trkpt lat="46.28589" lon="6.49171">
        <ele>1415</ele>
        <time>2013-03-03T14:21:33.000Z</time>
      </trkpt>
      <trkpt lat="46.28588" lon="6.49171">
        <ele>1414.8</ele>
        <time>2013-03-03T14:21:34.000Z</time>
      </trkpt>
      <trkpt lat="46.28584" lon="6.49168">
        <ele>1414.1</ele>
        <time>2013-03-03T14:21:38.000Z</time>
      </trkpt>
      <trkpt lat="46.28583" lon="6.49168">
        <ele>1414.1</ele>
        <time>2013-03-03T14:21:39.000Z</time>
      </trkpt>
      <trkpt lat="46.28579" lon="6.49165">
        <ele>1413.7</ele>
        <time>2013-03-03T14:21:43.000Z</time>
      </trkpt>
      <trkpt lat="46.28578" lon="6.49165">
        <ele>1413.6</ele>
        <time>2013-03-03T14:21:44.000Z</time>
      </trkpt>
      <trkpt lat="46.28575" lon="6.49163">
        <ele>1413</ele>
        <time>2013-03-03T14:21:48.000Z</time>
      </trkpt>
      <trkpt lat="46.28574" lon="6.49163">
        <ele>1412.8</ele>
        <time>2013-03-03T14:21:49.000Z</time>
      </trkpt>
      <trkpt lat="46.28569" lon="6.4916">
        <ele>1412.5</ele>
        <time>2013-03-03T14:22:02.000Z</time>
      </trkpt>
      <trkpt lat="46.28568" lon="6.4916">
        <ele>1412.4</ele>
        <time>2013-03-03T14:22:03.000Z</time>
      </trkpt>
      <trkpt lat="46.28565" lon="6.49157">
        <ele>1412.1</ele>
        <time>2013-03-03T14:22:07.000Z</time>
      </trkpt>
      <trkpt lat="46.28564" lon="6.49157">
        <ele>1412</ele>
        <time>2013-03-03T14:22:08.000Z</time>
      </trkpt>
      <trkpt lat="46.28561" lon="6.49155">
        <ele>1412</ele>
        <time>2013-03-03T14:22:12.000Z</time>
      </trkpt>
      <trkpt lat="46.2856" lon="6.49154">
        <ele>1412</ele>
        <time>2013-03-03T14:22:13.000Z</time>
      </trkpt>
      <trkpt lat="46.28556" lon="6.49152">
        <ele>1411.7</ele>
        <time>2013-03-03T14:22:17.000Z</time>
      </trkpt>
      <trkpt lat="46.28556" lon="6.49152">
        <ele>1411.7</ele>
        <time>2013-03-03T14:22:18.000Z</time>
      </trkpt>
      <trkpt lat="46.28551" lon="6.49149">
        <ele>1411.3</ele>
        <time>2013-03-03T14:22:23.000Z</time>
      </trkpt>
      <trkpt lat="46.28551" lon="6.49148">
        <ele>1411.2</ele>
        <time>2013-03-03T14:22:24.000Z</time>
      </trkpt>
      <trkpt lat="46.28547" lon="6.49146">
        <ele>1411.2</ele>
        <time>2013-03-03T14:22:28.000Z</time>
      </trkpt>
      <trkpt lat="46.28546" lon="6.49145">
        <ele>1411.2</ele>
        <time>2013-03-03T14:22:29.000Z</time>
      </trkpt>
      <trkpt lat="46.28543" lon="6.49143">
        <ele>1410.8</ele>
        <time>2013-03-03T14:22:33.000Z</time>
      </trkpt>
      <trkpt lat="46.28542" lon="6.49142">
        <ele>1410.7</ele>
        <time>2013-03-03T14:22:34.000Z</time>
      </trkpt>
      <trkpt lat="46.28539" lon="6.49138">
        <ele>1407.7</ele>
        <time>2013-03-03T14:22:52.000Z</time>
      </trkpt>
      <trkpt lat="46.28538" lon="6.49138">
        <ele>1407.5</ele>
        <time>2013-03-03T14:22:53.000Z</time>
      </trkpt>
      <trkpt lat="46.28534" lon="6.49135">
        <ele>1407.3</ele>
        <time>2013-03-03T14:22:57.000Z</time>
      </trkpt>
      <trkpt lat="46.28533" lon="6.49134">
        <ele>1407.4</ele>
        <time>2013-03-03T14:22:58.000Z</time>
      </trkpt>
      <trkpt lat="46.2853" lon="6.49131">
        <ele>1407.5</ele>
        <time>2013-03-03T14:23:02.000Z</time>
      </trkpt>
      <trkpt lat="46.28529" lon="6.4913">
        <ele>1407.4</ele>
        <time>2013-03-03T14:23:03.000Z</time>
      </trkpt>
      <trkpt lat="46.28526" lon="6.49126">
        <ele>1407.4</ele>
        <time>2013-03-03T14:23:06.000Z</time>
      </trkpt>
      <trkpt lat="46.28525" lon="6.49125">
        <ele>1407.4</ele>
        <time>2013-03-03T14:23:07.000Z</time>
      </trkpt>
      <trkpt lat="46.28522" lon="6.49122">
        <ele>1407.5</ele>
        <time>2013-03-03T14:23:11.000Z</time>
      </trkpt>
      <trkpt lat="46.28521" lon="6.49121">
        <ele>1407.5</ele>
        <time>2013-03-03T14:23:12.000Z</time>
      </trkpt>
      <trkpt lat="46.28518" lon="6.49117">
        <ele>1407.2</ele>
        <time>2013-03-03T14:23:21.000Z</time>
      </trkpt>
      <trkpt lat="46.28517" lon="6.49116">
        <ele>1407.3</ele>
        <time>2013-03-03T14:23:22.000Z</time>
      </trkpt>
      <trkpt lat="46.28514" lon="6.49112">
        <ele>1407.4</ele>
        <time>2013-03-03T14:23:27.000Z</time>
      </trkpt>
      <trkpt lat="46.28513" lon="6.49111">
        <ele>1407.4</ele>
        <time>2013-03-03T14:23:28.000Z</time>
      </trkpt>
      <trkpt lat="46.2851" lon="6.49106">
        <ele>1407.3</ele>
        <time>2013-03-03T14:23:47.000Z</time>
      </trkpt>
      <trkpt lat="46.2851" lon="6.49105">
        <ele>1407.3</ele>
        <time>2013-03-03T14:23:48.000Z</time>
      </trkpt>
      <trkpt lat="46.28507" lon="6.491">
        <ele>1407.3</ele>
        <time>2013-03-03T14:23:54.000Z</time>
      </trkpt>
      <trkpt lat="46.28506" lon="6.491">
        <ele>1407.2</ele>
        <time>2013-03-03T14:23:55.000Z</time>
      </trkpt>
      <trkpt lat="46.28503" lon="6.49098">
        <ele>1408</ele>
        <time>2013-03-03T14:24:10.000Z</time>
      </trkpt>
      <trkpt lat="46.28502" lon="6.49097">
        <ele>1408.1</ele>
        <time>2013-03-03T14:24:11.000Z</time>
      </trkpt>
      <trkpt lat="46.28498" lon="6.49095">
        <ele>1408.8</ele>
        <time>2013-03-03T14:24:24.000Z</time>
      </trkpt>
      <trkpt lat="46.28497" lon="6.49095">
        <ele>1408.8</ele>
        <time>2013-03-03T14:24:25.000Z</time>
      </trkpt>
      <trkpt lat="46.28494" lon="6.49094">
        <ele>1408.9</ele>
        <time>2013-03-03T14:24:29.000Z</time>
      </trkpt>
      <trkpt lat="46.28492" lon="6.49093">
        <ele>1408.9</ele>
        <time>2013-03-03T14:24:30.000Z</time>
      </trkpt>
      <trkpt lat="46.28488" lon="6.49092">
        <ele>1408.7</ele>
        <time>2013-03-03T14:24:35.000Z</time>
      </trkpt>
      <trkpt lat="46.28487" lon="6.49092">
        <ele>1408.7</ele>
        <time>2013-03-03T14:24:36.000Z</time>
      </trkpt>
      <trkpt lat="46.28483" lon="6.49093">
        <ele>1408.3</ele>
        <time>2013-03-03T14:24:41.000Z</time>
      </trkpt>
      <trkpt lat="46.28482" lon="6.49093">
        <ele>1408.2</ele>
        <time>2013-03-03T14:24:42.000Z</time>
      </trkpt>
      <trkpt lat="46.28479" lon="6.49094">
        <ele>1406.9</ele>
        <time>2013-03-03T14:25:24.000Z</time>
      </trkpt>
      <trkpt lat="46.28478" lon="6.49094">
        <ele>1406.8</ele>
        <time>2013-03-03T14:25:25.000Z</time>
      </trkpt>
      <trkpt lat="46.28474" lon="6.49093">
        <ele>1406.6</ele>
        <time>2013-03-03T14:26:37.000Z</time>
      </trkpt>
      <trkpt lat="46.2847" lon="6.49092">
        <ele>1407</ele>
        <time>2013-03-03T14:26:45.000Z</time>
      </trkpt>
      <trkpt lat="46.28466" lon="6.49091">
        <ele>1407.1</ele>
        <time>2013-03-03T14:26:58.000Z</time>
      </trkpt>
      <trkpt lat="46.28465" lon="6.49091">
        <ele>1406.9</ele>
        <time>2013-03-03T14:26:59.000Z</time>
      </trkpt>
      <trkpt lat="46.28462" lon="6.49091">
        <ele>1406.4</ele>
        <time>2013-03-03T14:27:02.000Z</time>
      </trkpt>
      <trkpt lat="46.28461" lon="6.4909">
        <ele>1406.3</ele>
        <time>2013-03-03T14:27:03.000Z</time>
      </trkpt>
      <trkpt lat="46.28456" lon="6.49089">
        <ele>1405.7</ele>
        <time>2013-03-03T14:27:08.000Z</time>
      </trkpt>
      <trkpt lat="46.28456" lon="6.49089">
        <ele>1405.6</ele>
        <time>2013-03-03T14:27:09.000Z</time>
      </trkpt>
      <trkpt lat="46.28451" lon="6.49088">
        <ele>1404.9</ele>
        <time>2013-03-03T14:27:14.000Z</time>
      </trkpt>
      <trkpt lat="46.2845" lon="6.49088">
        <ele>1404.8</ele>
        <time>2013-03-03T14:27:15.000Z</time>
      </trkpt>
      <trkpt lat="46.28447" lon="6.49087">
        <ele>1404.4</ele>
        <time>2013-03-03T14:27:19.000Z</time>
      </trkpt>
      <trkpt lat="46.28445" lon="6.49086">
        <ele>1404.2</ele>
        <time>2013-03-03T14:27:20.000Z</time>
      </trkpt>
      <trkpt lat="46.28442" lon="6.49085">
        <ele>1403.7</ele>
        <time>2013-03-03T14:27:22.000Z</time>
      </trkpt>
      <trkpt lat="46.28441" lon="6.49085">
        <ele>1403.4</ele>
        <time>2013-03-03T14:27:23.000Z</time>
      </trkpt>
      <trkpt lat="46.28436" lon="6.49083">
        <ele>1402.8</ele>
        <time>2013-03-03T14:27:26.000Z</time>
      </trkpt>
      <trkpt lat="46.28435" lon="6.49083">
        <ele>1402.7</ele>
        <time>2013-03-03T14:27:27.000Z</time>
      </trkpt>
      <trkpt lat="46.28431" lon="6.49081">
        <ele>1401.9</ele>
        <time>2013-03-03T14:27:30.000Z</time>
      </trkpt>
      <trkpt lat="46.2843" lon="6.4908">
        <ele>1401.7</ele>
        <time>2013-03-03T14:27:31.000Z</time>
      </trkpt>
      <trkpt lat="46.28427" lon="6.49078">
        <ele>1401</ele>
        <time>2013-03-03T14:27:34.000Z</time>
      </trkpt>
      <trkpt lat="46.28426" lon="6.49077">
        <ele>1400.7</ele>
        <time>2013-03-03T14:27:35.000Z</time>
      </trkpt>
      <trkpt lat="46.28422" lon="6.49074">
        <ele>1400.1</ele>
        <time>2013-03-03T14:27:38.000Z</time>
      </trkpt>
      <trkpt lat="46.28421" lon="6.49073">
        <ele>1400</ele>
        <time>2013-03-03T14:27:39.000Z</time>
      </trkpt>
      <trkpt lat="46.28418" lon="6.49071">
        <ele>1399.4</ele>
        <time>2013-03-03T14:27:44.000Z</time>
      </trkpt>
      <trkpt lat="46.28417" lon="6.4907">
        <ele>1399.3</ele>
        <time>2013-03-03T14:27:45.000Z</time>
      </trkpt>
      <trkpt lat="46.28414" lon="6.49066">
        <ele>1398.8</ele>
        <time>2013-03-03T14:27:48.000Z</time>
      </trkpt>
      <trkpt lat="46.28413" lon="6.49065">
        <ele>1398.7</ele>
        <time>2013-03-03T14:27:49.000Z</time>
      </trkpt>
      <trkpt lat="46.2841" lon="6.49061">
        <ele>1398.1</ele>
        <time>2013-03-03T14:27:52.000Z</time>
      </trkpt>
      <trkpt lat="46.28409" lon="6.4906">
        <ele>1397.9</ele>
        <time>2013-03-03T14:27:53.000Z</time>
      </trkpt>
      <trkpt lat="46.28407" lon="6.49054">
        <ele>1397.4</ele>
        <time>2013-03-03T14:27:56.000Z</time>
      </trkpt>
      <trkpt lat="46.28406" lon="6.49053">
        <ele>1397.2</ele>
        <time>2013-03-03T14:27:57.000Z</time>
      </trkpt>
      <trkpt lat="46.28403" lon="6.49048">
        <ele>1396.6</ele>
        <time>2013-03-03T14:27:59.000Z</time>
      </trkpt>
      <trkpt lat="46.28402" lon="6.49045">
        <ele>1396.3</ele>
        <time>2013-03-03T14:28:00.000Z</time>
      </trkpt>
      <trkpt lat="46.284" lon="6.49042">
        <ele>1396</ele>
        <time>2013-03-03T14:28:01.000Z</time>
      </trkpt>
      <trkpt lat="46.28399" lon="6.49039">
        <ele>1395.7</ele>
        <time>2013-03-03T14:28:02.000Z</time>
      </trkpt>
      <trkpt lat="46.28397" lon="6.49034">
        <ele>1395.3</ele>
        <time>2013-03-03T14:28:04.000Z</time>
      </trkpt>
      <trkpt lat="46.28397" lon="6.49032">
        <ele>1395.2</ele>
        <time>2013-03-03T14:28:05.000Z</time>
      </trkpt>
      <trkpt lat="46.28396" lon="6.49027">
        <ele>1394.9</ele>
        <time>2013-03-03T14:28:19.000Z</time>
      </trkpt>
      <trkpt lat="46.28396" lon="6.49025">
        <ele>1394.9</ele>
        <time>2013-03-03T14:28:20.000Z</time>
      </trkpt>
      <trkpt lat="46.28396" lon="6.4902">
        <ele>1394.7</ele>
        <time>2013-03-03T14:28:25.000Z</time>
      </trkpt>
      <trkpt lat="46.28395" lon="6.49019">
        <ele>1394.6</ele>
        <time>2013-03-03T14:28:26.000Z</time>
      </trkpt>
      <trkpt lat="46.28394" lon="6.49013">
        <ele>1394.4</ele>
        <time>2013-03-03T14:28:29.000Z</time>
      </trkpt>
      <trkpt lat="46.28394" lon="6.49012">
        <ele>1394.3</ele>
        <time>2013-03-03T14:28:30.000Z</time>
      </trkpt>
      <trkpt lat="46.28393" lon="6.49006">
        <ele>1394.1</ele>
        <time>2013-03-03T14:28:33.000Z</time>
      </trkpt>
      <trkpt lat="46.28392" lon="6.49004">
        <ele>1394</ele>
        <time>2013-03-03T14:28:34.000Z</time>
      </trkpt>
      <trkpt lat="46.28391" lon="6.48998">
        <ele>1393.8</ele>
        <time>2013-03-03T14:28:37.000Z</time>
      </trkpt>
      <trkpt lat="46.28391" lon="6.48997">
        <ele>1393.7</ele>
        <time>2013-03-03T14:28:38.000Z</time>
      </trkpt>
      <trkpt lat="46.2839" lon="6.48991">
        <ele>1393.4</ele>
        <time>2013-03-03T14:28:42.000Z</time>
      </trkpt>
      <trkpt lat="46.28389" lon="6.4899">
        <ele>1393.3</ele>
        <time>2013-03-03T14:28:43.000Z</time>
      </trkpt>
      <trkpt lat="46.28388" lon="6.48984">
        <ele>1392.8</ele>
        <time>2013-03-03T14:28:48.000Z</time>
      </trkpt>
      <trkpt lat="46.28387" lon="6.48982">
        <ele>1392.6</ele>
        <time>2013-03-03T14:28:49.000Z</time>
      </trkpt>
      <trkpt lat="46.28386" lon="6.48978">
        <ele>1392.4</ele>
        <time>2013-03-03T14:28:55.000Z</time>
      </trkpt>
      <trkpt lat="46.28385" lon="6.48977">
        <ele>1392</ele>
        <time>2013-03-03T14:28:56.000Z</time>
      </trkpt>
      <trkpt lat="46.28382" lon="6.48976">
        <ele>1391.6</ele>
        <time>2013-03-03T14:28:57.000Z</time>
      </trkpt>
      <trkpt lat="46.2838" lon="6.48975">
        <ele>1391.3</ele>
        <time>2013-03-03T14:28:58.000Z</time>
      </trkpt>
      <trkpt lat="46.28377" lon="6.48974">
        <ele>1390.9</ele>
        <time>2013-03-03T14:28:59.000Z</time>
      </trkpt>
      <trkpt lat="46.28375" lon="6.48973">
        <ele>1390.6</ele>
        <time>2013-03-03T14:29:00.000Z</time>
      </trkpt>
      <trkpt lat="46.28371" lon="6.48973">
        <ele>1390.2</ele>
        <time>2013-03-03T14:29:10.000Z</time>
      </trkpt>
      <trkpt lat="46.2837" lon="6.48973">
        <ele>1390.3</ele>
        <time>2013-03-03T14:29:11.000Z</time>
      </trkpt>
      <trkpt lat="46.28366" lon="6.48973">
        <ele>1390.7</ele>
        <time>2013-03-03T14:29:16.000Z</time>
      </trkpt>
      <trkpt lat="46.28365" lon="6.48973">
        <ele>1390.8</ele>
        <time>2013-03-03T14:29:17.000Z</time>
      </trkpt>
      <trkpt lat="46.28362" lon="6.48974">
        <ele>1391.4</ele>
        <time>2013-03-03T14:29:22.000Z</time>
      </trkpt>
      <trkpt lat="46.28361" lon="6.48974">
        <ele>1391.6</ele>
        <time>2013-03-03T14:29:23.000Z</time>
      </trkpt>
      <trkpt lat="46.28357" lon="6.48974">
        <ele>1392.6</ele>
        <time>2013-03-03T14:29:29.000Z</time>
      </trkpt>
      <trkpt lat="46.28356" lon="6.48975">
        <ele>1392.9</ele>
        <time>2013-03-03T14:29:30.000Z</time>
      </trkpt>
      <trkpt lat="46.28352" lon="6.48975">
        <ele>1394.2</ele>
        <time>2013-03-03T14:29:36.000Z</time>
      </trkpt>
      <trkpt lat="46.28351" lon="6.48975">
        <ele>1394.4</ele>
        <time>2013-03-03T14:29:37.000Z</time>
      </trkpt>
      <trkpt lat="46.28347" lon="6.48976">
        <ele>1395.3</ele>
        <time>2013-03-03T14:29:42.000Z</time>
      </trkpt>
      <trkpt lat="46.28346" lon="6.48976">
        <ele>1395.4</ele>
        <time>2013-03-03T14:29:43.000Z</time>
      </trkpt>
      <trkpt lat="46.28342" lon="6.48977">
        <ele>1396.5</ele>
        <time>2013-03-03T14:29:49.000Z</time>
      </trkpt>
      <trkpt lat="46.28341" lon="6.48977">
        <ele>1396.7</ele>
        <time>2013-03-03T14:29:50.000Z</time>
      </trkpt>
      <trkpt lat="46.28337" lon="6.48978">
        <ele>1395.5</ele>
        <time>2013-03-03T14:30:55.000Z</time>
      </trkpt>
      <trkpt lat="46.28336" lon="6.48979">
        <ele>1395.6</ele>
        <time>2013-03-03T14:30:56.000Z</time>
      </trkpt>
      <trkpt lat="46.28332" lon="6.48979">
        <ele>1397</ele>
        <time>2013-03-03T14:31:02.000Z</time>
      </trkpt>
      <trkpt lat="46.28331" lon="6.4898">
        <ele>1397.3</ele>
        <time>2013-03-03T14:31:03.000Z</time>
      </trkpt>
      <trkpt lat="46.28328" lon="6.4898">
        <ele>1398.5</ele>
        <time>2013-03-03T14:31:08.000Z</time>
      </trkpt>
      <trkpt lat="46.28326" lon="6.48981">
        <ele>1398.9</ele>
        <time>2013-03-03T14:31:09.000Z</time>
      </trkpt>
      <trkpt lat="46.28322" lon="6.48981">
        <ele>1400.7</ele>
        <time>2013-03-03T14:31:15.000Z</time>
      </trkpt>
      <trkpt lat="46.28322" lon="6.48981">
        <ele>1401</ele>
        <time>2013-03-03T14:31:16.000Z</time>
      </trkpt>
      <trkpt lat="46.28317" lon="6.48982">
        <ele>1402.5</ele>
        <time>2013-03-03T14:31:22.000Z</time>
      </trkpt>
      <trkpt lat="46.28317" lon="6.48982">
        <ele>1402.7</ele>
        <time>2013-03-03T14:31:23.000Z</time>
      </trkpt>
      <trkpt lat="46.28313" lon="6.48983">
        <ele>1404</ele>
        <time>2013-03-03T14:31:29.000Z</time>
      </trkpt>
      <trkpt lat="46.28312" lon="6.48983">
        <ele>1404.2</ele>
        <time>2013-03-03T14:31:30.000Z</time>
      </trkpt>
      <trkpt lat="46.28308" lon="6.48985">
        <ele>1406</ele>
        <time>2013-03-03T14:31:37.000Z</time>
      </trkpt>
      <trkpt lat="46.28308" lon="6.48985">
        <ele>1406.1</ele>
        <time>2013-03-03T14:31:38.000Z</time>
      </trkpt>
      <trkpt lat="46.28303" lon="6.48985">
        <ele>1407</ele>
        <time>2013-03-03T14:31:46.000Z</time>
      </trkpt>
      <trkpt lat="46.28303" lon="6.48985">
        <ele>1407.1</ele>
        <time>2013-03-03T14:31:47.000Z</time>
      </trkpt>
      <trkpt lat="46.28298" lon="6.48986">
        <ele>1408.8</ele>
        <time>2013-03-03T14:31:56.000Z</time>
      </trkpt>
      <trkpt lat="46.28298" lon="6.48985">
        <ele>1408.8</ele>
        <time>2013-03-03T14:31:57.000Z</time>
      </trkpt>
      <trkpt lat="46.28293" lon="6.48983">
        <ele>1409.1</ele>
        <time>2013-03-03T14:32:04.000Z</time>
      </trkpt>
      <trkpt lat="46.28293" lon="6.48983">
        <ele>1409.2</ele>
        <time>2013-03-03T14:32:05.000Z</time>
      </trkpt>
      <trkpt lat="46.28289" lon="6.48981">
        <ele>1409.3</ele>
        <time>2013-03-03T14:32:12.000Z</time>
      </trkpt>
      <trkpt lat="46.28288" lon="6.48981">
        <ele>1409.2</ele>
        <time>2013-03-03T14:32:13.000Z</time>
      </trkpt>
      <trkpt lat="46.28284" lon="6.4898">
        <ele>1410.1</ele>
        <time>2013-03-03T14:32:21.000Z</time>
      </trkpt>
      <trkpt lat="46.28283" lon="6.4898">
        <ele>1410.3</ele>
        <time>2013-03-03T14:32:22.000Z</time>
      </trkpt>
      <trkpt lat="46.28279" lon="6.48978">
        <ele>1410.4</ele>
        <time>2013-03-03T14:32:30.000Z</time>
      </trkpt>
      <trkpt lat="46.28279" lon="6.48977">
        <ele>1410.6</ele>
        <time>2013-03-03T14:32:31.000Z</time>
      </trkpt>
      <trkpt lat="46.28274" lon="6.48975">
        <ele>1411.7</ele>
        <time>2013-03-03T14:32:38.000Z</time>
      </trkpt>
      <trkpt lat="46.28274" lon="6.48975">
        <ele>1411.8</ele>
        <time>2013-03-03T14:32:39.000Z</time>
      </trkpt>
      <trkpt lat="46.2827" lon="6.48972">
        <ele>1412.3</ele>
        <time>2013-03-03T14:32:46.000Z</time>
      </trkpt>
      <trkpt lat="46.2827" lon="6.48972">
        <ele>1412.4</ele>
        <time>2013-03-03T14:32:47.000Z</time>
      </trkpt>
      <trkpt lat="46.28266" lon="6.48968">
        <ele>1412.6</ele>
        <time>2013-03-03T14:32:54.000Z</time>
      </trkpt>
      <trkpt lat="46.28266" lon="6.48968">
        <ele>1412.6</ele>
        <time>2013-03-03T14:32:55.000Z</time>
      </trkpt>
      <trkpt lat="46.28262" lon="6.48965">
        <ele>1412.9</ele>
        <time>2013-03-03T14:33:01.000Z</time>
      </trkpt>
      <trkpt lat="46.28261" lon="6.48965">
        <ele>1413</ele>
        <time>2013-03-03T14:33:02.000Z</time>
      </trkpt>
      <trkpt lat="46.28258" lon="6.48963">
        <ele>1413.3</ele>
        <time>2013-03-03T14:33:08.000Z</time>
      </trkpt>
      <trkpt lat="46.28257" lon="6.48963">
        <ele>1413.6</ele>
        <time>2013-03-03T14:33:09.000Z</time>
      </trkpt>
      <trkpt lat="46.28253" lon="6.48962">
        <ele>1414.2</ele>
        <time>2013-03-03T14:33:15.000Z</time>
      </trkpt>
      <trkpt lat="46.28252" lon="6.48961">
        <ele>1414.5</ele>
        <time>2013-03-03T14:33:16.000Z</time>
      </trkpt>
      <trkpt lat="46.28248" lon="6.48961">
        <ele>1415.9</ele>
        <time>2013-03-03T14:33:21.000Z</time>
      </trkpt>
      <trkpt lat="46.28247" lon="6.48961">
        <ele>1416.1</ele>
        <time>2013-03-03T14:33:22.000Z</time>
      </trkpt>
      <trkpt lat="46.28243" lon="6.48961">
        <ele>1417.7</ele>
        <time>2013-03-03T14:33:28.000Z</time>
      </trkpt>
      <trkpt lat="46.28242" lon="6.48961">
        <ele>1417.9</ele>
        <time>2013-03-03T14:33:29.000Z</time>
      </trkpt>
      <trkpt lat="46.28238" lon="6.48961">
        <ele>1419.5</ele>
        <time>2013-03-03T14:33:35.000Z</time>
      </trkpt>
      <trkpt lat="46.28238" lon="6.48961">
        <ele>1419.7</ele>
        <time>2013-03-03T14:33:36.000Z</time>
      </trkpt>
      <trkpt lat="46.28234" lon="6.48962">
        <ele>1421</ele>
        <time>2013-03-03T14:33:42.000Z</time>
      </trkpt>
      <trkpt lat="46.28233" lon="6.48962">
        <ele>1421.2</ele>
        <time>2013-03-03T14:33:43.000Z</time>
      </trkpt>
      <trkpt lat="46.28229" lon="6.48963">
        <ele>1422.5</ele>
        <time>2013-03-03T14:33:49.000Z</time>
      </trkpt>
      <trkpt lat="46.28228" lon="6.48964">
        <ele>1422.6</ele>
        <time>2013-03-03T14:33:50.000Z</time>
      </trkpt>
      <trkpt lat="46.28224" lon="6.48964">
        <ele>1423.7</ele>
        <time>2013-03-03T14:33:57.000Z</time>
      </trkpt>
      <trkpt lat="46.28223" lon="6.48965">
        <ele>1423.9</ele>
        <time>2013-03-03T14:33:58.000Z</time>
      </trkpt>
      <trkpt lat="46.28219" lon="6.48965">
        <ele>1424.7</ele>
        <time>2013-03-03T14:34:04.000Z</time>
      </trkpt>
      <trkpt lat="46.28218" lon="6.48965">
        <ele>1424.9</ele>
        <time>2013-03-03T14:34:05.000Z</time>
      </trkpt>
      <trkpt lat="46.28215" lon="6.48966">
        <ele>1425.8</ele>
        <time>2013-03-03T14:34:11.000Z</time>
      </trkpt>
      <trkpt lat="46.28214" lon="6.48966">
        <ele>1426</ele>
        <time>2013-03-03T14:34:12.000Z</time>
      </trkpt>
      <trkpt lat="46.2821" lon="6.48968">
        <ele>1427.7</ele>
        <time>2013-03-03T14:34:19.000Z</time>
      </trkpt>
      <trkpt lat="46.28209" lon="6.48968">
        <ele>1427.8</ele>
        <time>2013-03-03T14:34:20.000Z</time>
      </trkpt>
      <trkpt lat="46.28205" lon="6.48969">
        <ele>1429.3</ele>
        <time>2013-03-03T14:34:27.000Z</time>
      </trkpt>
      <trkpt lat="46.28204" lon="6.48969">
        <ele>1429.6</ele>
        <time>2013-03-03T14:34:28.000Z</time>
      </trkpt>
      <trkpt lat="46.282" lon="6.4897">
        <ele>1431.6</ele>
        <time>2013-03-03T14:34:36.000Z</time>
      </trkpt>
      <trkpt lat="46.28199" lon="6.4897">
        <ele>1431.8</ele>
        <time>2013-03-03T14:34:37.000Z</time>
      </trkpt>
      <trkpt lat="46.28195" lon="6.4897">
        <ele>1433.4</ele>
        <time>2013-03-03T14:34:56.000Z</time>
      </trkpt>
      <trkpt lat="46.28195" lon="6.4897">
        <ele>1433.6</ele>
        <time>2013-03-03T14:34:57.000Z</time>
      </trkpt>
      <trkpt lat="46.28191" lon="6.48968">
        <ele>1434.5</ele>
        <time>2013-03-03T14:35:05.000Z</time>
      </trkpt>
      <trkpt lat="46.2819" lon="6.48968">
        <ele>1434.4</ele>
        <time>2013-03-03T14:35:06.000Z</time>
      </trkpt>
      <trkpt lat="46.28186" lon="6.48968">
        <ele>1434.6</ele>
        <time>2013-03-03T14:35:15.000Z</time>
      </trkpt>
      <trkpt lat="46.28185" lon="6.48968">
        <ele>1434.8</ele>
        <time>2013-03-03T14:35:16.000Z</time>
      </trkpt>
      <trkpt lat="46.28181" lon="6.48969">
        <ele>1437.8</ele>
        <time>2013-03-03T14:35:27.000Z</time>
      </trkpt>
      <trkpt lat="46.28181" lon="6.48969">
        <ele>1438.3</ele>
        <time>2013-03-03T14:35:28.000Z</time>
      </trkpt>
      <trkpt lat="46.28177" lon="6.48967">
        <ele>1437.8</ele>
        <time>2013-03-03T14:35:32.000Z</time>
      </trkpt>
      <trkpt lat="46.28176" lon="6.48967">
        <ele>1438.1</ele>
        <time>2013-03-03T14:35:33.000Z</time>
      </trkpt>
      <trkpt lat="46.28174" lon="6.48965">
        <ele>1438.6</ele>
        <time>2013-03-03T14:35:37.000Z</time>
      </trkpt>
      <trkpt lat="46.28166" lon="6.48963">
        <ele>1443.6</ele>
        <time>2013-03-03T14:35:46.000Z</time>
      </trkpt>
      <trkpt lat="46.28163" lon="6.48959">
        <ele>1448.3</ele>
        <time>2013-03-03T14:35:59.000Z</time>
      </trkpt>
      <trkpt lat="46.28163" lon="6.48958">
        <ele>1448.9</ele>
        <time>2013-03-03T14:36:00.000Z</time>
      </trkpt>
      <trkpt lat="46.28158" lon="6.48958">
        <ele>1453.6</ele>
        <time>2013-03-03T14:36:08.000Z</time>
      </trkpt>
      <trkpt lat="46.28158" lon="6.48958">
        <ele>1454.2</ele>
        <time>2013-03-03T14:36:09.000Z</time>
      </trkpt>
      <trkpt lat="46.28153" lon="6.4896">
        <ele>1454.2</ele>
        <time>2013-03-03T14:36:15.000Z</time>
      </trkpt>
      <trkpt lat="46.28153" lon="6.48961">
        <ele>1453.9</ele>
        <time>2013-03-03T14:36:16.000Z</time>
      </trkpt>
      <trkpt lat="46.2815" lon="6.48965">
        <ele>1453</ele>
        <time>2013-03-03T14:36:22.000Z</time>
      </trkpt>
      <trkpt lat="46.28149" lon="6.48966">
        <ele>1453</ele>
        <time>2013-03-03T14:36:23.000Z</time>
      </trkpt>
      <trkpt lat="46.28146" lon="6.4897">
        <ele>1452.4</ele>
        <time>2013-03-03T14:36:33.000Z</time>
      </trkpt>
      <trkpt lat="46.28145" lon="6.4897">
        <ele>1452.7</ele>
        <time>2013-03-03T14:36:34.000Z</time>
      </trkpt>
      <trkpt lat="46.28141" lon="6.4897">
        <ele>1456.2</ele>
        <time>2013-03-03T14:39:41.000Z</time>
      </trkpt>
      <trkpt lat="46.2814" lon="6.4897">
        <ele>1456.2</ele>
        <time>2013-03-03T14:39:42.000Z</time>
      </trkpt>
      <trkpt lat="46.28136" lon="6.48969">
        <ele>1455.2</ele>
        <time>2013-03-03T14:40:09.000Z</time>
      </trkpt>
      <trkpt lat="46.28135" lon="6.48969">
        <ele>1455.7</ele>
        <time>2013-03-03T14:40:10.000Z</time>
      </trkpt>
      <trkpt lat="46.28132" lon="6.48965">
        <ele>1454.2</ele>
        <time>2013-03-03T14:40:16.000Z</time>
      </trkpt>
      <trkpt lat="46.28132" lon="6.48964">
        <ele>1454.3</ele>
        <time>2013-03-03T14:40:17.000Z</time>
      </trkpt>
      <trkpt lat="46.28129" lon="6.48962">
        <ele>1454.8</ele>
        <time>2013-03-03T14:40:31.000Z</time>
      </trkpt>
      <trkpt lat="46.28128" lon="6.48962">
        <ele>1455.5</ele>
        <time>2013-03-03T14:40:32.000Z</time>
      </trkpt>
      <trkpt lat="46.28125" lon="6.48959">
        <ele>1456.2</ele>
        <time>2013-03-03T14:40:51.000Z</time>
      </trkpt>
      <trkpt lat="46.28122" lon="6.48956">
        <ele>1457.5</ele>
        <time>2013-03-03T14:40:52.000Z</time>
      </trkpt>
      <trkpt lat="46.28117" lon="6.48954">
        <ele>1458</ele>
        <time>2013-03-03T14:40:59.000Z</time>
      </trkpt>
      <trkpt lat="46.28117" lon="6.48954">
        <ele>1458</ele>
        <time>2013-03-03T14:41:00.000Z</time>
      </trkpt>
      <trkpt lat="46.28113" lon="6.48956">
        <ele>1457.9</ele>
        <time>2013-03-03T14:41:21.000Z</time>
      </trkpt>
      <trkpt lat="46.28112" lon="6.48957">
        <ele>1457.5</ele>
        <time>2013-03-03T14:41:22.000Z</time>
      </trkpt>
      <trkpt lat="46.2811" lon="6.48963">
        <ele>1458.1</ele>
        <time>2013-03-03T14:41:31.000Z</time>
      </trkpt>
      <trkpt lat="46.2811" lon="6.48963">
        <ele>1458.2</ele>
        <time>2013-03-03T14:41:32.000Z</time>
      </trkpt>
      <trkpt lat="46.28113" lon="6.48967">
        <ele>1460.1</ele>
        <time>2013-03-03T14:41:43.000Z</time>
      </trkpt>
      <trkpt lat="46.28113" lon="6.48968">
        <ele>1460.1</ele>
        <time>2013-03-03T14:41:44.000Z</time>
      </trkpt>
      <trkpt lat="46.28116" lon="6.48971">
        <ele>1460.5</ele>
        <time>2013-03-03T14:41:52.000Z</time>
      </trkpt>
      <trkpt lat="46.28116" lon="6.48972">
        <ele>1460.9</ele>
        <time>2013-03-03T14:41:53.000Z</time>
      </trkpt>
      <trkpt lat="46.28118" lon="6.48977">
        <ele>1461</ele>
        <time>2013-03-03T14:41:58.000Z</time>
      </trkpt>
      <trkpt lat="46.28119" lon="6.48978">
        <ele>1460.8</ele>
        <time>2013-03-03T14:41:59.000Z</time>
      </trkpt>
      <trkpt lat="46.28122" lon="6.48982">
        <ele>1461.7</ele>
        <time>2013-03-03T14:42:03.000Z</time>
      </trkpt>
      <trkpt lat="46.28122" lon="6.48983">
        <ele>1462.1</ele>
        <time>2013-03-03T14:42:04.000Z</time>
      </trkpt>
      <trkpt lat="46.28125" lon="6.48988">
        <ele>1464.3</ele>
        <time>2013-03-03T14:42:09.000Z</time>
      </trkpt>
      <trkpt lat="46.28125" lon="6.4899">
        <ele>1464.6</ele>
        <time>2013-03-03T14:42:10.000Z</time>
      </trkpt>
      <trkpt lat="46.28128" lon="6.48995">
        <ele>1465</ele>
        <time>2013-03-03T14:42:15.000Z</time>
      </trkpt>
      <trkpt lat="46.28128" lon="6.48995">
        <ele>1465.1</ele>
        <time>2013-03-03T14:42:16.000Z</time>
      </trkpt>
      <trkpt lat="46.28131" lon="6.49">
        <ele>1465.8</ele>
        <time>2013-03-03T14:42:22.000Z</time>
      </trkpt>
      <trkpt lat="46.28131" lon="6.49001">
        <ele>1465.9</ele>
        <time>2013-03-03T14:42:23.000Z</time>
      </trkpt>
      <trkpt lat="46.28134" lon="6.49005">
        <ele>1467</ele>
        <time>2013-03-03T14:42:34.000Z</time>
      </trkpt>
      <trkpt lat="46.28134" lon="6.49006">
        <ele>1467.1</ele>
        <time>2013-03-03T14:42:35.000Z</time>
      </trkpt>
      <trkpt lat="46.28136" lon="6.49012">
        <ele>1467</ele>
        <time>2013-03-03T14:42:40.000Z</time>
      </trkpt>
      <trkpt lat="46.28136" lon="6.49013">
        <ele>1466.8</ele>
        <time>2013-03-03T14:42:41.000Z</time>
      </trkpt>
      <trkpt lat="46.28138" lon="6.49018">
        <ele>1465.4</ele>
        <time>2013-03-03T14:42:50.000Z</time>
      </trkpt>
      <trkpt lat="46.28138" lon="6.49019">
        <ele>1465.4</ele>
        <time>2013-03-03T14:42:51.000Z</time>
      </trkpt>
      <trkpt lat="46.28139" lon="6.49025">
        <ele>1465.6</ele>
        <time>2013-03-03T14:42:56.000Z</time>
      </trkpt>
      <trkpt lat="46.28138" lon="6.49026">
        <ele>1465.5</ele>
        <time>2013-03-03T14:42:57.000Z</time>
      </trkpt>
      <trkpt lat="46.2814" lon="6.49031">
        <ele>1465.3</ele>
        <time>2013-03-03T14:43:02.000Z</time>
      </trkpt>
      <trkpt lat="46.2814" lon="6.49032">
        <ele>1465.5</ele>
        <time>2013-03-03T14:43:03.000Z</time>
      </trkpt>
      <trkpt lat="46.28142" lon="6.49037">
        <ele>1467.9</ele>
        <time>2013-03-03T14:43:08.000Z</time>
      </trkpt>
      <trkpt lat="46.28142" lon="6.49038">
        <ele>1468.4</ele>
        <time>2013-03-03T14:43:09.000Z</time>
      </trkpt>
      <trkpt lat="46.28144" lon="6.49044">
        <ele>1469.7</ele>
        <time>2013-03-03T14:43:15.000Z</time>
      </trkpt>
      <trkpt lat="46.28144" lon="6.49045">
        <ele>1470</ele>
        <time>2013-03-03T14:43:16.000Z</time>
      </trkpt>
      <trkpt lat="46.28147" lon="6.4905">
        <ele>1472.1</ele>
        <time>2013-03-03T14:43:21.000Z</time>
      </trkpt>
      <trkpt lat="46.28147" lon="6.49051">
        <ele>1472.2</ele>
        <time>2013-03-03T14:43:22.000Z</time>
      </trkpt>
      <trkpt lat="46.28148" lon="6.49057">
        <ele>1472.1</ele>
        <time>2013-03-03T14:43:27.000Z</time>
      </trkpt>
      <trkpt lat="46.28148" lon="6.49058">
        <ele>1471.9</ele>
        <time>2013-03-03T14:43:28.000Z</time>
      </trkpt>
      <trkpt lat="46.28148" lon="6.49064">
        <ele>1471.7</ele>
        <time>2013-03-03T14:43:32.000Z</time>
      </trkpt>
      <trkpt lat="46.28148" lon="6.49065">
        <ele>1471.8</ele>
        <time>2013-03-03T14:43:33.000Z</time>
      </trkpt>
      <trkpt lat="46.2815" lon="6.49071">
        <ele>1473.9</ele>
        <time>2013-03-03T14:43:42.000Z</time>
      </trkpt>
      <trkpt lat="46.2815" lon="6.49073">
        <ele>1474.3</ele>
        <time>2013-03-03T14:43:43.000Z</time>
      </trkpt>
      <trkpt lat="46.28149" lon="6.49078">
        <ele>1475</ele>
        <time>2013-03-03T14:43:46.000Z</time>
      </trkpt>
      <trkpt lat="46.2815" lon="6.49079">
        <ele>1475.4</ele>
        <time>2013-03-03T14:43:47.000Z</time>
      </trkpt>
      <trkpt lat="46.28151" lon="6.49085">
        <ele>1478.1</ele>
        <time>2013-03-03T14:43:54.000Z</time>
      </trkpt>
      <trkpt lat="46.28152" lon="6.49086">
        <ele>1478.5</ele>
        <time>2013-03-03T14:43:55.000Z</time>
      </trkpt>
      <trkpt lat="46.28154" lon="6.49091">
        <ele>1480.6</ele>
        <time>2013-03-03T14:44:00.000Z</time>
      </trkpt>
      <trkpt lat="46.28154" lon="6.49093">
        <ele>1480.9</ele>
        <time>2013-03-03T14:44:01.000Z</time>
      </trkpt>
      <trkpt lat="46.28156" lon="6.49098">
        <ele>1482</ele>
        <time>2013-03-03T14:44:09.000Z</time>
      </trkpt>
      <trkpt lat="46.28156" lon="6.49099">
        <ele>1482.3</ele>
        <time>2013-03-03T14:44:10.000Z</time>
      </trkpt>
      <trkpt lat="46.28155" lon="6.49104">
        <ele>1483.9</ele>
        <time>2013-03-03T14:44:17.000Z</time>
      </trkpt>
      <trkpt lat="46.28155" lon="6.49105">
        <ele>1484.1</ele>
        <time>2013-03-03T14:44:18.000Z</time>
      </trkpt>
      <trkpt lat="46.28155" lon="6.4911">
        <ele>1485.5</ele>
        <time>2013-03-03T14:44:24.000Z</time>
      </trkpt>
      <trkpt lat="46.28155" lon="6.49112">
        <ele>1485.2</ele>
        <time>2013-03-03T14:44:25.000Z</time>
      </trkpt>
      <trkpt lat="46.28156" lon="6.49118">
        <ele>1485.9</ele>
        <time>2013-03-03T14:44:30.000Z</time>
      </trkpt>
      <trkpt lat="46.28156" lon="6.49119">
        <ele>1485.7</ele>
        <time>2013-03-03T14:44:31.000Z</time>
      </trkpt>
      <trkpt lat="46.28158" lon="6.49124">
        <ele>1486</ele>
        <time>2013-03-03T14:44:35.000Z</time>
      </trkpt>
      <trkpt lat="46.28158" lon="6.49125">
        <ele>1486.1</ele>
        <time>2013-03-03T14:44:36.000Z</time>
      </trkpt>
      <trkpt lat="46.28159" lon="6.49131">
        <ele>1486.9</ele>
        <time>2013-03-03T14:44:43.000Z</time>
      </trkpt>
      <trkpt lat="46.28159" lon="6.49132">
        <ele>1487.3</ele>
        <time>2013-03-03T14:44:44.000Z</time>
      </trkpt>
      <trkpt lat="46.2816" lon="6.49138">
        <ele>1488.5</ele>
        <time>2013-03-03T14:44:49.000Z</time>
      </trkpt>
      <trkpt lat="46.2816" lon="6.49139">
        <ele>1488.7</ele>
        <time>2013-03-03T14:44:50.000Z</time>
      </trkpt>
      <trkpt lat="46.28162" lon="6.49144">
        <ele>1489.3</ele>
        <time>2013-03-03T14:44:55.000Z</time>
      </trkpt>
      <trkpt lat="46.28162" lon="6.49145">
        <ele>1489.5</ele>
        <time>2013-03-03T14:44:56.000Z</time>
      </trkpt>
      <trkpt lat="46.28161" lon="6.49151">
        <ele>1488.8</ele>
        <time>2013-03-03T14:45:03.000Z</time>
      </trkpt>
      <trkpt lat="46.28161" lon="6.49152">
        <ele>1488.7</ele>
        <time>2013-03-03T14:45:04.000Z</time>
      </trkpt>
      <trkpt lat="46.28163" lon="6.49157">
        <ele>1489.1</ele>
        <time>2013-03-03T14:45:08.000Z</time>
      </trkpt>
      <trkpt lat="46.28163" lon="6.49158">
        <ele>1489.4</ele>
        <time>2013-03-03T14:45:09.000Z</time>
      </trkpt>
      <trkpt lat="46.28164" lon="6.49164">
        <ele>1488.7</ele>
        <time>2013-03-03T14:45:16.000Z</time>
      </trkpt>
      <trkpt lat="46.28164" lon="6.49165">
        <ele>1488.8</ele>
        <time>2013-03-03T14:45:17.000Z</time>
      </trkpt>
      <trkpt lat="46.28165" lon="6.49171">
        <ele>1489</ele>
        <time>2013-03-03T14:45:24.000Z</time>
      </trkpt>
      <trkpt lat="46.28165" lon="6.49172">
        <ele>1488.7</ele>
        <time>2013-03-03T14:45:25.000Z</time>
      </trkpt>
      <trkpt lat="46.28165" lon="6.49178">
        <ele>1489.7</ele>
        <time>2013-03-03T14:45:33.000Z</time>
      </trkpt>
      <trkpt lat="46.28165" lon="6.49179">
        <ele>1489.9</ele>
        <time>2013-03-03T14:45:34.000Z</time>
      </trkpt>
      <trkpt lat="46.28164" lon="6.49185">
        <ele>1492</ele>
        <time>2013-03-03T14:45:57.000Z</time>
      </trkpt>
      <trkpt lat="46.28164" lon="6.49186">
        <ele>1492.3</ele>
        <time>2013-03-03T14:45:58.000Z</time>
      </trkpt>
      <trkpt lat="46.28164" lon="6.49191">
        <ele>1496</ele>
        <time>2013-03-03T14:46:14.000Z</time>
      </trkpt>
      <trkpt lat="46.28164" lon="6.49193">
        <ele>1496.2</ele>
        <time>2013-03-03T14:46:15.000Z</time>
      </trkpt>
      <trkpt lat="46.2816" lon="6.49194">
        <ele>1496.6</ele>
        <time>2013-03-03T14:46:24.000Z</time>
      </trkpt>
      <trkpt lat="46.28159" lon="6.49194">
        <ele>1496.7</ele>
        <time>2013-03-03T14:46:25.000Z</time>
      </trkpt>
      <trkpt lat="46.28155" lon="6.49196">
        <ele>1496.5</ele>
        <time>2013-03-03T14:46:35.000Z</time>
      </trkpt>
      <trkpt lat="46.28154" lon="6.49195">
        <ele>1496.8</ele>
        <time>2013-03-03T14:46:36.000Z</time>
      </trkpt>
      <trkpt lat="46.28153" lon="6.49194">
        <ele>1497.1</ele>
        <time>2013-03-03T14:46:38.000Z</time>
      </trkpt>
      <trkpt lat="46.28142" lon="6.49195">
        <ele>1517</ele>
        <time>2013-03-03T14:46:58.000Z</time>
      </trkpt>
      <trkpt lat="46.28141" lon="6.49188">
        <ele>1500.2</ele>
        <time>2013-03-03T14:47:07.000Z</time>
      </trkpt>
      <trkpt lat="46.28141" lon="6.49187">
        <ele>1499.7</ele>
        <time>2013-03-03T14:47:08.000Z</time>
      </trkpt>
      <trkpt lat="46.28138" lon="6.49184">
        <ele>1498.5</ele>
        <time>2013-03-03T14:47:12.000Z</time>
      </trkpt>
      <trkpt lat="46.28137" lon="6.49183">
        <ele>1498.5</ele>
        <time>2013-03-03T14:47:13.000Z</time>
      </trkpt>
      <trkpt lat="46.28134" lon="6.49179">
        <ele>1497.6</ele>
        <time>2013-03-03T14:47:17.000Z</time>
      </trkpt>
      <trkpt lat="46.28133" lon="6.49178">
        <ele>1497.6</ele>
        <time>2013-03-03T14:47:18.000Z</time>
      </trkpt>
      <trkpt lat="46.28129" lon="6.49175">
        <ele>1498.7</ele>
        <time>2013-03-03T14:47:31.000Z</time>
      </trkpt>
      <trkpt lat="46.28127" lon="6.49175">
        <ele>1498.8</ele>
        <time>2013-03-03T14:47:32.000Z</time>
      </trkpt>
      <trkpt lat="46.28123" lon="6.49173">
        <ele>1499.3</ele>
        <time>2013-03-03T14:47:38.000Z</time>
      </trkpt>
      <trkpt lat="46.28123" lon="6.49173">
        <ele>1499.5</ele>
        <time>2013-03-03T14:47:39.000Z</time>
      </trkpt>
      <trkpt lat="46.28119" lon="6.4917">
        <ele>1502</ele>
        <time>2013-03-03T14:47:46.000Z</time>
      </trkpt>
      <trkpt lat="46.28119" lon="6.4917">
        <ele>1502</ele>
        <time>2013-03-03T14:47:47.000Z</time>
      </trkpt>
      <trkpt lat="46.28115" lon="6.49171">
        <ele>1502.6</ele>
        <time>2013-03-03T14:48:06.000Z</time>
      </trkpt>
      <trkpt lat="46.28114" lon="6.49171">
        <ele>1502.5</ele>
        <time>2013-03-03T14:48:07.000Z</time>
      </trkpt>
      <trkpt lat="46.28111" lon="6.49172">
        <ele>1504.5</ele>
        <time>2013-03-03T14:48:17.000Z</time>
      </trkpt>
      <trkpt lat="46.28107" lon="6.49171">
        <ele>1506.2</ele>
        <time>2013-03-03T14:48:18.000Z</time>
      </trkpt>
      <trkpt lat="46.28102" lon="6.49173">
        <ele>1510.8</ele>
        <time>2013-03-03T14:48:25.000Z</time>
      </trkpt>
      <trkpt lat="46.28101" lon="6.49173">
        <ele>1511.8</ele>
        <time>2013-03-03T14:48:26.000Z</time>
      </trkpt>
      <trkpt lat="46.281" lon="6.49173">
        <ele>1512.9</ele>
        <time>2013-03-03T14:48:38.000Z</time>
      </trkpt>
      <trkpt lat="46.28087" lon="6.49172">
        <ele>1514.7</ele>
        <time>2013-03-03T14:48:58.000Z</time>
      </trkpt>
      <trkpt lat="46.28083" lon="6.49174">
        <ele>1514.9</ele>
        <time>2013-03-03T14:49:01.000Z</time>
      </trkpt>
      <trkpt lat="46.28083" lon="6.49174">
        <ele>1515</ele>
        <time>2013-03-03T14:49:02.000Z</time>
      </trkpt>
      <trkpt lat="46.28079" lon="6.49175">
        <ele>1514.6</ele>
        <time>2013-03-03T14:49:09.000Z</time>
      </trkpt>
      <trkpt lat="46.28078" lon="6.49175">
        <ele>1514.2</ele>
        <time>2013-03-03T14:49:10.000Z</time>
      </trkpt>
      <trkpt lat="46.28075" lon="6.49177">
        <ele>1513.2</ele>
        <time>2013-03-03T14:49:15.000Z</time>
      </trkpt>
      <trkpt lat="46.28074" lon="6.49178">
        <ele>1513.5</ele>
        <time>2013-03-03T14:49:16.000Z</time>
      </trkpt>
      <trkpt lat="46.2807" lon="6.4918">
        <ele>1517.3</ele>
        <time>2013-03-03T14:49:22.000Z</time>
      </trkpt>
      <trkpt lat="46.28069" lon="6.49179">
        <ele>1517.3</ele>
        <time>2013-03-03T14:49:23.000Z</time>
      </trkpt>
      <trkpt lat="46.28066" lon="6.49184">
        <ele>1515.4</ele>
        <time>2013-03-03T14:49:35.000Z</time>
      </trkpt>
      <trkpt lat="46.28066" lon="6.49184">
        <ele>1515.5</ele>
        <time>2013-03-03T14:49:36.000Z</time>
      </trkpt>
      <trkpt lat="46.28062" lon="6.49185">
        <ele>1517.4</ele>
        <time>2013-03-03T14:49:49.000Z</time>
      </trkpt>
      <trkpt lat="46.28059" lon="6.49187">
        <ele>1518.1</ele>
        <time>2013-03-03T14:49:50.000Z</time>
      </trkpt>
      <trkpt lat="46.28056" lon="6.49189">
        <ele>1518.2</ele>
        <time>2013-03-03T14:49:54.000Z</time>
      </trkpt>
      <trkpt lat="46.28054" lon="6.49189">
        <ele>1519.1</ele>
        <time>2013-03-03T14:49:55.000Z</time>
      </trkpt>
      <trkpt lat="46.2805" lon="6.49191">
        <ele>1518.6</ele>
        <time>2013-03-03T14:50:02.000Z</time>
      </trkpt>
      <trkpt lat="46.28049" lon="6.49191">
        <ele>1518.5</ele>
        <time>2013-03-03T14:50:03.000Z</time>
      </trkpt>
      <trkpt lat="46.28046" lon="6.49193">
        <ele>1519.1</ele>
        <time>2013-03-03T14:50:10.000Z</time>
      </trkpt>
      <trkpt lat="46.28045" lon="6.49193">
        <ele>1519.7</ele>
        <time>2013-03-03T14:50:11.000Z</time>
      </trkpt>
      <trkpt lat="46.28041" lon="6.49196">
        <ele>1520.3</ele>
        <time>2013-03-03T14:50:17.000Z</time>
      </trkpt>
      <trkpt lat="46.2804" lon="6.49196">
        <ele>1520.2</ele>
        <time>2013-03-03T14:50:18.000Z</time>
      </trkpt>
      <trkpt lat="46.28036" lon="6.49196">
        <ele>1520.6</ele>
        <time>2013-03-03T14:50:24.000Z</time>
      </trkpt>
      <trkpt lat="46.28035" lon="6.49196">
        <ele>1520.8</ele>
        <time>2013-03-03T14:50:25.000Z</time>
      </trkpt>
      <trkpt lat="46.2803" lon="6.49196">
        <ele>1521.9</ele>
        <time>2013-03-03T14:50:31.000Z</time>
      </trkpt>
      <trkpt lat="46.2803" lon="6.49197">
        <ele>1521.8</ele>
        <time>2013-03-03T14:50:32.000Z</time>
      </trkpt>
      <trkpt lat="46.28027" lon="6.49198">
        <ele>1522.1</ele>
        <time>2013-03-03T14:50:43.000Z</time>
      </trkpt>
      <trkpt lat="46.28026" lon="6.49198">
        <ele>1522</ele>
        <time>2013-03-03T14:50:44.000Z</time>
      </trkpt>
      <trkpt lat="46.28021" lon="6.49199">
        <ele>1522.6</ele>
        <time>2013-03-03T14:50:47.000Z</time>
      </trkpt>
      <trkpt lat="46.2802" lon="6.492">
        <ele>1522.5</ele>
        <time>2013-03-03T14:50:48.000Z</time>
      </trkpt>
      <trkpt lat="46.28016" lon="6.492">
        <ele>1524.5</ele>
        <time>2013-03-03T14:50:58.000Z</time>
      </trkpt>
      <trkpt lat="46.28015" lon="6.492">
        <ele>1524.8</ele>
        <time>2013-03-03T14:50:59.000Z</time>
      </trkpt>
      <trkpt lat="46.28011" lon="6.49201">
        <ele>1525.3</ele>
        <time>2013-03-03T14:51:08.000Z</time>
      </trkpt>
      <trkpt lat="46.2801" lon="6.49201">
        <ele>1525.1</ele>
        <time>2013-03-03T14:51:09.000Z</time>
      </trkpt>
      <trkpt lat="46.28006" lon="6.49202">
        <ele>1526.8</ele>
        <time>2013-03-03T14:51:20.000Z</time>
      </trkpt>
      <trkpt lat="46.28005" lon="6.49201">
        <ele>1527</ele>
        <time>2013-03-03T14:51:21.000Z</time>
      </trkpt>
      <trkpt lat="46.28001" lon="6.49201">
        <ele>1528.5</ele>
        <time>2013-03-03T14:51:25.000Z</time>
      </trkpt>
      <trkpt lat="46.27999" lon="6.49202">
        <ele>1528.1</ele>
        <time>2013-03-03T14:51:26.000Z</time>
      </trkpt>
      <trkpt lat="46.27996" lon="6.492">
        <ele>1529.2</ele>
        <time>2013-03-03T14:51:32.000Z</time>
      </trkpt>
      <trkpt lat="46.27995" lon="6.492">
        <ele>1529.6</ele>
        <time>2013-03-03T14:51:33.000Z</time>
      </trkpt>
      <trkpt lat="46.2799" lon="6.49199">
        <ele>1529.8</ele>
        <time>2013-03-03T14:51:42.000Z</time>
      </trkpt>
      <trkpt lat="46.27989" lon="6.49199">
        <ele>1529.4</ele>
        <time>2013-03-03T14:51:43.000Z</time>
      </trkpt>
      <trkpt lat="46.27985" lon="6.49197">
        <ele>1531.4</ele>
        <time>2013-03-03T14:52:29.000Z</time>
      </trkpt>
      <trkpt lat="46.27985" lon="6.49198">
        <ele>1533.1</ele>
        <time>2013-03-03T14:52:30.000Z</time>
      </trkpt>
      <trkpt lat="46.27981" lon="6.49198">
        <ele>1534.4</ele>
        <time>2013-03-03T14:52:37.000Z</time>
      </trkpt>
      <trkpt lat="46.2798" lon="6.49198">
        <ele>1534.3</ele>
        <time>2013-03-03T14:52:38.000Z</time>
      </trkpt>
      <trkpt lat="46.27976" lon="6.49196">
        <ele>1533.5</ele>
        <time>2013-03-03T14:52:42.000Z</time>
      </trkpt>
      <trkpt lat="46.27975" lon="6.49196">
        <ele>1533.5</ele>
        <time>2013-03-03T14:52:43.000Z</time>
      </trkpt>
      <trkpt lat="46.27971" lon="6.49193">
        <ele>1533.5</ele>
        <time>2013-03-03T14:53:12.000Z</time>
      </trkpt>
      <trkpt lat="46.27971" lon="6.49193">
        <ele>1533.8</ele>
        <time>2013-03-03T14:53:13.000Z</time>
      </trkpt>
      <trkpt lat="46.27967" lon="6.49194">
        <ele>1534.7</ele>
        <time>2013-03-03T14:53:17.000Z</time>
      </trkpt>
      <trkpt lat="46.27966" lon="6.49194">
        <ele>1534.9</ele>
        <time>2013-03-03T14:53:18.000Z</time>
      </trkpt>
      <trkpt lat="46.27962" lon="6.49194">
        <ele>1536.3</ele>
        <time>2013-03-03T14:53:26.000Z</time>
      </trkpt>
      <trkpt lat="46.27961" lon="6.49194">
        <ele>1536.3</ele>
        <time>2013-03-03T14:53:27.000Z</time>
      </trkpt>
      <trkpt lat="46.27958" lon="6.49194">
        <ele>1536.7</ele>
        <time>2013-03-03T14:53:31.000Z</time>
      </trkpt>
      <trkpt lat="46.27956" lon="6.49194">
        <ele>1536.5</ele>
        <time>2013-03-03T14:53:32.000Z</time>
      </trkpt>
      <trkpt lat="46.27953" lon="6.49192">
        <ele>1535.9</ele>
        <time>2013-03-03T14:53:42.000Z</time>
      </trkpt>
      <trkpt lat="46.27952" lon="6.49191">
        <ele>1536</ele>
        <time>2013-03-03T14:53:43.000Z</time>
      </trkpt>
      <trkpt lat="46.27948" lon="6.49189">
        <ele>1537</ele>
        <time>2013-03-03T14:53:47.000Z</time>
      </trkpt>
      <trkpt lat="46.27947" lon="6.49188">
        <ele>1536.7</ele>
        <time>2013-03-03T14:53:48.000Z</time>
      </trkpt>
      <trkpt lat="46.27944" lon="6.49186">
        <ele>1537.1</ele>
        <time>2013-03-03T14:53:54.000Z</time>
      </trkpt>
      <trkpt lat="46.27943" lon="6.49185">
        <ele>1537.1</ele>
        <time>2013-03-03T14:53:55.000Z</time>
      </trkpt>
      <trkpt lat="46.2794" lon="6.49182">
        <ele>1537.9</ele>
        <time>2013-03-03T14:54:16.000Z</time>
      </trkpt>
      <trkpt lat="46.27939" lon="6.49181">
        <ele>1538.1</ele>
        <time>2013-03-03T14:54:17.000Z</time>
      </trkpt>
      <trkpt lat="46.27934" lon="6.4918">
        <ele>1539.3</ele>
        <time>2013-03-03T14:54:22.000Z</time>
      </trkpt>
      <trkpt lat="46.27933" lon="6.49179">
        <ele>1539.4</ele>
        <time>2013-03-03T14:54:23.000Z</time>
      </trkpt>
      <trkpt lat="46.2793" lon="6.49176">
        <ele>1539.9</ele>
        <time>2013-03-03T14:54:30.000Z</time>
      </trkpt>
      <trkpt lat="46.27929" lon="6.49175">
        <ele>1539.8</ele>
        <time>2013-03-03T14:54:31.000Z</time>
      </trkpt>
      <trkpt lat="46.27926" lon="6.49171">
        <ele>1540.2</ele>
        <time>2013-03-03T14:54:36.000Z</time>
      </trkpt>
      <trkpt lat="46.27926" lon="6.4917">
        <ele>1540.3</ele>
        <time>2013-03-03T14:54:37.000Z</time>
      </trkpt>
      <trkpt lat="46.27923" lon="6.49167">
        <ele>1541.2</ele>
        <time>2013-03-03T14:54:40.000Z</time>
      </trkpt>
      <trkpt lat="46.27922" lon="6.49165">
        <ele>1541.6</ele>
        <time>2013-03-03T14:54:41.000Z</time>
      </trkpt>
      <trkpt lat="46.27918" lon="6.49162">
        <ele>1543.5</ele>
        <time>2013-03-03T14:54:48.000Z</time>
      </trkpt>
      <trkpt lat="46.27918" lon="6.49162">
        <ele>1543.7</ele>
        <time>2013-03-03T14:54:49.000Z</time>
      </trkpt>
      <trkpt lat="46.27914" lon="6.49162">
        <ele>1545.3</ele>
        <time>2013-03-03T14:55:02.000Z</time>
      </trkpt>
      <trkpt lat="46.27913" lon="6.49162">
        <ele>1545.3</ele>
        <time>2013-03-03T14:55:03.000Z</time>
      </trkpt>
      <trkpt lat="46.2791" lon="6.49163">
        <ele>1545.3</ele>
        <time>2013-03-03T14:55:07.000Z</time>
      </trkpt>
      <trkpt lat="46.27909" lon="6.49163">
        <ele>1545.3</ele>
        <time>2013-03-03T14:55:08.000Z</time>
      </trkpt>
      <trkpt lat="46.27905" lon="6.49162">
        <ele>1544.7</ele>
        <time>2013-03-03T14:55:13.000Z</time>
      </trkpt>
      <trkpt lat="46.27904" lon="6.49162">
        <ele>1544.7</ele>
        <time>2013-03-03T14:55:14.000Z</time>
      </trkpt>
      <trkpt lat="46.279" lon="6.49161">
        <ele>1544.8</ele>
        <time>2013-03-03T14:55:20.000Z</time>
      </trkpt>
      <trkpt lat="46.27899" lon="6.49161">
        <ele>1544.8</ele>
        <time>2013-03-03T14:55:21.000Z</time>
      </trkpt>
      <trkpt lat="46.27895" lon="6.49159">
        <ele>1544.1</ele>
        <time>2013-03-03T14:55:26.000Z</time>
      </trkpt>
      <trkpt lat="46.27894" lon="6.49158">
        <ele>1543.7</ele>
        <time>2013-03-03T14:55:27.000Z</time>
      </trkpt>
      <trkpt lat="46.27891" lon="6.49154">
        <ele>1543.1</ele>
        <time>2013-03-03T14:55:34.000Z</time>
      </trkpt>
      <trkpt lat="46.27891" lon="6.49153">
        <ele>1542.9</ele>
        <time>2013-03-03T14:55:35.000Z</time>
      </trkpt>
      <trkpt lat="46.27888" lon="6.4915">
        <ele>1544.2</ele>
        <time>2013-03-03T14:55:40.000Z</time>
      </trkpt>
      <trkpt lat="46.27887" lon="6.49149">
        <ele>1544.3</ele>
        <time>2013-03-03T14:55:41.000Z</time>
      </trkpt>
      <trkpt lat="46.27884" lon="6.49144">
        <ele>1545.1</ele>
        <time>2013-03-03T14:55:45.000Z</time>
      </trkpt>
      <trkpt lat="46.27884" lon="6.49143">
        <ele>1545.3</ele>
        <time>2013-03-03T14:55:46.000Z</time>
      </trkpt>
      <trkpt lat="46.2788" lon="6.4914">
        <ele>1544.7</ele>
        <time>2013-03-03T14:55:51.000Z</time>
      </trkpt>
      <trkpt lat="46.27879" lon="6.49139">
        <ele>1544.7</ele>
        <time>2013-03-03T14:55:52.000Z</time>
      </trkpt>
      <trkpt lat="46.27876" lon="6.49136">
        <ele>1545.4</ele>
        <time>2013-03-03T14:56:40.000Z</time>
      </trkpt>
      <trkpt lat="46.27875" lon="6.49135">
        <ele>1547</ele>
        <time>2013-03-03T14:56:41.000Z</time>
      </trkpt>
      <trkpt lat="46.27872" lon="6.49133">
        <ele>1548.1</ele>
        <time>2013-03-03T14:56:45.000Z</time>
      </trkpt>
      <trkpt lat="46.27871" lon="6.49132">
        <ele>1548.6</ele>
        <time>2013-03-03T14:56:46.000Z</time>
      </trkpt>
      <trkpt lat="46.27867" lon="6.49129">
        <ele>1550.2</ele>
        <time>2013-03-03T14:56:51.000Z</time>
      </trkpt>
      <trkpt lat="46.27866" lon="6.49129">
        <ele>1550.7</ele>
        <time>2013-03-03T14:56:52.000Z</time>
      </trkpt>
      <trkpt lat="46.27862" lon="6.49132">
        <ele>1551.9</ele>
        <time>2013-03-03T14:57:06.000Z</time>
      </trkpt>
      <trkpt lat="46.2786" lon="6.49132">
        <ele>1553.8</ele>
        <time>2013-03-03T14:57:07.000Z</time>
      </trkpt>
      <trkpt lat="46.27856" lon="6.49133">
        <ele>1553.8</ele>
        <time>2013-03-03T14:57:19.000Z</time>
      </trkpt>
      <trkpt lat="46.27855" lon="6.49133">
        <ele>1553.8</ele>
        <time>2013-03-03T14:57:20.000Z</time>
      </trkpt>
      <trkpt lat="46.27853" lon="6.49129">
        <ele>1553.3</ele>
        <time>2013-03-03T14:57:25.000Z</time>
      </trkpt>
      <trkpt lat="46.27852" lon="6.49128">
        <ele>1552.6</ele>
        <time>2013-03-03T14:57:26.000Z</time>
      </trkpt>
      <trkpt lat="46.27848" lon="6.49127">
        <ele>1551.8</ele>
        <time>2013-03-03T14:57:41.000Z</time>
      </trkpt>
      <trkpt lat="46.27848" lon="6.49126">
        <ele>1551.6</ele>
        <time>2013-03-03T14:57:42.000Z</time>
      </trkpt>
      <trkpt lat="46.27846" lon="6.49121">
        <ele>1553.1</ele>
        <time>2013-03-03T14:57:53.000Z</time>
      </trkpt>
      <trkpt lat="46.27845" lon="6.49121">
        <ele>1553.3</ele>
        <time>2013-03-03T14:57:54.000Z</time>
      </trkpt>
      <trkpt lat="46.27841" lon="6.49119">
        <ele>1553.6</ele>
        <time>2013-03-03T14:58:00.000Z</time>
      </trkpt>
      <trkpt lat="46.27841" lon="6.49118">
        <ele>1553.5</ele>
        <time>2013-03-03T14:58:01.000Z</time>
      </trkpt>
      <trkpt lat="46.27837" lon="6.49116">
        <ele>1553</ele>
        <time>2013-03-03T14:58:05.000Z</time>
      </trkpt>
      <trkpt lat="46.27836" lon="6.49115">
        <ele>1553</ele>
        <time>2013-03-03T14:58:06.000Z</time>
      </trkpt>
      <trkpt lat="46.27832" lon="6.49112">
        <ele>1553.5</ele>
        <time>2013-03-03T14:58:11.000Z</time>
      </trkpt>
      <trkpt lat="46.27832" lon="6.49112">
        <ele>1553.6</ele>
        <time>2013-03-03T14:58:12.000Z</time>
      </trkpt>
      <trkpt lat="46.27828" lon="6.49113">
        <ele>1554.2</ele>
        <time>2013-03-03T14:58:16.000Z</time>
      </trkpt>
      <trkpt lat="46.27827" lon="6.49113">
        <ele>1554.5</ele>
        <time>2013-03-03T14:58:17.000Z</time>
      </trkpt>
      <trkpt lat="46.27823" lon="6.49116">
        <ele>1555.3</ele>
        <time>2013-03-03T14:58:23.000Z</time>
      </trkpt>
      <trkpt lat="46.27823" lon="6.49117">
        <ele>1554.8</ele>
        <time>2013-03-03T14:58:24.000Z</time>
      </trkpt>
      <trkpt lat="46.27819" lon="6.4912">
        <ele>1554.2</ele>
        <time>2013-03-03T14:58:40.000Z</time>
      </trkpt>
      <trkpt lat="46.27819" lon="6.4912">
        <ele>1554.1</ele>
        <time>2013-03-03T14:58:41.000Z</time>
      </trkpt>
      <trkpt lat="46.27815" lon="6.49117">
        <ele>1555.4</ele>
        <time>2013-03-03T14:58:46.000Z</time>
      </trkpt>
      <trkpt lat="46.27815" lon="6.49117">
        <ele>1555.6</ele>
        <time>2013-03-03T14:58:47.000Z</time>
      </trkpt>
      <trkpt lat="46.27811" lon="6.49114">
        <ele>1556.5</ele>
        <time>2013-03-03T14:58:52.000Z</time>
      </trkpt>
      <trkpt lat="46.2781" lon="6.49113">
        <ele>1556.5</ele>
        <time>2013-03-03T14:58:53.000Z</time>
      </trkpt>
      <trkpt lat="46.27806" lon="6.4911">
        <ele>1555.8</ele>
        <time>2013-03-03T14:58:57.000Z</time>
      </trkpt>
      <trkpt lat="46.27805" lon="6.4911">
        <ele>1555.7</ele>
        <time>2013-03-03T14:58:58.000Z</time>
      </trkpt>
      <trkpt lat="46.27803" lon="6.49106">
        <ele>1556.1</ele>
        <time>2013-03-03T14:59:02.000Z</time>
      </trkpt>
      <trkpt lat="46.27802" lon="6.49104">
        <ele>1556.2</ele>
        <time>2013-03-03T14:59:03.000Z</time>
      </trkpt>
      <trkpt lat="46.27802" lon="6.49099">
        <ele>1556.1</ele>
        <time>2013-03-03T14:59:07.000Z</time>
      </trkpt>
      <trkpt lat="46.27801" lon="6.49096">
        <ele>1556.4</ele>
        <time>2013-03-03T14:59:08.000Z</time>
      </trkpt>
      <trkpt lat="46.27799" lon="6.4909">
        <ele>1557.1</ele>
        <time>2013-03-03T14:59:11.000Z</time>
      </trkpt>
      <trkpt lat="46.27798" lon="6.49089">
        <ele>1557.3</ele>
        <time>2013-03-03T14:59:12.000Z</time>
      </trkpt>
      <trkpt lat="46.27798" lon="6.49089">
        <ele>1557.1</ele>
        <time>2013-03-03T15:00:37.000Z</time>
      </trkpt>
      <trkpt lat="46.278" lon="6.49082">
        <ele>1550.4</ele>
        <time>2013-03-03T15:00:46.000Z</time>
      </trkpt>
      <trkpt lat="46.27796" lon="6.49078">
        <ele>1557.1</ele>
        <time>2013-03-03T15:00:51.000Z</time>
      </trkpt>
      <trkpt lat="46.27796" lon="6.49078">
        <ele>1557.3</ele>
        <time>2013-03-03T15:00:52.000Z</time>
      </trkpt>
      <trkpt lat="46.27793" lon="6.49073">
        <ele>1559.5</ele>
        <time>2013-03-03T15:00:59.000Z</time>
      </trkpt>
      <trkpt lat="46.27792" lon="6.49072">
        <ele>1559.6</ele>
        <time>2013-03-03T15:01:00.000Z</time>
      </trkpt>
      <trkpt lat="46.2779" lon="6.49067">
        <ele>1561</ele>
        <time>2013-03-03T15:01:07.000Z</time>
      </trkpt>
      <trkpt lat="46.27789" lon="6.49067">
        <ele>1561.2</ele>
        <time>2013-03-03T15:01:08.000Z</time>
      </trkpt>
      <trkpt lat="46.27787" lon="6.49063">
        <ele>1560</ele>
        <time>2013-03-03T15:01:14.000Z</time>
      </trkpt>
      <trkpt lat="46.27786" lon="6.49062">
        <ele>1559.8</ele>
        <time>2013-03-03T15:01:15.000Z</time>
      </trkpt>
      <trkpt lat="46.27784" lon="6.49057">
        <ele>1560</ele>
        <time>2013-03-03T15:01:21.000Z</time>
      </trkpt>
      <trkpt lat="46.27783" lon="6.49056">
        <ele>1560.1</ele>
        <time>2013-03-03T15:01:22.000Z</time>
      </trkpt>
      <trkpt lat="46.2778" lon="6.49053">
        <ele>1558.5</ele>
        <time>2013-03-03T15:01:27.000Z</time>
      </trkpt>
      <trkpt lat="46.27779" lon="6.49052">
        <ele>1558.1</ele>
        <time>2013-03-03T15:01:28.000Z</time>
      </trkpt>
      <trkpt lat="46.27775" lon="6.49051">
        <ele>1556.4</ele>
        <time>2013-03-03T15:01:34.000Z</time>
      </trkpt>
      <trkpt lat="46.27774" lon="6.49051">
        <ele>1556.3</ele>
        <time>2013-03-03T15:01:35.000Z</time>
      </trkpt>
      <trkpt lat="46.2777" lon="6.4905">
        <ele>1556.2</ele>
        <time>2013-03-03T15:01:42.000Z</time>
      </trkpt>
      <trkpt lat="46.27769" lon="6.4905">
        <ele>1556</ele>
        <time>2013-03-03T15:01:43.000Z</time>
      </trkpt>
      <trkpt lat="46.27766" lon="6.49048">
        <ele>1557.1</ele>
        <time>2013-03-03T15:01:47.000Z</time>
      </trkpt>
      <trkpt lat="46.27765" lon="6.49047">
        <ele>1557.6</ele>
        <time>2013-03-03T15:01:48.000Z</time>
      </trkpt>
      <trkpt lat="46.27762" lon="6.49045">
        <ele>1558.6</ele>
        <time>2013-03-03T15:01:51.000Z</time>
      </trkpt>
      <trkpt lat="46.2776" lon="6.49045">
        <ele>1559.1</ele>
        <time>2013-03-03T15:01:52.000Z</time>
      </trkpt>
      <trkpt lat="46.27756" lon="6.49043">
        <ele>1559.9</ele>
        <time>2013-03-03T15:01:56.000Z</time>
      </trkpt>
      <trkpt lat="46.27755" lon="6.49043">
        <ele>1560.1</ele>
        <time>2013-03-03T15:01:57.000Z</time>
      </trkpt>
      <trkpt lat="46.27752" lon="6.4904">
        <ele>1559.6</ele>
        <time>2013-03-03T15:02:01.000Z</time>
      </trkpt>
      <trkpt lat="46.27752" lon="6.49039">
        <ele>1559.7</ele>
        <time>2013-03-03T15:02:02.000Z</time>
      </trkpt>
      <trkpt lat="46.27749" lon="6.49037">
        <ele>1558.9</ele>
        <time>2013-03-03T15:02:05.000Z</time>
      </trkpt>
      <trkpt lat="46.27747" lon="6.49036">
        <ele>1558.6</ele>
        <time>2013-03-03T15:02:06.000Z</time>
      </trkpt>
      <trkpt lat="46.27744" lon="6.49035">
        <ele>1558.1</ele>
        <time>2013-03-03T15:02:11.000Z</time>
      </trkpt>
      <trkpt lat="46.27743" lon="6.49034">
        <ele>1557.6</ele>
        <time>2013-03-03T15:02:12.000Z</time>
      </trkpt>
      <trkpt lat="46.2774" lon="6.49033">
        <ele>1557.3</ele>
        <time>2013-03-03T15:02:17.000Z</time>
      </trkpt>
      <trkpt lat="46.27739" lon="6.49032">
        <ele>1557.2</ele>
        <time>2013-03-03T15:02:18.000Z</time>
      </trkpt>
      <trkpt lat="46.27735" lon="6.49029">
        <ele>1557.2</ele>
        <time>2013-03-03T15:02:22.000Z</time>
      </trkpt>
      <trkpt lat="46.27734" lon="6.49028">
        <ele>1557.4</ele>
        <time>2013-03-03T15:02:23.000Z</time>
      </trkpt>
      <trkpt lat="46.2773" lon="6.49026">
        <ele>1558.1</ele>
        <time>2013-03-03T15:02:30.000Z</time>
      </trkpt>
      <trkpt lat="46.2773" lon="6.49025">
        <ele>1558.3</ele>
        <time>2013-03-03T15:02:31.000Z</time>
      </trkpt>
      <trkpt lat="46.27726" lon="6.49023">
        <ele>1559.9</ele>
        <time>2013-03-03T15:02:48.000Z</time>
      </trkpt>
      <trkpt lat="46.27725" lon="6.49024">
        <ele>1560.3</ele>
        <time>2013-03-03T15:02:49.000Z</time>
      </trkpt>
      <trkpt lat="46.27721" lon="6.49022">
        <ele>1560.6</ele>
        <time>2013-03-03T15:02:54.000Z</time>
      </trkpt>
      <trkpt lat="46.2772" lon="6.49021">
        <ele>1560.5</ele>
        <time>2013-03-03T15:02:55.000Z</time>
      </trkpt>
      <trkpt lat="46.27716" lon="6.49018">
        <ele>1559.6</ele>
        <time>2013-03-03T15:02:59.000Z</time>
      </trkpt>
      <trkpt lat="46.27715" lon="6.49017">
        <ele>1559.4</ele>
        <time>2013-03-03T15:03:00.000Z</time>
      </trkpt>
      <trkpt lat="46.27712" lon="6.49014">
        <ele>1559.7</ele>
        <time>2013-03-03T15:03:02.000Z</time>
      </trkpt>
      <trkpt lat="46.27711" lon="6.49013">
        <ele>1559.5</ele>
        <time>2013-03-03T15:03:03.000Z</time>
      </trkpt>
      <trkpt lat="46.27708" lon="6.49011">
        <ele>1558.2</ele>
        <time>2013-03-03T15:03:05.000Z</time>
      </trkpt>
      <trkpt lat="46.27707" lon="6.4901">
        <ele>1558.4</ele>
        <time>2013-03-03T15:03:06.000Z</time>
      </trkpt>
      <trkpt lat="46.27704" lon="6.49006">
        <ele>1559</ele>
        <time>2013-03-03T15:03:10.000Z</time>
      </trkpt>
      <trkpt lat="46.27703" lon="6.49005">
        <ele>1559.4</ele>
        <time>2013-03-03T15:03:11.000Z</time>
      </trkpt>
      <trkpt lat="46.27699" lon="6.49001">
        <ele>1561.4</ele>
        <time>2013-03-03T15:03:15.000Z</time>
      </trkpt>
      <trkpt lat="46.27697" lon="6.49001">
        <ele>1561.7</ele>
        <time>2013-03-03T15:03:16.000Z</time>
      </trkpt>
      <trkpt lat="46.27695" lon="6.49">
        <ele>1562</ele>
        <time>2013-03-03T15:03:17.000Z</time>
      </trkpt>
      <trkpt lat="46.27693" lon="6.49">
        <ele>1562.4</ele>
        <time>2013-03-03T15:03:18.000Z</time>
      </trkpt>
      <trkpt lat="46.27689" lon="6.49001">
        <ele>1562.9</ele>
        <time>2013-03-03T15:03:20.000Z</time>
      </trkpt>
      <trkpt lat="46.27687" lon="6.49001">
        <ele>1563.1</ele>
        <time>2013-03-03T15:03:21.000Z</time>
      </trkpt>
      <trkpt lat="46.27683" lon="6.49001">
        <ele>1563.5</ele>
        <time>2013-03-03T15:03:24.000Z</time>
      </trkpt>
      <trkpt lat="46.27682" lon="6.49001">
        <ele>1563.7</ele>
        <time>2013-03-03T15:03:25.000Z</time>
      </trkpt>
      <trkpt lat="46.27678" lon="6.49001">
        <ele>1564.8</ele>
        <time>2013-03-03T15:03:29.000Z</time>
      </trkpt>
      <trkpt lat="46.27677" lon="6.49001">
        <ele>1564.8</ele>
        <time>2013-03-03T15:03:30.000Z</time>
      </trkpt>
      <trkpt lat="46.27673" lon="6.49">
        <ele>1565.9</ele>
        <time>2013-03-03T15:03:35.000Z</time>
      </trkpt>
      <trkpt lat="46.27673" lon="6.49">
        <ele>1566.1</ele>
        <time>2013-03-03T15:03:36.000Z</time>
      </trkpt>
      <trkpt lat="46.27669" lon="6.48998">
        <ele>1564.3</ele>
        <time>2013-03-03T15:03:40.000Z</time>
      </trkpt>
      <trkpt lat="46.27668" lon="6.48998">
        <ele>1564.4</ele>
        <time>2013-03-03T15:03:41.000Z</time>
      </trkpt>
      <trkpt lat="46.27664" lon="6.48998">
        <ele>1563.9</ele>
        <time>2013-03-03T15:03:46.000Z</time>
      </trkpt>
      <trkpt lat="46.27663" lon="6.48997">
        <ele>1563.4</ele>
        <time>2013-03-03T15:03:47.000Z</time>
      </trkpt>
      <trkpt lat="46.27659" lon="6.48998">
        <ele>1562.6</ele>
        <time>2013-03-03T15:03:53.000Z</time>
      </trkpt>
      <trkpt lat="46.27658" lon="6.48998">
        <ele>1562.3</ele>
        <time>2013-03-03T15:03:54.000Z</time>
      </trkpt>
      <trkpt lat="46.27654" lon="6.48997">
        <ele>1561.4</ele>
        <time>2013-03-03T15:04:00.000Z</time>
      </trkpt>
      <trkpt lat="46.27654" lon="6.48997">
        <ele>1561.2</ele>
        <time>2013-03-03T15:04:01.000Z</time>
      </trkpt>
      <trkpt lat="46.2765" lon="6.48998">
        <ele>1561.7</ele>
        <time>2013-03-03T15:04:15.000Z</time>
      </trkpt>
      <trkpt lat="46.27648" lon="6.48998">
        <ele>1561.8</ele>
        <time>2013-03-03T15:04:16.000Z</time>
      </trkpt>
      <trkpt lat="46.27645" lon="6.48998">
        <ele>1563</ele>
        <time>2013-03-03T15:04:20.000Z</time>
      </trkpt>
      <trkpt lat="46.27644" lon="6.48997">
        <ele>1563.1</ele>
        <time>2013-03-03T15:04:21.000Z</time>
      </trkpt>
      <trkpt lat="46.2764" lon="6.48996">
        <ele>1563.8</ele>
        <time>2013-03-03T15:04:26.000Z</time>
      </trkpt>
      <trkpt lat="46.27639" lon="6.48996">
        <ele>1564.1</ele>
        <time>2013-03-03T15:04:27.000Z</time>
      </trkpt>
      <trkpt lat="46.27635" lon="6.48995">
        <ele>1565.2</ele>
        <time>2013-03-03T15:04:31.000Z</time>
      </trkpt>
      <trkpt lat="46.27634" lon="6.48994">
        <ele>1565.2</ele>
        <time>2013-03-03T15:04:32.000Z</time>
      </trkpt>
      <trkpt lat="46.2763" lon="6.48992">
        <ele>1565.7</ele>
        <time>2013-03-03T15:04:36.000Z</time>
      </trkpt>
      <trkpt lat="46.27629" lon="6.48991">
        <ele>1565.7</ele>
        <time>2013-03-03T15:04:37.000Z</time>
      </trkpt>
      <trkpt lat="46.27626" lon="6.48989">
        <ele>1565.6</ele>
        <time>2013-03-03T15:04:41.000Z</time>
      </trkpt>
      <trkpt lat="46.27625" lon="6.48988">
        <ele>1565.5</ele>
        <time>2013-03-03T15:04:42.000Z</time>
      </trkpt>
      <trkpt lat="46.27621" lon="6.48985">
        <ele>1566.7</ele>
        <time>2013-03-03T15:04:47.000Z</time>
      </trkpt>
      <trkpt lat="46.2762" lon="6.48985">
        <ele>1566.5</ele>
        <time>2013-03-03T15:04:48.000Z</time>
      </trkpt>
      <trkpt lat="46.27617" lon="6.48981">
        <ele>1566.9</ele>
        <time>2013-03-03T15:04:54.000Z</time>
      </trkpt>
      <trkpt lat="46.27616" lon="6.48981">
        <ele>1567.2</ele>
        <time>2013-03-03T15:04:55.000Z</time>
      </trkpt>
      <trkpt lat="46.27612" lon="6.48978">
        <ele>1568.6</ele>
        <time>2013-03-03T15:05:01.000Z</time>
      </trkpt>
      <trkpt lat="46.27611" lon="6.48978">
        <ele>1568.6</ele>
        <time>2013-03-03T15:05:02.000Z</time>
      </trkpt>
      <trkpt lat="46.27606" lon="6.48976">
        <ele>1566.7</ele>
        <time>2013-03-03T15:05:06.000Z</time>
      </trkpt>
      <trkpt lat="46.27606" lon="6.48976">
        <ele>1565.9</ele>
        <time>2013-03-03T15:05:07.000Z</time>
      </trkpt>
      <trkpt lat="46.27601" lon="6.48973">
        <ele>1564.8</ele>
        <time>2013-03-03T15:05:13.000Z</time>
      </trkpt>
      <trkpt lat="46.27601" lon="6.48973">
        <ele>1564.8</ele>
        <time>2013-03-03T15:05:14.000Z</time>
      </trkpt>
      <trkpt lat="46.27597" lon="6.48972">
        <ele>1563.5</ele>
        <time>2013-03-03T15:05:25.000Z</time>
      </trkpt>
      <trkpt lat="46.27596" lon="6.48971">
        <ele>1563.3</ele>
        <time>2013-03-03T15:05:26.000Z</time>
      </trkpt>
      <trkpt lat="46.27595" lon="6.48969">
        <ele>1563.4</ele>
        <time>2013-03-03T15:05:38.000Z</time>
      </trkpt>
      <trkpt lat="46.27592" lon="6.48967">
        <ele>1566.6</ele>
        <time>2013-03-03T15:05:46.000Z</time>
      </trkpt>
      <trkpt lat="46.27589" lon="6.48964">
        <ele>1566</ele>
        <time>2013-03-03T15:06:29.000Z</time>
      </trkpt>
      <trkpt lat="46.27588" lon="6.48963">
        <ele>1565.6</ele>
        <time>2013-03-03T15:06:30.000Z</time>
      </trkpt>
      <trkpt lat="46.27584" lon="6.48962">
        <ele>1564.5</ele>
        <time>2013-03-03T15:06:45.000Z</time>
      </trkpt>
      <trkpt lat="46.27583" lon="6.48961">
        <ele>1564.3</ele>
        <time>2013-03-03T15:06:46.000Z</time>
      </trkpt>
      <trkpt lat="46.27579" lon="6.48958">
        <ele>1563.8</ele>
        <time>2013-03-03T15:06:52.000Z</time>
      </trkpt>
      <trkpt lat="46.27579" lon="6.48958">
        <ele>1563.7</ele>
        <time>2013-03-03T15:06:53.000Z</time>
      </trkpt>
      <trkpt lat="46.27575" lon="6.48956">
        <ele>1562.4</ele>
        <time>2013-03-03T15:07:07.000Z</time>
      </trkpt>
      <trkpt lat="46.27574" lon="6.48955">
        <ele>1562.2</ele>
        <time>2013-03-03T15:07:08.000Z</time>
      </trkpt>
      <trkpt lat="46.2757" lon="6.48953">
        <ele>1561.8</ele>
        <time>2013-03-03T15:07:11.000Z</time>
      </trkpt>
      <trkpt lat="46.27569" lon="6.48952">
        <ele>1561.7</ele>
        <time>2013-03-03T15:07:12.000Z</time>
      </trkpt>
      <trkpt lat="46.27566" lon="6.48949">
        <ele>1561.4</ele>
        <time>2013-03-03T15:07:22.000Z</time>
      </trkpt>
      <trkpt lat="46.27565" lon="6.48949">
        <ele>1561.5</ele>
        <time>2013-03-03T15:07:23.000Z</time>
      </trkpt>
      <trkpt lat="46.27561" lon="6.48946">
        <ele>1561.9</ele>
        <time>2013-03-03T15:07:27.000Z</time>
      </trkpt>
      <trkpt lat="46.2756" lon="6.48945">
        <ele>1562</ele>
        <time>2013-03-03T15:07:28.000Z</time>
      </trkpt>
      <trkpt lat="46.27556" lon="6.48943">
        <ele>1562.1</ele>
        <time>2013-03-03T15:07:31.000Z</time>
      </trkpt>
      <trkpt lat="46.27555" lon="6.48942">
        <ele>1561.7</ele>
        <time>2013-03-03T15:07:32.000Z</time>
      </trkpt>
      <trkpt lat="46.27552" lon="6.4894">
        <ele>1561.3</ele>
        <time>2013-03-03T15:07:35.000Z</time>
      </trkpt>
      <trkpt lat="46.2755" lon="6.4894">
        <ele>1561.4</ele>
        <time>2013-03-03T15:07:36.000Z</time>
      </trkpt>
      <trkpt lat="46.27546" lon="6.48939">
        <ele>1562.1</ele>
        <time>2013-03-03T15:07:40.000Z</time>
      </trkpt>
      <trkpt lat="46.27545" lon="6.48939">
        <ele>1562.4</ele>
        <time>2013-03-03T15:07:41.000Z</time>
      </trkpt>
      <trkpt lat="46.27541" lon="6.48939">
        <ele>1563.6</ele>
        <time>2013-03-03T15:07:45.000Z</time>
      </trkpt>
      <trkpt lat="46.2754" lon="6.48939">
        <ele>1564</ele>
        <time>2013-03-03T15:07:46.000Z</time>
      </trkpt>
      <trkpt lat="46.27537" lon="6.48938">
        <ele>1565.3</ele>
        <time>2013-03-03T15:07:50.000Z</time>
      </trkpt>
      <trkpt lat="46.27535" lon="6.48938">
        <ele>1565.8</ele>
        <time>2013-03-03T15:07:51.000Z</time>
      </trkpt>
      <trkpt lat="46.27531" lon="6.48937">
        <ele>1567.3</ele>
        <time>2013-03-03T15:07:55.000Z</time>
      </trkpt>
      <trkpt lat="46.2753" lon="6.48937">
        <ele>1567.4</ele>
        <time>2013-03-03T15:07:56.000Z</time>
      </trkpt>
      <trkpt lat="46.27526" lon="6.48935">
        <ele>1566.6</ele>
        <time>2013-03-03T15:08:00.000Z</time>
      </trkpt>
      <trkpt lat="46.27525" lon="6.48934">
        <ele>1566.2</ele>
        <time>2013-03-03T15:08:01.000Z</time>
      </trkpt>
      <trkpt lat="46.27522" lon="6.48932">
        <ele>1564.5</ele>
        <time>2013-03-03T15:08:04.000Z</time>
      </trkpt>
      <trkpt lat="46.27521" lon="6.48932">
        <ele>1564.3</ele>
        <time>2013-03-03T15:08:05.000Z</time>
      </trkpt>
      <trkpt lat="46.27518" lon="6.4893">
        <ele>1564.1</ele>
        <time>2013-03-03T15:08:16.000Z</time>
      </trkpt>
      <trkpt lat="46.27517" lon="6.48929">
        <ele>1564.5</ele>
        <time>2013-03-03T15:08:17.000Z</time>
      </trkpt>
      <trkpt lat="46.27514" lon="6.48929">
        <ele>1564.3</ele>
        <time>2013-03-03T15:08:19.000Z</time>
      </trkpt>
      <trkpt lat="46.27512" lon="6.48928">
        <ele>1564.2</ele>
        <time>2013-03-03T15:08:20.000Z</time>
      </trkpt>
      <trkpt lat="46.27508" lon="6.48927">
        <ele>1564</ele>
        <time>2013-03-03T15:08:23.000Z</time>
      </trkpt>
      <trkpt lat="46.27507" lon="6.48926">
        <ele>1564</ele>
        <time>2013-03-03T15:08:24.000Z</time>
      </trkpt>
      <trkpt lat="46.27504" lon="6.48924">
        <ele>1564.2</ele>
        <time>2013-03-03T15:08:26.000Z</time>
      </trkpt>
      <trkpt lat="46.27502" lon="6.48922">
        <ele>1564</ele>
        <time>2013-03-03T15:08:27.000Z</time>
      </trkpt>
      <trkpt lat="46.275" lon="6.48918">
        <ele>1563.6</ele>
        <time>2013-03-03T15:08:29.000Z</time>
      </trkpt>
      <trkpt lat="46.27498" lon="6.48917">
        <ele>1563.7</ele>
        <time>2013-03-03T15:08:30.000Z</time>
      </trkpt>
      <trkpt lat="46.27496" lon="6.48912">
        <ele>1565.2</ele>
        <time>2013-03-03T15:08:34.000Z</time>
      </trkpt>
      <trkpt lat="46.27496" lon="6.48911">
        <ele>1565.8</ele>
        <time>2013-03-03T15:08:35.000Z</time>
      </trkpt>
      <trkpt lat="46.27493" lon="6.48906">
        <ele>1566.7</ele>
        <time>2013-03-03T15:08:39.000Z</time>
      </trkpt>
      <trkpt lat="46.27492" lon="6.48904">
        <ele>1567.3</ele>
        <time>2013-03-03T15:08:40.000Z</time>
      </trkpt>
      <trkpt lat="46.2749" lon="6.48901">
        <ele>1568.5</ele>
        <time>2013-03-03T15:08:44.000Z</time>
      </trkpt>
      <trkpt lat="46.27488" lon="6.489">
        <ele>1569</ele>
        <time>2013-03-03T15:08:45.000Z</time>
      </trkpt>
      <trkpt lat="46.27485" lon="6.48897">
        <ele>1569.3</ele>
        <time>2013-03-03T15:08:47.000Z</time>
      </trkpt>
      <trkpt lat="46.27484" lon="6.48896">
        <ele>1569.6</ele>
        <time>2013-03-03T15:08:48.000Z</time>
      </trkpt>
      <trkpt lat="46.27481" lon="6.48892">
        <ele>1570.1</ele>
        <time>2013-03-03T15:08:52.000Z</time>
      </trkpt>
      <trkpt lat="46.2748" lon="6.48892">
        <ele>1570.2</ele>
        <time>2013-03-03T15:08:53.000Z</time>
      </trkpt>
      <trkpt lat="46.27477" lon="6.48888">
        <ele>1570.6</ele>
        <time>2013-03-03T15:08:57.000Z</time>
      </trkpt>
      <trkpt lat="46.27476" lon="6.48887">
        <ele>1570.6</ele>
        <time>2013-03-03T15:08:58.000Z</time>
      </trkpt>
      <trkpt lat="46.27472" lon="6.48883">
        <ele>1570.6</ele>
        <time>2013-03-03T15:09:02.000Z</time>
      </trkpt>
      <trkpt lat="46.27471" lon="6.48882">
        <ele>1570.9</ele>
        <time>2013-03-03T15:09:03.000Z</time>
      </trkpt>
      <trkpt lat="46.27468" lon="6.48879">
        <ele>1572.1</ele>
        <time>2013-03-03T15:09:06.000Z</time>
      </trkpt>
      <trkpt lat="46.27467" lon="6.48879">
        <ele>1572.3</ele>
        <time>2013-03-03T15:09:07.000Z</time>
      </trkpt>
      <trkpt lat="46.27463" lon="6.48877">
        <ele>1572.7</ele>
        <time>2013-03-03T15:09:09.000Z</time>
      </trkpt>
      <trkpt lat="46.27462" lon="6.48876">
        <ele>1572.9</ele>
        <time>2013-03-03T15:09:10.000Z</time>
      </trkpt>
      <trkpt lat="46.2746" lon="6.48871">
        <ele>1574.6</ele>
        <time>2013-03-03T15:09:15.000Z</time>
      </trkpt>
      <trkpt lat="46.27459" lon="6.4887">
        <ele>1574.8</ele>
        <time>2013-03-03T15:09:16.000Z</time>
      </trkpt>
      <trkpt lat="46.27457" lon="6.48866">
        <ele>1575.3</ele>
        <time>2013-03-03T15:09:20.000Z</time>
      </trkpt>
      <trkpt lat="46.27456" lon="6.48865">
        <ele>1575.3</ele>
        <time>2013-03-03T15:09:21.000Z</time>
      </trkpt>
      <trkpt lat="46.27453" lon="6.48863">
        <ele>1575</ele>
        <time>2013-03-03T15:09:24.000Z</time>
      </trkpt>
      <trkpt lat="46.27452" lon="6.48862">
        <ele>1574.9</ele>
        <time>2013-03-03T15:09:25.000Z</time>
      </trkpt>
      <trkpt lat="46.27447" lon="6.48861">
        <ele>1573.5</ele>
        <time>2013-03-03T15:09:29.000Z</time>
      </trkpt>
      <trkpt lat="46.27447" lon="6.4886">
        <ele>1573.6</ele>
        <time>2013-03-03T15:09:30.000Z</time>
      </trkpt>
      <trkpt lat="46.27443" lon="6.48859">
        <ele>1573.6</ele>
        <time>2013-03-03T15:09:35.000Z</time>
      </trkpt>
      <trkpt lat="46.27442" lon="6.48859">
        <ele>1573.8</ele>
        <time>2013-03-03T15:09:36.000Z</time>
      </trkpt>
      <trkpt lat="46.27438" lon="6.48857">
        <ele>1573.6</ele>
        <time>2013-03-03T15:09:41.000Z</time>
      </trkpt>
      <trkpt lat="46.27437" lon="6.48857">
        <ele>1573.7</ele>
        <time>2013-03-03T15:09:42.000Z</time>
      </trkpt>
      <trkpt lat="46.27433" lon="6.48856">
        <ele>1571.6</ele>
        <time>2013-03-03T15:09:48.000Z</time>
      </trkpt>
      <trkpt lat="46.27432" lon="6.48856">
        <ele>1571.3</ele>
        <time>2013-03-03T15:09:49.000Z</time>
      </trkpt>
      <trkpt lat="46.27429" lon="6.48854">
        <ele>1570.2</ele>
        <time>2013-03-03T15:09:53.000Z</time>
      </trkpt>
      <trkpt lat="46.27428" lon="6.48854">
        <ele>1569.9</ele>
        <time>2013-03-03T15:09:54.000Z</time>
      </trkpt>
      <trkpt lat="46.27424" lon="6.48851">
        <ele>1569.2</ele>
        <time>2013-03-03T15:10:00.000Z</time>
      </trkpt>
      <trkpt lat="46.27424" lon="6.4885">
        <ele>1569</ele>
        <time>2013-03-03T15:10:01.000Z</time>
      </trkpt>
      <trkpt lat="46.27422" lon="6.48846">
        <ele>1568.1</ele>
        <time>2013-03-03T15:10:05.000Z</time>
      </trkpt>
      <trkpt lat="46.27421" lon="6.48845">
        <ele>1567.8</ele>
        <time>2013-03-03T15:10:06.000Z</time>
      </trkpt>
      <trkpt lat="46.27417" lon="6.48842">
        <ele>1567.8</ele>
        <time>2013-03-03T15:10:13.000Z</time>
      </trkpt>
      <trkpt lat="46.27417" lon="6.48842">
        <ele>1567.9</ele>
        <time>2013-03-03T15:10:14.000Z</time>
      </trkpt>
      <trkpt lat="46.27413" lon="6.4884">
        <ele>1567.5</ele>
        <time>2013-03-03T15:10:19.000Z</time>
      </trkpt>
      <trkpt lat="46.27412" lon="6.4884">
        <ele>1568</ele>
        <time>2013-03-03T15:10:20.000Z</time>
      </trkpt>
      <trkpt lat="46.27408" lon="6.48837">
        <ele>1568.8</ele>
        <time>2013-03-03T15:10:24.000Z</time>
      </trkpt>
      <trkpt lat="46.27408" lon="6.48837">
        <ele>1569.1</ele>
        <time>2013-03-03T15:10:25.000Z</time>
      </trkpt>
      <trkpt lat="46.27404" lon="6.48835">
        <ele>1570.4</ele>
        <time>2013-03-03T15:10:29.000Z</time>
      </trkpt>
      <trkpt lat="46.27403" lon="6.48834">
        <ele>1570.8</ele>
        <time>2013-03-03T15:10:30.000Z</time>
      </trkpt>
      <trkpt lat="46.27399" lon="6.48832">
        <ele>1572.1</ele>
        <time>2013-03-03T15:10:35.000Z</time>
      </trkpt>
      <trkpt lat="46.27398" lon="6.48831">
        <ele>1572.5</ele>
        <time>2013-03-03T15:10:36.000Z</time>
      </trkpt>
      <trkpt lat="46.27394" lon="6.4883">
        <ele>1575.4</ele>
        <time>2013-03-03T15:10:42.000Z</time>
      </trkpt>
      <trkpt lat="46.27393" lon="6.4883">
        <ele>1575.8</ele>
        <time>2013-03-03T15:10:43.000Z</time>
      </trkpt>
      <trkpt lat="46.27389" lon="6.48831">
        <ele>1576.9</ele>
        <time>2013-03-03T15:10:49.000Z</time>
      </trkpt>
      <trkpt lat="46.27389" lon="6.48831">
        <ele>1577</ele>
        <time>2013-03-03T15:10:50.000Z</time>
      </trkpt>
      <trkpt lat="46.27385" lon="6.48833">
        <ele>1578</ele>
        <time>2013-03-03T15:10:56.000Z</time>
      </trkpt>
      <trkpt lat="46.27384" lon="6.48833">
        <ele>1578.3</ele>
        <time>2013-03-03T15:10:57.000Z</time>
      </trkpt>
      <trkpt lat="46.2738" lon="6.48835">
        <ele>1579.1</ele>
        <time>2013-03-03T15:11:42.000Z</time>
      </trkpt>
      <trkpt lat="46.27379" lon="6.48835">
        <ele>1579.2</ele>
        <time>2013-03-03T15:11:43.000Z</time>
      </trkpt>
      <trkpt lat="46.27375" lon="6.48834">
        <ele>1579.3</ele>
        <time>2013-03-03T15:11:49.000Z</time>
      </trkpt>
      <trkpt lat="46.27374" lon="6.48834">
        <ele>1579.3</ele>
        <time>2013-03-03T15:11:50.000Z</time>
      </trkpt>
      <trkpt lat="46.2737" lon="6.48834">
        <ele>1578.9</ele>
        <time>2013-03-03T15:11:56.000Z</time>
      </trkpt>
      <trkpt lat="46.27369" lon="6.48833">
        <ele>1578.8</ele>
        <time>2013-03-03T15:11:57.000Z</time>
      </trkpt>
      <trkpt lat="46.27366" lon="6.4883">
        <ele>1578.7</ele>
        <time>2013-03-03T15:12:02.000Z</time>
      </trkpt>
      <trkpt lat="46.27365" lon="6.4883">
        <ele>1578.9</ele>
        <time>2013-03-03T15:12:03.000Z</time>
      </trkpt>
      <trkpt lat="46.27362" lon="6.48825">
        <ele>1579.3</ele>
        <time>2013-03-03T15:12:10.000Z</time>
      </trkpt>
      <trkpt lat="46.27362" lon="6.48825">
        <ele>1579.4</ele>
        <time>2013-03-03T15:12:11.000Z</time>
      </trkpt>
      <trkpt lat="46.27358" lon="6.48821">
        <ele>1579.6</ele>
        <time>2013-03-03T15:12:17.000Z</time>
      </trkpt>
      <trkpt lat="46.27358" lon="6.4882">
        <ele>1579.6</ele>
        <time>2013-03-03T15:12:18.000Z</time>
      </trkpt>
      <trkpt lat="46.27354" lon="6.48818">
        <ele>1579.3</ele>
        <time>2013-03-03T15:12:22.000Z</time>
      </trkpt>
      <trkpt lat="46.27352" lon="6.48817">
        <ele>1579.3</ele>
        <time>2013-03-03T15:12:23.000Z</time>
      </trkpt>
      <trkpt lat="46.27351" lon="6.48811">
        <ele>1579.1</ele>
        <time>2013-03-03T15:12:27.000Z</time>
      </trkpt>
      <trkpt lat="46.27351" lon="6.4881">
        <ele>1579</ele>
        <time>2013-03-03T15:12:28.000Z</time>
      </trkpt>
      <trkpt lat="46.27353" lon="6.48805">
        <ele>1580.9</ele>
        <time>2013-03-03T15:12:35.000Z</time>
      </trkpt>
      <trkpt lat="46.27354" lon="6.48804">
        <ele>1581.2</ele>
        <time>2013-03-03T15:12:36.000Z</time>
      </trkpt>
      <trkpt lat="46.27358" lon="6.48803">
        <ele>1584.1</ele>
        <time>2013-03-03T15:12:52.000Z</time>
      </trkpt>
      <trkpt lat="46.27359" lon="6.48802">
        <ele>1584.5</ele>
        <time>2013-03-03T15:12:53.000Z</time>
      </trkpt>
      <trkpt lat="46.27363" lon="6.48801">
        <ele>1586.5</ele>
        <time>2013-03-03T15:12:59.000Z</time>
      </trkpt>
      <trkpt lat="46.27363" lon="6.48801">
        <ele>1586.8</ele>
        <time>2013-03-03T15:13:00.000Z</time>
      </trkpt>
      <trkpt lat="46.27365" lon="6.48806">
        <ele>1591</ele>
        <time>2013-03-03T15:15:13.000Z</time>
      </trkpt>
      <trkpt lat="46.27366" lon="6.48807">
        <ele>1590.8</ele>
        <time>2013-03-03T15:15:14.000Z</time>
      </trkpt>
      <trkpt lat="46.27364" lon="6.48801">
        <ele>1591.1</ele>
        <time>2013-03-03T15:53:53.000Z</time>
      </trkpt>
      <trkpt lat="46.27361" lon="6.48802">
        <ele>1589.1</ele>
        <time>2013-03-03T15:53:54.000Z</time>
      </trkpt>
      <trkpt lat="46.27358" lon="6.48803">
        <ele>1588</ele>
        <time>2013-03-03T15:53:55.000Z</time>
      </trkpt>
      <trkpt lat="46.27355" lon="6.48804">
        <ele>1586.8</ele>
        <time>2013-03-03T15:53:56.000Z</time>
      </trkpt>
      <trkpt lat="46.27353" lon="6.48806">
        <ele>1585.5</ele>
        <time>2013-03-03T15:53:57.000Z</time>
      </trkpt>
      <trkpt lat="46.27353" lon="6.4881">
        <ele>1584</ele>
        <time>2013-03-03T15:53:58.000Z</time>
      </trkpt>
      <trkpt lat="46.27354" lon="6.48816">
        <ele>1582.2</ele>
        <time>2013-03-03T15:54:02.000Z</time>
      </trkpt>
      <trkpt lat="46.27354" lon="6.48817">
        <ele>1582.4</ele>
        <time>2013-03-03T15:54:03.000Z</time>
      </trkpt>
      <trkpt lat="46.27358" lon="6.4882">
        <ele>1582.3</ele>
        <time>2013-03-03T15:54:08.000Z</time>
      </trkpt>
      <trkpt lat="46.27359" lon="6.4882">
        <ele>1582.1</ele>
        <time>2013-03-03T15:54:09.000Z</time>
      </trkpt>
      <trkpt lat="46.27361" lon="6.48823">
        <ele>1581.9</ele>
        <time>2013-03-03T15:54:14.000Z</time>
      </trkpt>
      <trkpt lat="46.27363" lon="6.48825">
        <ele>1582</ele>
        <time>2013-03-03T15:54:15.000Z</time>
      </trkpt>
      <trkpt lat="46.27365" lon="6.48828">
        <ele>1581.9</ele>
        <time>2013-03-03T15:54:16.000Z</time>
      </trkpt>
      <trkpt lat="46.27367" lon="6.48831">
        <ele>1581.7</ele>
        <time>2013-03-03T15:54:17.000Z</time>
      </trkpt>
      <trkpt lat="46.2737" lon="6.48833">
        <ele>1581.6</ele>
        <time>2013-03-03T15:54:18.000Z</time>
      </trkpt>
      <trkpt lat="46.27374" lon="6.48834">
        <ele>1581.3</ele>
        <time>2013-03-03T15:54:19.000Z</time>
      </trkpt>
      <trkpt lat="46.27377" lon="6.48834">
        <ele>1581</ele>
        <time>2013-03-03T15:54:20.000Z</time>
      </trkpt>
      <trkpt lat="46.2738" lon="6.48833">
        <ele>1580.8</ele>
        <time>2013-03-03T15:54:21.000Z</time>
      </trkpt>
      <trkpt lat="46.27383" lon="6.48833">
        <ele>1580.3</ele>
        <time>2013-03-03T15:54:22.000Z</time>
      </trkpt>
      <trkpt lat="46.27387" lon="6.48833">
        <ele>1580.1</ele>
        <time>2013-03-03T15:54:23.000Z</time>
      </trkpt>
      <trkpt lat="46.27391" lon="6.48833">
        <ele>1579.7</ele>
        <time>2013-03-03T15:54:24.000Z</time>
      </trkpt>
      <trkpt lat="46.27395" lon="6.48834">
        <ele>1579.2</ele>
        <time>2013-03-03T15:54:25.000Z</time>
      </trkpt>
      <trkpt lat="46.274" lon="6.48836">
        <ele>1578.8</ele>
        <time>2013-03-03T15:54:26.000Z</time>
      </trkpt>
      <trkpt lat="46.27405" lon="6.48839">
        <ele>1578.6</ele>
        <time>2013-03-03T15:54:27.000Z</time>
      </trkpt>
      <trkpt lat="46.27411" lon="6.48841">
        <ele>1578.7</ele>
        <time>2013-03-03T15:54:28.000Z</time>
      </trkpt>
      <trkpt lat="46.27416" lon="6.48844">
        <ele>1578.3</ele>
        <time>2013-03-03T15:54:29.000Z</time>
      </trkpt>
      <trkpt lat="46.27421" lon="6.48846">
        <ele>1578.1</ele>
        <time>2013-03-03T15:54:30.000Z</time>
      </trkpt>
      <trkpt lat="46.27429" lon="6.48851">
        <ele>1578.3</ele>
        <time>2013-03-03T15:54:31.000Z</time>
      </trkpt>
      <trkpt lat="46.27434" lon="6.48854">
        <ele>1578.4</ele>
        <time>2013-03-03T15:54:32.000Z</time>
      </trkpt>
      <trkpt lat="46.27438" lon="6.48857">
        <ele>1578.4</ele>
        <time>2013-03-03T15:54:33.000Z</time>
      </trkpt>
      <trkpt lat="46.27442" lon="6.48859">
        <ele>1578.4</ele>
        <time>2013-03-03T15:54:34.000Z</time>
      </trkpt>
      <trkpt lat="46.27447" lon="6.48863">
        <ele>1578.5</ele>
        <time>2013-03-03T15:54:35.000Z</time>
      </trkpt>
      <trkpt lat="46.27451" lon="6.48868">
        <ele>1578.6</ele>
        <time>2013-03-03T15:54:36.000Z</time>
      </trkpt>
      <trkpt lat="46.27455" lon="6.48873">
        <ele>1578.6</ele>
        <time>2013-03-03T15:54:37.000Z</time>
      </trkpt>
      <trkpt lat="46.27459" lon="6.48877">
        <ele>1578</ele>
        <time>2013-03-03T15:54:38.000Z</time>
      </trkpt>
      <trkpt lat="46.27463" lon="6.4888">
        <ele>1578</ele>
        <time>2013-03-03T15:54:39.000Z</time>
      </trkpt>
      <trkpt lat="46.27467" lon="6.48884">
        <ele>1577.9</ele>
        <time>2013-03-03T15:54:40.000Z</time>
      </trkpt>
      <trkpt lat="46.27471" lon="6.48887">
        <ele>1577.9</ele>
        <time>2013-03-03T15:54:41.000Z</time>
      </trkpt>
      <trkpt lat="46.27475" lon="6.48891">
        <ele>1578</ele>
        <time>2013-03-03T15:54:42.000Z</time>
      </trkpt>
      <trkpt lat="46.27479" lon="6.48894">
        <ele>1578</ele>
        <time>2013-03-03T15:54:43.000Z</time>
      </trkpt>
      <trkpt lat="46.27484" lon="6.48897">
        <ele>1578</ele>
        <time>2013-03-03T15:54:44.000Z</time>
      </trkpt>
      <trkpt lat="46.27488" lon="6.489">
        <ele>1578.1</ele>
        <time>2013-03-03T15:54:45.000Z</time>
      </trkpt>
      <trkpt lat="46.27491" lon="6.48904">
        <ele>1577.7</ele>
        <time>2013-03-03T15:54:46.000Z</time>
      </trkpt>
      <trkpt lat="46.27495" lon="6.48909">
        <ele>1577.4</ele>
        <time>2013-03-03T15:54:47.000Z</time>
      </trkpt>
      <trkpt lat="46.27498" lon="6.48912">
        <ele>1577.1</ele>
        <time>2013-03-03T15:54:48.000Z</time>
      </trkpt>
      <trkpt lat="46.275" lon="6.48916">
        <ele>1576.8</ele>
        <time>2013-03-03T15:54:49.000Z</time>
      </trkpt>
      <trkpt lat="46.27502" lon="6.4892">
        <ele>1576.5</ele>
        <time>2013-03-03T15:54:50.000Z</time>
      </trkpt>
      <trkpt lat="46.27504" lon="6.48923">
        <ele>1576.4</ele>
        <time>2013-03-03T15:54:51.000Z</time>
      </trkpt>
      <trkpt lat="46.27507" lon="6.48927">
        <ele>1575.4</ele>
        <time>2013-03-03T15:54:53.000Z</time>
      </trkpt>
      <trkpt lat="46.27508" lon="6.48928">
        <ele>1575.1</ele>
        <time>2013-03-03T15:54:54.000Z</time>
      </trkpt>
      <trkpt lat="46.27511" lon="6.4893">
        <ele>1574.2</ele>
        <time>2013-03-03T15:54:56.000Z</time>
      </trkpt>
      <trkpt lat="46.27513" lon="6.48931">
        <ele>1573.9</ele>
        <time>2013-03-03T15:54:57.000Z</time>
      </trkpt>
      <trkpt lat="46.27515" lon="6.48931">
        <ele>1573.7</ele>
        <time>2013-03-03T15:54:58.000Z</time>
      </trkpt>
      <trkpt lat="46.27517" lon="6.48933">
        <ele>1573.6</ele>
        <time>2013-03-03T15:54:59.000Z</time>
      </trkpt>
      <trkpt lat="46.2752" lon="6.48935">
        <ele>1572.4</ele>
        <time>2013-03-03T15:55:00.000Z</time>
      </trkpt>
      <trkpt lat="46.27523" lon="6.48936">
        <ele>1572.3</ele>
        <time>2013-03-03T15:55:01.000Z</time>
      </trkpt>
      <trkpt lat="46.27525" lon="6.48937">
        <ele>1572.3</ele>
        <time>2013-03-03T15:55:02.000Z</time>
      </trkpt>
      <trkpt lat="46.27528" lon="6.48938">
        <ele>1572.1</ele>
        <time>2013-03-03T15:55:03.000Z</time>
      </trkpt>
      <trkpt lat="46.27531" lon="6.4894">
        <ele>1570.8</ele>
        <time>2013-03-03T15:55:05.000Z</time>
      </trkpt>
      <trkpt lat="46.27533" lon="6.48942">
        <ele>1570.2</ele>
        <time>2013-03-03T15:55:06.000Z</time>
      </trkpt>
      <trkpt lat="46.27536" lon="6.48943">
        <ele>1569.9</ele>
        <time>2013-03-03T15:55:07.000Z</time>
      </trkpt>
      <trkpt lat="46.27539" lon="6.48943">
        <ele>1569.6</ele>
        <time>2013-03-03T15:55:08.000Z</time>
      </trkpt>
      <trkpt lat="46.27543" lon="6.48943">
        <ele>1569.5</ele>
        <time>2013-03-03T15:55:09.000Z</time>
      </trkpt>
      <trkpt lat="46.27546" lon="6.48944">
        <ele>1569.2</ele>
        <time>2013-03-03T15:55:10.000Z</time>
      </trkpt>
      <trkpt lat="46.27549" lon="6.48945">
        <ele>1569</ele>
        <time>2013-03-03T15:55:11.000Z</time>
      </trkpt>
      <trkpt lat="46.27551" lon="6.48946">
        <ele>1568.5</ele>
        <time>2013-03-03T15:55:12.000Z</time>
      </trkpt>
      <trkpt lat="46.27554" lon="6.48947">
        <ele>1568.2</ele>
        <time>2013-03-03T15:55:13.000Z</time>
      </trkpt>
      <trkpt lat="46.27557" lon="6.48947">
        <ele>1567.3</ele>
        <time>2013-03-03T15:55:14.000Z</time>
      </trkpt>
      <trkpt lat="46.2756" lon="6.48949">
        <ele>1566.4</ele>
        <time>2013-03-03T15:55:17.000Z</time>
      </trkpt>
      <trkpt lat="46.27561" lon="6.48949">
        <ele>1566.3</ele>
        <time>2013-03-03T15:55:18.000Z</time>
      </trkpt>
      <trkpt lat="46.27565" lon="6.48951">
        <ele>1566.1</ele>
        <time>2013-03-03T15:55:22.000Z</time>
      </trkpt>
      <trkpt lat="46.27565" lon="6.48951">
        <ele>1566</ele>
        <time>2013-03-03T15:55:23.000Z</time>
      </trkpt>
      <trkpt lat="46.27568" lon="6.48955">
        <ele>1567.1</ele>
        <time>2013-03-03T15:55:28.000Z</time>
      </trkpt>
      <trkpt lat="46.27569" lon="6.48955">
        <ele>1567.3</ele>
        <time>2013-03-03T15:55:29.000Z</time>
      </trkpt>
      <trkpt lat="46.27573" lon="6.48957">
        <ele>1566.7</ele>
        <time>2013-03-03T15:55:34.000Z</time>
      </trkpt>
      <trkpt lat="46.27574" lon="6.48958">
        <ele>1566.4</ele>
        <time>2013-03-03T15:55:35.000Z</time>
      </trkpt>
      <trkpt lat="46.27578" lon="6.48959">
        <ele>1566.2</ele>
        <time>2013-03-03T15:55:38.000Z</time>
      </trkpt>
      <trkpt lat="46.27579" lon="6.48959">
        <ele>1566.1</ele>
        <time>2013-03-03T15:55:39.000Z</time>
      </trkpt>
      <trkpt lat="46.27583" lon="6.4896">
        <ele>1565.5</ele>
        <time>2013-03-03T15:55:43.000Z</time>
      </trkpt>
      <trkpt lat="46.27584" lon="6.4896">
        <ele>1565.4</ele>
        <time>2013-03-03T15:55:44.000Z</time>
      </trkpt>
      <trkpt lat="46.27587" lon="6.48963">
        <ele>1565.4</ele>
        <time>2013-03-03T15:55:46.000Z</time>
      </trkpt>
      <trkpt lat="46.27589" lon="6.48965">
        <ele>1565.4</ele>
        <time>2013-03-03T15:55:47.000Z</time>
      </trkpt>
      <trkpt lat="46.27592" lon="6.48968">
        <ele>1565.3</ele>
        <time>2013-03-03T15:55:49.000Z</time>
      </trkpt>
      <trkpt lat="46.27594" lon="6.4897">
        <ele>1565.4</ele>
        <time>2013-03-03T15:55:50.000Z</time>
      </trkpt>
      <trkpt lat="46.27597" lon="6.48971">
        <ele>1565.5</ele>
        <time>2013-03-03T15:55:51.000Z</time>
      </trkpt>
      <trkpt lat="46.276" lon="6.48973">
        <ele>1565.5</ele>
        <time>2013-03-03T15:55:52.000Z</time>
      </trkpt>
      <trkpt lat="46.27604" lon="6.48974">
        <ele>1565.6</ele>
        <time>2013-03-03T15:55:53.000Z</time>
      </trkpt>
      <trkpt lat="46.27608" lon="6.48975">
        <ele>1565.8</ele>
        <time>2013-03-03T15:55:54.000Z</time>
      </trkpt>
      <trkpt lat="46.27611" lon="6.48976">
        <ele>1566.1</ele>
        <time>2013-03-03T15:55:55.000Z</time>
      </trkpt>
      <trkpt lat="46.27615" lon="6.48978">
        <ele>1566.2</ele>
        <time>2013-03-03T15:55:56.000Z</time>
      </trkpt>
      <trkpt lat="46.2762" lon="6.48979">
        <ele>1566.5</ele>
        <time>2013-03-03T15:55:57.000Z</time>
      </trkpt>
      <trkpt lat="46.27625" lon="6.48981">
        <ele>1566.6</ele>
        <time>2013-03-03T15:55:58.000Z</time>
      </trkpt>
      <trkpt lat="46.2763" lon="6.48983">
        <ele>1566.5</ele>
        <time>2013-03-03T15:55:59.000Z</time>
      </trkpt>
      <trkpt lat="46.27633" lon="6.48984">
        <ele>1566.5</ele>
        <time>2013-03-03T15:56:00.000Z</time>
      </trkpt>
      <trkpt lat="46.27635" lon="6.48985">
        <ele>1566.7</ele>
        <time>2013-03-03T15:56:01.000Z</time>
      </trkpt>
      <trkpt lat="46.27638" lon="6.48986">
        <ele>1566.9</ele>
        <time>2013-03-03T15:56:02.000Z</time>
      </trkpt>
      <trkpt lat="46.27641" lon="6.48987">
        <ele>1567.1</ele>
        <time>2013-03-03T15:56:03.000Z</time>
      </trkpt>
      <trkpt lat="46.27645" lon="6.48989">
        <ele>1567.2</ele>
        <time>2013-03-03T15:56:04.000Z</time>
      </trkpt>
      <trkpt lat="46.27649" lon="6.4899">
        <ele>1567</ele>
        <time>2013-03-03T15:56:05.000Z</time>
      </trkpt>
      <trkpt lat="46.27654" lon="6.48992">
        <ele>1566.6</ele>
        <time>2013-03-03T15:56:06.000Z</time>
      </trkpt>
      <trkpt lat="46.27658" lon="6.48993">
        <ele>1566.2</ele>
        <time>2013-03-03T15:56:07.000Z</time>
      </trkpt>
      <trkpt lat="46.27661" lon="6.48995">
        <ele>1566</ele>
        <time>2013-03-03T15:56:08.000Z</time>
      </trkpt>
      <trkpt lat="46.27665" lon="6.48995">
        <ele>1566.1</ele>
        <time>2013-03-03T15:56:11.000Z</time>
      </trkpt>
      <trkpt lat="46.27667" lon="6.48995">
        <ele>1566</ele>
        <time>2013-03-03T15:56:12.000Z</time>
      </trkpt>
      <trkpt lat="46.27671" lon="6.48996">
        <ele>1565.9</ele>
        <time>2013-03-03T15:56:15.000Z</time>
      </trkpt>
      <trkpt lat="46.27672" lon="6.48997">
        <ele>1565.9</ele>
        <time>2013-03-03T15:56:16.000Z</time>
      </trkpt>
      <trkpt lat="46.27675" lon="6.48998">
        <ele>1566</ele>
        <time>2013-03-03T15:56:18.000Z</time>
      </trkpt>
      <trkpt lat="46.27677" lon="6.48998">
        <ele>1566</ele>
        <time>2013-03-03T15:56:19.000Z</time>
      </trkpt>
      <trkpt lat="46.27682" lon="6.48997">
        <ele>1565.7</ele>
        <time>2013-03-03T15:56:21.000Z</time>
      </trkpt>
      <trkpt lat="46.27684" lon="6.48997">
        <ele>1565.6</ele>
        <time>2013-03-03T15:56:22.000Z</time>
      </trkpt>
      <trkpt lat="46.27688" lon="6.48996">
        <ele>1565.6</ele>
        <time>2013-03-03T15:56:24.000Z</time>
      </trkpt>
      <trkpt lat="46.27689" lon="6.48995">
        <ele>1565.5</ele>
        <time>2013-03-03T15:56:25.000Z</time>
      </trkpt>
      <trkpt lat="46.27693" lon="6.48997">
        <ele>1564.8</ele>
        <time>2013-03-03T15:56:29.000Z</time>
      </trkpt>
      <trkpt lat="46.27694" lon="6.48998">
        <ele>1564.9</ele>
        <time>2013-03-03T15:56:30.000Z</time>
      </trkpt>
      <trkpt lat="46.27697" lon="6.48999">
        <ele>1565.9</ele>
        <time>2013-03-03T15:56:34.000Z</time>
      </trkpt>
      <trkpt lat="46.27699" lon="6.49001">
        <ele>1565.9</ele>
        <time>2013-03-03T15:56:35.000Z</time>
      </trkpt>
      <trkpt lat="46.27701" lon="6.49003">
        <ele>1566.2</ele>
        <time>2013-03-03T15:56:36.000Z</time>
      </trkpt>
      <trkpt lat="46.27705" lon="6.49005">
        <ele>1566.2</ele>
        <time>2013-03-03T15:56:37.000Z</time>
      </trkpt>
      <trkpt lat="46.27707" lon="6.49009">
        <ele>1567.3</ele>
        <time>2013-03-03T15:56:48.000Z</time>
      </trkpt>
      <trkpt lat="46.27713" lon="6.49014">
        <ele>1567.8</ele>
        <time>2013-03-03T15:56:49.000Z</time>
      </trkpt>
      <trkpt lat="46.27717" lon="6.49015">
        <ele>1567.6</ele>
        <time>2013-03-03T15:56:53.000Z</time>
      </trkpt>
      <trkpt lat="46.27718" lon="6.49016">
        <ele>1567.6</ele>
        <time>2013-03-03T15:56:54.000Z</time>
      </trkpt>
      <trkpt lat="46.27721" lon="6.49017">
        <ele>1567.3</ele>
        <time>2013-03-03T15:56:56.000Z</time>
      </trkpt>
      <trkpt lat="46.27723" lon="6.49019">
        <ele>1566.6</ele>
        <time>2013-03-03T15:56:57.000Z</time>
      </trkpt>
      <trkpt lat="46.27726" lon="6.4902">
        <ele>1566.5</ele>
        <time>2013-03-03T15:56:59.000Z</time>
      </trkpt>
      <trkpt lat="46.27728" lon="6.49021">
        <ele>1566.4</ele>
        <time>2013-03-03T15:57:00.000Z</time>
      </trkpt>
      <trkpt lat="46.27731" lon="6.49022">
        <ele>1566.4</ele>
        <time>2013-03-03T15:57:01.000Z</time>
      </trkpt>
      <trkpt lat="46.27733" lon="6.49023">
        <ele>1566.3</ele>
        <time>2013-03-03T15:57:02.000Z</time>
      </trkpt>
      <trkpt lat="46.27736" lon="6.49024">
        <ele>1566.4</ele>
        <time>2013-03-03T15:57:03.000Z</time>
      </trkpt>
      <trkpt lat="46.2774" lon="6.49025">
        <ele>1566.9</ele>
        <time>2013-03-03T15:57:04.000Z</time>
      </trkpt>
      <trkpt lat="46.27743" lon="6.49026">
        <ele>1566.9</ele>
        <time>2013-03-03T15:57:05.000Z</time>
      </trkpt>
      <trkpt lat="46.27746" lon="6.49028">
        <ele>1567</ele>
        <time>2013-03-03T15:57:06.000Z</time>
      </trkpt>
      <trkpt lat="46.2775" lon="6.4903">
        <ele>1566.9</ele>
        <time>2013-03-03T15:57:07.000Z</time>
      </trkpt>
      <trkpt lat="46.27754" lon="6.49033">
        <ele>1566.8</ele>
        <time>2013-03-03T15:57:08.000Z</time>
      </trkpt>
      <trkpt lat="46.27758" lon="6.49035">
        <ele>1566.9</ele>
        <time>2013-03-03T15:57:09.000Z</time>
      </trkpt>
      <trkpt lat="46.2776" lon="6.49038">
        <ele>1567</ele>
        <time>2013-03-03T15:57:10.000Z</time>
      </trkpt>
      <trkpt lat="46.27763" lon="6.49039">
        <ele>1567</ele>
        <time>2013-03-03T15:57:11.000Z</time>
      </trkpt>
      <trkpt lat="46.27766" lon="6.49042">
        <ele>1566.6</ele>
        <time>2013-03-03T15:57:13.000Z</time>
      </trkpt>
      <trkpt lat="46.27768" lon="6.49044">
        <ele>1566.5</ele>
        <time>2013-03-03T15:57:14.000Z</time>
      </trkpt>
      <trkpt lat="46.2777" lon="6.49045">
        <ele>1566.3</ele>
        <time>2013-03-03T15:57:15.000Z</time>
      </trkpt>
      <trkpt lat="46.27773" lon="6.49047">
        <ele>1566.5</ele>
        <time>2013-03-03T15:57:16.000Z</time>
      </trkpt>
      <trkpt lat="46.27775" lon="6.49047">
        <ele>1566.6</ele>
        <time>2013-03-03T15:57:17.000Z</time>
      </trkpt>
      <trkpt lat="46.27778" lon="6.49048">
        <ele>1566.7</ele>
        <time>2013-03-03T15:57:18.000Z</time>
      </trkpt>
      <trkpt lat="46.27779" lon="6.49048">
        <ele>1566.9</ele>
        <time>2013-03-03T15:57:19.000Z</time>
      </trkpt>
      <trkpt lat="46.27782" lon="6.49051">
        <ele>1565.7</ele>
        <time>2013-03-03T15:57:20.000Z</time>
      </trkpt>
      <trkpt lat="46.27785" lon="6.49053">
        <ele>1565.2</ele>
        <time>2013-03-03T15:57:21.000Z</time>
      </trkpt>
      <trkpt lat="46.27787" lon="6.49053">
        <ele>1565.3</ele>
        <time>2013-03-03T15:57:22.000Z</time>
      </trkpt>
      <trkpt lat="46.27791" lon="6.49054">
        <ele>1565.3</ele>
        <time>2013-03-03T15:57:24.000Z</time>
      </trkpt>
      <trkpt lat="46.27792" lon="6.49054">
        <ele>1565.6</ele>
        <time>2013-03-03T15:57:25.000Z</time>
      </trkpt>
      <trkpt lat="46.27796" lon="6.49055">
        <ele>1565.9</ele>
        <time>2013-03-03T15:57:27.000Z</time>
      </trkpt>
      <trkpt lat="46.27798" lon="6.49056">
        <ele>1565.8</ele>
        <time>2013-03-03T15:57:28.000Z</time>
      </trkpt>
      <trkpt lat="46.27802" lon="6.49057">
        <ele>1565.8</ele>
        <time>2013-03-03T15:57:30.000Z</time>
      </trkpt>
      <trkpt lat="46.27806" lon="6.49057">
        <ele>1565.7</ele>
        <time>2013-03-03T15:57:31.000Z</time>
      </trkpt>
      <trkpt lat="46.27809" lon="6.49057">
        <ele>1565.4</ele>
        <time>2013-03-03T15:57:32.000Z</time>
      </trkpt>
      <trkpt lat="46.27812" lon="6.49056">
        <ele>1565.4</ele>
        <time>2013-03-03T15:57:33.000Z</time>
      </trkpt>
      <trkpt lat="46.27815" lon="6.49055">
        <ele>1565.3</ele>
        <time>2013-03-03T15:57:34.000Z</time>
      </trkpt>
      <trkpt lat="46.27818" lon="6.49056">
        <ele>1565.1</ele>
        <time>2013-03-03T15:57:35.000Z</time>
      </trkpt>
      <trkpt lat="46.27822" lon="6.49055">
        <ele>1564.9</ele>
        <time>2013-03-03T15:57:36.000Z</time>
      </trkpt>
      <trkpt lat="46.27825" lon="6.49054">
        <ele>1564.8</ele>
        <time>2013-03-03T15:57:37.000Z</time>
      </trkpt>
      <trkpt lat="46.27829" lon="6.49056">
        <ele>1563.5</ele>
        <time>2013-03-03T15:57:47.000Z</time>
      </trkpt>
      <trkpt lat="46.27831" lon="6.49053">
        <ele>1562.8</ele>
        <time>2013-03-03T15:57:48.000Z</time>
      </trkpt>
      <trkpt lat="46.27834" lon="6.49052">
        <ele>1562.5</ele>
        <time>2013-03-03T15:57:49.000Z</time>
      </trkpt>
      <trkpt lat="46.27835" lon="6.49052">
        <ele>1562.4</ele>
        <time>2013-03-03T15:57:50.000Z</time>
      </trkpt>
      <trkpt lat="46.27838" lon="6.49052">
        <ele>1562.3</ele>
        <time>2013-03-03T15:57:51.000Z</time>
      </trkpt>
      <trkpt lat="46.27841" lon="6.49053">
        <ele>1562.3</ele>
        <time>2013-03-03T15:57:52.000Z</time>
      </trkpt>
      <trkpt lat="46.27845" lon="6.49054">
        <ele>1562.2</ele>
        <time>2013-03-03T15:57:53.000Z</time>
      </trkpt>
      <trkpt lat="46.2785" lon="6.49054">
        <ele>1562.2</ele>
        <time>2013-03-03T15:57:54.000Z</time>
      </trkpt>
      <trkpt lat="46.27854" lon="6.49054">
        <ele>1562.2</ele>
        <time>2013-03-03T15:57:55.000Z</time>
      </trkpt>
      <trkpt lat="46.27859" lon="6.49052">
        <ele>1561.9</ele>
        <time>2013-03-03T15:57:56.000Z</time>
      </trkpt>
      <trkpt lat="46.27864" lon="6.49049">
        <ele>1561.2</ele>
        <time>2013-03-03T15:57:57.000Z</time>
      </trkpt>
      <trkpt lat="46.27871" lon="6.49048">
        <ele>1560.8</ele>
        <time>2013-03-03T15:57:58.000Z</time>
      </trkpt>
      <trkpt lat="46.27875" lon="6.49048">
        <ele>1560.4</ele>
        <time>2013-03-03T15:57:59.000Z</time>
      </trkpt>
      <trkpt lat="46.27879" lon="6.49051">
        <ele>1560.1</ele>
        <time>2013-03-03T15:58:49.000Z</time>
      </trkpt>
      <trkpt lat="46.27883" lon="6.49054">
        <ele>1559.3</ele>
        <time>2013-03-03T15:58:50.000Z</time>
      </trkpt>
      <trkpt lat="46.27885" lon="6.49055">
        <ele>1558.2</ele>
        <time>2013-03-03T15:58:54.000Z</time>
      </trkpt>
      <trkpt lat="46.27888" lon="6.49056">
        <ele>1558</ele>
        <time>2013-03-03T15:58:55.000Z</time>
      </trkpt>
      <trkpt lat="46.27891" lon="6.49056">
        <ele>1557.7</ele>
        <time>2013-03-03T15:58:56.000Z</time>
      </trkpt>
      <trkpt lat="46.27893" lon="6.49057">
        <ele>1557.5</ele>
        <time>2013-03-03T15:58:57.000Z</time>
      </trkpt>
      <trkpt lat="46.27896" lon="6.49057">
        <ele>1557.5</ele>
        <time>2013-03-03T15:58:58.000Z</time>
      </trkpt>
      <trkpt lat="46.27898" lon="6.49059">
        <ele>1557.3</ele>
        <time>2013-03-03T15:58:59.000Z</time>
      </trkpt>
      <trkpt lat="46.27901" lon="6.49062">
        <ele>1557</ele>
        <time>2013-03-03T15:59:00.000Z</time>
      </trkpt>
      <trkpt lat="46.27903" lon="6.49065">
        <ele>1556.6</ele>
        <time>2013-03-03T15:59:01.000Z</time>
      </trkpt>
      <trkpt lat="46.27907" lon="6.49068">
        <ele>1556.7</ele>
        <time>2013-03-03T15:59:03.000Z</time>
      </trkpt>
      <trkpt lat="46.27908" lon="6.49069">
        <ele>1556.6</ele>
        <time>2013-03-03T15:59:04.000Z</time>
      </trkpt>
      <trkpt lat="46.2791" lon="6.49071">
        <ele>1556.5</ele>
        <time>2013-03-03T15:59:16.000Z</time>
      </trkpt>
      <trkpt lat="46.27912" lon="6.49072">
        <ele>1556.4</ele>
        <time>2013-03-03T15:59:17.000Z</time>
      </trkpt>
      <trkpt lat="46.27914" lon="6.49073">
        <ele>1556.2</ele>
        <time>2013-03-03T15:59:18.000Z</time>
      </trkpt>
      <trkpt lat="46.27917" lon="6.49075">
        <ele>1556.1</ele>
        <time>2013-03-03T15:59:19.000Z</time>
      </trkpt>
      <trkpt lat="46.2792" lon="6.49078">
        <ele>1555.9</ele>
        <time>2013-03-03T15:59:20.000Z</time>
      </trkpt>
      <trkpt lat="46.27922" lon="6.49078">
        <ele>1555.6</ele>
        <time>2013-03-03T15:59:21.000Z</time>
      </trkpt>
      <trkpt lat="46.27925" lon="6.49079">
        <ele>1551.8</ele>
        <time>2013-03-03T15:59:47.000Z</time>
      </trkpt>
      <trkpt lat="46.27928" lon="6.49079">
        <ele>1551.5</ele>
        <time>2013-03-03T15:59:48.000Z</time>
      </trkpt>
      <trkpt lat="46.2793" lon="6.49077">
        <ele>1551.3</ele>
        <time>2013-03-03T15:59:50.000Z</time>
      </trkpt>
      <trkpt lat="46.27931" lon="6.49075">
        <ele>1551.1</ele>
        <time>2013-03-03T15:59:51.000Z</time>
      </trkpt>
      <trkpt lat="46.27935" lon="6.49072">
        <ele>1551.1</ele>
        <time>2013-03-03T15:59:53.000Z</time>
      </trkpt>
      <trkpt lat="46.27937" lon="6.49071">
        <ele>1550.6</ele>
        <time>2013-03-03T15:59:54.000Z</time>
      </trkpt>
      <trkpt lat="46.27939" lon="6.49069">
        <ele>1550</ele>
        <time>2013-03-03T15:59:55.000Z</time>
      </trkpt>
      <trkpt lat="46.27941" lon="6.49068">
        <ele>1549.7</ele>
        <time>2013-03-03T15:59:56.000Z</time>
      </trkpt>
      <trkpt lat="46.27945" lon="6.49067">
        <ele>1549.5</ele>
        <time>2013-03-03T15:59:57.000Z</time>
      </trkpt>
      <trkpt lat="46.27948" lon="6.49066">
        <ele>1549.2</ele>
        <time>2013-03-03T15:59:58.000Z</time>
      </trkpt>
      <trkpt lat="46.27951" lon="6.49065">
        <ele>1548.8</ele>
        <time>2013-03-03T15:59:59.000Z</time>
      </trkpt>
      <trkpt lat="46.27952" lon="6.49064">
        <ele>1548.1</ele>
        <time>2013-03-03T16:00:00.000Z</time>
      </trkpt>
      <trkpt lat="46.27955" lon="6.49066">
        <ele>1547.6</ele>
        <time>2013-03-03T16:00:43.000Z</time>
      </trkpt>
      <trkpt lat="46.27974" lon="6.49065">
        <ele>1545.7</ele>
        <time>2013-03-03T16:00:44.000Z</time>
      </trkpt>
      <trkpt lat="46.27976" lon="6.49061">
        <ele>1545.1</ele>
        <time>2013-03-03T16:00:47.000Z</time>
      </trkpt>
      <trkpt lat="46.27977" lon="6.49061">
        <ele>1544.7</ele>
        <time>2013-03-03T16:00:48.000Z</time>
      </trkpt>
      <trkpt lat="46.27981" lon="6.49061">
        <ele>1544.1</ele>
        <time>2013-03-03T16:00:50.000Z</time>
      </trkpt>
      <trkpt lat="46.27983" lon="6.49062">
        <ele>1544</ele>
        <time>2013-03-03T16:00:51.000Z</time>
      </trkpt>
      <trkpt lat="46.27986" lon="6.49059">
        <ele>1542.5</ele>
        <time>2013-03-03T16:00:53.000Z</time>
      </trkpt>
      <trkpt lat="46.27987" lon="6.49057">
        <ele>1542.2</ele>
        <time>2013-03-03T16:00:54.000Z</time>
      </trkpt>
      <trkpt lat="46.2799" lon="6.49054">
        <ele>1541.6</ele>
        <time>2013-03-03T16:00:56.000Z</time>
      </trkpt>
      <trkpt lat="46.27992" lon="6.49052">
        <ele>1541.3</ele>
        <time>2013-03-03T16:00:57.000Z</time>
      </trkpt>
      <trkpt lat="46.27994" lon="6.4905">
        <ele>1540.9</ele>
        <time>2013-03-03T16:00:58.000Z</time>
      </trkpt>
      <trkpt lat="46.27996" lon="6.49048">
        <ele>1540.3</ele>
        <time>2013-03-03T16:00:59.000Z</time>
      </trkpt>
      <trkpt lat="46.27999" lon="6.49044">
        <ele>1539.4</ele>
        <time>2013-03-03T16:01:01.000Z</time>
      </trkpt>
      <trkpt lat="46.28" lon="6.49042">
        <ele>1538.9</ele>
        <time>2013-03-03T16:01:02.000Z</time>
      </trkpt>
      <trkpt lat="46.28002" lon="6.4904">
        <ele>1538.6</ele>
        <time>2013-03-03T16:01:03.000Z</time>
      </trkpt>
      <trkpt lat="46.28004" lon="6.49039">
        <ele>1538.2</ele>
        <time>2013-03-03T16:01:04.000Z</time>
      </trkpt>
      <trkpt lat="46.28007" lon="6.49035">
        <ele>1537.4</ele>
        <time>2013-03-03T16:01:06.000Z</time>
      </trkpt>
      <trkpt lat="46.28009" lon="6.49034">
        <ele>1536.9</ele>
        <time>2013-03-03T16:01:07.000Z</time>
      </trkpt>
      <trkpt lat="46.28012" lon="6.49034">
        <ele>1536.1</ele>
        <time>2013-03-03T16:01:09.000Z</time>
      </trkpt>
      <trkpt lat="46.28014" lon="6.49034">
        <ele>1535.4</ele>
        <time>2013-03-03T16:01:10.000Z</time>
      </trkpt>
      <trkpt lat="46.28017" lon="6.49033">
        <ele>1534.9</ele>
        <time>2013-03-03T16:01:12.000Z</time>
      </trkpt>
      <trkpt lat="46.28019" lon="6.49033">
        <ele>1534.6</ele>
        <time>2013-03-03T16:01:13.000Z</time>
      </trkpt>
      <trkpt lat="46.28022" lon="6.49034">
        <ele>1533.7</ele>
        <time>2013-03-03T16:01:24.000Z</time>
      </trkpt>
      <trkpt lat="46.28028" lon="6.49034">
        <ele>1530.8</ele>
        <time>2013-03-03T16:01:25.000Z</time>
      </trkpt>
      <trkpt lat="46.2803" lon="6.49032">
        <ele>1530.6</ele>
        <time>2013-03-03T16:01:26.000Z</time>
      </trkpt>
      <trkpt lat="46.28033" lon="6.49029">
        <ele>1530.1</ele>
        <time>2013-03-03T16:01:27.000Z</time>
      </trkpt>
      <trkpt lat="46.28037" lon="6.49029">
        <ele>1529.2</ele>
        <time>2013-03-03T16:01:29.000Z</time>
      </trkpt>
      <trkpt lat="46.28038" lon="6.49028">
        <ele>1528.8</ele>
        <time>2013-03-03T16:01:30.000Z</time>
      </trkpt>
      <trkpt lat="46.28042" lon="6.49027">
        <ele>1528.2</ele>
        <time>2013-03-03T16:01:32.000Z</time>
      </trkpt>
      <trkpt lat="46.28044" lon="6.49027">
        <ele>1528</ele>
        <time>2013-03-03T16:01:33.000Z</time>
      </trkpt>
      <trkpt lat="46.28048" lon="6.49027">
        <ele>1527.5</ele>
        <time>2013-03-03T16:01:37.000Z</time>
      </trkpt>
      <trkpt lat="46.28052" lon="6.49027">
        <ele>1526.9</ele>
        <time>2013-03-03T16:01:38.000Z</time>
      </trkpt>
      <trkpt lat="46.28055" lon="6.49027">
        <ele>1526.5</ele>
        <time>2013-03-03T16:01:40.000Z</time>
      </trkpt>
      <trkpt lat="46.28058" lon="6.49028">
        <ele>1526.3</ele>
        <time>2013-03-03T16:01:41.000Z</time>
      </trkpt>
      <trkpt lat="46.28061" lon="6.4903">
        <ele>1526</ele>
        <time>2013-03-03T16:02:29.000Z</time>
      </trkpt>
      <trkpt lat="46.28077" lon="6.49035">
        <ele>1523.7</ele>
        <time>2013-03-03T16:02:30.000Z</time>
      </trkpt>
      <trkpt lat="46.28081" lon="6.49031">
        <ele>1520.2</ele>
        <time>2013-03-03T16:02:38.000Z</time>
      </trkpt>
      <trkpt lat="46.28084" lon="6.4903">
        <ele>1520</ele>
        <time>2013-03-03T16:02:39.000Z</time>
      </trkpt>
      <trkpt lat="46.28086" lon="6.49029">
        <ele>1518.4</ele>
        <time>2013-03-03T16:02:40.000Z</time>
      </trkpt>
      <trkpt lat="46.28088" lon="6.49029">
        <ele>1516.5</ele>
        <time>2013-03-03T16:02:41.000Z</time>
      </trkpt>
      <trkpt lat="46.28091" lon="6.49028">
        <ele>1513.4</ele>
        <time>2013-03-03T16:02:51.000Z</time>
      </trkpt>
      <trkpt lat="46.28096" lon="6.49027">
        <ele>1509.5</ele>
        <time>2013-03-03T16:02:52.000Z</time>
      </trkpt>
      <trkpt lat="46.28097" lon="6.49027">
        <ele>1508.3</ele>
        <time>2013-03-03T16:03:27.000Z</time>
      </trkpt>
      <trkpt lat="46.28093" lon="6.49015">
        <ele>1501.1</ele>
        <time>2013-03-03T16:03:28.000Z</time>
      </trkpt>
      <trkpt lat="46.28096" lon="6.49012">
        <ele>1499.4</ele>
        <time>2013-03-03T16:03:30.000Z</time>
      </trkpt>
      <trkpt lat="46.28098" lon="6.49011">
        <ele>1498.6</ele>
        <time>2013-03-03T16:03:31.000Z</time>
      </trkpt>
      <trkpt lat="46.28101" lon="6.49014">
        <ele>1495.6</ele>
        <time>2013-03-03T16:04:39.000Z</time>
      </trkpt>
      <trkpt lat="46.28106" lon="6.49017">
        <ele>1483.7</ele>
        <time>2013-03-03T16:05:00.000Z</time>
      </trkpt>
      <trkpt lat="46.28104" lon="6.49013">
        <ele>1480.3</ele>
        <time>2013-03-03T16:06:02.000Z</time>
      </trkpt>
      <trkpt lat="46.28104" lon="6.4901">
        <ele>1479.6</ele>
        <time>2013-03-03T16:06:03.000Z</time>
      </trkpt>
      <trkpt lat="46.28104" lon="6.49004">
        <ele>1478.7</ele>
        <time>2013-03-03T16:06:05.000Z</time>
      </trkpt>
      <trkpt lat="46.28104" lon="6.49001">
        <ele>1479</ele>
        <time>2013-03-03T16:06:06.000Z</time>
      </trkpt>
      <trkpt lat="46.28108" lon="6.48998">
        <ele>1478.6</ele>
        <time>2013-03-03T16:06:23.000Z</time>
      </trkpt>
      <trkpt lat="46.28108" lon="6.48996">
        <ele>1478</ele>
        <time>2013-03-03T16:06:24.000Z</time>
      </trkpt>
      <trkpt lat="46.28109" lon="6.48991">
        <ele>1477.7</ele>
        <time>2013-03-03T16:06:38.000Z</time>
      </trkpt>
      <trkpt lat="46.28111" lon="6.4899">
        <ele>1477.8</ele>
        <time>2013-03-03T16:06:39.000Z</time>
      </trkpt>
      <trkpt lat="46.28113" lon="6.48988">
        <ele>1477.7</ele>
        <time>2013-03-03T16:06:40.000Z</time>
      </trkpt>
      <trkpt lat="46.28115" lon="6.48985">
        <ele>1477.7</ele>
        <time>2013-03-03T16:06:41.000Z</time>
      </trkpt>
      <trkpt lat="46.28112" lon="6.4898">
        <ele>1476.7</ele>
        <time>2013-03-03T16:06:42.000Z</time>
      </trkpt>
      <trkpt lat="46.28111" lon="6.48977">
        <ele>1476.1</ele>
        <time>2013-03-03T16:06:43.000Z</time>
      </trkpt>
      <trkpt lat="46.2811" lon="6.48973">
        <ele>1475.2</ele>
        <time>2013-03-03T16:07:14.000Z</time>
      </trkpt>
      <trkpt lat="46.28107" lon="6.48971">
        <ele>1471.7</ele>
        <time>2013-03-03T16:07:15.000Z</time>
      </trkpt>
      <trkpt lat="46.2811" lon="6.48967">
        <ele>1471</ele>
        <time>2013-03-03T16:07:17.000Z</time>
      </trkpt>
      <trkpt lat="46.28112" lon="6.48967">
        <ele>1470.4</ele>
        <time>2013-03-03T16:07:18.000Z</time>
      </trkpt>
      <trkpt lat="46.28115" lon="6.48965">
        <ele>1469.4</ele>
        <time>2013-03-03T16:07:21.000Z</time>
      </trkpt>
      <trkpt lat="46.28116" lon="6.48964">
        <ele>1469.5</ele>
        <time>2013-03-03T16:07:22.000Z</time>
      </trkpt>
      <trkpt lat="46.28119" lon="6.48964">
        <ele>1469.5</ele>
        <time>2013-03-03T16:07:23.000Z</time>
      </trkpt>
      <trkpt lat="46.28121" lon="6.48964">
        <ele>1469.3</ele>
        <time>2013-03-03T16:07:24.000Z</time>
      </trkpt>
      <trkpt lat="46.28124" lon="6.48964">
        <ele>1469.2</ele>
        <time>2013-03-03T16:07:25.000Z</time>
      </trkpt>
      <trkpt lat="46.28127" lon="6.48966">
        <ele>1468.7</ele>
        <time>2013-03-03T16:07:26.000Z</time>
      </trkpt>
      <trkpt lat="46.28129" lon="6.48967">
        <ele>1468.2</ele>
        <time>2013-03-03T16:07:54.000Z</time>
      </trkpt>
      <trkpt lat="46.28133" lon="6.48969">
        <ele>1464.6</ele>
        <time>2013-03-03T16:07:55.000Z</time>
      </trkpt>
      <trkpt lat="46.28136" lon="6.48966">
        <ele>1462.5</ele>
        <time>2013-03-03T16:07:57.000Z</time>
      </trkpt>
      <trkpt lat="46.28137" lon="6.48965">
        <ele>1461.8</ele>
        <time>2013-03-03T16:07:58.000Z</time>
      </trkpt>
      <trkpt lat="46.28139" lon="6.48964">
        <ele>1461.4</ele>
        <time>2013-03-03T16:08:11.000Z</time>
      </trkpt>
      <trkpt lat="46.28142" lon="6.48962">
        <ele>1461.2</ele>
        <time>2013-03-03T16:08:12.000Z</time>
      </trkpt>
      <trkpt lat="46.28146" lon="6.48959">
        <ele>1461</ele>
        <time>2013-03-03T16:08:13.000Z</time>
      </trkpt>
      <trkpt lat="46.2815" lon="6.48956">
        <ele>1460.9</ele>
        <time>2013-03-03T16:08:14.000Z</time>
      </trkpt>
      <trkpt lat="46.28154" lon="6.48954">
        <ele>1460.3</ele>
        <time>2013-03-03T16:08:15.000Z</time>
      </trkpt>
      <trkpt lat="46.28161" lon="6.48953">
        <ele>1459.5</ele>
        <time>2013-03-03T16:08:16.000Z</time>
      </trkpt>
      <trkpt lat="46.28166" lon="6.48953">
        <ele>1458.6</ele>
        <time>2013-03-03T16:08:17.000Z</time>
      </trkpt>
      <trkpt lat="46.28168" lon="6.48956">
        <ele>1455.5</ele>
        <time>2013-03-03T16:08:34.000Z</time>
      </trkpt>
      <trkpt lat="46.28171" lon="6.48958">
        <ele>1455</ele>
        <time>2013-03-03T16:08:35.000Z</time>
      </trkpt>
      <trkpt lat="46.28175" lon="6.4896">
        <ele>1454.7</ele>
        <time>2013-03-03T16:08:36.000Z</time>
      </trkpt>
      <trkpt lat="46.28179" lon="6.48961">
        <ele>1454.3</ele>
        <time>2013-03-03T16:08:37.000Z</time>
      </trkpt>
      <trkpt lat="46.28188" lon="6.48963">
        <ele>1453.5</ele>
        <time>2013-03-03T16:08:38.000Z</time>
      </trkpt>
      <trkpt lat="46.28198" lon="6.48966">
        <ele>1452.6</ele>
        <time>2013-03-03T16:08:39.000Z</time>
      </trkpt>
      <trkpt lat="46.28207" lon="6.48972">
        <ele>1450.2</ele>
        <time>2013-03-03T16:08:40.000Z</time>
      </trkpt>
      <trkpt lat="46.28214" lon="6.48977">
        <ele>1448.3</ele>
        <time>2013-03-03T16:08:41.000Z</time>
      </trkpt>
      <trkpt lat="46.28221" lon="6.4898">
        <ele>1446.4</ele>
        <time>2013-03-03T16:08:42.000Z</time>
      </trkpt>
      <trkpt lat="46.28225" lon="6.48981">
        <ele>1444.4</ele>
        <time>2013-03-03T16:08:43.000Z</time>
      </trkpt>
      <trkpt lat="46.28228" lon="6.48982">
        <ele>1442.6</ele>
        <time>2013-03-03T16:08:44.000Z</time>
      </trkpt>
      <trkpt lat="46.28231" lon="6.48982">
        <ele>1441.1</ele>
        <time>2013-03-03T16:08:45.000Z</time>
      </trkpt>
      <trkpt lat="46.28233" lon="6.48983">
        <ele>1439.9</ele>
        <time>2013-03-03T16:08:46.000Z</time>
      </trkpt>
      <trkpt lat="46.28237" lon="6.48986">
        <ele>1436.4</ele>
        <time>2013-03-03T16:09:05.000Z</time>
      </trkpt>
      <trkpt lat="46.28238" lon="6.48986">
        <ele>1435.9</ele>
        <time>2013-03-03T16:09:06.000Z</time>
      </trkpt>
      <trkpt lat="46.2824" lon="6.48987">
        <ele>1435.1</ele>
        <time>2013-03-03T16:09:07.000Z</time>
      </trkpt>
      <trkpt lat="46.28243" lon="6.48988">
        <ele>1434.3</ele>
        <time>2013-03-03T16:09:08.000Z</time>
      </trkpt>
      <trkpt lat="46.28247" lon="6.48989">
        <ele>1433.6</ele>
        <time>2013-03-03T16:09:09.000Z</time>
      </trkpt>
      <trkpt lat="46.28251" lon="6.48991">
        <ele>1432.9</ele>
        <time>2013-03-03T16:09:10.000Z</time>
      </trkpt>
      <trkpt lat="46.28255" lon="6.48993">
        <ele>1432.3</ele>
        <time>2013-03-03T16:09:11.000Z</time>
      </trkpt>
      <trkpt lat="46.2826" lon="6.48994">
        <ele>1431.4</ele>
        <time>2013-03-03T16:09:12.000Z</time>
      </trkpt>
      <trkpt lat="46.28265" lon="6.48996">
        <ele>1430.7</ele>
        <time>2013-03-03T16:09:13.000Z</time>
      </trkpt>
      <trkpt lat="46.2827" lon="6.48996">
        <ele>1429.9</ele>
        <time>2013-03-03T16:09:14.000Z</time>
      </trkpt>
      <trkpt lat="46.28274" lon="6.48995">
        <ele>1429.1</ele>
        <time>2013-03-03T16:09:15.000Z</time>
      </trkpt>
      <trkpt lat="46.28279" lon="6.48995">
        <ele>1428.3</ele>
        <time>2013-03-03T16:09:16.000Z</time>
      </trkpt>
      <trkpt lat="46.28283" lon="6.48994">
        <ele>1427.6</ele>
        <time>2013-03-03T16:09:17.000Z</time>
      </trkpt>
      <trkpt lat="46.28287" lon="6.48994">
        <ele>1426.8</ele>
        <time>2013-03-03T16:09:18.000Z</time>
      </trkpt>
      <trkpt lat="46.28292" lon="6.48994">
        <ele>1426</ele>
        <time>2013-03-03T16:09:19.000Z</time>
      </trkpt>
      <trkpt lat="46.28298" lon="6.48994">
        <ele>1425.1</ele>
        <time>2013-03-03T16:09:20.000Z</time>
      </trkpt>
      <trkpt lat="46.28303" lon="6.48995">
        <ele>1423.5</ele>
        <time>2013-03-03T16:09:21.000Z</time>
      </trkpt>
      <trkpt lat="46.28308" lon="6.48997">
        <ele>1422.6</ele>
        <time>2013-03-03T16:09:22.000Z</time>
      </trkpt>
      <trkpt lat="46.28312" lon="6.48999">
        <ele>1421.6</ele>
        <time>2013-03-03T16:09:23.000Z</time>
      </trkpt>
      <trkpt lat="46.28314" lon="6.48998">
        <ele>1420.9</ele>
        <time>2013-03-03T16:09:24.000Z</time>
      </trkpt>
      <trkpt lat="46.28312" lon="6.48994">
        <ele>1420</ele>
        <time>2013-03-03T16:09:25.000Z</time>
      </trkpt>
      <trkpt lat="46.28311" lon="6.48992">
        <ele>1419.5</ele>
        <time>2013-03-03T16:09:26.000Z</time>
      </trkpt>
      <trkpt lat="46.28313" lon="6.48988">
        <ele>1417.7</ele>
        <time>2013-03-03T16:09:43.000Z</time>
      </trkpt>
      <trkpt lat="46.28317" lon="6.48985">
        <ele>1416.9</ele>
        <time>2013-03-03T16:09:44.000Z</time>
      </trkpt>
      <trkpt lat="46.28322" lon="6.48984">
        <ele>1415.6</ele>
        <time>2013-03-03T16:09:45.000Z</time>
      </trkpt>
      <trkpt lat="46.28328" lon="6.48983">
        <ele>1414</ele>
        <time>2013-03-03T16:09:46.000Z</time>
      </trkpt>
      <trkpt lat="46.28335" lon="6.48982">
        <ele>1412.5</ele>
        <time>2013-03-03T16:09:47.000Z</time>
      </trkpt>
      <trkpt lat="46.28343" lon="6.48982">
        <ele>1410.8</ele>
        <time>2013-03-03T16:09:48.000Z</time>
      </trkpt>
      <trkpt lat="46.28351" lon="6.48981">
        <ele>1409</ele>
        <time>2013-03-03T16:09:49.000Z</time>
      </trkpt>
      <trkpt lat="46.2836" lon="6.4898">
        <ele>1406.5</ele>
        <time>2013-03-03T16:09:50.000Z</time>
      </trkpt>
      <trkpt lat="46.28369" lon="6.48981">
        <ele>1404.3</ele>
        <time>2013-03-03T16:09:51.000Z</time>
      </trkpt>
      <trkpt lat="46.28378" lon="6.48984">
        <ele>1402.9</ele>
        <time>2013-03-03T16:09:52.000Z</time>
      </trkpt>
      <trkpt lat="46.28385" lon="6.48989">
        <ele>1401.5</ele>
        <time>2013-03-03T16:09:53.000Z</time>
      </trkpt>
      <trkpt lat="46.28391" lon="6.48992">
        <ele>1401.1</ele>
        <time>2013-03-03T16:09:54.000Z</time>
      </trkpt>
      <trkpt lat="46.28391" lon="6.48996">
        <ele>1399.5</ele>
        <time>2013-03-03T16:11:52.000Z</time>
      </trkpt>
      <trkpt lat="46.2842" lon="6.48964">
        <ele>1401.2</ele>
        <time>2013-03-03T16:11:53.000Z</time>
      </trkpt>
      <trkpt lat="46.28423" lon="6.48963">
        <ele>1401.5</ele>
        <time>2013-03-03T16:12:49.000Z</time>
      </trkpt>
      <trkpt lat="46.28453" lon="6.48934">
        <ele>1401.3</ele>
        <time>2013-03-03T16:12:50.000Z</time>
      </trkpt>
      <trkpt lat="46.28456" lon="6.48933">
        <ele>1401.4</ele>
        <time>2013-03-03T16:14:25.000Z</time>
      </trkpt>
      <trkpt lat="46.28485" lon="6.48902">
        <ele>1407.2</ele>
        <time>2013-03-03T16:14:26.000Z</time>
      </trkpt>
      <trkpt lat="46.28485" lon="6.489">
        <ele>1408</ele>
        <time>2013-03-03T16:15:37.000Z</time>
      </trkpt>
      <trkpt lat="46.28507" lon="6.48858">
        <ele>1410</ele>
        <time>2013-03-03T16:15:38.000Z</time>
      </trkpt>
      <trkpt lat="46.28509" lon="6.48855">
        <ele>1409.5</ele>
        <time>2013-03-03T16:19:40.000Z</time>
      </trkpt>
      <trkpt lat="46.28497" lon="6.48883">
        <ele>1410</ele>
        <time>2013-03-03T16:19:53.000Z</time>
      </trkpt>
      <trkpt lat="46.28493" lon="6.48888">
        <ele>1411.7</ele>
        <time>2013-03-03T16:19:54.000Z</time>
      </trkpt>
      <trkpt lat="46.28497" lon="6.48888">
        <ele>1409.4</ele>
        <time>2013-03-03T16:20:31.000Z</time>
      </trkpt>
      <trkpt lat="46.28498" lon="6.48888">
        <ele>1410</ele>
        <time>2013-03-03T16:20:32.000Z</time>
      </trkpt>
      <trkpt lat="46.28501" lon="6.4889">
        <ele>1411.2</ele>
        <time>2013-03-03T16:20:55.000Z</time>
      </trkpt>
      <trkpt lat="46.28502" lon="6.48891">
        <ele>1411.2</ele>
        <time>2013-03-03T16:20:56.000Z</time>
      </trkpt>
      <trkpt lat="46.28504" lon="6.48895">
        <ele>1412.2</ele>
        <time>2013-03-03T16:21:09.000Z</time>
      </trkpt>
      <trkpt lat="46.28505" lon="6.48895">
        <ele>1412.3</ele>
        <time>2013-03-03T16:21:10.000Z</time>
      </trkpt>
      <trkpt lat="46.28507" lon="6.48901">
        <ele>1413.2</ele>
        <time>2013-03-03T16:21:18.000Z</time>
      </trkpt>
      <trkpt lat="46.28508" lon="6.48901">
        <ele>1413.4</ele>
        <time>2013-03-03T16:21:19.000Z</time>
      </trkpt>
      <trkpt lat="46.2851" lon="6.48906">
        <ele>1414.1</ele>
        <time>2013-03-03T16:21:28.000Z</time>
      </trkpt>
      <trkpt lat="46.2851" lon="6.48906">
        <ele>1414.1</ele>
        <time>2013-03-03T16:21:29.000Z</time>
      </trkpt>
      <trkpt lat="46.28513" lon="6.4891">
        <ele>1413.6</ele>
        <time>2013-03-03T16:21:34.000Z</time>
      </trkpt>
      <trkpt lat="46.28514" lon="6.48911">
        <ele>1413.5</ele>
        <time>2013-03-03T16:21:35.000Z</time>
      </trkpt>
      <trkpt lat="46.28517" lon="6.48915">
        <ele>1413</ele>
        <time>2013-03-03T16:21:38.000Z</time>
      </trkpt>
      <trkpt lat="46.28518" lon="6.48916">
        <ele>1412.9</ele>
        <time>2013-03-03T16:21:39.000Z</time>
      </trkpt>
      <trkpt lat="46.28522" lon="6.48919">
        <ele>1412.9</ele>
        <time>2013-03-03T16:21:41.000Z</time>
      </trkpt>
      <trkpt lat="46.28523" lon="6.4892">
        <ele>1412.7</ele>
        <time>2013-03-03T16:21:42.000Z</time>
      </trkpt>
      <trkpt lat="46.28526" lon="6.48923">
        <ele>1412.3</ele>
        <time>2013-03-03T16:21:46.000Z</time>
      </trkpt>
      <trkpt lat="46.28527" lon="6.48924">
        <ele>1412.2</ele>
        <time>2013-03-03T16:21:47.000Z</time>
      </trkpt>
      <trkpt lat="46.2853" lon="6.48928">
        <ele>1412.1</ele>
        <time>2013-03-03T16:21:52.000Z</time>
      </trkpt>
      <trkpt lat="46.28531" lon="6.48929">
        <ele>1412</ele>
        <time>2013-03-03T16:21:53.000Z</time>
      </trkpt>
      <trkpt lat="46.28535" lon="6.48931">
        <ele>1412.6</ele>
        <time>2013-03-03T16:22:05.000Z</time>
      </trkpt>
      <trkpt lat="46.28535" lon="6.48931">
        <ele>1412.2</ele>
        <time>2013-03-03T16:22:06.000Z</time>
      </trkpt>
      <trkpt lat="46.28538" lon="6.48936">
        <ele>1412.4</ele>
        <time>2013-03-03T16:22:11.000Z</time>
      </trkpt>
      <trkpt lat="46.28538" lon="6.48936">
        <ele>1412.5</ele>
        <time>2013-03-03T16:22:12.000Z</time>
      </trkpt>
      <trkpt lat="46.28541" lon="6.48941">
        <ele>1413</ele>
        <time>2013-03-03T16:22:17.000Z</time>
      </trkpt>
      <trkpt lat="46.28541" lon="6.48942">
        <ele>1413</ele>
        <time>2013-03-03T16:22:18.000Z</time>
      </trkpt>
      <trkpt lat="46.28543" lon="6.48946">
        <ele>1412.8</ele>
        <time>2013-03-03T16:22:22.000Z</time>
      </trkpt>
      <trkpt lat="46.28544" lon="6.48947">
        <ele>1412.8</ele>
        <time>2013-03-03T16:22:23.000Z</time>
      </trkpt>
      <trkpt lat="46.28547" lon="6.48951">
        <ele>1413.2</ele>
        <time>2013-03-03T16:22:29.000Z</time>
      </trkpt>
      <trkpt lat="46.28547" lon="6.48951">
        <ele>1413.1</ele>
        <time>2013-03-03T16:22:30.000Z</time>
      </trkpt>
      <trkpt lat="46.2855" lon="6.48956">
        <ele>1412</ele>
        <time>2013-03-03T16:22:39.000Z</time>
      </trkpt>
      <trkpt lat="46.28551" lon="6.48956">
        <ele>1412</ele>
        <time>2013-03-03T16:22:40.000Z</time>
      </trkpt>
      <trkpt lat="46.28554" lon="6.4896">
        <ele>1412.2</ele>
        <time>2013-03-03T16:22:59.000Z</time>
      </trkpt>
      <trkpt lat="46.28555" lon="6.4896">
        <ele>1412.2</ele>
        <time>2013-03-03T16:23:00.000Z</time>
      </trkpt>
      <trkpt lat="46.28558" lon="6.48963">
        <ele>1411.7</ele>
        <time>2013-03-03T16:23:05.000Z</time>
      </trkpt>
      <trkpt lat="46.28559" lon="6.48964">
        <ele>1411.8</ele>
        <time>2013-03-03T16:23:06.000Z</time>
      </trkpt>
      <trkpt lat="46.28562" lon="6.48968">
        <ele>1412</ele>
        <time>2013-03-03T16:23:11.000Z</time>
      </trkpt>
      <trkpt lat="46.28562" lon="6.48969">
        <ele>1412</ele>
        <time>2013-03-03T16:23:12.000Z</time>
      </trkpt>
      <trkpt lat="46.28565" lon="6.48974">
        <ele>1412.4</ele>
        <time>2013-03-03T16:23:18.000Z</time>
      </trkpt>
      <trkpt lat="46.28566" lon="6.48975">
        <ele>1412.5</ele>
        <time>2013-03-03T16:23:19.000Z</time>
      </trkpt>
      <trkpt lat="46.28568" lon="6.48979">
        <ele>1412.9</ele>
        <time>2013-03-03T16:23:25.000Z</time>
      </trkpt>
      <trkpt lat="46.28569" lon="6.4898">
        <ele>1413</ele>
        <time>2013-03-03T16:23:26.000Z</time>
      </trkpt>
      <trkpt lat="46.28572" lon="6.48984">
        <ele>1413.3</ele>
        <time>2013-03-03T16:23:32.000Z</time>
      </trkpt>
      <trkpt lat="46.28572" lon="6.48985">
        <ele>1413.5</ele>
        <time>2013-03-03T16:23:33.000Z</time>
      </trkpt>
      <trkpt lat="46.28575" lon="6.4899">
        <ele>1414.4</ele>
        <time>2013-03-03T16:23:40.000Z</time>
      </trkpt>
      <trkpt lat="46.28576" lon="6.4899">
        <ele>1414.3</ele>
        <time>2013-03-03T16:23:41.000Z</time>
      </trkpt>
      <trkpt lat="46.28578" lon="6.48995">
        <ele>1414.7</ele>
        <time>2013-03-03T16:23:47.000Z</time>
      </trkpt>
      <trkpt lat="46.28579" lon="6.48996">
        <ele>1414.8</ele>
        <time>2013-03-03T16:23:48.000Z</time>
      </trkpt>
      <trkpt lat="46.28581" lon="6.49">
        <ele>1414.3</ele>
        <time>2013-03-03T16:23:53.000Z</time>
      </trkpt>
      <trkpt lat="46.28582" lon="6.49001">
        <ele>1414.2</ele>
        <time>2013-03-03T16:23:54.000Z</time>
      </trkpt>
      <trkpt lat="46.28586" lon="6.49003">
        <ele>1413.6</ele>
        <time>2013-03-03T16:23:58.000Z</time>
      </trkpt>
      <trkpt lat="46.28587" lon="6.49005">
        <ele>1413.3</ele>
        <time>2013-03-03T16:23:59.000Z</time>
      </trkpt>
      <trkpt lat="46.2859" lon="6.49008">
        <ele>1412.9</ele>
        <time>2013-03-03T16:24:01.000Z</time>
      </trkpt>
      <trkpt lat="46.28592" lon="6.49009">
        <ele>1412.8</ele>
        <time>2013-03-03T16:24:02.000Z</time>
      </trkpt>
      <trkpt lat="46.28596" lon="6.49011">
        <ele>1412.5</ele>
        <time>2013-03-03T16:24:09.000Z</time>
      </trkpt>
      <trkpt lat="46.28597" lon="6.49012">
        <ele>1412.3</ele>
        <time>2013-03-03T16:24:10.000Z</time>
      </trkpt>
      <trkpt lat="46.286" lon="6.49014">
        <ele>1412.3</ele>
        <time>2013-03-03T16:24:12.000Z</time>
      </trkpt>
      <trkpt lat="46.28602" lon="6.49014">
        <ele>1412.3</ele>
        <time>2013-03-03T16:24:13.000Z</time>
      </trkpt>
      <trkpt lat="46.28605" lon="6.49016">
        <ele>1412.7</ele>
        <time>2013-03-03T16:24:17.000Z</time>
      </trkpt>
      <trkpt lat="46.28606" lon="6.49017">
        <ele>1412.4</ele>
        <time>2013-03-03T16:24:18.000Z</time>
      </trkpt>
      <trkpt lat="46.28609" lon="6.4902">
        <ele>1412.2</ele>
        <time>2013-03-03T16:24:21.000Z</time>
      </trkpt>
      <trkpt lat="46.2861" lon="6.49021">
        <ele>1412.1</ele>
        <time>2013-03-03T16:24:22.000Z</time>
      </trkpt>
      <trkpt lat="46.28613" lon="6.49025">
        <ele>1411.9</ele>
        <time>2013-03-03T16:24:27.000Z</time>
      </trkpt>
      <trkpt lat="46.28614" lon="6.49025">
        <ele>1411.9</ele>
        <time>2013-03-03T16:24:28.000Z</time>
      </trkpt>
      <trkpt lat="46.28617" lon="6.49029">
        <ele>1412.8</ele>
        <time>2013-03-03T16:24:34.000Z</time>
      </trkpt>
      <trkpt lat="46.28618" lon="6.49029">
        <ele>1413</ele>
        <time>2013-03-03T16:24:35.000Z</time>
      </trkpt>
      <trkpt lat="46.28621" lon="6.49034">
        <ele>1413.3</ele>
        <time>2013-03-03T16:24:41.000Z</time>
      </trkpt>
      <trkpt lat="46.28621" lon="6.49035">
        <ele>1413.3</ele>
        <time>2013-03-03T16:24:42.000Z</time>
      </trkpt>
      <trkpt lat="46.28623" lon="6.4904">
        <ele>1413.4</ele>
        <time>2013-03-03T16:24:47.000Z</time>
      </trkpt>
      <trkpt lat="46.28623" lon="6.49041">
        <ele>1413.5</ele>
        <time>2013-03-03T16:24:48.000Z</time>
      </trkpt>
      <trkpt lat="46.28623" lon="6.49047">
        <ele>1413.4</ele>
        <time>2013-03-03T16:24:54.000Z</time>
      </trkpt>
      <trkpt lat="46.28623" lon="6.49048">
        <ele>1413.2</ele>
        <time>2013-03-03T16:24:55.000Z</time>
      </trkpt>
      <trkpt lat="46.28623" lon="6.49054">
        <ele>1413.2</ele>
        <time>2013-03-03T16:25:02.000Z</time>
      </trkpt>
      <trkpt lat="46.28622" lon="6.49054">
        <ele>1413.1</ele>
        <time>2013-03-03T16:25:03.000Z</time>
      </trkpt>
      <trkpt lat="46.28621" lon="6.49059">
        <ele>1412.7</ele>
        <time>2013-03-03T16:25:06.000Z</time>
      </trkpt>
      <trkpt lat="46.2862" lon="6.4906">
        <ele>1412.5</ele>
        <time>2013-03-03T16:25:07.000Z</time>
      </trkpt>
      <trkpt lat="46.28619" lon="6.49064">
        <ele>1412.3</ele>
        <time>2013-03-03T16:25:09.000Z</time>
      </trkpt>
      <trkpt lat="46.28618" lon="6.49067">
        <ele>1412.2</ele>
        <time>2013-03-03T16:25:10.000Z</time>
      </trkpt>
      <trkpt lat="46.28617" lon="6.49073">
        <ele>1412.4</ele>
        <time>2013-03-03T16:25:13.000Z</time>
      </trkpt>
      <trkpt lat="46.28617" lon="6.49075">
        <ele>1412.4</ele>
        <time>2013-03-03T16:25:14.000Z</time>
      </trkpt>
      <trkpt lat="46.28616" lon="6.4908">
        <ele>1411.9</ele>
        <time>2013-03-03T16:25:17.000Z</time>
      </trkpt>
      <trkpt lat="46.28616" lon="6.49082">
        <ele>1411.7</ele>
        <time>2013-03-03T16:25:18.000Z</time>
      </trkpt>
      <trkpt lat="46.28615" lon="6.49089">
        <ele>1411.1</ele>
        <time>2013-03-03T16:25:21.000Z</time>
      </trkpt>
      <trkpt lat="46.28614" lon="6.49091">
        <ele>1410.9</ele>
        <time>2013-03-03T16:25:22.000Z</time>
      </trkpt>
      <trkpt lat="46.28613" lon="6.49097">
        <ele>1410.6</ele>
        <time>2013-03-03T16:25:24.000Z</time>
      </trkpt>
      <trkpt lat="46.28613" lon="6.491">
        <ele>1410.6</ele>
        <time>2013-03-03T16:25:25.000Z</time>
      </trkpt>
      <trkpt lat="46.28612" lon="6.49103">
        <ele>1410.4</ele>
        <time>2013-03-03T16:25:26.000Z</time>
      </trkpt>
      <trkpt lat="46.28611" lon="6.49106">
        <ele>1409.9</ele>
        <time>2013-03-03T16:25:27.000Z</time>
      </trkpt>
      <trkpt lat="46.2861" lon="6.49112">
        <ele>1409.7</ele>
        <time>2013-03-03T16:25:29.000Z</time>
      </trkpt>
      <trkpt lat="46.28609" lon="6.49114">
        <ele>1409.6</ele>
        <time>2013-03-03T16:25:30.000Z</time>
      </trkpt>
      <trkpt lat="46.28608" lon="6.4912">
        <ele>1409.2</ele>
        <time>2013-03-03T16:25:32.000Z</time>
      </trkpt>
      <trkpt lat="46.28608" lon="6.49122">
        <ele>1409.3</ele>
        <time>2013-03-03T16:25:33.000Z</time>
      </trkpt>
      <trkpt lat="46.28606" lon="6.49127">
        <ele>1409.9</ele>
        <time>2013-03-03T16:25:36.000Z</time>
      </trkpt>
      <trkpt lat="46.28606" lon="6.49129">
        <ele>1410.1</ele>
        <time>2013-03-03T16:25:37.000Z</time>
      </trkpt>
      <trkpt lat="46.28605" lon="6.49135">
        <ele>1411.6</ele>
        <time>2013-03-03T16:25:42.000Z</time>
      </trkpt>
      <trkpt lat="46.28605" lon="6.49136">
        <ele>1411.8</ele>
        <time>2013-03-03T16:25:43.000Z</time>
      </trkpt>
      <trkpt lat="46.28604" lon="6.49142">
        <ele>1412.6</ele>
        <time>2013-03-03T16:25:48.000Z</time>
      </trkpt>
      <trkpt lat="46.28604" lon="6.49143">
        <ele>1412.7</ele>
        <time>2013-03-03T16:25:49.000Z</time>
      </trkpt>
      <trkpt lat="46.28603" lon="6.49148">
        <ele>1413.2</ele>
        <time>2013-03-03T16:25:54.000Z</time>
      </trkpt>
      <trkpt lat="46.28603" lon="6.49149">
        <ele>1413.1</ele>
        <time>2013-03-03T16:25:55.000Z</time>
      </trkpt>
      <trkpt lat="46.28604" lon="6.49156">
        <ele>1412.7</ele>
        <time>2013-03-03T16:26:01.000Z</time>
      </trkpt>
      <trkpt lat="46.28605" lon="6.49157">
        <ele>1412.6</ele>
        <time>2013-03-03T16:26:02.000Z</time>
      </trkpt>
      <trkpt lat="46.28608" lon="6.49159">
        <ele>1411.6</ele>
        <time>2013-03-03T16:26:06.000Z</time>
      </trkpt>
      <trkpt lat="46.28609" lon="6.4916">
        <ele>1411.5</ele>
        <time>2013-03-03T16:26:07.000Z</time>
      </trkpt>
      <trkpt lat="46.28612" lon="6.49163">
        <ele>1411.5</ele>
        <time>2013-03-03T16:26:13.000Z</time>
      </trkpt>
      <trkpt lat="46.28613" lon="6.49164">
        <ele>1411.8</ele>
        <time>2013-03-03T16:26:14.000Z</time>
      </trkpt>
      <trkpt lat="46.28616" lon="6.49167">
        <ele>1412.2</ele>
        <time>2013-03-03T16:26:20.000Z</time>
      </trkpt>
      <trkpt lat="46.28616" lon="6.49167">
        <ele>1412.2</ele>
        <time>2013-03-03T16:26:21.000Z</time>
      </trkpt>
      <trkpt lat="46.28619" lon="6.49172">
        <ele>1411.9</ele>
        <time>2013-03-03T16:26:26.000Z</time>
      </trkpt>
      <trkpt lat="46.28619" lon="6.49173">
        <ele>1411.8</ele>
        <time>2013-03-03T16:26:27.000Z</time>
      </trkpt>
      <trkpt lat="46.28619" lon="6.49179">
        <ele>1411.5</ele>
        <time>2013-03-03T16:26:54.000Z</time>
      </trkpt>
      <trkpt lat="46.28618" lon="6.49181">
        <ele>1412</ele>
        <time>2013-03-03T16:26:55.000Z</time>
      </trkpt>
      <trkpt lat="46.2862" lon="6.49187">
        <ele>1411.9</ele>
        <time>2013-03-03T16:27:00.000Z</time>
      </trkpt>
      <trkpt lat="46.2862" lon="6.49189">
        <ele>1412.2</ele>
        <time>2013-03-03T16:27:01.000Z</time>
      </trkpt>
      <trkpt lat="46.28622" lon="6.49193">
        <ele>1412.6</ele>
        <time>2013-03-03T16:27:04.000Z</time>
      </trkpt>
      <trkpt lat="46.28623" lon="6.49195">
        <ele>1412.5</ele>
        <time>2013-03-03T16:27:05.000Z</time>
      </trkpt>
      <trkpt lat="46.28625" lon="6.49198">
        <ele>1412.7</ele>
        <time>2013-03-03T16:27:07.000Z</time>
      </trkpt>
      <trkpt lat="46.28626" lon="6.49199">
        <ele>1412.6</ele>
        <time>2013-03-03T16:27:08.000Z</time>
      </trkpt>
      <trkpt lat="46.28629" lon="6.49203">
        <ele>1413</ele>
        <time>2013-03-03T16:27:11.000Z</time>
      </trkpt>
      <trkpt lat="46.2863" lon="6.49204">
        <ele>1413.1</ele>
        <time>2013-03-03T16:27:12.000Z</time>
      </trkpt>
      <trkpt lat="46.28632" lon="6.49206">
        <ele>1413.1</ele>
        <time>2013-03-03T16:27:14.000Z</time>
      </trkpt>
      <trkpt lat="46.28633" lon="6.49208">
        <ele>1413</ele>
        <time>2013-03-03T16:27:15.000Z</time>
      </trkpt>
      <trkpt lat="46.28636" lon="6.4921">
        <ele>1413</ele>
        <time>2013-03-03T16:27:17.000Z</time>
      </trkpt>
      <trkpt lat="46.28638" lon="6.49212">
        <ele>1412.9</ele>
        <time>2013-03-03T16:27:18.000Z</time>
      </trkpt>
      <trkpt lat="46.28639" lon="6.49213">
        <ele>1412.7</ele>
        <time>2013-03-03T16:27:19.000Z</time>
      </trkpt>
      <trkpt lat="46.28641" lon="6.49215">
        <ele>1412.7</ele>
        <time>2013-03-03T16:27:20.000Z</time>
      </trkpt>
      <trkpt lat="46.28643" lon="6.49217">
        <ele>1412.8</ele>
        <time>2013-03-03T16:27:21.000Z</time>
      </trkpt>
      <trkpt lat="46.28645" lon="6.49219">
        <ele>1412.7</ele>
        <time>2013-03-03T16:27:22.000Z</time>
      </trkpt>
      <trkpt lat="46.28648" lon="6.49222">
        <ele>1412.7</ele>
        <time>2013-03-03T16:27:23.000Z</time>
      </trkpt>
      <trkpt lat="46.2865" lon="6.49224">
        <ele>1412.6</ele>
        <time>2013-03-03T16:27:24.000Z</time>
      </trkpt>
      <trkpt lat="46.28652" lon="6.49226">
        <ele>1412.7</ele>
        <time>2013-03-03T16:27:25.000Z</time>
      </trkpt>
      <trkpt lat="46.28654" lon="6.49228">
        <ele>1412.7</ele>
        <time>2013-03-03T16:27:26.000Z</time>
      </trkpt>
      <trkpt lat="46.28657" lon="6.49231">
        <ele>1412.8</ele>
        <time>2013-03-03T16:27:27.000Z</time>
      </trkpt>
      <trkpt lat="46.28659" lon="6.49233">
        <ele>1412.8</ele>
        <time>2013-03-03T16:27:28.000Z</time>
      </trkpt>
      <trkpt lat="46.28661" lon="6.49235">
        <ele>1412.7</ele>
        <time>2013-03-03T16:27:29.000Z</time>
      </trkpt>
      <trkpt lat="46.28664" lon="6.49238">
        <ele>1412.7</ele>
        <time>2013-03-03T16:27:30.000Z</time>
      </trkpt>
      <trkpt lat="46.28666" lon="6.4924">
        <ele>1412.6</ele>
        <time>2013-03-03T16:27:31.000Z</time>
      </trkpt>
      <trkpt lat="46.28668" lon="6.49242">
        <ele>1412.6</ele>
        <time>2013-03-03T16:27:32.000Z</time>
      </trkpt>
      <trkpt lat="46.2867" lon="6.49244">
        <ele>1412.6</ele>
        <time>2013-03-03T16:27:33.000Z</time>
      </trkpt>
      <trkpt lat="46.28672" lon="6.49247">
        <ele>1412.7</ele>
        <time>2013-03-03T16:27:34.000Z</time>
      </trkpt>
      <trkpt lat="46.28674" lon="6.49249">
        <ele>1412.8</ele>
        <time>2013-03-03T16:27:35.000Z</time>
      </trkpt>
      <trkpt lat="46.28677" lon="6.49251">
        <ele>1413.1</ele>
        <time>2013-03-03T16:27:36.000Z</time>
      </trkpt>
      <trkpt lat="46.28679" lon="6.49253">
        <ele>1413.2</ele>
        <time>2013-03-03T16:27:37.000Z</time>
      </trkpt>
      <trkpt lat="46.28681" lon="6.49255">
        <ele>1413.1</ele>
        <time>2013-03-03T16:27:38.000Z</time>
      </trkpt>
      <trkpt lat="46.28683" lon="6.49257">
        <ele>1413</ele>
        <time>2013-03-03T16:27:39.000Z</time>
      </trkpt>
      <trkpt lat="46.28685" lon="6.4926">
        <ele>1412.9</ele>
        <time>2013-03-03T16:27:40.000Z</time>
      </trkpt>
      <trkpt lat="46.28687" lon="6.49262">
        <ele>1412.7</ele>
        <time>2013-03-03T16:27:41.000Z</time>
      </trkpt>
      <trkpt lat="46.28706" lon="6.4928">
        <ele>1411.5</ele>
        <time>2013-03-03T16:27:49.000Z</time>
      </trkpt>
      <trkpt lat="46.28709" lon="6.49283">
        <ele>1411.3</ele>
        <time>2013-03-03T16:27:51.000Z</time>
      </trkpt>
      <trkpt lat="46.28711" lon="6.49284">
        <ele>1411.2</ele>
        <time>2013-03-03T16:27:52.000Z</time>
      </trkpt>
      <trkpt lat="46.28714" lon="6.49288">
        <ele>1411</ele>
        <time>2013-03-03T16:27:54.000Z</time>
      </trkpt>
      <trkpt lat="46.28715" lon="6.4929">
        <ele>1411.1</ele>
        <time>2013-03-03T16:27:55.000Z</time>
      </trkpt>
      <trkpt lat="46.28718" lon="6.49293">
        <ele>1410.5</ele>
        <time>2013-03-03T16:27:57.000Z</time>
      </trkpt>
      <trkpt lat="46.2872" lon="6.49295">
        <ele>1410.4</ele>
        <time>2013-03-03T16:27:58.000Z</time>
      </trkpt>
      <trkpt lat="46.28723" lon="6.49298">
        <ele>1410.5</ele>
        <time>2013-03-03T16:28:00.000Z</time>
      </trkpt>
      <trkpt lat="46.28725" lon="6.493">
        <ele>1410.6</ele>
        <time>2013-03-03T16:28:01.000Z</time>
      </trkpt>
      <trkpt lat="46.28728" lon="6.49304">
        <ele>1410.6</ele>
        <time>2013-03-03T16:28:03.000Z</time>
      </trkpt>
      <trkpt lat="46.2873" lon="6.49306">
        <ele>1410.6</ele>
        <time>2013-03-03T16:28:04.000Z</time>
      </trkpt>
      <trkpt lat="46.28731" lon="6.49308">
        <ele>1410.5</ele>
        <time>2013-03-03T16:28:05.000Z</time>
      </trkpt>
      <trkpt lat="46.28733" lon="6.4931">
        <ele>1410.3</ele>
        <time>2013-03-03T16:28:06.000Z</time>
      </trkpt>
      <trkpt lat="46.28735" lon="6.49312">
        <ele>1410.2</ele>
        <time>2013-03-03T16:28:07.000Z</time>
      </trkpt>
      <trkpt lat="46.28738" lon="6.49314">
        <ele>1410.1</ele>
        <time>2013-03-03T16:28:08.000Z</time>
      </trkpt>
      <trkpt lat="46.2874" lon="6.49317">
        <ele>1409.8</ele>
        <time>2013-03-03T16:28:09.000Z</time>
      </trkpt>
      <trkpt lat="46.28743" lon="6.49319">
        <ele>1409.7</ele>
        <time>2013-03-03T16:28:10.000Z</time>
      </trkpt>
      <trkpt lat="46.28746" lon="6.49322">
        <ele>1409.4</ele>
        <time>2013-03-03T16:28:11.000Z</time>
      </trkpt>
      <trkpt lat="46.28749" lon="6.49325">
        <ele>1409.1</ele>
        <time>2013-03-03T16:28:12.000Z</time>
      </trkpt>
      <trkpt lat="46.28752" lon="6.49328">
        <ele>1408.8</ele>
        <time>2013-03-03T16:28:13.000Z</time>
      </trkpt>
      <trkpt lat="46.28755" lon="6.49332">
        <ele>1408.6</ele>
        <time>2013-03-03T16:28:14.000Z</time>
      </trkpt>
      <trkpt lat="46.28758" lon="6.49336">
        <ele>1408.2</ele>
        <time>2013-03-03T16:28:15.000Z</time>
      </trkpt>
      <trkpt lat="46.28762" lon="6.4934">
        <ele>1407.9</ele>
        <time>2013-03-03T16:28:16.000Z</time>
      </trkpt>
      <trkpt lat="46.28765" lon="6.49344">
        <ele>1407.5</ele>
        <time>2013-03-03T16:28:17.000Z</time>
      </trkpt>
      <trkpt lat="46.28768" lon="6.49349">
        <ele>1407.1</ele>
        <time>2013-03-03T16:28:18.000Z</time>
      </trkpt>
      <trkpt lat="46.28771" lon="6.49354">
        <ele>1406.7</ele>
        <time>2013-03-03T16:28:19.000Z</time>
      </trkpt>
      <trkpt lat="46.28775" lon="6.4936">
        <ele>1406.4</ele>
        <time>2013-03-03T16:28:20.000Z</time>
      </trkpt>
      <trkpt lat="46.28778" lon="6.49365">
        <ele>1406.2</ele>
        <time>2013-03-03T16:28:21.000Z</time>
      </trkpt>
      <trkpt lat="46.28782" lon="6.49371">
        <ele>1406</ele>
        <time>2013-03-03T16:28:22.000Z</time>
      </trkpt>
      <trkpt lat="46.28786" lon="6.49378">
        <ele>1405.7</ele>
        <time>2013-03-03T16:28:23.000Z</time>
      </trkpt>
      <trkpt lat="46.2879" lon="6.49384">
        <ele>1405.4</ele>
        <time>2013-03-03T16:28:24.000Z</time>
      </trkpt>
      <trkpt lat="46.28794" lon="6.4939">
        <ele>1405.1</ele>
        <time>2013-03-03T16:28:25.000Z</time>
      </trkpt>
      <trkpt lat="46.28799" lon="6.49396">
        <ele>1405</ele>
        <time>2013-03-03T16:28:26.000Z</time>
      </trkpt>
      <trkpt lat="46.28803" lon="6.49403">
        <ele>1405</ele>
        <time>2013-03-03T16:28:27.000Z</time>
      </trkpt>
      <trkpt lat="46.28806" lon="6.49409">
        <ele>1404.9</ele>
        <time>2013-03-03T16:28:28.000Z</time>
      </trkpt>
      <trkpt lat="46.28808" lon="6.49416">
        <ele>1404.6</ele>
        <time>2013-03-03T16:28:29.000Z</time>
      </trkpt>
      <trkpt lat="46.28811" lon="6.49421">
        <ele>1404</ele>
        <time>2013-03-03T16:28:30.000Z</time>
      </trkpt>
      <trkpt lat="46.28813" lon="6.49422">
        <ele>1403.1</ele>
        <time>2013-03-03T16:28:31.000Z</time>
      </trkpt>
      <trkpt lat="46.28814" lon="6.49428">
        <ele>1401.1</ele>
        <time>2013-03-03T16:29:04.000Z</time>
      </trkpt>
      <trkpt lat="46.28815" lon="6.49432">
        <ele>1401.2</ele>
        <time>2013-03-03T16:29:05.000Z</time>
      </trkpt>
      <trkpt lat="46.28817" lon="6.49438">
        <ele>1401.4</ele>
        <time>2013-03-03T16:29:06.000Z</time>
      </trkpt>
      <trkpt lat="46.28819" lon="6.49445">
        <ele>1401.6</ele>
        <time>2013-03-03T16:29:07.000Z</time>
      </trkpt>
      <trkpt lat="46.28821" lon="6.49452">
        <ele>1401.8</ele>
        <time>2013-03-03T16:29:08.000Z</time>
      </trkpt>
      <trkpt lat="46.28824" lon="6.49459">
        <ele>1401.8</ele>
        <time>2013-03-03T16:29:09.000Z</time>
      </trkpt>
      <trkpt lat="46.28826" lon="6.49465">
        <ele>1401.9</ele>
        <time>2013-03-03T16:29:10.000Z</time>
      </trkpt>
      <trkpt lat="46.28829" lon="6.4947">
        <ele>1401.9</ele>
        <time>2013-03-03T16:29:11.000Z</time>
      </trkpt>
      <trkpt lat="46.2883" lon="6.49469">
        <ele>1401.7</ele>
        <time>2013-03-03T16:29:12.000Z</time>
      </trkpt>
      <trkpt lat="46.28829" lon="6.49464">
        <ele>1401.7</ele>
        <time>2013-03-03T16:29:19.000Z</time>
      </trkpt>
      <trkpt lat="46.28831" lon="6.49461">
        <ele>1402.2</ele>
        <time>2013-03-03T16:29:20.000Z</time>
      </trkpt>
      <trkpt lat="46.28833" lon="6.49461">
        <ele>1401.9</ele>
        <time>2013-03-03T16:29:21.000Z</time>
      </trkpt>
      <trkpt lat="46.28836" lon="6.49461">
        <ele>1401.4</ele>
        <time>2013-03-03T16:29:22.000Z</time>
      </trkpt>
      <trkpt lat="46.28839" lon="6.49459">
        <ele>1401.2</ele>
        <time>2013-03-03T16:29:23.000Z</time>
      </trkpt>
      <trkpt lat="46.28843" lon="6.49459">
        <ele>1401.1</ele>
        <time>2013-03-03T16:29:24.000Z</time>
      </trkpt>
      <trkpt lat="46.28847" lon="6.49456">
        <ele>1401.5</ele>
        <time>2013-03-03T16:29:33.000Z</time>
      </trkpt>
      <trkpt lat="46.2885" lon="6.49454">
        <ele>1399.4</ele>
        <time>2013-03-03T16:29:34.000Z</time>
      </trkpt>
      <trkpt lat="46.28852" lon="6.49451">
        <ele>1398.6</ele>
        <time>2013-03-03T16:29:35.000Z</time>
      </trkpt>
      <trkpt lat="46.28855" lon="6.49449">
        <ele>1398.2</ele>
        <time>2013-03-03T16:29:36.000Z</time>
      </trkpt>
      <trkpt lat="46.28858" lon="6.4945">
        <ele>1397.7</ele>
        <time>2013-03-03T16:29:37.000Z</time>
      </trkpt>
      <trkpt lat="46.28862" lon="6.49454">
        <ele>1397.3</ele>
        <time>2013-03-03T16:29:38.000Z</time>
      </trkpt>
      <trkpt lat="46.28862" lon="6.4946">
        <ele>1395.4</ele>
        <time>2013-03-03T16:29:53.000Z</time>
      </trkpt>
      <trkpt lat="46.28863" lon="6.49464">
        <ele>1393.8</ele>
        <time>2013-03-03T16:29:54.000Z</time>
      </trkpt>
      <trkpt lat="46.28867" lon="6.49461">
        <ele>1392.4</ele>
        <time>2013-03-03T16:29:57.000Z</time>
      </trkpt>
      <trkpt lat="46.28867" lon="6.4946">
        <ele>1392.2</ele>
        <time>2013-03-03T16:29:58.000Z</time>
      </trkpt>
      <trkpt lat="46.28871" lon="6.49456">
        <ele>1391.8</ele>
        <time>2013-03-03T16:30:07.000Z</time>
      </trkpt>
      <trkpt lat="46.28873" lon="6.49456">
        <ele>1391.8</ele>
        <time>2013-03-03T16:30:08.000Z</time>
      </trkpt>
      <trkpt lat="46.28876" lon="6.49457">
        <ele>1391.9</ele>
        <time>2013-03-03T16:30:09.000Z</time>
      </trkpt>
      <trkpt lat="46.2888" lon="6.49459">
        <ele>1391.9</ele>
        <time>2013-03-03T16:30:10.000Z</time>
      </trkpt>
      <trkpt lat="46.28884" lon="6.49462">
        <ele>1391.6</ele>
        <time>2013-03-03T16:30:11.000Z</time>
      </trkpt>
      <trkpt lat="46.28888" lon="6.49466">
        <ele>1391.6</ele>
        <time>2013-03-03T16:30:12.000Z</time>
      </trkpt>
      <trkpt lat="46.28892" lon="6.49469">
        <ele>1391.5</ele>
        <time>2013-03-03T16:30:13.000Z</time>
      </trkpt>
      <trkpt lat="46.28897" lon="6.49473">
        <ele>1391.5</ele>
        <time>2013-03-03T16:30:14.000Z</time>
      </trkpt>
      <trkpt lat="46.289" lon="6.49477">
        <ele>1391.5</ele>
        <time>2013-03-03T16:30:15.000Z</time>
      </trkpt>
      <trkpt lat="46.28903" lon="6.49482">
        <ele>1391.1</ele>
        <time>2013-03-03T16:30:16.000Z</time>
      </trkpt>
      <trkpt lat="46.28907" lon="6.49487">
        <ele>1390.7</ele>
        <time>2013-03-03T16:30:17.000Z</time>
      </trkpt>
      <trkpt lat="46.28911" lon="6.49491">
        <ele>1390.5</ele>
        <time>2013-03-03T16:30:18.000Z</time>
      </trkpt>
      <trkpt lat="46.28916" lon="6.49495">
        <ele>1390.2</ele>
        <time>2013-03-03T16:30:19.000Z</time>
      </trkpt>
      <trkpt lat="46.2892" lon="6.495">
        <ele>1389.9</ele>
        <time>2013-03-03T16:30:20.000Z</time>
      </trkpt>
      <trkpt lat="46.28923" lon="6.49505">
        <ele>1389.5</ele>
        <time>2013-03-03T16:30:21.000Z</time>
      </trkpt>
      <trkpt lat="46.28926" lon="6.4951">
        <ele>1388.9</ele>
        <time>2013-03-03T16:30:22.000Z</time>
      </trkpt>
      <trkpt lat="46.2893" lon="6.49514">
        <ele>1388.7</ele>
        <time>2013-03-03T16:30:23.000Z</time>
      </trkpt>
      <trkpt lat="46.28934" lon="6.49517">
        <ele>1388.9</ele>
        <time>2013-03-03T16:30:24.000Z</time>
      </trkpt>
      <trkpt lat="46.28937" lon="6.49521">
        <ele>1388.9</ele>
        <time>2013-03-03T16:30:25.000Z</time>
      </trkpt>
      <trkpt lat="46.2894" lon="6.49524">
        <ele>1389</ele>
        <time>2013-03-03T16:30:26.000Z</time>
      </trkpt>
      <trkpt lat="46.28942" lon="6.4953">
        <ele>1389</ele>
        <time>2013-03-03T16:30:27.000Z</time>
      </trkpt>
      <trkpt lat="46.28944" lon="6.49536">
        <ele>1388.9</ele>
        <time>2013-03-03T16:30:28.000Z</time>
      </trkpt>
      <trkpt lat="46.28945" lon="6.49542">
        <ele>1389</ele>
        <time>2013-03-03T16:30:29.000Z</time>
      </trkpt>
      <trkpt lat="46.28947" lon="6.49548">
        <ele>1389.4</ele>
        <time>2013-03-03T16:30:30.000Z</time>
      </trkpt>
      <trkpt lat="46.28949" lon="6.49553">
        <ele>1389.7</ele>
        <time>2013-03-03T16:30:31.000Z</time>
      </trkpt>
      <trkpt lat="46.28952" lon="6.49559">
        <ele>1389.9</ele>
        <time>2013-03-03T16:30:32.000Z</time>
      </trkpt>
      <trkpt lat="46.28955" lon="6.49565">
        <ele>1389.6</ele>
        <time>2013-03-03T16:30:33.000Z</time>
      </trkpt>
      <trkpt lat="46.28957" lon="6.49571">
        <ele>1389.4</ele>
        <time>2013-03-03T16:30:34.000Z</time>
      </trkpt>
      <trkpt lat="46.2896" lon="6.49578">
        <ele>1389.2</ele>
        <time>2013-03-03T16:30:35.000Z</time>
      </trkpt>
      <trkpt lat="46.28963" lon="6.49584">
        <ele>1389.4</ele>
        <time>2013-03-03T16:30:36.000Z</time>
      </trkpt>
      <trkpt lat="46.28969" lon="6.49591">
        <ele>1389.4</ele>
        <time>2013-03-03T16:30:37.000Z</time>
      </trkpt>
      <trkpt lat="46.28974" lon="6.49597">
        <ele>1389.5</ele>
        <time>2013-03-03T16:30:38.000Z</time>
      </trkpt>
      <trkpt lat="46.28978" lon="6.49604">
        <ele>1389.4</ele>
        <time>2013-03-03T16:30:39.000Z</time>
      </trkpt>
      <trkpt lat="46.28983" lon="6.4961">
        <ele>1389.2</ele>
        <time>2013-03-03T16:30:40.000Z</time>
      </trkpt>
      <trkpt lat="46.28988" lon="6.49617">
        <ele>1388.6</ele>
        <time>2013-03-03T16:30:41.000Z</time>
      </trkpt>
      <trkpt lat="46.28993" lon="6.49623">
        <ele>1388.1</ele>
        <time>2013-03-03T16:30:42.000Z</time>
      </trkpt>
      <trkpt lat="46.28997" lon="6.4963">
        <ele>1388</ele>
        <time>2013-03-03T16:30:43.000Z</time>
      </trkpt>
      <trkpt lat="46.29002" lon="6.49637">
        <ele>1388.2</ele>
        <time>2013-03-03T16:30:44.000Z</time>
      </trkpt>
      <trkpt lat="46.29005" lon="6.49644">
        <ele>1388.1</ele>
        <time>2013-03-03T16:30:45.000Z</time>
      </trkpt>
      <trkpt lat="46.29007" lon="6.49651">
        <ele>1388.1</ele>
        <time>2013-03-03T16:30:46.000Z</time>
      </trkpt>
      <trkpt lat="46.29009" lon="6.49657">
        <ele>1388.1</ele>
        <time>2013-03-03T16:30:47.000Z</time>
      </trkpt>
      <trkpt lat="46.29009" lon="6.49662">
        <ele>1388.2</ele>
        <time>2013-03-03T16:30:48.000Z</time>
      </trkpt>
      <trkpt lat="46.29009" lon="6.49667">
        <ele>1388.1</ele>
        <time>2013-03-03T16:30:49.000Z</time>
      </trkpt>
      <trkpt lat="46.29008" lon="6.49671">
        <ele>1388.1</ele>
        <time>2013-03-03T16:30:50.000Z</time>
      </trkpt>
      <trkpt lat="46.29007" lon="6.49675">
        <ele>1388.1</ele>
        <time>2013-03-03T16:30:51.000Z</time>
      </trkpt>
      <trkpt lat="46.29006" lon="6.49679">
        <ele>1388</ele>
        <time>2013-03-03T16:30:52.000Z</time>
      </trkpt>
      <trkpt lat="46.29006" lon="6.49684">
        <ele>1387.8</ele>
        <time>2013-03-03T16:30:53.000Z</time>
      </trkpt>
      <trkpt lat="46.29004" lon="6.4969">
        <ele>1387.4</ele>
        <time>2013-03-03T16:30:54.000Z</time>
      </trkpt>
      <trkpt lat="46.29003" lon="6.49695">
        <ele>1387.2</ele>
        <time>2013-03-03T16:30:55.000Z</time>
      </trkpt>
      <trkpt lat="46.29002" lon="6.49699">
        <ele>1386.8</ele>
        <time>2013-03-03T16:30:56.000Z</time>
      </trkpt>
      <trkpt lat="46.29" lon="6.49703">
        <ele>1386.6</ele>
        <time>2013-03-03T16:30:57.000Z</time>
      </trkpt>
      <trkpt lat="46.28998" lon="6.49706">
        <ele>1386.3</ele>
        <time>2013-03-03T16:30:58.000Z</time>
      </trkpt>
      <trkpt lat="46.28997" lon="6.49709">
        <ele>1386.1</ele>
        <time>2013-03-03T16:30:59.000Z</time>
      </trkpt>
      <trkpt lat="46.28995" lon="6.49713">
        <ele>1386</ele>
        <time>2013-03-03T16:31:00.000Z</time>
      </trkpt>
      <trkpt lat="46.28993" lon="6.49717">
        <ele>1386</ele>
        <time>2013-03-03T16:31:01.000Z</time>
      </trkpt>
      <trkpt lat="46.28993" lon="6.49721">
        <ele>1386.1</ele>
        <time>2013-03-03T16:31:02.000Z</time>
      </trkpt>
      <trkpt lat="46.28992" lon="6.49725">
        <ele>1386.1</ele>
        <time>2013-03-03T16:31:03.000Z</time>
      </trkpt>
      <trkpt lat="46.2899" lon="6.4973">
        <ele>1386.3</ele>
        <time>2013-03-03T16:31:04.000Z</time>
      </trkpt>
      <trkpt lat="46.28989" lon="6.49734">
        <ele>1386.5</ele>
        <time>2013-03-03T16:31:05.000Z</time>
      </trkpt>
      <trkpt lat="46.28988" lon="6.49738">
        <ele>1386.6</ele>
        <time>2013-03-03T16:31:06.000Z</time>
      </trkpt>
      <trkpt lat="46.28987" lon="6.49741">
        <ele>1386.7</ele>
        <time>2013-03-03T16:31:07.000Z</time>
      </trkpt>
      <trkpt lat="46.28987" lon="6.49745">
        <ele>1386.8</ele>
        <time>2013-03-03T16:31:08.000Z</time>
      </trkpt>
      <trkpt lat="46.28986" lon="6.4975">
        <ele>1386.9</ele>
        <time>2013-03-03T16:31:09.000Z</time>
      </trkpt>
      <trkpt lat="46.28986" lon="6.49754">
        <ele>1386.9</ele>
        <time>2013-03-03T16:31:10.000Z</time>
      </trkpt>
      <trkpt lat="46.28986" lon="6.49759">
        <ele>1386.9</ele>
        <time>2013-03-03T16:31:11.000Z</time>
      </trkpt>
      <trkpt lat="46.28988" lon="6.49766">
        <ele>1386.9</ele>
        <time>2013-03-03T16:31:12.000Z</time>
      </trkpt>
      <trkpt lat="46.2899" lon="6.49773">
        <ele>1386.8</ele>
        <time>2013-03-03T16:31:13.000Z</time>
      </trkpt>
      <trkpt lat="46.28994" lon="6.4978">
        <ele>1386.8</ele>
        <time>2013-03-03T16:31:14.000Z</time>
      </trkpt>
      <trkpt lat="46.28999" lon="6.49787">
        <ele>1386.9</ele>
        <time>2013-03-03T16:31:15.000Z</time>
      </trkpt>
      <trkpt lat="46.29003" lon="6.49794">
        <ele>1386.8</ele>
        <time>2013-03-03T16:31:16.000Z</time>
      </trkpt>
      <trkpt lat="46.29005" lon="6.498">
        <ele>1386.5</ele>
        <time>2013-03-03T16:31:17.000Z</time>
      </trkpt>
      <trkpt lat="46.29009" lon="6.49806">
        <ele>1386.2</ele>
        <time>2013-03-03T16:31:18.000Z</time>
      </trkpt>
      <trkpt lat="46.29012" lon="6.49812">
        <ele>1385.5</ele>
        <time>2013-03-03T16:31:19.000Z</time>
      </trkpt>
      <trkpt lat="46.29015" lon="6.49818">
        <ele>1384.9</ele>
        <time>2013-03-03T16:31:20.000Z</time>
      </trkpt>
      <trkpt lat="46.29017" lon="6.49823">
        <ele>1384.3</ele>
        <time>2013-03-03T16:31:21.000Z</time>
      </trkpt>
      <trkpt lat="46.29018" lon="6.49827">
        <ele>1383.7</ele>
        <time>2013-03-03T16:31:22.000Z</time>
      </trkpt>
      <trkpt lat="46.29019" lon="6.49833">
        <ele>1383.2</ele>
        <time>2013-03-03T16:31:23.000Z</time>
      </trkpt>
      <trkpt lat="46.29021" lon="6.49838">
        <ele>1382.9</ele>
        <time>2013-03-03T16:31:24.000Z</time>
      </trkpt>
      <trkpt lat="46.29022" lon="6.49844">
        <ele>1382.7</ele>
        <time>2013-03-03T16:31:25.000Z</time>
      </trkpt>
      <trkpt lat="46.29022" lon="6.4985">
        <ele>1382.5</ele>
        <time>2013-03-03T16:31:26.000Z</time>
      </trkpt>
      <trkpt lat="46.29023" lon="6.49854">
        <ele>1382.3</ele>
        <time>2013-03-03T16:31:27.000Z</time>
      </trkpt>
      <trkpt lat="46.29023" lon="6.49858">
        <ele>1381.9</ele>
        <time>2013-03-03T16:31:28.000Z</time>
      </trkpt>
      <trkpt lat="46.29022" lon="6.49863">
        <ele>1381.6</ele>
        <time>2013-03-03T16:31:30.000Z</time>
      </trkpt>
      <trkpt lat="46.29022" lon="6.49866">
        <ele>1381.5</ele>
        <time>2013-03-03T16:31:31.000Z</time>
      </trkpt>
      <trkpt lat="46.29022" lon="6.49868">
        <ele>1381.2</ele>
        <time>2013-03-03T16:31:34.000Z</time>
      </trkpt>
      <trkpt lat="46.29022" lon="6.49874">
        <ele>1379.6</ele>
        <time>2013-03-03T16:31:35.000Z</time>
      </trkpt>
      <trkpt lat="46.29021" lon="6.49876">
        <ele>1379.6</ele>
        <time>2013-03-03T16:31:43.000Z</time>
      </trkpt>
      <trkpt lat="46.29019" lon="6.49881">
        <ele>1379.6</ele>
        <time>2013-03-03T16:31:44.000Z</time>
      </trkpt>
      <trkpt lat="46.29018" lon="6.49883">
        <ele>1379.4</ele>
        <time>2013-03-03T16:31:46.000Z</time>
      </trkpt>
      <trkpt lat="46.29017" lon="6.49887">
        <ele>1379.3</ele>
        <time>2013-03-03T16:31:47.000Z</time>
      </trkpt>
      <trkpt lat="46.29017" lon="6.49891">
        <ele>1379.4</ele>
        <time>2013-03-03T16:31:48.000Z</time>
      </trkpt>
      <trkpt lat="46.29016" lon="6.49894">
        <ele>1379.4</ele>
        <time>2013-03-03T16:31:49.000Z</time>
      </trkpt>
      <trkpt lat="46.29016" lon="6.499">
        <ele>1379</ele>
        <time>2013-03-03T16:31:56.000Z</time>
      </trkpt>
      <trkpt lat="46.29018" lon="6.49902">
        <ele>1378.9</ele>
        <time>2013-03-03T16:31:57.000Z</time>
      </trkpt>
      <trkpt lat="46.29017" lon="6.49906">
        <ele>1375.8</ele>
        <time>2013-03-03T16:32:08.000Z</time>
      </trkpt>
      <trkpt lat="46.29012" lon="6.49909">
        <ele>1373.8</ele>
        <time>2013-03-03T16:32:09.000Z</time>
      </trkpt>
      <trkpt lat="46.29013" lon="6.49913">
        <ele>1368.6</ele>
        <time>2013-03-03T16:32:26.000Z</time>
      </trkpt>
      <trkpt lat="46.29014" lon="6.49915">
        <ele>1368.1</ele>
        <time>2013-03-03T16:32:27.000Z</time>
      </trkpt>
      <trkpt lat="46.29016" lon="6.49919">
        <ele>1367.4</ele>
        <time>2013-03-03T16:32:28.000Z</time>
      </trkpt>
      <trkpt lat="46.29019" lon="6.49924">
        <ele>1366.9</ele>
        <time>2013-03-03T16:32:29.000Z</time>
      </trkpt>
      <trkpt lat="46.29021" lon="6.49929">
        <ele>1366.4</ele>
        <time>2013-03-03T16:32:30.000Z</time>
      </trkpt>
      <trkpt lat="46.29022" lon="6.4993">
        <ele>1366.2</ele>
        <time>2013-03-03T16:32:31.000Z</time>
      </trkpt>
      <trkpt lat="46.29021" lon="6.49936">
        <ele>1365.6</ele>
        <time>2013-03-03T16:32:35.000Z</time>
      </trkpt>
      <trkpt lat="46.2902" lon="6.49937">
        <ele>1365.3</ele>
        <time>2013-03-03T16:32:36.000Z</time>
      </trkpt>
      <trkpt lat="46.29017" lon="6.49939">
        <ele>1364.7</ele>
        <time>2013-03-03T16:32:38.000Z</time>
      </trkpt>
      <trkpt lat="46.29016" lon="6.4994">
        <ele>1364.3</ele>
        <time>2013-03-03T16:32:39.000Z</time>
      </trkpt>
      <trkpt lat="46.29012" lon="6.49944">
        <ele>1363.2</ele>
        <time>2013-03-03T16:32:40.000Z</time>
      </trkpt>
      <trkpt lat="46.29009" lon="6.49948">
        <ele>1362.3</ele>
        <time>2013-03-03T16:32:41.000Z</time>
      </trkpt>
      <trkpt lat="46.29006" lon="6.49953">
        <ele>1361.2</ele>
        <time>2013-03-03T16:32:42.000Z</time>
      </trkpt>
      <trkpt lat="46.29004" lon="6.49958">
        <ele>1360.9</ele>
        <time>2013-03-03T16:32:43.000Z</time>
      </trkpt>
      <trkpt lat="46.29004" lon="6.49962">
        <ele>1358.7</ele>
        <time>2013-03-03T16:32:44.000Z</time>
      </trkpt>
      <trkpt lat="46.29004" lon="6.49966">
        <ele>1350.9</ele>
        <time>2013-03-03T16:33:18.000Z</time>
      </trkpt>
      <trkpt lat="46.29005" lon="6.49968">
        <ele>1349.2</ele>
        <time>2013-03-03T16:33:19.000Z</time>
      </trkpt>
      <trkpt lat="46.29008" lon="6.49971">
        <ele>1347.7</ele>
        <time>2013-03-03T16:33:20.000Z</time>
      </trkpt>
      <trkpt lat="46.2901" lon="6.49975">
        <ele>1346.3</ele>
        <time>2013-03-03T16:33:21.000Z</time>
      </trkpt>
      <trkpt lat="46.29013" lon="6.49978">
        <ele>1344.9</ele>
        <time>2013-03-03T16:33:22.000Z</time>
      </trkpt>
      <trkpt lat="46.29015" lon="6.49982">
        <ele>1343.8</ele>
        <time>2013-03-03T16:33:23.000Z</time>
      </trkpt>
      <trkpt lat="46.29016" lon="6.49985">
        <ele>1343.8</ele>
        <time>2013-03-03T16:33:24.000Z</time>
      </trkpt>
      <trkpt lat="46.29017" lon="6.49988">
        <ele>1343.4</ele>
        <time>2013-03-03T16:33:25.000Z</time>
      </trkpt>
      <trkpt lat="46.29018" lon="6.49993">
        <ele>1341.3</ele>
        <time>2013-03-03T16:33:29.000Z</time>
      </trkpt>
      <trkpt lat="46.29019" lon="6.49995">
        <ele>1341.1</ele>
        <time>2013-03-03T16:33:30.000Z</time>
      </trkpt>
      <trkpt lat="46.29022" lon="6.49999">
        <ele>1341.2</ele>
        <time>2013-03-03T16:33:33.000Z</time>
      </trkpt>
      <trkpt lat="46.29023" lon="6.5">
        <ele>1341</ele>
        <time>2013-03-03T16:33:34.000Z</time>
      </trkpt>
      <trkpt lat="46.29026" lon="6.50004">
        <ele>1340.8</ele>
        <time>2013-03-03T16:33:36.000Z</time>
      </trkpt>
      <trkpt lat="46.29027" lon="6.50007">
        <ele>1340.6</ele>
        <time>2013-03-03T16:33:37.000Z</time>
      </trkpt>
      <trkpt lat="46.2903" lon="6.50011">
        <ele>1340.8</ele>
        <time>2013-03-03T16:33:39.000Z</time>
      </trkpt>
      <trkpt lat="46.29032" lon="6.50013">
        <ele>1340.3</ele>
        <time>2013-03-03T16:33:40.000Z</time>
      </trkpt>
      <trkpt lat="46.29034" lon="6.50016">
        <ele>1340.2</ele>
        <time>2013-03-03T16:33:41.000Z</time>
      </trkpt>
      <trkpt lat="46.29036" lon="6.50019">
        <ele>1340</ele>
        <time>2013-03-03T16:33:42.000Z</time>
      </trkpt>
      <trkpt lat="46.29038" lon="6.50022">
        <ele>1339.5</ele>
        <time>2013-03-03T16:33:43.000Z</time>
      </trkpt>
      <trkpt lat="46.29042" lon="6.50025">
        <ele>1339.2</ele>
        <time>2013-03-03T16:33:44.000Z</time>
      </trkpt>
      <trkpt lat="46.29045" lon="6.50027">
        <ele>1338.6</ele>
        <time>2013-03-03T16:33:45.000Z</time>
      </trkpt>
      <trkpt lat="46.29049" lon="6.50031">
        <ele>1338</ele>
        <time>2013-03-03T16:33:46.000Z</time>
      </trkpt>
      <trkpt lat="46.29054" lon="6.50038">
        <ele>1337.7</ele>
        <time>2013-03-03T16:33:47.000Z</time>
      </trkpt>
      <trkpt lat="46.29057" lon="6.50044">
        <ele>1337.7</ele>
        <time>2013-03-03T16:33:48.000Z</time>
      </trkpt>
      <trkpt lat="46.2906" lon="6.50049">
        <ele>1337.8</ele>
        <time>2013-03-03T16:33:49.000Z</time>
      </trkpt>
      <trkpt lat="46.29064" lon="6.50056">
        <ele>1337.9</ele>
        <time>2013-03-03T16:33:50.000Z</time>
      </trkpt>
      <trkpt lat="46.29068" lon="6.50064">
        <ele>1337.8</ele>
        <time>2013-03-03T16:33:51.000Z</time>
      </trkpt>
      <trkpt lat="46.29073" lon="6.50075">
        <ele>1337.4</ele>
        <time>2013-03-03T16:33:52.000Z</time>
      </trkpt>
      <trkpt lat="46.29078" lon="6.50087">
        <ele>1337.1</ele>
        <time>2013-03-03T16:33:53.000Z</time>
      </trkpt>
      <trkpt lat="46.29085" lon="6.50098">
        <ele>1336.8</ele>
        <time>2013-03-03T16:33:54.000Z</time>
      </trkpt>
      <trkpt lat="46.29094" lon="6.50105">
        <ele>1336.1</ele>
        <time>2013-03-03T16:33:55.000Z</time>
      </trkpt>
      <trkpt lat="46.29103" lon="6.50112">
        <ele>1335.5</ele>
        <time>2013-03-03T16:33:56.000Z</time>
      </trkpt>
      <trkpt lat="46.29113" lon="6.50116">
        <ele>1335.1</ele>
        <time>2013-03-03T16:33:57.000Z</time>
      </trkpt>
      <trkpt lat="46.29123" lon="6.5012">
        <ele>1334.7</ele>
        <time>2013-03-03T16:33:58.000Z</time>
      </trkpt>
      <trkpt lat="46.29129" lon="6.50125">
        <ele>1334.3</ele>
        <time>2013-03-03T16:33:59.000Z</time>
      </trkpt>
      <trkpt lat="46.29134" lon="6.50132">
        <ele>1333.2</ele>
        <time>2013-03-03T16:34:00.000Z</time>
      </trkpt>
      <trkpt lat="46.29135" lon="6.5014">
        <ele>1331.5</ele>
        <time>2013-03-03T16:34:01.000Z</time>
      </trkpt>
      <trkpt lat="46.2914" lon="6.50146">
        <ele>1329.1</ele>
        <time>2013-03-03T16:34:02.000Z</time>
      </trkpt>
      <trkpt lat="46.29144" lon="6.50151">
        <ele>1326.9</ele>
        <time>2013-03-03T16:34:03.000Z</time>
      </trkpt>
      <trkpt lat="46.29145" lon="6.50157">
        <ele>1326.4</ele>
        <time>2013-03-03T16:34:05.000Z</time>
      </trkpt>
      <trkpt lat="46.29143" lon="6.50158">
        <ele>1326.6</ele>
        <time>2013-03-03T16:34:06.000Z</time>
      </trkpt>
      <trkpt lat="46.29142" lon="6.50158">
        <ele>1326.4</ele>
        <time>2013-03-03T16:34:14.000Z</time>
      </trkpt>
      <trkpt lat="46.29139" lon="6.50166">
        <ele>1326.3</ele>
        <time>2013-03-03T16:34:15.000Z</time>
      </trkpt>
      <trkpt lat="46.29135" lon="6.5017">
        <ele>1326</ele>
        <time>2013-03-03T16:34:16.000Z</time>
      </trkpt>
      <trkpt lat="46.2913" lon="6.50174">
        <ele>1325.3</ele>
        <time>2013-03-03T16:34:17.000Z</time>
      </trkpt>
      <trkpt lat="46.29123" lon="6.50174">
        <ele>1324.8</ele>
        <time>2013-03-03T16:34:18.000Z</time>
      </trkpt>
      <trkpt lat="46.29116" lon="6.50174">
        <ele>1324</ele>
        <time>2013-03-03T16:34:19.000Z</time>
      </trkpt>
      <trkpt lat="46.2911" lon="6.50171">
        <ele>1323.5</ele>
        <time>2013-03-03T16:34:20.000Z</time>
      </trkpt>
      <trkpt lat="46.29105" lon="6.50167">
        <ele>1323.4</ele>
        <time>2013-03-03T16:34:21.000Z</time>
      </trkpt>
      <trkpt lat="46.291" lon="6.50164">
        <ele>1323.2</ele>
        <time>2013-03-03T16:34:22.000Z</time>
      </trkpt>
      <trkpt lat="46.29095" lon="6.5016">
        <ele>1323.3</ele>
        <time>2013-03-03T16:34:23.000Z</time>
      </trkpt>
      <trkpt lat="46.2909" lon="6.50155">
        <ele>1323</ele>
        <time>2013-03-03T16:34:24.000Z</time>
      </trkpt>
      <trkpt lat="46.29085" lon="6.50152">
        <ele>1322.8</ele>
        <time>2013-03-03T16:34:25.000Z</time>
      </trkpt>
      <trkpt lat="46.29079" lon="6.5015">
        <ele>1322.2</ele>
        <time>2013-03-03T16:34:26.000Z</time>
      </trkpt>
      <trkpt lat="46.29073" lon="6.50147">
        <ele>1321.8</ele>
        <time>2013-03-03T16:34:27.000Z</time>
      </trkpt>
      <trkpt lat="46.29068" lon="6.50144">
        <ele>1321.5</ele>
        <time>2013-03-03T16:34:28.000Z</time>
      </trkpt>
      <trkpt lat="46.29062" lon="6.5014">
        <ele>1321.4</ele>
        <time>2013-03-03T16:34:29.000Z</time>
      </trkpt>
      <trkpt lat="46.29058" lon="6.50135">
        <ele>1321.2</ele>
        <time>2013-03-03T16:34:30.000Z</time>
      </trkpt>
      <trkpt lat="46.29053" lon="6.50131">
        <ele>1320.6</ele>
        <time>2013-03-03T16:34:31.000Z</time>
      </trkpt>
      <trkpt lat="46.29049" lon="6.50128">
        <ele>1319.8</ele>
        <time>2013-03-03T16:34:32.000Z</time>
      </trkpt>
      <trkpt lat="46.29044" lon="6.50125">
        <ele>1319.5</ele>
        <time>2013-03-03T16:34:33.000Z</time>
      </trkpt>
      <trkpt lat="46.29038" lon="6.50122">
        <ele>1319.2</ele>
        <time>2013-03-03T16:34:34.000Z</time>
      </trkpt>
      <trkpt lat="46.29032" lon="6.5012">
        <ele>1319</ele>
        <time>2013-03-03T16:34:35.000Z</time>
      </trkpt>
      <trkpt lat="46.29025" lon="6.50117">
        <ele>1319</ele>
        <time>2013-03-03T16:34:36.000Z</time>
      </trkpt>
      <trkpt lat="46.29018" lon="6.50115">
        <ele>1318.5</ele>
        <time>2013-03-03T16:34:37.000Z</time>
      </trkpt>
      <trkpt lat="46.29011" lon="6.50113">
        <ele>1317.8</ele>
        <time>2013-03-03T16:34:38.000Z</time>
      </trkpt>
      <trkpt lat="46.29004" lon="6.50111">
        <ele>1317</ele>
        <time>2013-03-03T16:34:39.000Z</time>
      </trkpt>
      <trkpt lat="46.28998" lon="6.5011">
        <ele>1316.3</ele>
        <time>2013-03-03T16:34:40.000Z</time>
      </trkpt>
      <trkpt lat="46.28993" lon="6.50111">
        <ele>1315.7</ele>
        <time>2013-03-03T16:34:41.000Z</time>
      </trkpt>
      <trkpt lat="46.28988" lon="6.50111">
        <ele>1314.9</ele>
        <time>2013-03-03T16:34:42.000Z</time>
      </trkpt>
      <trkpt lat="46.28981" lon="6.50113">
        <ele>1313.9</ele>
        <time>2013-03-03T16:34:43.000Z</time>
      </trkpt>
      <trkpt lat="46.28974" lon="6.50117">
        <ele>1313.2</ele>
        <time>2013-03-03T16:34:44.000Z</time>
      </trkpt>
      <trkpt lat="46.28964" lon="6.5012">
        <ele>1312.5</ele>
        <time>2013-03-03T16:34:45.000Z</time>
      </trkpt>
      <trkpt lat="46.28957" lon="6.50119">
        <ele>1312.1</ele>
        <time>2013-03-03T16:34:46.000Z</time>
      </trkpt>
      <trkpt lat="46.2895" lon="6.50118">
        <ele>1311.9</ele>
        <time>2013-03-03T16:34:47.000Z</time>
      </trkpt>
      <trkpt lat="46.28944" lon="6.50119">
        <ele>1311.4</ele>
        <time>2013-03-03T16:34:48.000Z</time>
      </trkpt>
      <trkpt lat="46.28939" lon="6.5012">
        <ele>1311.1</ele>
        <time>2013-03-03T16:34:49.000Z</time>
      </trkpt>
      <trkpt lat="46.28934" lon="6.5012">
        <ele>1310.6</ele>
        <time>2013-03-03T16:34:50.000Z</time>
      </trkpt>
      <trkpt lat="46.2893" lon="6.5012">
        <ele>1309.4</ele>
        <time>2013-03-03T16:34:51.000Z</time>
      </trkpt>
      <trkpt lat="46.28927" lon="6.5012">
        <ele>1308.5</ele>
        <time>2013-03-03T16:34:52.000Z</time>
      </trkpt>
      <trkpt lat="46.28931" lon="6.50122">
        <ele>1306.2</ele>
        <time>2013-03-03T16:34:54.000Z</time>
      </trkpt>
      <trkpt lat="46.28932" lon="6.50122">
        <ele>1305.8</ele>
        <time>2013-03-03T16:34:55.000Z</time>
      </trkpt>
      <trkpt lat="46.28929" lon="6.50121">
        <ele>1302.2</ele>
        <time>2013-03-03T16:35:00.000Z</time>
      </trkpt>
      <trkpt lat="46.28927" lon="6.5012">
        <ele>1301.6</ele>
        <time>2013-03-03T16:35:01.000Z</time>
      </trkpt>
      <trkpt lat="46.28922" lon="6.5012">
        <ele>1301.5</ele>
        <time>2013-03-03T16:35:03.000Z</time>
      </trkpt>
      <trkpt lat="46.2892" lon="6.50122">
        <ele>1301.2</ele>
        <time>2013-03-03T16:35:04.000Z</time>
      </trkpt>
      <trkpt lat="46.28916" lon="6.50125">
        <ele>1301.2</ele>
        <time>2013-03-03T16:35:05.000Z</time>
      </trkpt>
      <trkpt lat="46.28913" lon="6.50128">
        <ele>1301.2</ele>
        <time>2013-03-03T16:35:06.000Z</time>
      </trkpt>
      <trkpt lat="46.28909" lon="6.5013">
        <ele>1301.8</ele>
        <time>2013-03-03T16:35:07.000Z</time>
      </trkpt>
      <trkpt lat="46.28905" lon="6.50131">
        <ele>1301.3</ele>
        <time>2013-03-03T16:35:08.000Z</time>
      </trkpt>
      <trkpt lat="46.28901" lon="6.50134">
        <ele>1301.4</ele>
        <time>2013-03-03T16:35:09.000Z</time>
      </trkpt>
      <trkpt lat="46.28896" lon="6.50137">
        <ele>1301.3</ele>
        <time>2013-03-03T16:35:10.000Z</time>
      </trkpt>
      <trkpt lat="46.28891" lon="6.5014">
        <ele>1301</ele>
        <time>2013-03-03T16:35:11.000Z</time>
      </trkpt>
      <trkpt lat="46.28885" lon="6.5014">
        <ele>1300.5</ele>
        <time>2013-03-03T16:35:12.000Z</time>
      </trkpt>
      <trkpt lat="46.28878" lon="6.50139">
        <ele>1300.1</ele>
        <time>2013-03-03T16:35:13.000Z</time>
      </trkpt>
      <trkpt lat="46.28873" lon="6.50139">
        <ele>1299.9</ele>
        <time>2013-03-03T16:35:14.000Z</time>
      </trkpt>
      <trkpt lat="46.28866" lon="6.50139">
        <ele>1299.7</ele>
        <time>2013-03-03T16:35:15.000Z</time>
      </trkpt>
      <trkpt lat="46.28857" lon="6.50141">
        <ele>1298.3</ele>
        <time>2013-03-03T16:35:16.000Z</time>
      </trkpt>
      <trkpt lat="46.28849" lon="6.50143">
        <ele>1298</ele>
        <time>2013-03-03T16:35:17.000Z</time>
      </trkpt>
      <trkpt lat="46.28842" lon="6.50146">
        <ele>1297.5</ele>
        <time>2013-03-03T16:35:18.000Z</time>
      </trkpt>
      <trkpt lat="46.28833" lon="6.50149">
        <ele>1296.8</ele>
        <time>2013-03-03T16:35:19.000Z</time>
      </trkpt>
      <trkpt lat="46.28823" lon="6.50152">
        <ele>1296.4</ele>
        <time>2013-03-03T16:35:20.000Z</time>
      </trkpt>
      <trkpt lat="46.28812" lon="6.50153">
        <ele>1295.6</ele>
        <time>2013-03-03T16:35:21.000Z</time>
      </trkpt>
      <trkpt lat="46.28802" lon="6.50154">
        <ele>1295.3</ele>
        <time>2013-03-03T16:35:22.000Z</time>
      </trkpt>
      <trkpt lat="46.28794" lon="6.50151">
        <ele>1294.4</ele>
        <time>2013-03-03T16:35:23.000Z</time>
      </trkpt>
      <trkpt lat="46.28789" lon="6.50146">
        <ele>1293.8</ele>
        <time>2013-03-03T16:35:24.000Z</time>
      </trkpt>
      <trkpt lat="46.28783" lon="6.5014">
        <ele>1293.4</ele>
        <time>2013-03-03T16:35:25.000Z</time>
      </trkpt>
      <trkpt lat="46.28777" lon="6.50137">
        <ele>1292.8</ele>
        <time>2013-03-03T16:35:26.000Z</time>
      </trkpt>
      <trkpt lat="46.28771" lon="6.50137">
        <ele>1291.4</ele>
        <time>2013-03-03T16:35:27.000Z</time>
      </trkpt>
      <trkpt lat="46.28767" lon="6.50144">
        <ele>1290.3</ele>
        <time>2013-03-03T16:35:28.000Z</time>
      </trkpt>
      <trkpt lat="46.2877" lon="6.50153">
        <ele>1290</ele>
        <time>2013-03-03T16:35:29.000Z</time>
      </trkpt>
      <trkpt lat="46.28774" lon="6.50162">
        <ele>1289.7</ele>
        <time>2013-03-03T16:35:30.000Z</time>
      </trkpt>
      <trkpt lat="46.2878" lon="6.50167">
        <ele>1289.2</ele>
        <time>2013-03-03T16:35:31.000Z</time>
      </trkpt>
      <trkpt lat="46.28788" lon="6.50169">
        <ele>1288.5</ele>
        <time>2013-03-03T16:35:32.000Z</time>
      </trkpt>
      <trkpt lat="46.28795" lon="6.50171">
        <ele>1288.4</ele>
        <time>2013-03-03T16:35:33.000Z</time>
      </trkpt>
      <trkpt lat="46.28799" lon="6.50175">
        <ele>1288</ele>
        <time>2013-03-03T16:35:34.000Z</time>
      </trkpt>
      <trkpt lat="46.28804" lon="6.50176">
        <ele>1287.4</ele>
        <time>2013-03-03T16:35:35.000Z</time>
      </trkpt>
      <trkpt lat="46.28808" lon="6.50177">
        <ele>1287.2</ele>
        <time>2013-03-03T16:35:36.000Z</time>
      </trkpt>
      <trkpt lat="46.28813" lon="6.5018">
        <ele>1286.6</ele>
        <time>2013-03-03T16:35:37.000Z</time>
      </trkpt>
      <trkpt lat="46.28818" lon="6.50183">
        <ele>1285.7</ele>
        <time>2013-03-03T16:35:38.000Z</time>
      </trkpt>
      <trkpt lat="46.28824" lon="6.50186">
        <ele>1285.6</ele>
        <time>2013-03-03T16:35:39.000Z</time>
      </trkpt>
      <trkpt lat="46.28831" lon="6.50187">
        <ele>1285.5</ele>
        <time>2013-03-03T16:35:40.000Z</time>
      </trkpt>
      <trkpt lat="46.28836" lon="6.50189">
        <ele>1285.9</ele>
        <time>2013-03-03T16:35:41.000Z</time>
      </trkpt>
      <trkpt lat="46.28842" lon="6.50191">
        <ele>1285.8</ele>
        <time>2013-03-03T16:35:42.000Z</time>
      </trkpt>
      <trkpt lat="46.28847" lon="6.50194">
        <ele>1286.1</ele>
        <time>2013-03-03T16:35:43.000Z</time>
      </trkpt>
      <trkpt lat="46.28853" lon="6.50196">
        <ele>1285.3</ele>
        <time>2013-03-03T16:35:44.000Z</time>
      </trkpt>
      <trkpt lat="46.2886" lon="6.50201">
        <ele>1285.1</ele>
        <time>2013-03-03T16:35:45.000Z</time>
      </trkpt>
      <trkpt lat="46.28866" lon="6.50205">
        <ele>1284.9</ele>
        <time>2013-03-03T16:35:46.000Z</time>
      </trkpt>
      <trkpt lat="46.28872" lon="6.5021">
        <ele>1285.4</ele>
        <time>2013-03-03T16:35:47.000Z</time>
      </trkpt>
      <trkpt lat="46.28878" lon="6.50214">
        <ele>1285.5</ele>
        <time>2013-03-03T16:35:48.000Z</time>
      </trkpt>
      <trkpt lat="46.28884" lon="6.50218">
        <ele>1285.3</ele>
        <time>2013-03-03T16:35:49.000Z</time>
      </trkpt>
      <trkpt lat="46.28889" lon="6.50223">
        <ele>1284.8</ele>
        <time>2013-03-03T16:35:50.000Z</time>
      </trkpt>
      <trkpt lat="46.28893" lon="6.50228">
        <ele>1284.6</ele>
        <time>2013-03-03T16:35:51.000Z</time>
      </trkpt>
      <trkpt lat="46.28895" lon="6.50232">
        <ele>1284.1</ele>
        <time>2013-03-03T16:35:52.000Z</time>
      </trkpt>
      <trkpt lat="46.289" lon="6.50234">
        <ele>1283.5</ele>
        <time>2013-03-03T16:35:53.000Z</time>
      </trkpt>
      <trkpt lat="46.28905" lon="6.50234">
        <ele>1282.8</ele>
        <time>2013-03-03T16:35:54.000Z</time>
      </trkpt>
      <trkpt lat="46.2891" lon="6.50233">
        <ele>1282.4</ele>
        <time>2013-03-03T16:35:55.000Z</time>
      </trkpt>
      <trkpt lat="46.28915" lon="6.50232">
        <ele>1282.1</ele>
        <time>2013-03-03T16:35:56.000Z</time>
      </trkpt>
      <trkpt lat="46.28921" lon="6.5023">
        <ele>1281.7</ele>
        <time>2013-03-03T16:35:57.000Z</time>
      </trkpt>
      <trkpt lat="46.28927" lon="6.5023">
        <ele>1281.2</ele>
        <time>2013-03-03T16:35:58.000Z</time>
      </trkpt>
      <trkpt lat="46.28934" lon="6.5023">
        <ele>1281.1</ele>
        <time>2013-03-03T16:35:59.000Z</time>
      </trkpt>
      <trkpt lat="46.28942" lon="6.50231">
        <ele>1280.5</ele>
        <time>2013-03-03T16:36:00.000Z</time>
      </trkpt>
      <trkpt lat="46.2895" lon="6.50235">
        <ele>1280.3</ele>
        <time>2013-03-03T16:36:01.000Z</time>
      </trkpt>
      <trkpt lat="46.28959" lon="6.50238">
        <ele>1279.7</ele>
        <time>2013-03-03T16:36:02.000Z</time>
      </trkpt>
      <trkpt lat="46.28966" lon="6.50241">
        <ele>1279.4</ele>
        <time>2013-03-03T16:36:03.000Z</time>
      </trkpt>
      <trkpt lat="46.28973" lon="6.50245">
        <ele>1279.2</ele>
        <time>2013-03-03T16:36:04.000Z</time>
      </trkpt>
      <trkpt lat="46.28979" lon="6.50248">
        <ele>1279.1</ele>
        <time>2013-03-03T16:36:05.000Z</time>
      </trkpt>
      <trkpt lat="46.28985" lon="6.50251">
        <ele>1278.4</ele>
        <time>2013-03-03T16:36:06.000Z</time>
      </trkpt>
      <trkpt lat="46.2899" lon="6.50255">
        <ele>1277.4</ele>
        <time>2013-03-03T16:36:07.000Z</time>
      </trkpt>
      <trkpt lat="46.28996" lon="6.50261">
        <ele>1275</ele>
        <time>2013-03-03T16:36:08.000Z</time>
      </trkpt>
      <trkpt lat="46.28998" lon="6.50267">
        <ele>1272.8</ele>
        <time>2013-03-03T16:36:09.000Z</time>
      </trkpt>
      <trkpt lat="46.29" lon="6.5027">
        <ele>1271.9</ele>
        <time>2013-03-03T16:36:10.000Z</time>
      </trkpt>
      <trkpt lat="46.29002" lon="6.50271">
        <ele>1271.4</ele>
        <time>2013-03-03T16:36:11.000Z</time>
      </trkpt>
      <trkpt lat="46.29004" lon="6.50271">
        <ele>1271.7</ele>
        <time>2013-03-03T16:36:21.000Z</time>
      </trkpt>
      <trkpt lat="46.29012" lon="6.50273">
        <ele>1269.4</ele>
        <time>2013-03-03T16:36:22.000Z</time>
      </trkpt>
      <trkpt lat="46.29015" lon="6.50274">
        <ele>1268.5</ele>
        <time>2013-03-03T16:36:23.000Z</time>
      </trkpt>
      <trkpt lat="46.29017" lon="6.50275">
        <ele>1267.9</ele>
        <time>2013-03-03T16:36:24.000Z</time>
      </trkpt>
      <trkpt lat="46.29019" lon="6.50277">
        <ele>1267.4</ele>
        <time>2013-03-03T16:36:41.000Z</time>
      </trkpt>
      <trkpt lat="46.28988" lon="6.50264">
        <ele>1243.7</ele>
        <time>2013-03-03T16:36:51.000Z</time>
      </trkpt>
      <trkpt lat="46.28988" lon="6.50264">
        <ele>1243.7</ele>
        <time>2013-03-03T16:37:16.000Z</time>
      </trkpt>
      <trkpt lat="46.29005" lon="6.50281">
        <ele>1264.6</ele>
        <time>2013-03-03T16:37:17.000Z</time>
      </trkpt>
      <trkpt lat="46.29005" lon="6.50284">
        <ele>1257</ele>
        <time>2013-03-03T16:37:29.000Z</time>
      </trkpt>
      <trkpt lat="46.29006" lon="6.50287">
        <ele>1255.5</ele>
        <time>2013-03-03T16:37:30.000Z</time>
      </trkpt>
      <trkpt lat="46.29008" lon="6.50291">
        <ele>1254.3</ele>
        <time>2013-03-03T16:37:31.000Z</time>
      </trkpt>
      <trkpt lat="46.2901" lon="6.50296">
        <ele>1253</ele>
        <time>2013-03-03T16:37:32.000Z</time>
      </trkpt>
      <trkpt lat="46.29014" lon="6.50302">
        <ele>1252</ele>
        <time>2013-03-03T16:37:33.000Z</time>
      </trkpt>
      <trkpt lat="46.29018" lon="6.5031">
        <ele>1250.7</ele>
        <time>2013-03-03T16:37:34.000Z</time>
      </trkpt>
      <trkpt lat="46.29021" lon="6.50316">
        <ele>1249.6</ele>
        <time>2013-03-03T16:37:35.000Z</time>
      </trkpt>
      <trkpt lat="46.29025" lon="6.50324">
        <ele>1248.6</ele>
        <time>2013-03-03T16:37:36.000Z</time>
      </trkpt>
      <trkpt lat="46.29029" lon="6.50331">
        <ele>1247.6</ele>
        <time>2013-03-03T16:37:37.000Z</time>
      </trkpt>
      <trkpt lat="46.29032" lon="6.50337">
        <ele>1246.3</ele>
        <time>2013-03-03T16:37:38.000Z</time>
      </trkpt>
      <trkpt lat="46.29035" lon="6.50342">
        <ele>1245.8</ele>
        <time>2013-03-03T16:37:39.000Z</time>
      </trkpt>
      <trkpt lat="46.29037" lon="6.50346">
        <ele>1244.9</ele>
        <time>2013-03-03T16:37:40.000Z</time>
      </trkpt>
      <trkpt lat="46.29039" lon="6.50351">
        <ele>1243.9</ele>
        <time>2013-03-03T16:37:41.000Z</time>
      </trkpt>
      <trkpt lat="46.29071" lon="6.50423">
        <ele>1222.4</ele>
        <time>2013-03-03T16:37:52.000Z</time>
      </trkpt>
      <trkpt lat="46.29076" lon="6.50426">
        <ele>1222.2</ele>
        <time>2013-03-03T16:37:54.000Z</time>
      </trkpt>
      <trkpt lat="46.29075" lon="6.50426">
        <ele>1222.6</ele>
        <time>2013-03-03T16:38:08.000Z</time>
      </trkpt>
      <trkpt lat="46.29076" lon="6.50435">
        <ele>1220.7</ele>
        <time>2013-03-03T16:38:09.000Z</time>
      </trkpt>
      <trkpt lat="46.29079" lon="6.50439">
        <ele>1219.3</ele>
        <time>2013-03-03T16:38:38.000Z</time>
      </trkpt>
      <trkpt lat="46.29085" lon="6.5044">
        <ele>1220.2</ele>
        <time>2013-03-03T16:38:39.000Z</time>
      </trkpt>
      <trkpt lat="46.29087" lon="6.50441">
        <ele>1220.1</ele>
        <time>2013-03-03T16:38:40.000Z</time>
      </trkpt>
      <trkpt lat="46.29089" lon="6.50444">
        <ele>1220.1</ele>
        <time>2013-03-03T16:38:41.000Z</time>
      </trkpt>
      <trkpt lat="46.29091" lon="6.50447">
        <ele>1220.1</ele>
        <time>2013-03-03T16:38:42.000Z</time>
      </trkpt>
      <trkpt lat="46.29094" lon="6.50451">
        <ele>1220.1</ele>
        <time>2013-03-03T16:38:43.000Z</time>
      </trkpt>
      <trkpt lat="46.29097" lon="6.50455">
        <ele>1219.9</ele>
        <time>2013-03-03T16:38:44.000Z</time>
      </trkpt>
      <trkpt lat="46.291" lon="6.50458">
        <ele>1219.5</ele>
        <time>2013-03-03T16:38:45.000Z</time>
      </trkpt>
      <trkpt lat="46.29103" lon="6.50462">
        <ele>1219.2</ele>
        <time>2013-03-03T16:38:46.000Z</time>
      </trkpt>
      <trkpt lat="46.29105" lon="6.50465">
        <ele>1218.7</ele>
        <time>2013-03-03T16:38:47.000Z</time>
      </trkpt>
      <trkpt lat="46.29107" lon="6.50468">
        <ele>1218.4</ele>
        <time>2013-03-03T16:38:48.000Z</time>
      </trkpt>
      <trkpt lat="46.2911" lon="6.50471">
        <ele>1218.1</ele>
        <time>2013-03-03T16:38:49.000Z</time>
      </trkpt>
      <trkpt lat="46.29111" lon="6.50474">
        <ele>1217.8</ele>
        <time>2013-03-03T16:38:50.000Z</time>
      </trkpt>
      <trkpt lat="46.29113" lon="6.50477">
        <ele>1217.5</ele>
        <time>2013-03-03T16:38:51.000Z</time>
      </trkpt>
      <trkpt lat="46.29116" lon="6.50482">
        <ele>1216.9</ele>
        <time>2013-03-03T16:38:53.000Z</time>
      </trkpt>
      <trkpt lat="46.29117" lon="6.50484">
        <ele>1216.8</ele>
        <time>2013-03-03T16:38:54.000Z</time>
      </trkpt>
      <trkpt lat="46.29119" lon="6.50487">
        <ele>1216.6</ele>
        <time>2013-03-03T16:38:56.000Z</time>
      </trkpt>
      <trkpt lat="46.2912" lon="6.50489">
        <ele>1216.6</ele>
        <time>2013-03-03T16:38:57.000Z</time>
      </trkpt>
      <trkpt lat="46.29122" lon="6.50494">
        <ele>1216.5</ele>
        <time>2013-03-03T16:39:00.000Z</time>
      </trkpt>
      <trkpt lat="46.29123" lon="6.50496">
        <ele>1216.4</ele>
        <time>2013-03-03T16:39:01.000Z</time>
      </trkpt>
      <trkpt lat="46.29126" lon="6.505">
        <ele>1216.1</ele>
        <time>2013-03-03T16:39:03.000Z</time>
      </trkpt>
      <trkpt lat="46.29127" lon="6.50502">
        <ele>1215.8</ele>
        <time>2013-03-03T16:39:04.000Z</time>
      </trkpt>
      <trkpt lat="46.29129" lon="6.50507">
        <ele>1215.5</ele>
        <time>2013-03-03T16:39:06.000Z</time>
      </trkpt>
      <trkpt lat="46.29131" lon="6.5051">
        <ele>1215.3</ele>
        <time>2013-03-03T16:39:07.000Z</time>
      </trkpt>
      <trkpt lat="46.29132" lon="6.50513">
        <ele>1215.1</ele>
        <time>2013-03-03T16:39:08.000Z</time>
      </trkpt>
      <trkpt lat="46.29133" lon="6.50516">
        <ele>1214.9</ele>
        <time>2013-03-03T16:39:09.000Z</time>
      </trkpt>
      <trkpt lat="46.29135" lon="6.50519">
        <ele>1214.6</ele>
        <time>2013-03-03T16:39:10.000Z</time>
      </trkpt>
      <trkpt lat="46.29136" lon="6.50522">
        <ele>1214.3</ele>
        <time>2013-03-03T16:39:11.000Z</time>
      </trkpt>
      <trkpt lat="46.29139" lon="6.50526">
        <ele>1214</ele>
        <time>2013-03-03T16:39:13.000Z</time>
      </trkpt>
      <trkpt lat="46.2914" lon="6.50528">
        <ele>1214</ele>
        <time>2013-03-03T16:39:14.000Z</time>
      </trkpt>
      <trkpt lat="46.29143" lon="6.50532">
        <ele>1213.7</ele>
        <time>2013-03-03T16:39:16.000Z</time>
      </trkpt>
      <trkpt lat="46.29144" lon="6.50535">
        <ele>1213.6</ele>
        <time>2013-03-03T16:39:17.000Z</time>
      </trkpt>
      <trkpt lat="46.29145" lon="6.50537">
        <ele>1213.4</ele>
        <time>2013-03-03T16:39:18.000Z</time>
      </trkpt>
      <trkpt lat="46.29147" lon="6.5054">
        <ele>1213.2</ele>
        <time>2013-03-03T16:39:19.000Z</time>
      </trkpt>
      <trkpt lat="46.29148" lon="6.50543">
        <ele>1212.8</ele>
        <time>2013-03-03T16:39:20.000Z</time>
      </trkpt>
      <trkpt lat="46.2915" lon="6.50547">
        <ele>1212.6</ele>
        <time>2013-03-03T16:39:21.000Z</time>
      </trkpt>
      <trkpt lat="46.29152" lon="6.50552">
        <ele>1212.2</ele>
        <time>2013-03-03T16:39:22.000Z</time>
      </trkpt>
      <trkpt lat="46.29154" lon="6.50557">
        <ele>1211.9</ele>
        <time>2013-03-03T16:39:23.000Z</time>
      </trkpt>
      <trkpt lat="46.29156" lon="6.50562">
        <ele>1211.6</ele>
        <time>2013-03-03T16:39:24.000Z</time>
      </trkpt>
      <trkpt lat="46.29159" lon="6.50567">
        <ele>1211.1</ele>
        <time>2013-03-03T16:39:25.000Z</time>
      </trkpt>
      <trkpt lat="46.29161" lon="6.50572">
        <ele>1210.4</ele>
        <time>2013-03-03T16:39:26.000Z</time>
      </trkpt>
      <trkpt lat="46.29163" lon="6.50578">
        <ele>1209.6</ele>
        <time>2013-03-03T16:39:27.000Z</time>
      </trkpt>
      <trkpt lat="46.29165" lon="6.50585">
        <ele>1208.9</ele>
        <time>2013-03-03T16:39:28.000Z</time>
      </trkpt>
      <trkpt lat="46.29169" lon="6.50592">
        <ele>1207.9</ele>
        <time>2013-03-03T16:39:29.000Z</time>
      </trkpt>
      <trkpt lat="46.29172" lon="6.506">
        <ele>1207</ele>
        <time>2013-03-03T16:39:30.000Z</time>
      </trkpt>
      <trkpt lat="46.29177" lon="6.50606">
        <ele>1206.2</ele>
        <time>2013-03-03T16:39:31.000Z</time>
      </trkpt>
      <trkpt lat="46.29181" lon="6.50609">
        <ele>1205.4</ele>
        <time>2013-03-03T16:39:32.000Z</time>
      </trkpt>
      <trkpt lat="46.29183" lon="6.50609">
        <ele>1204.7</ele>
        <time>2013-03-03T16:39:33.000Z</time>
      </trkpt>
      <trkpt lat="46.29184" lon="6.50615">
        <ele>1203.4</ele>
        <time>2013-03-03T16:39:42.000Z</time>
      </trkpt>
      <trkpt lat="46.29168" lon="6.50606">
        <ele>1191.9</ele>
        <time>2013-03-03T16:40:00.000Z</time>
      </trkpt>
      <trkpt lat="46.29164" lon="6.50606">
        <ele>1190.7</ele>
        <time>2013-03-03T16:40:04.000Z</time>
      </trkpt>
      <trkpt lat="46.29163" lon="6.50605">
        <ele>1190.7</ele>
        <time>2013-03-03T16:40:05.000Z</time>
      </trkpt>
      <trkpt lat="46.29166" lon="6.50609">
        <ele>1193.7</ele>
        <time>2013-03-03T16:41:01.000Z</time>
      </trkpt>
      <trkpt lat="46.29167" lon="6.50609">
        <ele>1193.3</ele>
        <time>2013-03-03T16:41:02.000Z</time>
      </trkpt>
      <trkpt lat="46.29171" lon="6.50612">
        <ele>1192.7</ele>
        <time>2013-03-03T16:41:05.000Z</time>
      </trkpt>
      <trkpt lat="46.29172" lon="6.50613">
        <ele>1192.6</ele>
        <time>2013-03-03T16:41:06.000Z</time>
      </trkpt>
      <trkpt lat="46.29176" lon="6.50615">
        <ele>1193</ele>
        <time>2013-03-03T16:41:34.000Z</time>
      </trkpt>
      <trkpt lat="46.29176" lon="6.50616">
        <ele>1193</ele>
        <time>2013-03-03T16:41:35.000Z</time>
      </trkpt>
      <trkpt lat="46.29179" lon="6.5062">
        <ele>1193.2</ele>
        <time>2013-03-03T16:41:40.000Z</time>
      </trkpt>
      <trkpt lat="46.2918" lon="6.50621">
        <ele>1193.3</ele>
        <time>2013-03-03T16:41:41.000Z</time>
      </trkpt>
      <trkpt lat="46.29183" lon="6.50625">
        <ele>1193.4</ele>
        <time>2013-03-03T16:41:45.000Z</time>
      </trkpt>
      <trkpt lat="46.29183" lon="6.50626">
        <ele>1193.3</ele>
        <time>2013-03-03T16:41:46.000Z</time>
      </trkpt>
      <trkpt lat="46.29185" lon="6.50631">
        <ele>1194.5</ele>
        <time>2013-03-03T16:42:06.000Z</time>
      </trkpt>
      <trkpt lat="46.29186" lon="6.50632">
        <ele>1194.4</ele>
        <time>2013-03-03T16:42:07.000Z</time>
      </trkpt>
      <trkpt lat="46.29189" lon="6.50636">
        <ele>1194.9</ele>
        <time>2013-03-03T16:42:12.000Z</time>
      </trkpt>
      <trkpt lat="46.29189" lon="6.50637">
        <ele>1194.9</ele>
        <time>2013-03-03T16:42:13.000Z</time>
      </trkpt>
      <trkpt lat="46.29193" lon="6.5064">
        <ele>1194.9</ele>
        <time>2013-03-03T16:42:21.000Z</time>
      </trkpt>
      <trkpt lat="46.29193" lon="6.5064">
        <ele>1194.9</ele>
        <time>2013-03-03T16:42:22.000Z</time>
      </trkpt>
      <trkpt lat="46.29196" lon="6.50644">
        <ele>1195.2</ele>
        <time>2013-03-03T16:42:27.000Z</time>
      </trkpt>
      <trkpt lat="46.29196" lon="6.50645">
        <ele>1195.5</ele>
        <time>2013-03-03T16:42:28.000Z</time>
      </trkpt>
      <trkpt lat="46.29199" lon="6.50649">
        <ele>1195.8</ele>
        <time>2013-03-03T16:42:30.000Z</time>
      </trkpt>
      <trkpt lat="46.29201" lon="6.5065">
        <ele>1195.9</ele>
        <time>2013-03-03T16:42:31.000Z</time>
      </trkpt>
      <trkpt lat="46.29203" lon="6.50654">
        <ele>1196.4</ele>
        <time>2013-03-03T16:42:34.000Z</time>
      </trkpt>
      <trkpt lat="46.29204" lon="6.50656">
        <ele>1196.3</ele>
        <time>2013-03-03T16:42:35.000Z</time>
      </trkpt>
      <trkpt lat="46.29207" lon="6.50659">
        <ele>1196.1</ele>
        <time>2013-03-03T16:42:37.000Z</time>
      </trkpt>
      <trkpt lat="46.29208" lon="6.50661">
        <ele>1195.4</ele>
        <time>2013-03-03T16:42:38.000Z</time>
      </trkpt>
      <trkpt lat="46.29211" lon="6.50665">
        <ele>1195.8</ele>
        <time>2013-03-03T16:42:41.000Z</time>
      </trkpt>
      <trkpt lat="46.29212" lon="6.50667">
        <ele>1196</ele>
        <time>2013-03-03T16:42:42.000Z</time>
      </trkpt>
      <trkpt lat="46.29214" lon="6.50671">
        <ele>1196.1</ele>
        <time>2013-03-03T16:42:45.000Z</time>
      </trkpt>
      <trkpt lat="46.29215" lon="6.50673">
        <ele>1196.2</ele>
        <time>2013-03-03T16:42:46.000Z</time>
      </trkpt>
      <trkpt lat="46.29218" lon="6.50677">
        <ele>1196.2</ele>
        <time>2013-03-03T16:42:50.000Z</time>
      </trkpt>
      <trkpt lat="46.29219" lon="6.50678">
        <ele>1196.2</ele>
        <time>2013-03-03T16:42:51.000Z</time>
      </trkpt>
      <trkpt lat="46.2922" lon="6.50682">
        <ele>1196.4</ele>
        <time>2013-03-03T16:42:53.000Z</time>
      </trkpt>
      <trkpt lat="46.29221" lon="6.50684">
        <ele>1196.4</ele>
        <time>2013-03-03T16:42:54.000Z</time>
      </trkpt>
      <trkpt lat="46.29224" lon="6.50687">
        <ele>1196</ele>
        <time>2013-03-03T16:42:57.000Z</time>
      </trkpt>
      <trkpt lat="46.29225" lon="6.50688">
        <ele>1195.8</ele>
        <time>2013-03-03T16:42:58.000Z</time>
      </trkpt>
      <trkpt lat="46.29228" lon="6.50691">
        <ele>1195.4</ele>
        <time>2013-03-03T16:43:00.000Z</time>
      </trkpt>
      <trkpt lat="46.29229" lon="6.50692">
        <ele>1195.1</ele>
        <time>2013-03-03T16:43:01.000Z</time>
      </trkpt>
      <trkpt lat="46.29231" lon="6.50696">
        <ele>1195.3</ele>
        <time>2013-03-03T16:43:03.000Z</time>
      </trkpt>
      <trkpt lat="46.29232" lon="6.50697">
        <ele>1195.3</ele>
        <time>2013-03-03T16:43:04.000Z</time>
      </trkpt>
      <trkpt lat="46.29235" lon="6.50701">
        <ele>1195.4</ele>
        <time>2013-03-03T16:43:07.000Z</time>
      </trkpt>
      <trkpt lat="46.29236" lon="6.50702">
        <ele>1195.4</ele>
        <time>2013-03-03T16:43:08.000Z</time>
      </trkpt>
      <trkpt lat="46.29239" lon="6.50706">
        <ele>1195.3</ele>
        <time>2013-03-03T16:43:11.000Z</time>
      </trkpt>
      <trkpt lat="46.2924" lon="6.50707">
        <ele>1195.2</ele>
        <time>2013-03-03T16:43:12.000Z</time>
      </trkpt>
      <trkpt lat="46.29243" lon="6.50711">
        <ele>1195.7</ele>
        <time>2013-03-03T16:43:15.000Z</time>
      </trkpt>
      <trkpt lat="46.29244" lon="6.50712">
        <ele>1195.9</ele>
        <time>2013-03-03T16:43:16.000Z</time>
      </trkpt>
      <trkpt lat="46.29247" lon="6.50716">
        <ele>1196.2</ele>
        <time>2013-03-03T16:43:19.000Z</time>
      </trkpt>
      <trkpt lat="46.29248" lon="6.50717">
        <ele>1196.2</ele>
        <time>2013-03-03T16:43:20.000Z</time>
      </trkpt>
      <trkpt lat="46.2925" lon="6.5072">
        <ele>1196.3</ele>
        <time>2013-03-03T16:43:23.000Z</time>
      </trkpt>
      <trkpt lat="46.29251" lon="6.50721">
        <ele>1196.4</ele>
        <time>2013-03-03T16:43:24.000Z</time>
      </trkpt>
      <trkpt lat="46.29254" lon="6.50725">
        <ele>1196.5</ele>
        <time>2013-03-03T16:43:28.000Z</time>
      </trkpt>
      <trkpt lat="46.29255" lon="6.50726">
        <ele>1196.6</ele>
        <time>2013-03-03T16:43:29.000Z</time>
      </trkpt>
      <trkpt lat="46.29257" lon="6.50729">
        <ele>1196.5</ele>
        <time>2013-03-03T16:43:31.000Z</time>
      </trkpt>
      <trkpt lat="46.29258" lon="6.50731">
        <ele>1196.5</ele>
        <time>2013-03-03T16:43:32.000Z</time>
      </trkpt>
      <trkpt lat="46.29262" lon="6.50735">
        <ele>1196</ele>
        <time>2013-03-03T16:43:35.000Z</time>
      </trkpt>
      <trkpt lat="46.29263" lon="6.50736">
        <ele>1196.1</ele>
        <time>2013-03-03T16:43:36.000Z</time>
      </trkpt>
      <trkpt lat="46.29266" lon="6.5074">
        <ele>1195.9</ele>
        <time>2013-03-03T16:43:39.000Z</time>
      </trkpt>
      <trkpt lat="46.29267" lon="6.50741">
        <ele>1195.7</ele>
        <time>2013-03-03T16:43:40.000Z</time>
      </trkpt>
      <trkpt lat="46.2927" lon="6.50745">
        <ele>1195.1</ele>
        <time>2013-03-03T16:43:43.000Z</time>
      </trkpt>
      <trkpt lat="46.29271" lon="6.50747">
        <ele>1194.9</ele>
        <time>2013-03-03T16:43:44.000Z</time>
      </trkpt>
      <trkpt lat="46.29273" lon="6.50752">
        <ele>1193.9</ele>
        <time>2013-03-03T16:43:47.000Z</time>
      </trkpt>
      <trkpt lat="46.29274" lon="6.50754">
        <ele>1193.6</ele>
        <time>2013-03-03T16:43:48.000Z</time>
      </trkpt>
      <trkpt lat="46.29275" lon="6.50757">
        <ele>1192.9</ele>
        <time>2013-03-03T16:43:50.000Z</time>
      </trkpt>
      <trkpt lat="46.29276" lon="6.50759">
        <ele>1192.8</ele>
        <time>2013-03-03T16:43:51.000Z</time>
      </trkpt>
      <trkpt lat="46.29277" lon="6.50763">
        <ele>1192.6</ele>
        <time>2013-03-03T16:43:53.000Z</time>
      </trkpt>
      <trkpt lat="46.29278" lon="6.50766">
        <ele>1192.7</ele>
        <time>2013-03-03T16:43:54.000Z</time>
      </trkpt>
      <trkpt lat="46.2928" lon="6.50771">
        <ele>1192.8</ele>
        <time>2013-03-03T16:43:57.000Z</time>
      </trkpt>
      <trkpt lat="46.29281" lon="6.50773">
        <ele>1192.7</ele>
        <time>2013-03-03T16:43:58.000Z</time>
      </trkpt>
      <trkpt lat="46.29283" lon="6.50777">
        <ele>1192.2</ele>
        <time>2013-03-03T16:44:01.000Z</time>
      </trkpt>
      <trkpt lat="46.29284" lon="6.50779">
        <ele>1191.9</ele>
        <time>2013-03-03T16:44:02.000Z</time>
      </trkpt>
      <trkpt lat="46.29286" lon="6.50784">
        <ele>1191.7</ele>
        <time>2013-03-03T16:44:05.000Z</time>
      </trkpt>
      <trkpt lat="46.29286" lon="6.50786">
        <ele>1191.7</ele>
        <time>2013-03-03T16:44:06.000Z</time>
      </trkpt>
      <trkpt lat="46.29288" lon="6.5079">
        <ele>1191.4</ele>
        <time>2013-03-03T16:44:09.000Z</time>
      </trkpt>
      <trkpt lat="46.29288" lon="6.50792">
        <ele>1191.2</ele>
        <time>2013-03-03T16:44:10.000Z</time>
      </trkpt>
      <trkpt lat="46.29289" lon="6.50797">
        <ele>1190.9</ele>
        <time>2013-03-03T16:44:13.000Z</time>
      </trkpt>
      <trkpt lat="46.29289" lon="6.50799">
        <ele>1190.8</ele>
        <time>2013-03-03T16:44:14.000Z</time>
      </trkpt>
      <trkpt lat="46.29291" lon="6.50804">
        <ele>1190.5</ele>
        <time>2013-03-03T16:44:17.000Z</time>
      </trkpt>
      <trkpt lat="46.29291" lon="6.50805">
        <ele>1190.3</ele>
        <time>2013-03-03T16:44:18.000Z</time>
      </trkpt>
      <trkpt lat="46.29292" lon="6.5081">
        <ele>1190.1</ele>
        <time>2013-03-03T16:44:21.000Z</time>
      </trkpt>
      <trkpt lat="46.29293" lon="6.50812">
        <ele>1190</ele>
        <time>2013-03-03T16:44:22.000Z</time>
      </trkpt>
      <trkpt lat="46.29295" lon="6.50817">
        <ele>1189.1</ele>
        <time>2013-03-03T16:44:25.000Z</time>
      </trkpt>
      <trkpt lat="46.29296" lon="6.50817">
        <ele>1188</ele>
        <time>2013-03-03T16:44:26.000Z</time>
      </trkpt>
      <trkpt lat="46.293" lon="6.50821">
        <ele>1186.8</ele>
        <time>2013-03-03T16:44:29.000Z</time>
      </trkpt>
      <trkpt lat="46.29301" lon="6.50822">
        <ele>1186.6</ele>
        <time>2013-03-03T16:44:30.000Z</time>
      </trkpt>
      <trkpt lat="46.29303" lon="6.50828">
        <ele>1185.7</ele>
        <time>2013-03-03T16:44:33.000Z</time>
      </trkpt>
      <trkpt lat="46.29303" lon="6.50829">
        <ele>1185.6</ele>
        <time>2013-03-03T16:44:34.000Z</time>
      </trkpt>
      <trkpt lat="46.29307" lon="6.50832">
        <ele>1185.7</ele>
        <time>2013-03-03T16:44:37.000Z</time>
      </trkpt>
      <trkpt lat="46.29308" lon="6.50832">
        <ele>1185.4</ele>
        <time>2013-03-03T16:44:38.000Z</time>
      </trkpt>
      <trkpt lat="46.29312" lon="6.50833">
        <ele>1184.8</ele>
        <time>2013-03-03T16:44:42.000Z</time>
      </trkpt>
      <trkpt lat="46.29327" lon="6.50827">
        <ele>1179.5</ele>
        <time>2013-03-03T16:44:52.000Z</time>
      </trkpt>
      <trkpt lat="46.29331" lon="6.50826">
        <ele>1178.4</ele>
        <time>2013-03-03T16:44:56.000Z</time>
      </trkpt>
      <trkpt lat="46.29332" lon="6.50825">
        <ele>1178.1</ele>
        <time>2013-03-03T16:44:57.000Z</time>
      </trkpt>
      <trkpt lat="46.29336" lon="6.50824">
        <ele>1175.9</ele>
        <time>2013-03-03T16:45:01.000Z</time>
      </trkpt>
      <trkpt lat="46.29338" lon="6.50824">
        <ele>1175.9</ele>
        <time>2013-03-03T16:45:02.000Z</time>
      </trkpt>
      <trkpt lat="46.29342" lon="6.50824">
        <ele>1175.5</ele>
        <time>2013-03-03T16:45:05.000Z</time>
      </trkpt>
      <trkpt lat="46.29343" lon="6.50824">
        <ele>1175.3</ele>
        <time>2013-03-03T16:45:06.000Z</time>
      </trkpt>
      <trkpt lat="46.29347" lon="6.50825">
        <ele>1175.1</ele>
        <time>2013-03-03T16:45:09.000Z</time>
      </trkpt>
      <trkpt lat="46.29349" lon="6.50825">
        <ele>1175</ele>
        <time>2013-03-03T16:45:10.000Z</time>
      </trkpt>
      <trkpt lat="46.29352" lon="6.50825">
        <ele>1175.2</ele>
        <time>2013-03-03T16:45:12.000Z</time>
      </trkpt>
      <trkpt lat="46.29354" lon="6.50825">
        <ele>1175.2</ele>
        <time>2013-03-03T16:45:13.000Z</time>
      </trkpt>
      <trkpt lat="46.29358" lon="6.50826">
        <ele>1174.9</ele>
        <time>2013-03-03T16:45:16.000Z</time>
      </trkpt>
      <trkpt lat="46.29359" lon="6.50827">
        <ele>1174.8</ele>
        <time>2013-03-03T16:45:17.000Z</time>
      </trkpt>
      <trkpt lat="46.29362" lon="6.50827">
        <ele>1175.1</ele>
        <time>2013-03-03T16:45:19.000Z</time>
      </trkpt>
      <trkpt lat="46.29364" lon="6.50828">
        <ele>1175.1</ele>
        <time>2013-03-03T16:45:20.000Z</time>
      </trkpt>
      <trkpt lat="46.29368" lon="6.50829">
        <ele>1175.1</ele>
        <time>2013-03-03T16:45:23.000Z</time>
      </trkpt>
      <trkpt lat="46.29369" lon="6.50829">
        <ele>1175.2</ele>
        <time>2013-03-03T16:45:24.000Z</time>
      </trkpt>
      <trkpt lat="46.29373" lon="6.50829">
        <ele>1174.4</ele>
        <time>2013-03-03T16:45:34.000Z</time>
      </trkpt>
      <trkpt lat="46.29374" lon="6.50829">
        <ele>1174.3</ele>
        <time>2013-03-03T16:45:35.000Z</time>
      </trkpt>
      <trkpt lat="46.29378" lon="6.50831">
        <ele>1174.2</ele>
        <time>2013-03-03T16:45:38.000Z</time>
      </trkpt>
      <trkpt lat="46.29379" lon="6.50831">
        <ele>1174.4</ele>
        <time>2013-03-03T16:45:39.000Z</time>
      </trkpt>
      <trkpt lat="46.29383" lon="6.50833">
        <ele>1174.2</ele>
        <time>2013-03-03T16:45:42.000Z</time>
      </trkpt>
      <trkpt lat="46.29391" lon="6.50847">
        <ele>1174.6</ele>
        <time>2013-03-03T16:45:50.000Z</time>
      </trkpt>
      <trkpt lat="46.29393" lon="6.50849">
        <ele>1172.8</ele>
        <time>2013-03-03T16:45:53.000Z</time>
      </trkpt>
      <trkpt lat="46.29399" lon="6.50854">
        <ele>1173.4</ele>
        <time>2013-03-03T16:45:58.000Z</time>
      </trkpt>
      <trkpt lat="46.29398" lon="6.50848">
        <ele>1173</ele>
        <time>2013-03-03T16:47:34.000Z</time>
      </trkpt>
      <trkpt lat="46.29398" lon="6.50847">
        <ele>1173</ele>
        <time>2013-03-03T16:47:35.000Z</time>
      </trkpt>
      <trkpt lat="46.294" lon="6.5085">
        <ele>1172.8</ele>
        <time>2013-03-03T16:49:31.000Z</time>
      </trkpt>
      <trkpt lat="46.29403" lon="6.50849">
        <ele>1172.9</ele>
        <time>2013-03-03T16:49:32.000Z</time>
      </trkpt>
      <trkpt lat="46.29404" lon="6.50849">
        <ele>1172.9</ele>
        <time>2013-03-03T16:50:10.000Z</time>
      </trkpt>
    </trkseg>
  </trk>
</gpx>